
Distance (Route):
Temperature : 20.0°C
Humidity : 59.4%
Pressure : 938.5hPa| Receiver | Frames | First received | Last received |
|---|---|---|---|
| AA1-15 | 511 | 2026-08-30 11:01:59 | 2026-08-30 12:52:31 |
| DB0DAN | 290 | 2026-08-30 10:52:40 | 2026-08-30 12:56:40 |
| DL1XH-west | 222 | 2026-08-30 11:29:58 | 2026-08-30 12:12:08 |
| SONDE2-12 | 193 | 2026-08-30 10:47:24 | 2026-08-30 12:58:51 |
| KRY50SP-1 | 182 | 2026-08-30 11:02:13 | 2026-08-30 12:58:48 |
| DF8AY | 169 | 2026-08-30 11:20:49 | 2026-08-30 12:05:10 |
| DL1XH1-15 | 151 | 2026-08-30 11:33:05 | 2026-08-30 12:08:30 |
| EDDB2-12 | 87 | 2026-08-30 10:46:13 | 2026-08-30 13:00:44 |
| EDDB2-11 | 77 | 2026-08-30 10:46:07 | 2026-08-30 12:58:33 |
| SQ2ODE-11 | 75 | 2026-08-30 11:36:34 | 2026-08-30 12:46:44 |
| SONDE2-11 | 74 | 2026-08-30 10:45:51 | 2026-08-30 13:00:23 |
| DO2SHX-10 | 67 | 2026-08-30 12:03:43 | 2026-08-30 12:34:41 |
| S3001 | 59 | 2026-08-30 10:57:01 | 2026-08-30 12:54:59 |
| 13BRC | 51 | 2026-08-30 10:53:42 | 2026-08-30 12:29:50 |
| SP3BTT-10 | 50 | 2026-08-30 10:52:28 | 2026-08-30 13:02:01 |
| SP6BVK | 50 | 2026-08-30 11:01:43 | 2026-08-30 12:51:12 |
| SP3WXH-11 | 49 | 2026-08-30 11:11:08 | 2026-08-30 12:59:43 |
| DAC517 | 38 | 2026-08-30 10:50:26 | 2026-08-30 12:50:34 |
| DL2RXE-15 | 33 | 2026-08-30 10:52:18 | 2026-08-30 12:42:01 |
| DJ2DS-15 | 23 | 2026-08-30 11:42:23 | 2026-08-30 12:33:33 |
| DM0DOS-11 | 18 | 2026-08-30 11:22:47 | 2026-08-30 11:47:08 |
| MECKS9 | 16 | 2026-08-30 11:12:03 | 2026-08-30 12:34:37 |
| DC4HF-4 | 11 | 2026-08-30 11:42:47 | 2026-08-30 12:07:26 |
| SONCRA | 10 | 2026-08-30 11:17:48 | 2026-08-30 11:53:31 |
| OK1SLM-15 | 6 | 2026-08-30 12:14:13 | 2026-08-30 12:34:35 |
| DL1XH-15 | 2 | 2026-08-30 12:23:30 | 2026-08-30 12:23:56 |
| Receiver | Date | Latitude | Longitude | Direction | Speed | Altitude | Climb | Temperature | Humidity | Pressure | Voltage | Killtimer | Uptime | BKT | XDATA |
|---|---|---|---|---|---|---|---|---|---|---|---|---|---|---|---|
| SP3BTT-10 | 2026-08-30 13:02:01 | 52.48600 | 15.31724 | 53° | 38km/h | 670m | -9.8m/s | 20.0°C | 59.4% | 938.5hPa | 2.7V | 00:00:00 | 00:00:00 | 00:00:00 | |
| SP3BTT-10 | 2026-08-30 13:01:55 | 52.48567 | 15.31645 | 56° | 40km/h | 727m | -9.2m/s | 19.3°C | 61.5% | 932.1hPa | 2.7V | 08:04:00 | 00:00:00 | 00:00:00 | |
| SP3BTT-10 | 2026-08-30 13:01:49 | 52.48532 | 15.31560 | 55° | 40km/h | 784m | -9.1m/s | 18.8°C | 63.5% | 926.0hPa | 2.7V | 00:00:00 | 00:00:00 | 00:00:00 | |
| SP3BTT-10 | 2026-08-30 13:01:43 | 52.48497 | 15.31476 | 59° | 42km/h | 840m | -9.3m/s | 18.2°C | 65.3% | 920.2hPa | 2.7V | 00:00:00 | 00:00:00 | 00:00:00 | |
| SP3BTT-10 | 2026-08-30 13:01:37 | 52.48462 | 15.31387 | 57° | 44km/h | 896m | -8.8m/s | 17.6°C | 67.6% | 914.1hPa | 2.7V | 00:00:00 | 00:00:00 | 00:00:00 | |
| SP3BTT-10 | 2026-08-30 13:01:31 | 52.48427 | 15.31296 | 56° | 44km/h | 951m | -9.8m/s | 16.9°C | 68.5% | 908.2hPa | 2.7V | 00:00:00 | 00:00:00 | 00:00:00 | |
| SP3BTT-10 | 2026-08-30 13:01:19 | 52.48357 | 15.31114 | 56° | 44km/h | 1059m | -9.2m/s | 15.8°C | 72.0% | 897.0hPa | 2.7V | 00:00:00 | 00:00:00 | 00:00:00 | |
| SP3BTT-10 | 2026-08-30 13:01:13 | 52.48321 | 15.31024 | 58° | 42km/h | 1112m | -7.7m/s | 15.3°C | 74.2% | 891.7hPa | 2.7V | 00:00:00 | 00:00:00 | 00:00:00 | |
| SP3BTT-10 | 2026-08-30 13:01:07 | 52.48287 | 15.30936 | 56° | 42km/h | 1161m | -8.4m/s | 14.8°C | 77.4% | 886.4hPa | 2.7V | 00:00:00 | 00:00:00 | 00:00:00 | |
| SP3BTT-10 | 2026-08-30 13:00:47 | 52.48160 | 15.30649 | 51° | 42km/h | 1329m | -8.4m/s | 13.3°C | 83.2% | 869.1hPa | 2.7V | 08:05:00 | 00:00:00 | 00:00:00 | |
| EDDB2-12 | 2026-08-30 13:00:44 | 52.48094 | 15.30515 | 51° | 42km/h | 1412m | -9.6m/s | 12.6°C | 85.6% | 860.7hPa | 2.7V | 00:00:00 | 00:00:00 | 00:00:00 | |
| SP3BTT-10 | 2026-08-30 13:00:28 | 52.48029 | 15.30383 | 52° | 40km/h | 1498m | -9.5m/s | 11.8°C | 89.8% | 851.6hPa | 2.7V | 00:00:00 | 00:00:00 | 00:00:00 | |
| SONDE2-11 | 2026-08-30 13:00:23 | 52.48003 | 15.30328 | 52° | 40km/h | 1533m | -8.5m/s | 11.5°C | 90.1% | 848.0hPa | 2.7V | 00:00:00 | 00:00:00 | 00:00:00 | |
| EDDB2-12 | 2026-08-30 13:00:13 | 52.47941 | 15.30194 | 54° | 40km/h | 1620m | -10.1m/s | 10.8°C | 91.1% | 839.0hPa | 2.7V | 00:00:00 | 00:00:00 | 00:00:00 | |
| SP3BTT-10 | 2026-08-30 13:00:07 | 52.47906 | 15.30110 | 54° | 42km/h | 1680m | -10.2m/s | 10.3°C | 93.8% | 833.0hPa | 2.7V | 00:00:00 | 00:00:00 | 00:00:00 | |
| SONDE2-11 | 2026-08-30 12:59:52 | 52.47816 | 15.29897 | 56° | 44km/h | 1843m | -13.4m/s | 9.0°C | 93.6% | 817.3hPa | 2.7V | 00:00:00 | 00:00:00 | 00:00:00 | |
| SP3BTT-10 | 2026-08-30 12:59:47 | 52.47787 | 15.29823 | 56° | 46km/h | 1907m | -13.1m/s | 8.5°C | 93.3% | 811.2hPa | 2.7V | 00:00:00 | 00:00:00 | 00:00:00 | |
| SP3WXH-11 | 2026-08-30 12:59:43 | 52.47759 | 15.29749 | 58° | 44km/h | 1973m | -13.4m/s | 8.1°C | 95.3% | 804.7hPa | 2.6V | 00:00:00 | 00:00:00 | 00:00:00 | |
| EDDB2-12 | 2026-08-30 12:59:42 | 52.47759 | 15.29749 | 58° | 44km/h | 1973m | -13.4m/s | 8.1°C | 95.3% | 804.7hPa | 2.6V | 00:00:00 | 00:00:00 | 00:00:00 | |
| SP3BTT-10 | 2026-08-30 12:59:27 | 52.47679 | 15.29494 | 65° | 47km/h | 2167m | -13.6m/s | 6.7°C | 94.2% | 785.8hPa | 2.6V | 00:00:00 | 00:00:00 | 00:00:00 | |
| SONDE2-11 | 2026-08-30 12:59:21 | 52.47647 | 15.29384 | 64° | 46km/h | 2248m | -13.7m/s | 6.2°C | 95.5% | 778.2hPa | 2.6V | 00:00:00 | 00:00:00 | 00:00:00 | |
| SP3WXH-11 | 2026-08-30 12:59:12 | 52.47594 | 15.29202 | 63° | 46km/h | 2382m | -13.5m/s | 5.3°C | 100.0% | 765.5hPa | 2.6V | 00:00:00 | 00:00:00 | 00:00:00 | |
| EDDB2-12 | 2026-08-30 12:59:11 | 52.47594 | 15.29202 | 63° | 46km/h | 2382m | -13.5m/s | 5.3°C | 100.0% | 765.5hPa | 2.6V | 00:00:00 | 00:00:00 | 00:00:00 | |
| SP3BTT-10 | 2026-08-30 12:59:07 | 52.47573 | 15.29131 | 67° | 49km/h | 2436m | -13.9m/s | 4.9°C | 0% | 760.4hPa | 2.6V | 00:00:00 | 00:00:00 | 00:00:00 | |
| SONDE2-12 | 2026-08-30 12:58:51 | 52.47492 | 15.28789 | 69° | 51km/h | 2682m | -14.1m/s | 3.4°C | 107.7% | 738.3hPa | 2.6V | 00:00:00 | 00:00:00 | 00:00:00 | |
| SONDE2-11 | 2026-08-30 12:58:50 | 52.47496 | 15.28809 | 70° | 47km/h | 2668m | -13.4m/s | 3.4°C | 100.0% | 739.5hPa | 2.6V | 00:00:00 | 00:00:00 | 00:00:00 | |
| KRY50SP-1 | 2026-08-30 12:58:48 | 52.47491 | 15.28789 | 70° | 51km/h | 2682m | -14.1m/s | 3.4°C | 0% | 738.3hPa | 2.6V | 00:00:00 | 00:00:00 | 00:00:00 | |
| SP3BTT-10 | 2026-08-30 12:58:47 | 52.47483 | 15.28750 | 72° | 49km/h | 2709m | -12.8m/s | 3.1°C | 0% | 735.8hPa | 2.6V | 00:00:00 | 00:00:00 | 00:00:00 | |
| SP3WXH-11 | 2026-08-30 12:58:41 | 52.47452 | 15.28613 | 69° | 47km/h | 2799m | -12.2m/s | 2.5°C | 100.0% | 727.6hPa | 2.6V | 00:00:00 | 00:00:00 | 00:00:00 | |
| EDDB2-12 | 2026-08-30 12:58:40 | 52.47452 | 15.28613 | 69° | 47km/h | 2799m | -12.2m/s | 2.5°C | 100.0% | 727.6hPa | 2.6V | 00:00:00 | 00:00:00 | 00:00:00 | |
| KRY50SP-1 | 2026-08-30 12:58:38 | 52.47447 | 15.28593 | 70° | 49km/h | 2811m | -12.9m/s | 2.5°C | 0% | 726.6hPa | 2.6V | 08:08:00 | 00:00:00 | 00:00:00 | |
| EDDB2-11 | 2026-08-30 12:58:33 | 52.47419 | 15.28475 | 69° | 49km/h | 2885m | -11.4m/s | 1.9°C | 100.0% | 719.8hPa | 2.6V | 00:00:00 | 00:00:00 | 00:00:00 | |
| KRY50SP-1 | 2026-08-30 12:58:30 | 52.47410 | 15.28437 | 73° | 49km/h | 2909m | -13.8m/s | 1.7°C | 0% | 717.7hPa | 2.6V | 08:08:00 | 00:00:00 | 00:00:00 | |
| SP3BTT-10 | 2026-08-30 12:58:27 | 52.47393 | 15.28358 | 72° | 51km/h | 2963m | -13.1m/s | 1.3°C | 0% | 712.9hPa | 2.6V | 00:00:00 | 00:00:00 | 00:00:00 | |
| KRY50SP-1 | 2026-08-30 12:58:25 | 52.47389 | 15.28339 | 70° | 47km/h | 2976m | -13.1m/s | 1.2°C | 0% | 711.7hPa | 2.6V | 08:08:00 | 00:00:00 | 00:00:00 | |
| SONDE2-11 | 2026-08-30 12:58:19 | 52.47358 | 15.28202 | 68° | 51km/h | 3070m | -14.5m/s | 0.6°C | 100.0% | 703.5hPa | 2.6V | 00:00:00 | 00:00:00 | 00:00:00 | |
| KRY50SP-1 | 2026-08-30 12:58:12 | 52.47330 | 15.28086 | 70° | 53km/h | 3144m | -12.6m/s | 0.2°C | 0% | 697.1hPa | 2.6V | 08:08:00 | 00:00:00 | 00:00:00 | |
| SP3WXH-11 | 2026-08-30 12:58:10 | 52.47311 | 15.28007 | 69° | 51km/h | 3195m | -12.8m/s | -0.2°C | 100.0% | 692.7hPa | 2.6V | 00:00:00 | 00:00:00 | 00:00:00 | |
| EDDB2-12 | 2026-08-30 12:58:09 | 52.47311 | 15.28007 | 69° | 51km/h | 3195m | -12.8m/s | -0.2°C | 100.0% | 692.7hPa | 2.6V | 00:00:00 | 00:00:00 | 00:00:00 | |
| KRY50SP-1 | 2026-08-30 12:58:07 | 52.47301 | 15.27968 | 68° | 51km/h | 3219m | -12.7m/s | -0.3°C | 0% | 690.7hPa | 2.6V | 08:08:00 | 00:00:00 | 00:00:00 | |
| EDDB2-11 | 2026-08-30 12:58:02 | 52.47277 | 15.27869 | 70° | 51km/h | 3281m | -11.9m/s | -0.5°C | 100.0% | 685.2hPa | 2.6V | 00:00:00 | 00:00:00 | 00:00:00 | |
| KRY50SP-1 | 2026-08-30 12:58:01 | 52.47277 | 15.27869 | 72° | 51km/h | 3281m | -11.9m/s | -0.5°C | 0% | 685.2hPa | 2.6V | 08:08:00 | 00:00:00 | 00:00:00 | |
| SONDE2-11 | 2026-08-30 12:57:48 | 52.47217 | 15.27591 | 71° | 47km/h | 3441m | -10.8m/s | -1.6°C | 100.0% | 671.2hPa | 2.6V | 00:00:00 | 00:00:00 | 00:00:00 | |
| KRY50SP-1 | 2026-08-30 12:57:43 | 52.47202 | 15.27509 | 77° | 51km/h | 3485m | -10.4m/s | -1.8°C | 0% | 667.6hPa | 2.6V | 08:09:00 | 00:00:00 | 00:00:00 | |
| SP3WXH-11 | 2026-08-30 12:57:39 | 52.47180 | 15.27379 | 76° | 55km/h | 3553m | -12.8m/s | -2.1°C | 100.0% | 662.1hPa | 2.6V | 00:00:00 | 00:00:00 | 00:00:00 | |
| EDDB2-12 | 2026-08-30 12:57:38 | 52.47180 | 15.27379 | 76° | 55km/h | 3553m | -12.8m/s | -2.1°C | 100.0% | 662.1hPa | 2.6V | 00:00:00 | 00:00:00 | 00:00:00 | |
| SP3BTT-10 | 2026-08-30 12:57:37 | 52.47177 | 15.27356 | 80° | 60km/h | 3566m | -12.2m/s | -2.2°C | 0% | 660.9hPa | 2.6V | 08:08:00 | 00:00:00 | 00:00:00 | |
| KRY50SP-1 | 2026-08-30 12:57:33 | 52.47166 | 15.27264 | 77° | 57km/h | 3612m | -10.8m/s | -2.0°C | 55.7% | 656.9hPa | 2.6V | 08:09:00 | 00:00:00 | 00:00:00 | |
| EDDB2-11 | 2026-08-30 12:57:31 | 52.47160 | 15.27218 | 77° | 60km/h | 3637m | -13.0m/s | -0.8°C | 26.9% | 655.3hPa | 2.6V | 00:00:00 | 00:00:00 | 00:00:00 | |
| KRY50SP-1 | 2026-08-30 12:57:26 | 52.47150 | 15.27118 | 83° | 58km/h | 3684m | -12.6m/s | 1.3°C | 6.1% | 651.3hPa | 2.6V | 08:09:00 | 00:00:00 | 00:00:00 | |
| KRY50SP-1 | 2026-08-30 12:57:21 | 52.47138 | 15.26968 | 84° | 58km/h | 3756m | -11.6m/s | 1.2°C | 4.3% | 645.6hPa | 2.6V | 08:09:00 | 00:00:00 | 00:00:00 | |
| SONDE2-11 | 2026-08-30 12:57:17 | 52.47126 | 15.26845 | 83° | 60km/h | 3814m | -13.4m/s | 0.9°C | 6.2% | 640.8hPa | 2.6V | 00:00:00 | 00:00:00 | 00:00:00 | |
| KRY50SP-1 | 2026-08-30 12:57:14 | 52.47123 | 15.26820 | 80° | 58km/h | 3826m | -10.7m/s | 0.8°C | 9.2% | 639.8hPa | 2.6V | 08:09:00 | 00:00:00 | 00:00:00 | |
| SP3WXH-11 | 2026-08-30 12:57:08 | 52.47097 | 15.26626 | 77° | 58km/h | 3921m | -13.7m/s | 0.3°C | 12.7% | 632.3hPa | 2.6V | 00:00:00 | 00:00:00 | 00:00:00 | |
| SP3BTT-10 | 2026-08-30 12:57:07 | 52.47097 | 15.26625 | 78° | 55km/h | 3922m | -13.6m/s | 0.3°C | 12.9% | 632.2hPa | 2.6V | 00:00:00 | 00:00:00 | 00:00:00 | |
| KRY50SP-1 | 2026-08-30 12:57:03 | 52.47084 | 15.26529 | 78° | 57km/h | 3974m | -12.5m/s | 0.1°C | 12.4% | 628.4hPa | 2.6V | 08:09:00 | 00:00:00 | 00:00:00 | |
| EDDB2-11 | 2026-08-30 12:57:00 | 52.47073 | 15.26458 | 77° | 60km/h | 4008m | -12.6m/s | -0.1°C | 12.5% | 625.6hPa | 2.6V | 00:00:00 | 00:00:00 | 00:00:00 | |
| SONDE2-11 | 2026-08-30 12:56:46 | 52.47020 | 15.26098 | 76° | 55km/h | 4195m | -11.8m/s | -1.5°C | 11.4% | 611.3hPa | 2.6V | 00:00:00 | 00:00:00 | 00:00:00 | |
| KRY50SP-1 | 2026-08-30 12:56:45 | 52.47023 | 15.26121 | 80° | 58km/h | 4182m | -13.2m/s | -1.4°C | 11.6% | 612.4hPa | 2.6V | 08:10:00 | 00:00:00 | 00:00:00 | |
| DB0DAN | 2026-08-30 12:56:40 | 52.47006 | 15.25989 | 76° | 51km/h | 4254m | -13.9m/s | -1.9°C | 10.4% | 606.64hPa | 2.6V | 00:00:00 | 00:00:00 | 00:00:00 | |
| SP3WXH-11 | 2026-08-30 12:56:37 | 52.46995 | 15.25900 | 79° | 53km/h | 4305m | -12.2m/s | -2.3°C | 10.4% | 603.0hPa | 2.5V | 00:00:00 | 00:00:00 | 00:00:00 | |
| EDDB2-12 | 2026-08-30 12:56:36 | 52.46992 | 15.25878 | 78° | 51km/h | 4317m | -11.1m/s | -2.3°C | 11.2% | 602.0hPa | 2.5V | 00:00:00 | 00:00:00 | 00:00:00 | |
| KRY50SP-1 | 2026-08-30 12:56:35 | 52.46992 | 15.25878 | 80° | 51km/h | 4317m | -11.1m/s | -2.3°C | 11.2% | 602.0hPa | 2.5V | 08:10:00 | 00:00:00 | 00:00:00 | |
| EDDB2-11 | 2026-08-30 12:56:29 | 52.46973 | 15.25748 | 76° | 51km/h | 4388m | -12.3m/s | -2.8°C | 9.3% | 596.8hPa | 2.5V | 00:00:00 | 00:00:00 | 00:00:00 | |
| KRY50SP-1 | 2026-08-30 12:56:28 | 52.46973 | 15.25749 | 78° | 53km/h | 4388m | -12.3m/s | -2.8°C | 9.3% | 596.8hPa | 2.5V | 08:10:00 | 00:00:00 | 00:00:00 | |
| DB0DAN | 2026-08-30 12:56:25 | 52.46960 | 15.25660 | 75° | 51km/h | 4438m | -12.7m/s | -2.9°C | 12.4% | 592.98hPa | 2.5V | 00:00:00 | 00:00:00 | 00:00:00 | |
| SONDE2-12 | 2026-08-30 12:56:16 | 52.46919 | 15.25437 | 72° | 47km/h | 4576m | -13.4m/s | -3.5°C | 9.9% | 582.6hPa | 2.6V | 00:00:00 | 00:00:00 | 00:00:00 | |
| SONDE2-11 | 2026-08-30 12:56:15 | 52.46919 | 15.25437 | 72° | 47km/h | 4576m | -13.4m/s | -3.5°C | 9.7% | 582.6hPa | 2.6V | 00:00:00 | 00:00:00 | 00:00:00 | |
| KRY50SP-1 | 2026-08-30 12:56:13 | 52.46915 | 15.25418 | 77° | 49km/h | 4588m | -11.1m/s | -3.6°C | 9.7% | 581.5hPa | 2.6V | 08:10:00 | 00:00:00 | 00:00:00 | |
| DB0DAN | 2026-08-30 12:56:10 | 52.46905 | 15.25358 | 73° | 46km/h | 4624m | -11.3m/s | -3.9°C | 9.7% | 579.11hPa | 2.6V | 00:00:00 | 00:00:00 | 00:00:00 | |
| SP3WXH-11 | 2026-08-30 12:56:06 | 52.46886 | 15.25259 | 71° | 47km/h | 4677m | -9.5m/s | -4.3°C | 9.8% | 574.9hPa | 2.6V | 00:00:00 | 00:00:00 | 00:00:00 | |
| EDDB2-12 | 2026-08-30 12:56:05 | 52.46881 | 15.25240 | 69° | 47km/h | 4687m | -9.4m/s | -4.4°C | 9.9% | 574.2hPa | 2.6V | 00:00:00 | 00:00:00 | 00:00:00 | |
| EDDB2-11 | 2026-08-30 12:55:58 | 52.46856 | 15.25124 | 71° | 49km/h | 4753m | -9.9m/s | -4.9°C | 9.7% | 569.5hPa | 2.6V | 00:00:00 | 00:00:00 | 00:00:00 | |
| DB0DAN | 2026-08-30 12:55:55 | 52.46844 | 15.25066 | 72° | 46km/h | 4780m | -8.8m/s | -5.2°C | 9.9% | 567.53hPa | 2.6V | 00:00:00 | 00:00:00 | 00:00:00 | |
| SONDE2-12 | 2026-08-30 12:55:45 | 52.46792 | 15.24790 | 74° | 49km/h | 4917m | -10.1m/s | -6.2°C | 10.1% | 557.9hPa | 2.6V | 00:00:00 | 00:00:00 | 00:00:00 | |
| KRY50SP-1 | 2026-08-30 12:55:43 | 52.46803 | 15.24850 | 75° | 49km/h | 4888m | -10.0m/s | -6.0°C | 10.0% | 560.0hPa | 2.6V | 08:11:00 | 00:00:00 | 00:00:00 | |
| DB0DAN | 2026-08-30 12:55:40 | 52.46789 | 15.24770 | 74° | 47km/h | 4926m | -9.7m/s | -6.3°C | 10% | 557.1hPa | 2.6V | 00:00:00 | 00:00:00 | 00:00:00 | |
| KRY50SP-1 | 2026-08-30 12:55:39 | 52.46785 | 15.24749 | 76° | 49km/h | 4936m | -9.3m/s | -6.3°C | 9.8% | 556.4hPa | 2.5V | 08:11:00 | 00:00:00 | 00:00:00 | |
| SP3WXH-11 | 2026-08-30 12:55:35 | 52.46769 | 15.24647 | 78° | 51km/h | 4981m | -9.4m/s | -6.7°C | 10.6% | 552.9hPa | 2.5V | 00:00:00 | 00:00:00 | 00:00:00 | |
| EDDB2-12 | 2026-08-30 12:55:34 | 52.46766 | 15.24626 | 77° | 51km/h | 4990m | -9.4m/s | -6.8°C | 10.8% | 552.1hPa | 2.5V | 00:00:00 | 00:00:00 | 00:00:00 | |
| KRY50SP-1 | 2026-08-30 12:55:32 | 52.46766 | 15.24626 | 78° | 51km/h | 4990m | -9.4m/s | -6.8°C | 10.8% | 552.1hPa | 2.5V | 08:11:00 | 00:00:00 | 00:00:00 | |
| EDDB2-11 | 2026-08-30 12:55:27 | 52.46747 | 15.24499 | 77° | 51km/h | 5045m | -9.8m/s | -7.3°C | 10.8% | 547.8hPa | 2.5V | 00:00:00 | 00:00:00 | 00:00:00 | |
| DB0DAN | 2026-08-30 12:55:25 | 52.46741 | 15.24457 | 78° | 51km/h | 5063m | -9.9m/s | -7.5°C | 10.8% | 546.48hPa | 2.5V | 00:00:00 | 00:00:00 | 00:00:00 | |
| SONDE2-12 | 2026-08-30 12:55:14 | 52.46703 | 15.24217 | 72° | 51km/h | 5174m | -9.9m/s | -8.4°C | 11.2% | 538.6hPa | 2.5V | 00:00:00 | 00:00:00 | 00:00:00 | |
| SONDE2-11 | 2026-08-30 12:55:13 | 52.46695 | 15.24176 | 72° | 51km/h | 5193m | -10.0m/s | -8.6°C | 11.1% | 537.2hPa | 2.5V | 00:00:00 | 00:00:00 | 00:00:00 | |
| DB0DAN | 2026-08-30 12:55:10 | 52.46687 | 15.24135 | 73° | 53km/h | 5214m | -12.5m/s | -8.7°C | 11.1% | 535.8hPa | 2.5V | 00:00:00 | 00:00:00 | 00:00:00 | |
| SP3BTT-10 | 2026-08-30 12:55:06 | 52.46670 | 15.24049 | 71° | 58km/h | 5262m | -12.8m/s | -9.1°C | 11.7% | 532.6hPa | 2.6V | 00:00:00 | 00:00:00 | 00:00:00 | |
| SP3WXH-11 | 2026-08-30 12:55:04 | 52.46656 | 15.23986 | 69° | 55km/h | 5298m | -12.7m/s | -9.5°C | 11.2% | 530.2hPa | 2.5V | 00:00:00 | 00:00:00 | 00:00:00 | |
| EDDB2-12 | 2026-08-30 12:55:03 | 52.46651 | 15.23964 | 69° | 57km/h | 5310m | -12.5m/s | -9.6°C | 11.1% | 529.4hPa | 2.5V | 00:00:00 | 00:00:00 | 00:00:00 | |
| S3001 | 2026-08-30 12:54:59 | 52.46636 | 15.23899 | 68° | 57km/h | 5347m | -12.5m/s | -9.8°C | 11.0% | 526.9hPa | 2.5V | 00:00:00 | 00:00:00 | 00:00:00 | |
| EDDB2-11 | 2026-08-30 12:54:56 | 52.46619 | 15.23834 | 67° | 57km/h | 5383m | -12.6m/s | -10.0°C | 10.7% | 524.5hPa | 2.5V | 00:00:00 | 00:00:00 | 00:00:00 | |
| DB0DAN | 2026-08-30 12:54:55 | 52.46614 | 15.23812 | 69° | 55km/h | 5395m | -12.6m/s | -10.1°C | 10.6% | 523.66hPa | 2.5V | 00:00:00 | 00:00:00 | 00:00:00 | |
| KRY50SP-1 | 2026-08-30 12:54:52 | 52.46603 | 15.23768 | 70° | 58km/h | 5419m | -13.2m/s | -10.3°C | 10.6% | 521.9hPa | 2.6V | 08:12:00 | 00:00:00 | 00:00:00 | |
| KRY50SP-1 | 2026-08-30 12:54:46 | 52.46571 | 15.23631 | 70° | 58km/h | 5495m | -13.3m/s | -10.8°C | 10.2% | 517.1hPa | 2.6V | 08:12:00 | 00:00:00 | 00:00:00 | |
| DB0DAN | 2026-08-30 12:54:40 | 52.46536 | 15.23472 | 70° | 55km/h | 5588m | -14.4m/s | -11.4°C | 10.5% | 511.2hPa | 2.6V | 00:00:00 | 00:00:00 | 00:00:00 | |
| KRY50SP-1 | 2026-08-30 12:54:34 | 52.46510 | 15.23354 | 71° | 60km/h | 5660m | -13.9m/s | -12.0°C | 10.7% | 506.7hPa | 2.5V | 08:12:00 | 00:00:00 | 00:00:00 | |
| EDDB2-12 | 2026-08-30 12:54:32 | 52.46489 | 15.23265 | 68° | 55km/h | 5711m | -13.2m/s | -12.3°C | 10.5% | 503.0hPa | 2.5V | 00:00:00 | 00:00:00 | 00:00:00 | |
| S3001 | 2026-08-30 12:54:28 | 52.46468 | 15.23174 | 71° | 60km/h | 5768m | -14.2m/s | -12.8°C | 11.4% | 499.3hPa | 2.5V | 00:00:00 | 00:00:00 | 00:00:00 | |
| DB0DAN | 2026-08-30 12:54:25 | 52.46459 | 15.23126 | 75° | 55km/h | 5794m | -14.3m/s | -13°C | 11.7% | 497.67hPa | 2.5V | 00:00:00 | 00:00:00 | 00:00:00 | |
| SONDE2-12 | 2026-08-30 12:54:12 | 52.46367 | 15.22708 | 68° | 58km/h | 6054m | -15.0m/s | -15.2°C | 13.1% | 481.0hPa | 2.6V | 00:00:00 | 00:00:00 | 00:00:00 | |
| DB0DAN | 2026-08-30 12:54:10 | 52.46383 | 15.22779 | 71° | 58km/h | 6009m | -15.3m/s | -14.8°C | 12.4% | 483.86hPa | 2.6V | 00:00:00 | 00:00:00 | 00:00:00 | |
| KRY50SP-1 | 2026-08-30 12:54:09 | 52.46377 | 15.22754 | 72° | 62km/h | 6024m | -16.2m/s | -15.0°C | 12.4% | 483.0hPa | 2.5V | 08:12:00 | 00:00:00 | 00:00:00 | |
| SP3WXH-11 | 2026-08-30 12:54:02 | 52.46336 | 15.22563 | 70° | 58km/h | 6141m | -14.2m/s | -15.9°C | 12.8% | 475.5hPa | 2.5V | 00:00:00 | 00:00:00 | 00:00:00 | |
| EDDB2-12 | 2026-08-30 12:54:00 | 52.46331 | 15.22539 | 70° | 58km/h | 6155m | -15.8m/s | -16.1°C | 12.7% | 474.7hPa | 2.5V | 00:00:00 | 00:00:00 | 00:00:00 | |
| S3001 | 2026-08-30 12:53:57 | 52.46303 | 15.22392 | 72° | 58km/h | 6237m | -14.6m/s | -16.8°C | 13.4% | 469.3hPa | 2.5V | 00:00:00 | 00:00:00 | 00:00:00 | |
| DB0DAN | 2026-08-30 12:53:55 | 52.46308 | 15.22416 | 73° | 57km/h | 6224m | -13.6m/s | -16.7°C | 13.3% | 470.14hPa | 2.5V | 00:00:00 | 00:00:00 | 00:00:00 | |
| EDDB2-11 | 2026-08-30 12:53:54 | 52.46303 | 15.22392 | 72° | 58km/h | 6237m | -14.6m/s | -16.8°C | 13.4% | 469.3hPa | 2.6V | 00:00:00 | 00:00:00 | 00:00:00 | |
| SONDE2-12 | 2026-08-30 12:53:41 | 52.46234 | 15.22093 | 66° | 57km/h | 6414m | -14.1m/s | -18.2°C | 17.7% | 458.2hPa | 2.6V | 00:00:00 | 00:00:00 | 00:00:00 | |
| SONDE2-11 | 2026-08-30 12:53:39 | 52.46222 | 15.22047 | 68° | 62km/h | 6441m | -14.8m/s | -18.4°C | 17.7% | 456.5hPa | 2.6V | 00:00:00 | 00:00:00 | 00:00:00 | |
| KRY50SP-1 | 2026-08-30 12:53:38 | 52.46222 | 15.22047 | 70° | 62km/h | 6442m | -14.8m/s | -18.4°C | 17.7% | 456.5hPa | 2.6V | 08:12:00 | 00:00:00 | 00:00:00 | |
| KRY50SP-1 | 2026-08-30 12:53:33 | 52.46197 | 15.21928 | 75° | 60km/h | 6511m | -13.7m/s | -18.9°C | 17.3% | 452.5hPa | 2.6V | 08:13:00 | 00:00:00 | 00:00:00 | |
| SP3WXH-11 | 2026-08-30 12:53:30 | 52.46177 | 15.21828 | 73° | 62km/h | 6562m | -12.3m/s | -19.2°C | 15.5% | 449.2hPa | 2.6V | 00:00:00 | 00:00:00 | 00:00:00 | |
| EDDB2-12 | 2026-08-30 12:53:29 | 52.46172 | 15.21803 | 73° | 62km/h | 6575m | -12.1m/s | -19.2°C | 16.6% | 448.6hPa | 2.6V | 00:00:00 | 00:00:00 | 00:00:00 | |
| KRY50SP-1 | 2026-08-30 12:53:28 | 52.46172 | 15.21803 | 74° | 62km/h | 6575m | -12.1m/s | -19.2°C | 16.6% | 448.6hPa | 2.6V | 08:13:00 | 00:00:00 | 00:00:00 | |
| DB0DAN | 2026-08-30 12:53:25 | 52.46154 | 15.21700 | 75° | 66km/h | 6628m | -14.5m/s | -19.5°C | 23.9% | 445.44hPa | 2.6V | 00:00:00 | 00:00:00 | 00:00:00 | |
| KRY50SP-1 | 2026-08-30 12:53:23 | 52.46146 | 15.21645 | 79° | 69km/h | 6657m | -13.9m/s | -19.7°C | 25.0% | 443.8hPa | 2.5V | 08:13:00 | 00:00:00 | 00:00:00 | |
| KRY50SP-1 | 2026-08-30 12:53:16 | 52.46121 | 15.21476 | 78° | 73km/h | 6739m | -13.3m/s | -19.9°C | 23.3% | 439.0hPa | 2.5V | 08:13:00 | 00:00:00 | 00:00:00 | |
| DB0DAN | 2026-08-30 12:53:10 | 52.46094 | 15.21276 | 75° | 68km/h | 6827m | -13.3m/s | -20.6°C | 25.7% | 433.64hPa | 2.5V | 00:00:00 | 00:00:00 | 00:00:00 | |
| SONDE2-11 | 2026-08-30 12:53:08 | 52.46086 | 15.21220 | 76° | 71km/h | 6855m | -14.8m/s | -20.8°C | 26.7% | 432.1hPa | 2.6V | 00:00:00 | 00:00:00 | 00:00:00 | |
| SP3BTT-10 | 2026-08-30 12:53:06 | 52.46078 | 15.21162 | 78° | 73km/h | 6883m | -14.0m/s | -21.0°C | 29.7% | 430.4hPa | 2.6V | 00:00:00 | 00:00:00 | 00:00:00 | |
| KRY50SP-1 | 2026-08-30 12:53:05 | 52.46078 | 15.21162 | 79° | 71km/h | 6883m | -14.1m/s | -21.1°C | 28.0% | 430.5hPa | 2.6V | 08:13:00 | 00:00:00 | 00:00:00 | |
| SP3WXH-11 | 2026-08-30 12:53:00 | 52.46052 | 15.20966 | 78° | 71km/h | 6974m | -14.4m/s | -21.8°C | 29.9% | 425.1hPa | 2.6V | 00:00:00 | 00:00:00 | 00:00:00 | |
| EDDB2-12 | 2026-08-30 12:52:58 | 52.46049 | 15.20937 | 79° | 71km/h | 6988m | -14.4m/s | -21.9°C | 30.0% | 424.4hPa | 2.6V | 00:00:00 | 00:00:00 | 00:00:00 | |
| S3001 | 2026-08-30 12:52:55 | 52.46039 | 15.20850 | 78° | 68km/h | 7029m | -13.2m/s | -22.2°C | 29.5% | 422.0hPa | 2.6V | 00:00:00 | 00:00:00 | 00:00:00 | |
| EDDB2-11 | 2026-08-30 12:52:52 | 52.46029 | 15.20767 | 79° | 68km/h | 7068m | -13.6m/s | -22.5°C | 28.3% | 419.8hPa | 2.6V | 00:00:00 | 00:00:00 | 00:00:00 | |
| KRY50SP-1 | 2026-08-30 12:52:49 | 52.46022 | 15.20712 | 80° | 69km/h | 7095m | -14.3m/s | -22.7°C | 28.0% | 418.1hPa | 2.6V | 08:13:00 | 00:00:00 | 00:00:00 | |
| KRY50SP-1 | 2026-08-30 12:52:44 | 52.46008 | 15.20566 | 82° | 71km/h | 7159m | -12.4m/s | -23.0°C | 33.1% | 414.4hPa | 2.6V | 08:13:00 | 00:00:00 | 00:00:00 | |
| DB0DAN | 2026-08-30 12:52:40 | 52.45992 | 15.20420 | 81° | 69km/h | 7225m | -13.7m/s | -23.6°C | 41.1% | 410.64hPa | 2.6V | 00:00:00 | 00:00:00 | 00:00:00 | |
| AA1-15 | 2026-08-30 12:52:31 | 52.45964 | 15.20145 | 80° | 77km/h | 7346m | -14m/s | -24.6°C | 61.5% | 403.9hPa | 2.5V | 08:17:12 | 02:41:17 | 00:00:00 | |
| AA1-15 | 2026-08-30 12:52:20 | 52.45922 | 15.19814 | 78° | 77km/h | 7493m | -14.2m/s | -26°C | 66.6% | 395.7hPa | 2.6V | 08:17:12 | 02:41:06 | 00:00:00 | |
| SP3BTT-10 | 2026-08-30 12:52:20 | 52.45922 | 15.19814 | 79° | 73km/h | 7493m | -14.2m/s | -25.9°C | 61.5% | 395.7hPa | 2.6V | 00:00:00 | 00:00:00 | 00:00:00 | |
| KRY50SP-1 | 2026-08-30 12:52:17 | 52.45914 | 15.19753 | 80° | 77km/h | 7521m | -14.4m/s | -26.2°C | 58.9% | 394.2hPa | 2.6V | 08:14:00 | 00:00:00 | 00:00:00 | |
| KRY50SP-1 | 2026-08-30 12:52:12 | 52.45897 | 15.19598 | 81° | 77km/h | 7593m | -13.9m/s | -26.8°C | 56.6% | 390.6hPa | 2.6V | 08:14:00 | 00:00:00 | 00:00:00 | |
| DB0DAN | 2026-08-30 12:52:10 | 52.45886 | 15.19504 | 81° | 73km/h | 7636m | -14.9m/s | -27.1°C | 53.9% | 388.35hPa | 2.6V | 00:00:00 | 00:00:00 | 00:00:00 | |
| SONDE2-12 | 2026-08-30 12:52:08 | 52.45880 | 15.19443 | 79° | 73km/h | 7663m | -13.6m/s | -27.4°C | 60.2% | 386.9hPa | 2.5V | 00:00:00 | 00:00:00 | 00:00:00 | |
| KRY50SP-1 | 2026-08-30 12:52:07 | 52.45880 | 15.19443 | 80° | 73km/h | 7663m | -13.6m/s | -27.4°C | 58.0% | 386.9hPa | 2.5V | 08:14:00 | 00:00:00 | 00:00:00 | |
| SONDE2-11 | 2026-08-30 12:52:06 | 52.45873 | 15.19382 | 78° | 73km/h | 7692m | -13.7m/s | -27.6°C | 59.2% | 385.4hPa | 2.5V | 00:00:00 | 00:00:00 | 00:00:00 | |
| KRY50SP-1 | 2026-08-30 12:52:01 | 52.45857 | 15.19262 | 78° | 73km/h | 7747m | -14.1m/s | -28.1°C | 62.3% | 382.4hPa | 2.5V | 08:14:00 | 00:00:00 | 00:00:00 | |
| SP3WXH-11 | 2026-08-30 12:51:57 | 52.45837 | 15.19108 | 77° | 73km/h | 7814m | -13.3m/s | -28.7°C | 61.4% | 378.8hPa | 2.5V | 00:00:00 | 00:00:00 | 00:00:00 | |
| EDDB2-12 | 2026-08-30 12:51:56 | 52.45833 | 15.19078 | 77° | 73km/h | 7828m | -13.5m/s | -28.8°C | 60.5% | 378.1hPa | 2.5V | 00:00:00 | 00:00:00 | 00:00:00 | |
| DB0DAN | 2026-08-30 12:51:55 | 52.45830 | 15.19048 | 79° | 71km/h | 7842m | -14.1m/s | -29°C | 60% | 377.47hPa | 2.5V | 00:00:00 | 00:00:00 | 00:00:00 | |
| S3001 | 2026-08-30 12:51:53 | 52.45823 | 15.18987 | 77° | 73km/h | 7869m | -12.6m/s | -29.2°C | 58.7% | 375.8hPa | 2.5V | 00:00:00 | 00:00:00 | 00:00:00 | |
| EDDB2-11 | 2026-08-30 12:51:50 | 52.45807 | 15.18868 | 76° | 71km/h | 7922m | -13.8m/s | -29.7°C | 63.5% | 373.1hPa | 2.5V | 00:00:00 | 00:00:00 | 00:00:00 | |
| KRY50SP-1 | 2026-08-30 12:51:44 | 52.45792 | 15.18750 | 78° | 71km/h | 7978m | -14.3m/s | -30.2°C | 61.9% | 370.2hPa | 2.5V | 08:15:00 | 00:00:00 | 00:00:00 | |
| DB0DAN | 2026-08-30 12:51:40 | 52.45774 | 15.18602 | 79° | 69km/h | 8050m | -14.5m/s | -30.8°C | 62.6% | 366.53hPa | 2.5V | 00:00:00 | 00:00:00 | 00:00:00 | |
| SONDE2-12 | 2026-08-30 12:51:37 | 52.45763 | 15.18515 | 77° | 69km/h | 8091m | -12.9m/s | -31.2°C | 69.6% | 364.3hPa | 2.5V | 00:00:00 | 00:00:00 | 00:00:00 | |
| AA1-15 | 2026-08-30 12:51:35 | 52.45756 | 15.18455 | 79° | 73km/h | 8118m | -15.2m/s | -31.4°C | 79.3% | 362.9hPa | 2.5V | 08:17:12 | 02:40:21 | 00:00:00 | |
| KRY50SP-1 | 2026-08-30 12:51:32 | 52.45749 | 15.18395 | 79° | 71km/h | 8149m | -14.8m/s | -31.7°C | 77.9% | 361.3hPa | 2.6V | 08:15:00 | 00:00:00 | 00:00:00 | |
| KRY50SP-1 | 2026-08-30 12:51:27 | 52.45730 | 15.18250 | 78° | 73km/h | 8218m | -15.4m/s | -32.2°C | 86.8% | 357.7hPa | 2.6V | 08:15:00 | 00:00:00 | 00:00:00 | |
| DB0DAN | 2026-08-30 12:51:25 | 52.45718 | 15.18163 | 76° | 69km/h | 8263m | -16m/s | -32.5°C | 87% | 355.43hPa | 2.6V | 00:00:00 | 00:00:00 | 00:00:00 | |
| S3001 | 2026-08-30 12:51:22 | 52.45706 | 15.18075 | 79° | 73km/h | 8311m | -16.8m/s | -32.9°C | 87.4% | 353.0hPa | 2.6V | 00:00:00 | 00:00:00 | 00:00:00 | |
| EDDB2-11 | 2026-08-30 12:51:19 | 52.45693 | 15.17955 | 79° | 73km/h | 8371m | -15.2m/s | -33.4°C | 86.9% | 350.0hPa | 2.6V | 00:00:00 | 00:00:00 | 00:00:00 | |
| KRY50SP-1 | 2026-08-30 12:51:17 | 52.45692 | 15.17955 | 80° | 75km/h | 8371m | -15.2m/s | -33.4°C | 86.9% | 350.0hPa | 2.6V | 08:15:00 | 00:00:00 | 00:00:00 | |
| SP6BVK | 2026-08-30 12:51:12 | 52.45671 | 15.17779 | 79° | 75km/h | 8453m | -14.6m/s | -34.1°C | 75.6% | 345.7hPa | 2.6V | 08:15:00 | 00:00:00 | 00:00:00 | |
| DB0DAN | 2026-08-30 12:51:10 | 52.45664 | 15.17719 | 79° | 71km/h | 8482m | -15.5m/s | -34.3°C | 69.1% | 344.3hPa | 2.6V | 00:00:00 | 00:00:00 | 00:00:00 | |
| SONDE2-12 | 2026-08-30 12:51:06 | 52.45650 | 15.17598 | 81° | 75km/h | 8545m | -16.8m/s | -34.5°C | 64.3% | 341.3hPa | 2.5V | 00:00:00 | 00:00:00 | 00:00:00 | |
| SONDE2-11 | 2026-08-30 12:51:04 | 52.45644 | 15.17535 | 80° | 77km/h | 8576m | -16.1m/s | -34.8°C | 61.1% | 339.8hPa | 2.5V | 00:00:00 | 00:00:00 | 00:00:00 | |
| KRY50SP-1 | 2026-08-30 12:51:01 | 52.45638 | 15.17472 | 82° | 78km/h | 8608m | -15.8m/s | -35.0°C | 61.5% | 338.4hPa | 2.5V | 08:15:00 | 00:00:00 | 00:00:00 | |
| KRY50SP-1 | 2026-08-30 12:50:56 | 52.45621 | 15.17313 | 82° | 77km/h | 8686m | -14.5m/s | -35.6°C | 62.1% | 334.8hPa | 2.5V | 08:16:00 | 00:00:00 | 00:00:00 | |
| DB0DAN | 2026-08-30 12:50:55 | 52.45615 | 15.17248 | 81° | 77km/h | 8716m | -15m/s | -35.9°C | 61.4% | 333.41hPa | 2.5V | 00:00:00 | 00:00:00 | 00:00:00 | |
| EDDB2-12 | 2026-08-30 12:50:54 | 52.45612 | 15.17214 | 81° | 80km/h | 8730m | -14.9m/s | -35.9°C | 61.0% | 332.7hPa | 2.5V | 00:00:00 | 00:00:00 | 00:00:00 | |
| S3001 | 2026-08-30 12:50:51 | 52.45604 | 15.17116 | 81° | 78km/h | 8777m | -15.1m/s | -36.3°C | 60.3% | 330.6hPa | 2.5V | 00:00:00 | 00:00:00 | 00:00:00 | |
| EDDB2-11 | 2026-08-30 12:50:48 | 52.45593 | 15.16986 | 83° | 77km/h | 8836m | -14.9m/s | -36.6°C | 58.2% | 327.7hPa | 2.5V | 00:00:00 | 00:00:00 | 00:00:00 | |
| KRY50SP-1 | 2026-08-30 12:50:45 | 52.45589 | 15.16922 | 84° | 78km/h | 8867m | -15.4m/s | -36.9°C | 58.8% | 326.2hPa | 2.5V | 08:16:00 | 00:00:00 | 00:00:00 | |
| DB0DAN | 2026-08-30 12:50:40 | 52.45577 | 15.16762 | 83° | 73km/h | 8946m | -16.1m/s | -37.6°C | 59.3% | 322.49hPa | 2.5V | 00:00:00 | 00:00:00 | 00:00:00 | |
| SONDE2-12 | 2026-08-30 12:50:35 | 52.45566 | 15.16605 | 84° | 78km/h | 9028m | -15.3m/s | -38.2°C | 61.7% | 318.6hPa | 2.5V | 00:00:00 | 00:00:00 | 00:00:00 | |
| DAC517 | 2026-08-30 12:50:34 | 52.45566 | 15.16605 | 86° | 78km/h | 9028m | -15.3m/s | -38.2°C | 58.8% | 318.6hPa | 2.5V | 00:00:00 | 00:00:00 | 00:00:00 | |
| SONDE2-11 | 2026-08-30 12:50:33 | 52.45562 | 15.16540 | 84° | 78km/h | 9056m | -14.6m/s | -38.4°C | 59.8% | 317.2hPa | 2.5V | 00:00:00 | 00:00:00 | 00:00:00 | |
| SP6BVK | 2026-08-30 12:50:31 | 52.45560 | 15.16507 | 86° | 80km/h | 9072m | -16.5m/s | -38.6°C | 60.3% | 316.5hPa | 2.5V | 08:16:00 | 00:00:00 | 00:00:00 | |
| KRY50SP-1 | 2026-08-30 12:50:28 | 52.45553 | 15.16408 | 84° | 80km/h | 9121m | -17.2m/s | -39.0°C | 62.2% | 314.2hPa | 2.5V | 08:16:00 | 00:00:00 | 00:00:00 | |
| DB0DAN | 2026-08-30 12:50:25 | 52.45544 | 15.16271 | 84° | 82km/h | 9184m | -15.4m/s | -39.5°C | 63.2% | 311.32hPa | 2.5V | 00:00:00 | 00:00:00 | 00:00:00 | |
| AA1-15 | 2026-08-30 12:50:24 | 52.45541 | 15.16236 | 83° | 86km/h | 9200m | -17.1m/s | -39.7°C | 72.4% | 310.7hPa | 2.6V | 08:17:12 | 02:39:10 | 00:00:00 | |
| AA1-15 | 2026-08-30 12:50:12 | 52.45492 | 15.15813 | 76° | 84km/h | 9387m | -14.5m/s | -41°C | 72.4% | 302.2hPa | 2.6V | 08:17:12 | 02:38:58 | 00:00:00 | |
| KRY50SP-1 | 2026-08-30 12:50:11 | 52.45492 | 15.15812 | 77° | 84km/h | 9387m | -14.5m/s | -41.0°C | 62.1% | 302.2hPa | 2.5V | 08:16:00 | 00:00:00 | 00:00:00 | |
| DB0DAN | 2026-08-30 12:50:10 | 52.45481 | 15.15745 | 76° | 80km/h | 9415m | -15.9m/s | -41.3°C | 61.6% | 300.97hPa | 2.5V | 00:00:00 | 00:00:00 | 00:00:00 | |
| SONDE2-12 | 2026-08-30 12:50:04 | 52.45448 | 15.15544 | 75° | 84km/h | 9512m | -17.0m/s | -42.0°C | 66.5% | 296.7hPa | 2.5V | 00:00:00 | 00:00:00 | 00:00:00 | |
| AA1-15 | 2026-08-30 12:49:55 | 52.45399 | 15.15236 | 74° | 86km/h | 9654m | -16.2m/s | -43.2°C | 78.9% | 290.3hPa | 2.5V | 08:17:12 | 02:38:41 | 00:00:00 | |
| DB0DAN | 2026-08-30 12:49:55 | 52.45399 | 15.15236 | 74° | 80km/h | 9654m | -16.2m/s | -43.2°C | 67% | 290.33hPa | 2.5V | 00:00:00 | 00:00:00 | 00:00:00 | |
| SP3WXH-11 | 2026-08-30 12:49:53 | 52.45388 | 15.15167 | 76° | 86km/h | 9685m | -16.6m/s | -43.5°C | 66.6% | 289.0hPa | 2.6V | 00:00:00 | 00:00:00 | 00:00:00 | |
| EDDB2-12 | 2026-08-30 12:49:52 | 52.45383 | 15.15133 | 76° | 86km/h | 9701m | -16.8m/s | -43.6°C | 66.2% | 288.3hPa | 2.6V | 00:00:00 | 00:00:00 | 00:00:00 | |
| S3001 | 2026-08-30 12:49:49 | 52.45364 | 15.14996 | 77° | 84km/h | 9769m | -17.7m/s | -44.2°C | 65.1% | 285.5hPa | 2.6V | 00:00:00 | 00:00:00 | 00:00:00 | |
| EDDB2-11 | 2026-08-30 12:49:46 | 52.45349 | 15.14892 | 77° | 84km/h | 9821m | -15.0m/s | -44.6°C | 65.0% | 283.4hPa | 2.6V | 00:00:00 | 00:00:00 | 00:00:00 | |
| AA1-15 | 2026-08-30 12:49:43 | 52.45340 | 15.14823 | 78° | 86km/h | 9851m | -15m/s | -44.9°C | 77.2% | 282.1hPa | 2.6V | 08:17:12 | 02:38:29 | 00:00:00 | |
| SONDE2-12 | 2026-08-30 12:49:33 | 52.45289 | 15.14439 | 79° | 89km/h | 10038m | -18.5m/s | -46.5°C | 65.4% | 274.4hPa | 2.5V | 00:00:00 | 00:00:00 | 00:00:00 | |
| AA1-15 | 2026-08-30 12:49:32 | 52.45289 | 15.14439 | 79° | 89km/h | 10038m | -18.5m/s | -46.5°C | 74% | 274.4hPa | 2.5V | 08:17:12 | 02:38:18 | 00:00:00 | |
| SONDE2-11 | 2026-08-30 12:49:31 | 52.45285 | 15.14403 | 80° | 86km/h | 10056m | -17.7m/s | -46.6°C | 61.8% | 273.7hPa | 2.5V | 00:00:00 | 00:00:00 | 00:00:00 | |
| SP6BVK | 2026-08-30 12:49:30 | 52.45280 | 15.14368 | 80° | 86km/h | 10073m | -17.0m/s | -46.8°C | 62.1% | 272.9hPa | 2.5V | 08:17:00 | 00:00:00 | 00:00:00 | |
| KRY50SP-1 | 2026-08-30 12:49:27 | 52.45272 | 15.14297 | 80° | 89km/h | 10105m | -17.3m/s | -47.1°C | 62.0% | 271.6hPa | 2.5V | 08:17:00 | 00:00:00 | 00:00:00 | |
| DB0DAN | 2026-08-30 12:49:25 | 52.45259 | 15.14188 | 80° | 86km/h | 10157m | -17.1m/s | -47.6°C | 61.2% | 269.56hPa | 2.5V | 00:00:00 | 00:00:00 | 00:00:00 | |
| AA1-15 | 2026-08-30 12:49:22 | 52.45242 | 15.14045 | 79° | 86km/h | 10222m | -15.9m/s | -48.1°C | 68.2% | 266.8hPa | 2.5V | 08:17:12 | 02:38:07 | 00:00:00 | |
| AA1-15 | 2026-08-30 12:49:12 | 52.45202 | 15.13735 | 79° | 86km/h | 10370m | -17.7m/s | -49.1°C | 56.1% | 260.8hPa | 2.6V | 08:18:54 | 02:37:58 | 00:00:00 | |
| KRY50SP-1 | 2026-08-30 12:49:11 | 52.45203 | 15.13735 | 80° | 86km/h | 10370m | -17.7m/s | -49.1°C | 45.2% | 260.8hPa | 2.5V | 08:18:00 | 00:00:00 | 00:00:00 | |
| DB0DAN | 2026-08-30 12:49:10 | 52.45194 | 15.13666 | 78° | 82km/h | 10404m | -16.3m/s | -49.3°C | 43.8% | 259.47hPa | 2.5V | 00:00:00 | 00:00:00 | 00:00:00 | |
| SONDE2-12 | 2026-08-30 12:49:02 | 52.45150 | 15.13360 | 76° | 84km/h | 10554m | -19.3m/s | -49.9°C | 44.5% | 253.8hPa | 2.6V | 00:00:00 | 00:00:00 | 00:00:00 | |
| AA1-15 | 2026-08-30 12:48:58 | 52.45135 | 15.13260 | 77° | 84km/h | 10607m | -17.7m/s | -50.3°C | 55.2% | 251.5hPa | 2.6V | 08:18:54 | 02:37:44 | 00:00:00 | |
| KRY50SP-1 | 2026-08-30 12:48:56 | 52.45130 | 15.13227 | 78° | 84km/h | 10624m | -16.8m/s | -50.4°C | 44.4% | 250.9hPa | 2.5V | 08:18:00 | 00:00:00 | 00:00:00 | |
| DB0DAN | 2026-08-30 12:48:55 | 52.45120 | 15.13160 | 75° | 78km/h | 10659m | -17.7m/s | -50.8°C | 44.7% | 249.59hPa | 2.5V | 00:00:00 | 00:00:00 | 00:00:00 | |
| AA1-15 | 2026-08-30 12:48:47 | 52.45076 | 15.12895 | 73° | 84km/h | 10810m | -19.9m/s | -52.1°C | 51.2% | 243.9hPa | 2.5V | 08:18:54 | 02:37:33 | 00:00:00 | |
| EDDB2-11 | 2026-08-30 12:48:44 | 52.45054 | 15.12758 | 74° | 82km/h | 10887m | -17.8m/s | -52.6°C | 38.3% | 241.0hPa | 2.5V | 00:00:00 | 00:00:00 | 00:00:00 | |
| DAC517 | 2026-08-30 12:48:41 | 52.45048 | 15.12725 | 75° | 82km/h | 10904m | -17.2m/s | -52.8°C | 37.4% | 240.4hPa | 2.5V | 00:00:00 | 00:00:00 | 00:00:00 | |
| DB0DAN | 2026-08-30 12:48:40 | 52.45037 | 15.12660 | 76° | 78km/h | 10938m | -17.7m/s | -53°C | 34.3% | 239.14hPa | 2.5V | 00:00:00 | 00:00:00 | 00:00:00 | |
| AA1-15 | 2026-08-30 12:48:37 | 52.45021 | 15.12561 | 75° | 82km/h | 10992m | -18.6m/s | -53.3°C | 37.8% | 237.1hPa | 2.6V | 08:18:54 | 02:37:23 | 00:00:00 | |
| SONDE2-12 | 2026-08-30 12:48:31 | 52.44981 | 15.12335 | 75° | 78km/h | 11127m | -19.9m/s | -53.4°C | 25.5% | 232.2hPa | 2.6V | 00:00:00 | 00:00:00 | 00:00:00 | |
| AA1-15 | 2026-08-30 12:48:27 | 52.44966 | 15.12241 | 74° | 77km/h | 11188m | -21.3m/s | -53.8°C | 28.7% | 230.1hPa | 2.6V | 08:18:54 | 02:37:13 | 00:00:00 | |
| DB0DAN | 2026-08-30 12:48:25 | 52.44957 | 15.12177 | 77° | 73km/h | 11229m | -18.6m/s | -53.9°C | 22.2% | 228.59hPa | 2.5V | 00:00:00 | 00:00:00 | 00:00:00 | |
| KRY50SP-1 | 2026-08-30 12:48:23 | 52.44952 | 15.12147 | 77° | 77km/h | 11247m | -18.9m/s | -54.0°C | 21.6% | 227.9hPa | 2.5V | 08:18:00 | 00:00:00 | 00:00:00 | |
| AA1-15 | 2026-08-30 12:48:03 | 52.44832 | 15.11476 | 76° | 91km/h | 11679m | -20.4m/s | -53.3°C | 10.2% | 213.2hPa | 2.5V | 08:18:54 | 02:36:49 | 00:00:00 | |
| SONDE2-12 | 2026-08-30 12:48:00 | 52.44810 | 15.11328 | 76° | 89km/h | 11764m | -20.6m/s | -53.1°C | 7.1% | 210.6hPa | 2.6V | 00:00:00 | 00:00:00 | 00:00:00 | |
| SONDE2-11 | 2026-08-30 12:47:58 | 52.44799 | 15.11256 | 73° | 88km/h | 11804m | -20.2m/s | -53.0°C | 6.0% | 209.2hPa | 2.6V | 00:00:00 | 00:00:00 | 00:00:00 | |
| KRY50SP-1 | 2026-08-30 12:47:56 | 52.44799 | 15.11256 | 75° | 89km/h | 11804m | -20.2m/s | -53.0°C | 6.0% | 209.2hPa | 2.6V | 08:18:00 | 00:00:00 | 00:00:00 | |
| DB0DAN | 2026-08-30 12:47:55 | 52.44788 | 15.11185 | 76° | 84km/h | 11844m | -20.3m/s | -52.8°C | 5.5% | 207.83hPa | 2.6V | 00:00:00 | 00:00:00 | 00:00:00 | |
| AA1-15 | 2026-08-30 12:47:53 | 52.44773 | 15.11078 | 79° | 88km/h | 11907m | -21.3m/s | -52.8°C | 6.5% | 206hPa | 2.5V | 08:18:54 | 02:36:38 | 00:00:00 | |
| SP3WXH-11 | 2026-08-30 12:47:49 | 52.44762 | 15.10972 | 81° | 84km/h | 11969m | -19.9m/s | -52.3°C | 5.1% | 204.0hPa | 2.6V | 00:00:00 | 00:00:00 | 00:00:00 | |
| EDDB2-12 | 2026-08-30 12:47:48 | 52.44759 | 15.10937 | 80° | 82km/h | 11989m | -19.9m/s | -52.3°C | 5.0% | 203.3hPa | 2.6V | 00:00:00 | 00:00:00 | 00:00:00 | |
| S3001 | 2026-08-30 12:47:45 | 52.44746 | 15.10802 | 79° | 80km/h | 12071m | -20.3m/s | -52.2°C | 4.9% | 200.8hPa | 2.6V | 00:00:00 | 00:00:00 | 00:00:00 | |
| AA1-15 | 2026-08-30 12:47:40 | 52.44732 | 15.10669 | 81° | 82km/h | 12153m | -21.4m/s | -52°C | 5.6% | 198.3hPa | 2.6V | 08:18:54 | 02:36:26 | 00:00:00 | |
| DB0DAN | 2026-08-30 12:47:40 | 52.44732 | 15.10669 | 81° | 78km/h | 12153m | -21.4m/s | -52°C | 4.6% | 198.28hPa | 2.6V | 00:00:00 | 00:00:00 | 00:00:00 | |
| AA1-15 | 2026-08-30 12:47:29 | 52.44709 | 15.10282 | 87° | 84km/h | 12382m | -20.3m/s | -51.9°C | 4.1% | 191.5hPa | 2.6V | 08:19:45 | 02:36:15 | 00:00:00 | |
| SONDE2-12 | 2026-08-30 12:47:29 | 52.44708 | 15.10247 | 87° | 80km/h | 12403m | -19.6m/s | -51.8°C | 3.7% | 190.8hPa | 2.6V | 00:00:00 | 00:00:00 | 00:00:00 | |
| AA1-15 | 2026-08-30 12:47:18 | 52.44697 | 15.09940 | 85° | 68km/h | 12602m | -20m/s | -51.6°C | 3% | 185hPa | 2.6V | 08:19:45 | 02:36:04 | 00:00:00 | |
| DAC517 | 2026-08-30 12:47:18 | 52.44697 | 15.09940 | 86° | 68km/h | 12602m | -20.0m/s | -51.6°C | 2.9% | 185.0hPa | 2.5V | 00:00:00 | 00:00:00 | 00:00:00 | |
| EDDB2-12 | 2026-08-30 12:47:17 | 52.44696 | 15.09912 | 84° | 66km/h | 12622m | -19.8m/s | -51.5°C | 2.8% | 184.4hPa | 2.5V | 00:00:00 | 00:00:00 | 00:00:00 | |
| KRY50SP-1 | 2026-08-30 12:47:13 | 52.44691 | 15.09830 | 87° | 66km/h | 12681m | -19.1m/s | -51.7°C | 2.8% | 182.7hPa | 2.5V | 08:19:00 | 00:00:00 | 00:00:00 | |
| DB0DAN | 2026-08-30 12:47:10 | 52.44686 | 15.09728 | 86° | 55km/h | 12760m | -20.1m/s | -51.6°C | 2.6% | 180.52hPa | 2.5V | 00:00:00 | 00:00:00 | 00:00:00 | |
| AA1-15 | 2026-08-30 12:47:08 | 52.44683 | 15.09679 | 86° | 58km/h | 12800m | -20.3m/s | -51.5°C | 2.4% | 179.4hPa | 2.5V | 08:19:45 | 02:35:54 | 00:00:00 | |
| SONDE2-12 | 2026-08-30 12:46:58 | 52.44655 | 15.09411 | 77° | 62km/h | 13024m | -21.6m/s | -51.9°C | 2.5% | 173.3hPa | 2.6V | 00:00:00 | 00:00:00 | 00:00:00 | |
| AA1-15 | 2026-08-30 12:46:57 | 52.44655 | 15.09411 | 78° | 62km/h | 13024m | -21.6m/s | -51.9°C | 2.2% | 173.3hPa | 2.6V | 08:19:45 | 02:35:43 | 00:00:00 | |
| SONDE2-11 | 2026-08-30 12:46:56 | 52.44648 | 15.09360 | 78° | 62km/h | 13067m | -20.7m/s | -51.9°C | 2.3% | 172.1hPa | 2.5V | 00:00:00 | 00:00:00 | 00:00:00 | |
| DB0DAN | 2026-08-30 12:46:55 | 52.44648 | 15.09360 | 79° | 60km/h | 13067m | -20.7m/s | -51.9°C | 2.3% | 172.08hPa | 2.5V | 00:00:00 | 00:00:00 | 00:00:00 | |
| AA1-15 | 2026-08-30 12:46:46 | 52.44620 | 15.09144 | 79° | 57km/h | 13255m | -20.5m/s | -52°C | 2% | 167.1hPa | 2.6V | 08:20:36 | 02:35:32 | 00:00:00 | |
| KRY50SP-1 | 2026-08-30 12:46:46 | 52.44620 | 15.09144 | 80° | 57km/h | 13256m | -20.5m/s | -52.0°C | 2.2% | 167.1hPa | 2.6V | 08:20:00 | 00:00:00 | 00:00:00 | |
| SP6BVK | 2026-08-30 12:46:45 | 52.44620 | 15.09144 | 80° | 57km/h | 13256m | -20.5m/s | -52.0°C | 2.2% | 167.1hPa | 2.6V | 08:20:00 | 00:00:00 | 00:00:00 | |
| SQ2ODE-11 | 2026-08-30 12:46:44 | 52.44617 | 15.09121 | 77° | 58km/h | 13276m | -20.3m/s | -52.1°C | 2.3% | 166.6hPa | 2.6V | 08:20:00 | 00:00:00 | 00:00:00 | |
| S3001 | 2026-08-30 12:46:43 | 52.44604 | 15.09052 | 70° | 58km/h | 13337m | -21.3m/s | -52.5°C | 2.3% | 165.0hPa | 2.6V | 00:00:00 | 00:00:00 | 00:00:00 | |
| DB0DAN | 2026-08-30 12:46:40 | 52.44593 | 15.09004 | 72° | 62km/h | 13379m | -20m/s | -52.6°C | 2.2% | 163.91hPa | 2.6V | 00:00:00 | 00:00:00 | 00:00:00 | |
| AA1-15 | 2026-08-30 12:46:35 | 52.44567 | 15.08879 | 70° | 62km/h | 13483m | -20.9m/s | -53.1°C | 1.9% | 161.4hPa | 2.6V | 08:20:36 | 02:35:21 | 00:00:00 | |
| SONDE2-12 | 2026-08-30 12:46:27 | 52.44524 | 15.08640 | 74° | 57km/h | 13690m | -21.2m/s | -52.6°C | 2.1% | 156.2hPa | 2.6V | 00:00:00 | 00:00:00 | 00:00:00 | |
| DB0DAN | 2026-08-30 12:46:25 | 52.44524 | 15.08640 | 74° | 55km/h | 13690m | -21.2m/s | -52.6°C | 2% | 156.18hPa | 2.6V | 00:00:00 | 00:00:00 | 00:00:00 | |
| AA1-15 | 2026-08-30 12:46:24 | 52.44520 | 15.08617 | 76° | 60km/h | 13710m | -20.1m/s | -52.4°C | 1.6% | 155.6hPa | 2.5V | 08:20:36 | 02:35:10 | 00:00:00 | |
| AA1-15 | 2026-08-30 12:46:13 | 52.44462 | 15.08346 | 71° | 68km/h | 13936m | -20.5m/s | -51.4°C | 1.4% | 150.4hPa | 2.6V | 08:20:36 | 02:34:59 | 00:00:00 | |
| KRY50SP-1 | 2026-08-30 12:46:12 | 52.44456 | 15.08319 | 70° | 69km/h | 13957m | -22.6m/s | -51.5°C | 1.8% | 149.9hPa | 2.5V | 08:20:00 | 00:00:00 | 00:00:00 | |
| DB0DAN | 2026-08-30 12:46:10 | 52.44444 | 15.08264 | 73° | 69km/h | 14002m | -21.7m/s | -51.6°C | 1.8% | 148.87hPa | 2.5V | 00:00:00 | 00:00:00 | 00:00:00 | |
| AA1-15 | 2026-08-30 12:46:03 | 52.44411 | 15.08064 | 79° | 71km/h | 14160m | -21.9m/s | -51.9°C | 1.4% | 145.4hPa | 2.6V | 08:20:36 | 02:34:49 | 00:00:00 | |
| SP3BTT-10 | 2026-08-30 12:46:02 | 52.44407 | 15.08035 | 80° | 55km/h | 14183m | -23.2m/s | -51.6°C | 4.2% | 144.9hPa | 2.6V | 00:00:00 | 00:00:00 | 00:00:00 | |
| KRY50SP-1 | 2026-08-30 12:46:00 | 52.44404 | 15.08006 | 83° | 69km/h | 14207m | -22.9m/s | -51.3°C | 1.8% | 144.4hPa | 2.6V | 08:20:00 | 00:00:00 | 00:00:00 | |
| SQ2ODE-11 | 2026-08-30 12:45:59 | 52.44402 | 15.07978 | 83° | 68km/h | 14230m | -21.5m/s | -51.1°C | 1.7% | 143.9hPa | 2.6V | 08:20:00 | 00:00:00 | 00:00:00 | |
| DB0DAN | 2026-08-30 12:45:55 | 52.44395 | 15.07838 | 86° | 64km/h | 14344m | -22.1m/s | -50.8°C | 1.7% | 141.37hPa | 2.6V | 00:00:00 | 00:00:00 | 00:00:00 | |
| AA1-15 | 2026-08-30 12:45:52 | 52.44392 | 15.07753 | 89° | 68km/h | 14412m | -22.4m/s | -51.2°C | 1.3% | 139.9hPa | 2.5V | 08:21:27 | 02:34:38 | 00:00:00 | |
| SP3WXH-11 | 2026-08-30 12:45:45 | 52.44393 | 15.07560 | 93° | 62km/h | 14574m | -22.5m/s | -52.3°C | 1.9% | 136.4hPa | 2.5V | 00:00:00 | 00:00:00 | 00:00:00 | |
| AA1-15 | 2026-08-30 12:45:42 | 52.44395 | 15.07462 | 92° | 55km/h | 14665m | -22.2m/s | -52.4°C | 1.6% | 134.5hPa | 2.5V | 08:21:27 | 02:34:27 | 00:00:00 | |
| DB0DAN | 2026-08-30 12:45:40 | 52.44395 | 15.07439 | 86° | 51km/h | 14687m | -21m/s | -52.6°C | 2% | 134.05hPa | 2.5V | 00:00:00 | 00:00:00 | 00:00:00 | |
| AA1-15 | 2026-08-30 12:45:30 | 52.44377 | 15.07225 | 79° | 51km/h | 14904m | -23.7m/s | -53.2°C | 1.4% | 129.5hPa | 2.6V | 08:21:27 | 02:34:16 | 00:00:00 | |
| SONDE2-12 | 2026-08-30 12:45:25 | 52.44338 | 15.07052 | 58° | 49km/h | 15111m | -24.4m/s | -51.4°C | 1.5% | 125.4hPa | 2.5V | 00:00:00 | 00:00:00 | 00:00:00 | |
| AA1-15 | 2026-08-30 12:45:19 | 52.44307 | 15.06989 | 51° | 51km/h | 15208m | -24.4m/s | -51.2°C | 0.7% | 123.5hPa | 2.5V | 08:21:27 | 02:34:03 | 00:00:00 | |
| SP3BTT-10 | 2026-08-30 12:45:18 | 52.44307 | 15.06989 | 52° | 38km/h | 15208m | -24.3m/s | -51.1°C | 3.8% | 123.5hPa | 2.5V | 00:00:00 | 00:00:00 | 00:00:00 | |
| SP3WXH-11 | 2026-08-30 12:45:14 | 52.44272 | 15.06926 | 46° | 51km/h | 15305m | -23.8m/s | -51.2°C | 1.4% | 121.7hPa | 2.5V | 00:00:00 | 00:00:00 | 00:00:00 | |
| EDDB2-12 | 2026-08-30 12:45:13 | 52.44262 | 15.06910 | 46° | 53km/h | 15328m | -23.3m/s | -51.3°C | 1.4% | 121.3hPa | 2.5V | 00:00:00 | 00:00:00 | 00:00:00 | |
| KRY50SP-1 | 2026-08-30 12:45:11 | 52.44262 | 15.06910 | 48° | 53km/h | 15328m | -23.3m/s | -51.3°C | 1.4% | 121.3hPa | 2.5V | 08:21:00 | 00:00:00 | 00:00:00 | |
| DB0DAN | 2026-08-30 12:45:10 | 52.44244 | 15.06878 | 48° | 49km/h | 15374m | -23.5m/s | -51.5°C | 1.4% | 120.45hPa | 2.5V | 00:00:00 | 00:00:00 | 00:00:00 | |
| AA1-15 | 2026-08-30 12:45:06 | 52.44210 | 15.06814 | 57° | 51km/h | 15475m | -27m/s | -52.2°C | 0.8% | 118.7hPa | 2.6V | 08:21:27 | 02:33:52 | 00:00:00 | |
| AA1-15 | 2026-08-30 12:44:55 | 52.44158 | 15.06621 | 70° | 46km/h | 15731m | -21.1m/s | -52.6°C | 0.9% | 113.9hPa | 2.6V | 08:22:18 | 02:33:41 | 00:00:00 | |
| SONDE2-12 | 2026-08-30 12:44:54 | 52.44149 | 15.06585 | 70° | 47km/h | 15776m | -23.5m/s | -52.4°C | 1.5% | 113.1hPa | 2.6V | 00:00:00 | 00:00:00 | 00:00:00 | |
| AA1-15 | 2026-08-30 12:44:44 | 52.44108 | 15.06412 | 72° | 51km/h | 16001m | -24.5m/s | -52.2°C | 0.8% | 109.3hPa | 2.6V | 08:22:18 | 02:33:30 | 00:00:00 | |
| SP3WXH-11 | 2026-08-30 12:44:43 | 52.44104 | 15.06393 | 73° | 49km/h | 16025m | -24.6m/s | -52.4°C | 1.4% | 108.9hPa | 2.5V | 00:00:00 | 00:00:00 | 00:00:00 | |
| KRY50SP-1 | 2026-08-30 12:44:42 | 52.44104 | 15.06392 | 74° | 49km/h | 16025m | -24.6m/s | -52.4°C | 1.4% | 108.9hPa | 2.5V | 08:22:00 | 00:00:00 | 00:00:00 | |
| SP6BVK | 2026-08-30 12:44:41 | 52.44100 | 15.06373 | 75° | 49km/h | 16050m | -24.6m/s | -52.6°C | 1.4% | 108.5hPa | 2.5V | 08:22:00 | 00:00:00 | 00:00:00 | |
| DB0DAN | 2026-08-30 12:44:40 | 52.44094 | 15.06336 | 77° | 44km/h | 16100m | -26.9m/s | -52.8°C | 1.4% | 107.72hPa | 2.5V | 00:00:00 | 00:00:00 | 00:00:00 | |
| AA1-15 | 2026-08-30 12:44:33 | 52.44079 | 15.06203 | 81° | 42km/h | 16272m | -23.3m/s | -52.3°C | 0.7% | 104.8hPa | 2.5V | 08:22:18 | 02:33:19 | 00:00:00 | |
| KRY50SP-1 | 2026-08-30 12:44:32 | 52.44077 | 15.06186 | 83° | 40km/h | 16296m | -25.9m/s | -52.1°C | 1.4% | 104.5hPa | 2.6V | 08:22:00 | 00:00:00 | 00:00:00 | |
| KRY50SP-1 | 2026-08-30 12:44:26 | 52.44067 | 15.06109 | 79° | 33km/h | 16430m | -26.1m/s | -51.3°C | 1.2% | 102.3hPa | 2.6V | 08:22:00 | 00:00:00 | 00:00:00 | |
| DB0DAN | 2026-08-30 12:44:25 | 52.44063 | 15.06084 | 68° | 31km/h | 16482m | -28.4m/s | -51.4°C | 1.2% | 101.56hPa | 2.6V | 00:00:00 | 00:00:00 | 00:00:00 | |
| AA1-15 | 2026-08-30 12:44:23 | 52.44058 | 15.06061 | 70° | 29km/h | 16540m | -27.9m/s | -51.7°C | 0.6% | 100.7hPa | 2.5V | 08:22:18 | 02:33:09 | 00:00:00 | |
| SONDE2-12 | 2026-08-30 12:44:22 | 52.44055 | 15.06049 | 72° | 31km/h | 16568m | -30.3m/s | -51.7°C | 1.3% | 100.3hPa | 2.6V | 00:00:00 | 00:00:00 | 00:00:00 | |
| AA1-15 | 2026-08-30 12:44:12 | 52.44022 | 15.05946 | 56° | 22km/h | 16867m | -30.4m/s | -51.7°C | 0.6% | 95.8hPa | 2.6V | 08:23:09 | 02:32:58 | 00:00:00 | |
| SP3WXH-11 | 2026-08-30 12:44:12 | 52.44022 | 15.05946 | 56° | 20km/h | 16867m | -30.4m/s | -51.7°C | 1.3% | 95.8hPa | 2.5V | 00:00:00 | 00:00:00 | 00:00:00 | |
| DB0DAN | 2026-08-30 12:44:10 | 52.44015 | 15.05931 | 50° | 24km/h | 16927m | -29.8m/s | -52°C | 1.3% | 94.92hPa | 2.5V | 00:00:00 | 00:00:00 | 00:00:00 | |
| AA1-15 | 2026-08-30 12:44:02 | 52.43979 | 15.05840 | 67° | 31km/h | 17194m | -30.8m/s | -52.6°C | 0.7% | 91.2hPa | 2.6V | 08:23:09 | 02:32:47 | 00:00:00 | |
| SONDE2-12 | 2026-08-30 12:43:51 | 52.43935 | 15.05763 | 15° | 24km/h | 17504m | -29.5m/s | -52.1°C | 1.3% | 86.7hPa | 2.7V | 00:00:00 | 00:00:00 | 00:00:00 | |
| AA1-15 | 2026-08-30 12:43:50 | 52.43935 | 15.05763 | 15° | 26km/h | 17504m | -29.5m/s | -52.1°C | 0.5% | 86.7hPa | 2.7V | 08:23:09 | 02:32:36 | 00:00:00 | |
| SONDE2-11 | 2026-08-30 12:43:49 | 52.43929 | 15.05761 | 18° | 24km/h | 17534m | -30.0m/s | -52.1°C | 1.2% | 86.4hPa | 2.5V | 00:00:00 | 00:00:00 | 00:00:00 | |
| SQ2ODE-11 | 2026-08-30 12:43:48 | 52.43929 | 15.05761 | 19° | 26km/h | 17534m | -30.0m/s | -52.1°C | 1.2% | 86.4hPa | 2.5V | 08:23:00 | 00:00:00 | 00:00:00 | |
| KRY50SP-1 | 2026-08-30 12:43:46 | 52.43916 | 15.05753 | 26° | 27km/h | 17593m | -30.7m/s | -52.3°C | 1.2% | 85.6hPa | 2.5V | 08:23:00 | 00:00:00 | 00:00:00 | |
| SQ2ODE-11 | 2026-08-30 12:43:43 | 52.43888 | 15.05732 | 24° | 35km/h | 17713m | -27.2m/s | -53.1°C | 1.3% | 84.0hPa | 2.5V | 08:23:00 | 00:00:00 | 00:00:00 | |
| DB0DAN | 2026-08-30 12:43:40 | 52.43865 | 15.05710 | 38° | 37km/h | 17796m | -30.4m/s | -53.6°C | 1.4% | 83hPa | 2.5V | 00:00:00 | 00:00:00 | 00:00:00 | |
| AA1-15 | 2026-08-30 12:43:39 | 52.43857 | 15.05700 | 37° | 40km/h | 17826m | -29.4m/s | -53.7°C | 0.9% | 82.5hPa | 2.5V | 08:23:09 | 02:32:25 | 00:00:00 | |
| AA1-15 | 2026-08-30 12:43:28 | 52.43788 | 15.05569 | 60° | 31km/h | 18151m | -28.2m/s | -53.4°C | 0.8% | 78.4hPa | 2.5V | 08:23:09 | 02:32:14 | 00:00:00 | |
| DB0DAN | 2026-08-30 12:43:25 | 52.43777 | 15.05537 | 60° | 26km/h | 18234m | -25.6m/s | -53.5°C | 1.3% | 77.39hPa | 2.6V | 00:00:00 | 00:00:00 | 00:00:00 | |
| SONDE2-12 | 2026-08-30 12:43:20 | 52.43758 | 15.05490 | 56° | 26km/h | 18365m | -28.4m/s | -53.1°C | 1.3% | 75.9hPa | 2.5V | 00:00:00 | 00:00:00 | 00:00:00 | |
| AA1-15 | 2026-08-30 12:43:17 | 52.43749 | 15.05462 | 72° | 27km/h | 18448m | -27.6m/s | -53.5°C | 0.9% | 74.8hPa | 2.5V | 08:24:00 | 02:32:03 | 00:00:00 | |
| AA1-15 | 2026-08-30 12:43:06 | 52.43729 | 15.05350 | 60° | 22km/h | 18810m | -29.7m/s | -52.6°C | 0.7% | 70.8hPa | 2.6V | 08:24:00 | 02:31:50 | 00:00:00 | |
| AA1-15 | 2026-08-30 12:42:55 | 52.43714 | 15.05279 | 77° | 16km/h | 19085m | -30.1m/s | -53°C | 0.8% | 67.9hPa | 2.5V | 08:24:00 | 02:31:41 | 00:00:00 | |
| SONDE2-12 | 2026-08-30 12:42:49 | 52.43701 | 15.05244 | 61° | 18km/h | 19303m | -31.3m/s | -53.0°C | 1.3% | 65.6hPa | 2.5V | 00:00:00 | 00:00:00 | 00:00:00 | |
| AA1-15 | 2026-08-30 12:42:45 | 52.43693 | 15.05216 | 75° | 20km/h | 19424m | -28.5m/s | -52.9°C | 0.8% | 64.3hPa | 2.5V | 08:24:00 | 02:31:30 | 00:00:00 | |
| AA1-15 | 2026-08-30 12:42:34 | 52.43674 | 15.05156 | 35° | 16km/h | 19714m | -31.8m/s | -52.6°C | 0.7% | 61.6hPa | 2.5V | 08:24:00 | 02:31:20 | 00:00:00 | |
| KRY50SP-1 | 2026-08-30 12:42:31 | 52.43664 | 15.05143 | 47° | 18km/h | 19808m | -30.5m/s | -53.1°C | 1.3% | 60.7hPa | 2.7V | 08:24:00 | 00:00:00 | 00:00:00 | |
| SQ2ODE-11 | 2026-08-30 12:42:28 | 52.43658 | 15.05134 | 52° | 15km/h | 19873m | -32.1m/s | -53.3°C | 1.3% | 60.1hPa | 2.7V | 08:24:00 | 00:00:00 | 00:00:00 | |
| DB0DAN | 2026-08-30 12:42:25 | 52.43654 | 15.05115 | 91° | 11km/h | 19997m | -30.4m/s | -53.5°C | 1.3% | 58.89hPa | 2.7V | 00:00:00 | 00:00:00 | 00:00:00 | |
| AA1-15 | 2026-08-30 12:42:23 | 52.43654 | 15.05108 | 92° | 7km/h | 20057m | -29.6m/s | -53.4°C | 0.8% | 58.3hPa | 2.5V | 08:24:51 | 02:31:09 | 00:00:00 | |
| SONDE2-12 | 2026-08-30 12:42:18 | 52.43648 | 15.05100 | 336° | 5km/h | 20246m | -30.6m/s | -53.0°C | 1.3% | 56.7hPa | 2.5V | 00:00:00 | 00:00:00 | 00:00:00 | |
| AA1-15 | 2026-08-30 12:42:13 | 52.43641 | 15.05104 | 348° | 5km/h | 20363m | -27.2m/s | -53.1°C | 0.9% | 55.6hPa | 2.5V | 08:24:51 | 02:30:59 | 00:00:00 | |
| DB0DAN | 2026-08-30 12:42:10 | 52.43636 | 15.05108 | 348° | 7km/h | 20454m | -32.2m/s | -53.4°C | 1.3% | 54.83hPa | 2.7V | 00:00:00 | 00:00:00 | 00:00:00 | |
| AA1-15 | 2026-08-30 12:42:02 | 52.43602 | 15.05118 | 358° | 20km/h | 20744m | -33m/s | -53.4°C | 0.9% | 52.4hPa | 2.5V | 08:24:51 | 02:30:47 | 00:00:00 | |
| DAC517 | 2026-08-30 12:42:02 | 52.43608 | 15.05118 | 357° | 22km/h | 20711m | -33.9m/s | -53.4°C | 1.3% | 52.7hPa | 2.5V | 08:24:00 | 00:00:00 | 00:00:00 | |
| DL2RXE-15 | 2026-08-30 12:42:01 | 52.43608 | 15.05118 | 357° | 22km/h | 20711m | -33.9m/s | -53.4°C | 1.3% | 52.7hPa | 2.5V | 00:00:00 | 00:00:00 | 00:00:00 | |
| SQ2ODE-11 | 2026-08-30 12:42:00 | 52.43597 | 15.05119 | 3° | 18km/h | 20777m | -33.3m/s | -53.4°C | 1.3% | 52.2hPa | 2.5V | 08:24:00 | 00:00:00 | 00:00:00 | |
| KRY50SP-1 | 2026-08-30 12:41:58 | 52.43590 | 15.05116 | 28° | 13km/h | 20841m | -32.1m/s | -53.4°C | 1.3% | 51.6hPa | 2.5V | 08:24:00 | 00:00:00 | 00:00:00 | |
| SP6BVK | 2026-08-30 12:41:56 | 52.43587 | 15.05114 | 30° | 11km/h | 20872m | -31.2m/s | -53.3°C | 1.2% | 51.3hPa | 2.5V | 08:24:00 | 00:00:00 | 00:00:00 | |
| DB0DAN | 2026-08-30 12:41:55 | 52.43585 | 15.05111 | 44° | 7km/h | 20937m | -35.4m/s | -53.3°C | 1.2% | 50.91hPa | 2.5V | 00:00:00 | 00:00:00 | 00:00:00 | |
| AA1-15 | 2026-08-30 12:41:52 | 52.43585 | 15.05110 | 197° | 5km/h | 21081m | -35.3m/s | -53.2°C | 0.8% | 49.8hPa | 2.5V | 08:24:51 | 02:30:37 | 00:00:00 | |
| SONDE2-12 | 2026-08-30 12:41:47 | 52.43588 | 15.05118 | 228° | 4km/h | 21210m | -31.5m/s | -53.0°C | 1.2% | 48.7hPa | 2.7V | 00:00:00 | 00:00:00 | 00:00:00 | |
| SONDE2-11 | 2026-08-30 12:41:45 | 52.43589 | 15.05122 | 280° | 4km/h | 21271m | -30.9m/s | -52.9°C | 1.2% | 48.2hPa | 2.7V | 00:00:00 | 00:00:00 | 00:00:00 | |
| AA1-15 | 2026-08-30 12:41:41 | 52.43581 | 15.05129 | 5° | 11km/h | 21426m | -32.1m/s | -53.2°C | 0.7% | 47.1hPa | 2.7V | 08:25:42 | 02:30:26 | 00:00:00 | |
| DB0DAN | 2026-08-30 12:41:40 | 52.43581 | 15.05129 | 5° | 11km/h | 21426m | -32.1m/s | -53.2°C | 1.2% | 47.08hPa | 2.7V | 00:00:00 | 00:00:00 | 00:00:00 | |
| AA1-15 | 2026-08-30 12:41:30 | 52.43543 | 15.05088 | 62° | 20km/h | 21799m | -35.4m/s | -53.8°C | 1% | 44.5hPa | 2.7V | 08:25:42 | 02:30:15 | 00:00:00 | |
| SQ2ODE-11 | 2026-08-30 12:41:28 | 52.43543 | 15.05088 | 63° | 20km/h | 21799m | -35.4m/s | -53.8°C | 1.3% | 44.5hPa | 2.5V | 08:25:00 | 00:00:00 | 00:00:00 | |
| DB0DAN | 2026-08-30 12:41:25 | 52.43537 | 15.05064 | 74° | 9km/h | 21943m | -36.8m/s | -53.9°C | 1.2% | 43.49hPa | 2.5V | 00:00:00 | 00:00:00 | 00:00:00 | |
| AA1-15 | 2026-08-30 12:41:20 | 52.43536 | 15.05051 | 107° | 5km/h | 22125m | -37.6m/s | -54.2°C | 1% | 42.3hPa | 2.5V | 08:25:42 | 02:30:06 | 00:00:00 | |
| SONDE2-12 | 2026-08-30 12:41:16 | 52.43539 | 15.05045 | 69° | 0km/h | 22357m | -38.8m/s | -54.2°C | 1.4% | 40.8hPa | 2.7V | 00:00:00 | 00:00:00 | 00:00:00 | |
| AA1-15 | 2026-08-30 12:41:09 | 52.43530 | 15.05045 | 11° | 13km/h | 22576m | -38.8m/s | -53.4°C | 0.8% | 39.5hPa | 2.7V | 08:25:42 | 02:29:54 | 00:00:00 | |
| AA1-15 | 2026-08-30 12:40:58 | 52.43526 | 15.05021 | 181° | 11km/h | 22986m | -33.2m/s | -53.4°C | 0.9% | 36.9hPa | 2.7V | 08:25:42 | 02:29:42 | 00:00:00 | |
| AA1-15 | 2026-08-30 12:40:47 | 52.43542 | 15.05041 | 261° | 7km/h | 23300m | -37m/s | -53.3°C | 0.9% | 35.2hPa | 2.7V | 08:27:24 | 02:29:33 | 00:00:00 | |
| SONDE2-12 | 2026-08-30 12:40:45 | 52.43542 | 15.05046 | 260° | 5km/h | 23376m | -37.6m/s | -53.4°C | 1.3% | 34.8hPa | 2.5V | 00:00:00 | 00:00:00 | 00:00:00 | |
| AA1-15 | 2026-08-30 12:40:37 | 52.43537 | 15.05080 | 296° | 13km/h | 23695m | -37.6m/s | -52.7°C | 0.9% | 33hPa | 2.5V | 08:27:24 | 02:29:23 | 00:00:00 | |
| AA1-15 | 2026-08-30 12:40:26 | 52.43526 | 15.05076 | 116° | 4km/h | 24131m | -43.9m/s | -51.9°C | 0.7% | 31hPa | 2.5V | 08:27:24 | 02:29:12 | 00:00:00 | |
| AA1-15 | 2026-08-30 12:40:16 | 52.43524 | 15.05067 | 156° | 5km/h | 24535m | -37.6m/s | -52.3°C | 0.8% | 29hPa | 2.7V | 08:27:24 | 02:29:02 | 00:00:00 | |
| SONDE2-12 | 2026-08-30 12:40:14 | 52.43527 | 15.05066 | 193° | 4km/h | 24609m | -36.4m/s | -52.3°C | 1.2% | 28.7hPa | 2.5V | 00:00:00 | 00:00:00 | 00:00:00 | |
| AA1-15 | 2026-08-30 12:40:04 | 52.43522 | 15.05084 | 81° | 5km/h | 25019m | -37.2m/s | -51.9°C | 0.8% | 26.9hPa | 2.5V | 08:27:24 | 02:28:49 | 00:00:00 | |
| KRY50SP-1 | 2026-08-30 12:40:04 | 52.43523 | 15.05086 | 71° | 2km/h | 24983m | -35.3m/s | -51.9°C | 1.1% | 27.0hPa | 2.7V | 08:26:00 | 00:00:00 | 00:00:00 | |
| S3001 | 2026-08-30 12:39:59 | 52.43526 | 15.05078 | 159° | 9km/h | 25168m | -38.9m/s | -51.7°C | 1.1% | 26.3hPa | 2.7V | 00:00:00 | 00:00:00 | 00:00:00 | |
| EDDB2-11 | 2026-08-30 12:39:56 | 52.43537 | 15.05081 | 200° | 13km/h | 25321m | -38.2m/s | -51.6°C | 1.1% | 25.7hPa | 2.7V | 00:00:00 | 00:00:00 | 00:00:00 | |
| DB0DAN | 2026-08-30 12:39:55 | 52.43537 | 15.05081 | 200° | 13km/h | 25321m | -38.2m/s | -51.6°C | 1.1% | 25.66hPa | 2.7V | 00:00:00 | 00:00:00 | 00:00:00 | |
| AA1-15 | 2026-08-30 12:39:54 | 52.43541 | 15.05088 | 233° | 9km/h | 25397m | -40.1m/s | -51.3°C | 0.7% | 25.4hPa | 2.7V | 08:27:24 | 02:28:39 | 00:00:00 | |
| AA1-15 | 2026-08-30 12:39:43 | 52.43527 | 15.05113 | 3° | 11km/h | 25799m | -39.1m/s | -50.3°C | 0.6% | 23.8hPa | 2.5V | 08:27:24 | 02:28:29 | 00:00:00 | |
| AA1-15 | 2026-08-30 12:39:32 | 52.43508 | 15.05113 | 346° | 7km/h | 26236m | -41.7m/s | -49.9°C | 0.5% | 22.3hPa | 2.5V | 08:27:24 | 02:28:18 | 00:00:00 | |
| AA1-15 | 2026-08-30 12:39:21 | 52.43489 | 15.05136 | 338° | 15km/h | 26696m | -45m/s | -49.5°C | 0.4% | 20.8hPa | 2.5V | 08:27:24 | 02:28:07 | 00:00:00 | |
| SONDE2-12 | 2026-08-30 12:39:12 | 52.43463 | 15.05140 | 359° | 9km/h | 27089m | -42.3m/s | -49.8°C | 1.0% | 19.6hPa | 2.7V | 00:00:00 | 00:00:00 | 00:00:00 | |
| AA1-15 | 2026-08-30 12:39:10 | 52.43458 | 15.05142 | 343° | 11km/h | 27174m | -44.7m/s | -49.7°C | 0.6% | 19.3hPa | 2.7V | 08:27:24 | 02:27:56 | 00:00:00 | |
| AA1-15 | 2026-08-30 12:38:59 | 52.43419 | 15.05160 | 7° | 16km/h | 27609m | -39.2m/s | -49.5°C | 0.6% | 18hPa | 2.7V | 08:28:15 | 02:27:45 | 00:00:00 | |
| S3001 | 2026-08-30 12:38:57 | 52.43411 | 15.05157 | 15° | 16km/h | 27683m | -35.7m/s | -49.7°C | 1.1% | 17.8hPa | 2.5V | 00:00:00 | 00:00:00 | 00:00:00 | |
| DB0DAN | 2026-08-30 12:38:55 | 52.43403 | 15.05154 | 17° | 16km/h | 27755m | -35.1m/s | -49.6°C | 1.1% | 17.56hPa | 2.5V | 00:00:00 | 00:00:00 | 00:00:00 | |
| AA1-15 | 2026-08-30 12:38:48 | 52.43379 | 15.05119 | 73° | 20km/h | 28020m | -34.6m/s | -48.4°C | 0.6% | 16.9hPa | 2.7V | 08:28:15 | 02:27:34 | 00:00:00 | |
| SONDE2-12 | 2026-08-30 12:38:41 | 52.43382 | 15.05078 | 93° | 7km/h | 28295m | -41.0m/s | -47.4°C | 1.0% | 16.2hPa | 2.5V | 00:00:00 | 00:00:00 | 00:00:00 | |
| AA1-15 | 2026-08-30 12:38:36 | 52.43378 | 15.05072 | 24° | 7km/h | 28498m | -40m/s | -46.7°C | 0.4% | 15.7hPa | 2.5V | 08:28:15 | 02:27:22 | 00:00:00 | |
| AA1-15 | 2026-08-30 12:38:26 | 52.43348 | 15.05048 | 41° | 7km/h | 28907m | -44.3m/s | -44.6°C | 0% | 14.7hPa | 2.7V | 08:28:15 | 02:27:12 | 00:00:00 | |
| AA1-15 | 2026-08-30 12:38:15 | 52.43344 | 15.05028 | 64° | 4km/h | 29378m | -48.7m/s | -44°C | 0% | 13.8hPa | 2.7V | 08:29:06 | 02:27:01 | 00:00:00 | |
| DAC517 | 2026-08-30 12:38:15 | 52.43344 | 15.05029 | 65° | 4km/h | 29379m | -48.7m/s | -44.0°C | 0.7% | 13.8hPa | 2.5V | 08:29:00 | 00:00:00 | 00:00:00 | |
| KRY50SP-1 | 2026-08-30 12:38:13 | 52.43343 | 15.05027 | 59° | 5km/h | 29427m | -47.6m/s | -44.0°C | 0.7% | 13.7hPa | 2.5V | 08:29:00 | 00:00:00 | 00:00:00 | |
| DB0DAN | 2026-08-30 12:38:10 | 52.43340 | 15.05027 | 331° | 4km/h | 29605m | -40.9m/s | -44.4°C | 0.7% | 13.22hPa | 2.5V | 00:00:00 | 00:00:00 | 00:00:00 | |
| AA1-15 | 2026-08-30 12:38:04 | 52.43319 | 15.05031 | 16° | 24km/h | 29859m | -44.9m/s | -44.6°C | 0.1% | 12.8hPa | 2.5V | 08:29:06 | 02:26:50 | 00:00:00 | |
| AA1-15 | 2026-08-30 12:37:54 | 52.43284 | 15.04980 | 44° | 13km/h | 30349m | -46.2m/s | -43°C | 0% | 11.8hPa | 2.7V | 08:29:06 | 02:26:39 | 00:00:00 | |
| EDDB2-11 | 2026-08-30 12:37:52 | 52.43279 | 15.04975 | 23° | 11km/h | 30441m | -45.4m/s | -42.9°C | 0.7% | 11.7hPa | 2.7V | 00:00:00 | 00:00:00 | 00:00:00 | |
| AA1-15 | 2026-08-30 12:37:43 | 52.43240 | 15.04963 | 29° | 37km/h | 30780m | -46.7m/s | -43.2°C | 0% | 11.1hPa | 2.7V | 08:29:06 | 02:26:29 | 00:00:00 | |
| SONDE2-12 | 2026-08-30 12:37:39 | 52.43210 | 15.04931 | 37° | 31km/h | 30957m | -43.0m/s | -43.5°C | 0.8% | 10.7hPa | 2.5V | 00:00:00 | 00:00:00 | 00:00:00 | |
| AA1-15 | 2026-08-30 12:37:32 | 52.43193 | 15.04896 | 23° | 7km/h | 31286m | -52.9m/s | -42.8°C | 0% | 10.3hPa | 2.5V | 08:29:06 | 02:26:18 | 00:00:00 | |
| DAC517 | 2026-08-30 12:37:32 | 52.43193 | 15.04895 | 24° | 7km/h | 31287m | -52.9m/s | -42.8°C | 0.7% | 10.3hPa | 2.5V | 08:29:00 | 00:00:00 | 00:00:00 | |
| SQ2ODE-11 | 2026-08-30 12:37:31 | 52.43193 | 15.04895 | 24° | 7km/h | 31287m | -52.9m/s | -42.8°C | 0.7% | 10.3hPa | 2.5V | 08:29:00 | 00:00:00 | 00:00:00 | |
| KRY50SP-1 | 2026-08-30 12:37:29 | 52.43188 | 15.04893 | 33° | 13km/h | 31388m | -49.4m/s | -42.5°C | 0.7% | 10.1hPa | 2.5V | 08:29:00 | 00:00:00 | 00:00:00 | |
| SP3WXH-11 | 2026-08-30 12:37:28 | 52.43182 | 15.04886 | 41° | 16km/h | 31484m | -48.3m/s | -42.0°C | 0.6% | 9.9hPa | 2.5V | 00:00:00 | 00:00:00 | 00:00:00 | |
| EDDB2-12 | 2026-08-30 12:37:27 | 52.43179 | 15.04882 | 39° | 16km/h | 31531m | -47.6m/s | -42.0°C | 0.7% | 9.9hPa | 2.5V | 00:00:00 | 00:00:00 | 00:00:00 | |
| DB0DAN | 2026-08-30 12:37:25 | 52.43171 | 15.04870 | 52° | 22km/h | 31622m | -44m/s | -42.2°C | 0.7% | 9.72hPa | 2.5V | 00:00:00 | 00:00:00 | 00:00:00 | |
| AA1-15 | 2026-08-30 12:37:22 | 52.43160 | 15.04848 | 59° | 26km/h | 31746m | -42.9m/s | -42.4°C | 0% | 9.5hPa | 2.7V | 08:29:57 | 02:26:08 | 00:00:00 | |
| AA1-15 | 2026-08-30 12:37:12 | 52.43128 | 15.04741 | 87° | 27km/h | 32229m | -51.6m/s | -42°C | 0% | 8.9hPa | 2.7V | 08:29:57 | 02:25:58 | 00:00:00 | |
| SONDE2-12 | 2026-08-30 12:37:08 | 52.43131 | 15.04695 | 108° | 22km/h | 32438m | -52.3m/s | -40.1°C | 0.7% | 8.6hPa | 2.5V | 00:00:00 | 00:00:00 | 00:00:00 | |
| AA1-15 | 2026-08-30 12:37:01 | 52.43132 | 15.04663 | 30° | 15km/h | 32811m | -56.9m/s | -38.5°C | 0% | 8.2hPa | 2.5V | 08:29:57 | 02:25:47 | 00:00:00 | |
| AA1-15 | 2026-08-30 12:36:51 | 52.43099 | 15.04596 | 75° | 15km/h | 33364m | -54.6m/s | -37.3°C | 0% | 7.5hPa | 2.7V | 08:29:57 | 02:25:37 | 00:00:00 | |
| EDDB2-11 | 2026-08-30 12:36:49 | 52.43097 | 15.04586 | 70° | 7km/h | 33473m | -56.5m/s | -36.9°C | 0.5% | 7.3hPa | 2.7V | 00:00:00 | 00:00:00 | 00:00:00 | |
| AA1-15 | 2026-08-30 12:36:40 | 52.43076 | 15.04562 | 17° | 16km/h | 33920m | -46.2m/s | -36.1°C | 0% | 6.8hPa | 2.7V | 08:29:57 | 02:25:26 | 00:00:00 | |
| SONDE2-12 | 2026-08-30 12:36:37 | 52.43070 | 15.04563 | 295° | 5km/h | 34050m | -40.7m/s | -35.8°C | 0.5% | 6.7hPa | 2.5V | 00:00:00 | 00:00:00 | 00:00:00 | |
| AA1-15 | 2026-08-30 12:36:29 | 52.43047 | 15.04596 | 0° | 38km/h | 34341m | -36m/s | -35.4°C | 0% | 6.4hPa | 2.5V | 18:12:15 | 02:25:15 | 00:00:00 | |
| AA1-15 | 2026-08-30 12:36:18 | 52.42977 | 15.04529 | 151° | 27km/h | 34730m | -30.9m/s | -35°C | 0% | 6hPa | 2.5V | 18:12:15 | 02:25:04 | 00:00:00 | |
| AA1-15 | 2026-08-30 12:36:08 | 52.42886 | 15.04429 | 2° | 16km/h | 35129m | -47.6m/s | -35°C | 0% | 5.7hPa | 2.7V | 18:12:15 | 02:24:53 | 00:00:00 | |
| SONDE2-12 | 2026-08-30 12:36:06 | 52.42882 | 15.04429 | 1° | 15km/h | 35173m | -39.7m/s | -35.3°C | 0.5% | 5.6hPa | 2.7V | 00:00:00 | 00:00:00 | 00:00:00 | |
| AA1-15 | 2026-08-30 12:35:57 | 52.42858 | 15.04425 | 30° | 16km/h | 35238m | 5.4m/s | -35.2°C | 0% | 5.5hPa | 2.7V | 18:12:15 | 02:24:43 | 00:00:00 | |
| AA1-15 | 2026-08-30 12:35:46 | 52.42804 | 15.04363 | 20° | 7km/h | 35174m | 7.2m/s | -35.2°C | 0% | 5.6hPa | 2.6V | 18:12:15 | 02:24:32 | 00:00:00 | |
| AA1-15 | 2026-08-30 12:35:36 | 52.42766 | 15.04315 | 53° | 33km/h | 35116m | 6.4m/s | -34.9°C | 0% | 5.6hPa | 2.7V | 18:12:15 | 02:24:22 | 00:00:00 | |
| SONDE2-12 | 2026-08-30 12:35:35 | 52.42732 | 15.04286 | 20° | 27km/h | 35087m | 6.2m/s | -35.2°C | 0.5% | 5.7hPa | 2.7V | 00:00:00 | 00:00:00 | 00:00:00 | |
| AA1-15 | 2026-08-30 12:35:25 | 52.42699 | 15.04242 | 31° | 29km/h | 35051m | 6.6m/s | -34.8°C | 0% | 5.7hPa | 2.7V | 18:12:15 | 02:24:11 | 00:00:00 | |
| AA1-15 | 2026-08-30 12:35:14 | 52.42625 | 15.04137 | 36° | 31km/h | 34986m | 5.6m/s | -35°C | 0% | 5.8hPa | 2.7V | 18:12:15 | 02:24:00 | 00:00:00 | |
| SONDE2-12 | 2026-08-30 12:35:04 | 52.42566 | 15.04019 | 51° | 38km/h | 34922m | 5.4m/s | -35.2°C | 0.5% | 5.8hPa | 2.7V | 00:00:00 | 00:00:00 | 00:00:00 | |
| AA1-15 | 2026-08-30 12:35:03 | 52.42566 | 15.04019 | 51° | 40km/h | 34922m | 5.4m/s | -35.3°C | 0% | 5.8hPa | 2.7V | 18:12:15 | 02:23:49 | 00:00:00 | |
| AA1-15 | 2026-08-30 12:34:52 | 52.42522 | 15.03886 | 63° | 31km/h | 34856m | 6.7m/s | -35.6°C | 0% | 5.9hPa | 2.6V | 18:12:15 | 02:23:38 | 00:00:00 | |
| DO2SHX-10 | 2026-08-30 12:34:41 | 52.42448 | 15.03757 | 49° | 29km/h | 34795m | 6.8m/s | -35.4°C | 1.9% | 5.9hPa | 2.6V | 00:00:00 | 02:23:27 | 00:00:00 | |
| SQ2ODE-11 | 2026-08-30 12:34:39 | 52.42444 | 15.03747 | 68° | 27km/h | 34788m | 7.3m/s | -35.5°C | 0.5% | 5.9hPa | 2.6V | 00:00:00 | 00:00:00 | 00:00:00 | |
| DO2SHX-10 | 2026-08-30 12:34:38 | 52.42441 | 15.03724 | 80° | 38km/h | 34777m | 3.8m/s | -35.5°C | 1.9% | 5.9hPa | 2.6V | 00:00:00 | 02:23:24 | 00:00:00 | |
| MECKS9 | 2026-08-30 12:34:37 | 52.42441 | 15.03724 | 81° | 27km/h | 34777m | 3.8m/s | -35.5°C | 0.5% | 5.9hPa | 2.6V | 00:00:00 | 00:00:00 | 00:00:00 | |
| KRY50SP-1 | 2026-08-30 12:34:36 | 52.42439 | 15.03714 | 67° | 27km/h | 34773m | 3.9m/s | -35.5°C | 0.4% | 5.9hPa | 2.6V | 00:00:00 | 00:00:00 | 00:00:00 | |
| OK1SLM-15 | 2026-08-30 12:34:35 | 52.42435 | 15.03704 | 49° | 29km/h | 34768m | 6.1m/s | -35.4°C | 0% | 0hPa | 2.6V | 00:00:00 | 00:00:00 | 00:00:00 | |
| SQ2ODE-11 | 2026-08-30 12:34:32 | 52.42408 | 15.03686 | 13° | 51km/h | 34748m | 5.7m/s | -35.3°C | 0.5% | 6.0hPa | 2.6V | 00:00:00 | 00:00:00 | 00:00:00 | |
| DO2SHX-10 | 2026-08-30 12:34:29 | 52.42360 | 15.03658 | 39° | 38km/h | 34727m | 6.7m/s | -35.2°C | 1.9% | 5.9hPa | 2.6V | 00:00:00 | 02:23:15 | 00:00:00 | |
| SQ2ODE-11 | 2026-08-30 12:34:27 | 52.42353 | 15.03646 | 55° | 38km/h | 34721m | 6.8m/s | -35.3°C | 0.5% | 6.0hPa | 2.7V | 00:00:00 | 00:00:00 | 00:00:00 | |
| DO2SHX-10 | 2026-08-30 12:34:26 | 52.42346 | 15.03621 | 70° | 29km/h | 34708m | 5.6m/s | -35.2°C | 1.9% | 6.0hPa | 2.7V | 00:00:00 | 02:23:12 | 00:00:00 | |
| KRY50SP-1 | 2026-08-30 12:34:25 | 52.42346 | 15.03621 | 71° | 31km/h | 34708m | 5.7m/s | -35.3°C | 0.5% | 6.0hPa | 2.7V | 00:00:00 | 00:00:00 | 00:00:00 | |
| SP6BVK | 2026-08-30 12:34:24 | 52.42343 | 15.03609 | 66° | 29km/h | 34702m | 6.1m/s | -35.1°C | 0.5% | 6.0hPa | 2.7V | 00:00:00 | 00:00:00 | 00:00:00 | |
| DO2SHX-10 | 2026-08-30 12:34:23 | 52.42334 | 15.03592 | 35° | 31km/h | 34690m | 5.5m/s | -35.0°C | 1.9% | 6.0hPa | 2.7V | 00:00:00 | 02:23:09 | 00:00:00 | |
| DO2SHX-10 | 2026-08-30 12:34:20 | 52.42312 | 15.03578 | 18° | 35km/h | 34672m | 6.7m/s | -35.1°C | 1.9% | 6.0hPa | 2.7V | 00:00:00 | 02:23:06 | 08:30:00 | |
| KRY50SP-1 | 2026-08-30 12:34:19 | 52.42312 | 15.03578 | 19° | 35km/h | 34672m | 6.7m/s | -35.1°C | 0.5% | 6.0hPa | 2.6V | 00:00:00 | 00:00:00 | 00:00:00 | |
| DO2SHX-10 | 2026-08-30 12:34:17 | 52.42286 | 15.03564 | 18° | 38km/h | 34654m | 5.5m/s | -35.0°C | 1.9% | 6.0hPa | 2.6V | 00:00:00 | 02:23:03 | 00:00:00 | |
| DO2SHX-10 | 2026-08-30 12:34:14 | 52.42259 | 15.03551 | 14° | 26km/h | 34635m | 5.0m/s | -34.7°C | 1.9% | 6.0hPa | 2.6V | 00:00:00 | 02:23:00 | 00:00:00 | |
| KRY50SP-1 | 2026-08-30 12:34:13 | 52.42259 | 15.03551 | 15° | 33km/h | 34635m | 5.1m/s | -34.8°C | 0.5% | 6.1hPa | 2.6V | 00:00:00 | 00:00:00 | 00:00:00 | |
| DO2SHX-10 | 2026-08-30 12:34:11 | 52.42243 | 15.03541 | 49° | 13km/h | 34618m | 8.1m/s | -34.8°C | 1.9% | 6.0hPa | 2.6V | 00:00:00 | 02:22:57 | 00:00:00 | |
| SQ2ODE-11 | 2026-08-30 12:34:09 | 52.42242 | 15.03532 | 82° | 13km/h | 34605m | 4.6m/s | -35.0°C | 0.5% | 6.1hPa | 2.6V | 00:00:00 | 00:00:00 | 00:00:00 | |
| DL2RXE-15 | 2026-08-30 12:34:08 | 52.42242 | 15.03532 | 82° | 13km/h | 34605m | 4.6m/s | -35.0°C | 0.5% | 6.1hPa | 2.6V | 00:00:00 | 00:00:00 | 00:00:00 | |
| KRY50SP-1 | 2026-08-30 12:34:07 | 52.42240 | 15.03527 | 57° | 15km/h | 34600m | 4.4m/s | -34.9°C | 0.5% | 6.1hPa | 2.6V | 00:00:00 | 00:00:00 | 00:00:00 | |
| DO2SHX-10 | 2026-08-30 12:33:59 | 52.42166 | 15.03506 | 360° | 24km/h | 34546m | 5.4m/s | -35.4°C | 2.0% | 6.1hPa | 2.6V | 00:00:00 | 02:22:45 | 00:00:00 | |
| SQ2ODE-11 | 2026-08-30 12:33:58 | 52.42160 | 15.03506 | 357° | 22km/h | 34540m | 5.9m/s | -35.4°C | 0.5% | 6.2hPa | 2.6V | 00:00:00 | 00:00:00 | 00:00:00 | |
| DO2SHX-10 | 2026-08-30 12:33:56 | 52.42148 | 15.03508 | 357° | 29km/h | 34527m | 6.4m/s | -35.4°C | 2.0% | 6.1hPa | 2.6V | 00:00:00 | 02:22:42 | 00:00:00 | |
| MECKS9 | 2026-08-30 12:33:55 | 52.42148 | 15.03508 | 358° | 26km/h | 34527m | 6.5m/s | -35.4°C | 0.5% | 6.2hPa | 2.6V | 00:00:00 | 00:00:00 | 00:00:00 | |
| AA1-15 | 2026-08-30 12:33:48 | 52.42093 | 15.03504 | 344° | 37km/h | 34480m | 7.5m/s | -36°C | 0% | 6.2hPa | 2.6V | 18:12:15 | 02:22:34 | 00:00:00 | |
| DO2SHX-10 | 2026-08-30 12:33:45 | 52.42063 | 15.03527 | 330° | 40km/h | 34461m | 5.1m/s | -35.8°C | 2.0% | 6.2hPa | 2.6V | 00:00:00 | 02:22:31 | 00:00:00 | |
| DAC517 | 2026-08-30 12:33:44 | 52.42053 | 15.03537 | 331° | 42km/h | 34455m | 5.8m/s | -35.9°C | 0.5% | 6.3hPa | 2.6V | 00:00:00 | 00:00:00 | 00:00:00 | |
| SP6BVK | 2026-08-30 12:33:43 | 52.42053 | 15.03537 | 331° | 42km/h | 34455m | 5.8m/s | -35.9°C | 0.5% | 6.3hPa | 2.6V | 00:00:00 | 00:00:00 | 00:00:00 | |
| DO2SHX-10 | 2026-08-30 12:33:42 | 52.42038 | 15.03550 | 341° | 26km/h | 34443m | 5.7m/s | -35.7°C | 2.0% | 6.2hPa | 2.6V | 00:00:00 | 02:22:28 | 08:30:00 | |
| DB0DAN | 2026-08-30 12:33:40 | 52.42025 | 15.03553 | 360° | 26km/h | 34431m | 5.7m/s | -35.9°C | 0.5% | 6.28hPa | 2.7V | 00:00:00 | 00:00:00 | 00:00:00 | |
| DO2SHX-10 | 2026-08-30 12:33:39 | 52.42018 | 15.03553 | 3° | 35km/h | 34425m | 6.8m/s | -35.9°C | 2.0% | 6.2hPa | 2.7V | 00:00:00 | 02:22:25 | 00:00:00 | |
| KRY50SP-1 | 2026-08-30 12:33:38 | 52.42018 | 15.03553 | 4° | 29km/h | 34425m | 6.9m/s | -36.0°C | 0.5% | 6.3hPa | 2.7V | 00:00:00 | 00:00:00 | 00:00:00 | |
| DO2SHX-10 | 2026-08-30 12:33:36 | 52.41990 | 15.03552 | 358° | 35km/h | 34407m | 5.0m/s | -35.8°C | 2.0% | 6.2hPa | 2.7V | 00:00:00 | 02:22:22 | 00:00:00 | |
| DO2SHX-10 | 2026-08-30 12:33:34 | 52.41966 | 15.03559 | 339° | 24km/h | 34389m | 7.1m/s | -35.8°C | 2.0% | 6.3hPa | 2.7V | 00:00:00 | 02:22:19 | 00:00:00 | |
| DJ2DS-15 | 2026-08-30 12:33:33 | 52.41966 | 15.03559 | 339° | 22km/h | 34389m | 7.1m/s | -35.8°C | 2.0% | 6.3hPa | 2.7V | 00:00:00 | 02:22:19 | 00:00:00 | |
| KRY50SP-1 | 2026-08-30 12:33:32 | 52.41966 | 15.03559 | 340° | 26km/h | 34389m | 7.1m/s | -35.9°C | 0.5% | 6.3hPa | 2.7V | 00:00:00 | 00:00:00 | 00:00:00 | |
| SONDE2-12 | 2026-08-30 12:33:31 | 52.41952 | 15.03577 | 314° | 27km/h | 34370m | 6.1m/s | -35.8°C | 0.5% | 6.3hPa | 2.7V | 00:00:00 | 00:00:00 | 00:00:00 | |
| DO2SHX-10 | 2026-08-30 12:33:30 | 52.41952 | 15.03577 | 315° | 31km/h | 34370m | 6.0m/s | -35.8°C | 2.0% | 6.3hPa | 2.7V | 00:00:00 | 02:22:16 | 00:00:00 | |
| OK1SLM-15 | 2026-08-30 12:33:29 | 52.41952 | 15.03577 | 316° | 27km/h | 34370m | 6.1m/s | -35.8°C | 0% | 0hPa | 2.7V | 00:00:00 | 00:00:00 | 00:00:00 | |
| DO2SHX-10 | 2026-08-30 12:33:27 | 52.41932 | 15.03601 | 333° | 24km/h | 34352m | 4.7m/s | -35.7°C | 2.0% | 6.3hPa | 2.7V | 00:00:00 | 02:22:13 | 00:00:00 | |
| KRY50SP-1 | 2026-08-30 12:33:26 | 52.41932 | 15.03601 | 334° | 35km/h | 34352m | 4.7m/s | -35.8°C | 0.5% | 6.3hPa | 2.7V | 00:00:00 | 00:00:00 | 00:00:00 | |
| MECKS9 | 2026-08-30 12:33:24 | 52.41917 | 15.03610 | 349° | 27km/h | 34341m | 7.0m/s | -35.9°C | 0.5% | 6.4hPa | 2.7V | 00:00:00 | 00:00:00 | 00:00:00 | |
| DO2SHX-10 | 2026-08-30 12:33:17 | 52.41879 | 15.03623 | 322° | 18km/h | 34290m | 6.0m/s | -35.9°C | 2.0% | 6.3hPa | 2.7V | 00:00:00 | 02:22:03 | 00:00:00 | |
| KRY50SP-1 | 2026-08-30 12:33:16 | 52.41875 | 15.03629 | 324° | 18km/h | 34283m | 7.1m/s | -36.0°C | 0.5% | 6.4hPa | 2.7V | 00:00:00 | 00:00:00 | 00:00:00 | |
| MECKS9 | 2026-08-30 12:33:14 | 52.41868 | 15.03635 | 341° | 15km/h | 34270m | 6.2m/s | -36.0°C | 0.5% | 6.4hPa | 2.7V | 00:00:00 | 00:00:00 | 00:00:00 | |
| DO2SHX-10 | 2026-08-30 12:33:11 | 52.41855 | 15.03639 | 352° | 16km/h | 34251m | 7.1m/s | -35.9°C | 2.0% | 6.4hPa | 2.7V | 00:00:00 | 02:21:57 | 00:00:00 | |
| KRY50SP-1 | 2026-08-30 12:33:09 | 52.41849 | 15.03640 | 351° | 22km/h | 34245m | 5.6m/s | -36.0°C | 0.5% | 6.4hPa | 2.7V | 00:00:00 | 00:00:00 | 00:00:00 | |
| SQ2ODE-11 | 2026-08-30 12:33:07 | 52.41840 | 15.03643 | 352° | 13km/h | 34235m | 5.2m/s | -36.0°C | 0.5% | 6.4hPa | 2.7V | 00:00:00 | 00:00:00 | 00:00:00 | |
| AA1-15 | 2026-08-30 12:33:06 | 52.41840 | 15.03643 | 170° | 11km/h | 34213m | 6.6m/s | -36.1°C | 0% | 6.5hPa | 2.7V | 18:12:15 | 02:21:51 | 00:00:00 | |
| DO2SHX-10 | 2026-08-30 12:32:56 | 52.41825 | 15.03648 | 47° | 15km/h | 34157m | 6.4m/s | -36.1°C | 2.0% | 6.5hPa | 2.6V | 00:00:00 | 02:21:42 | 00:00:00 | |
| SQ2ODE-11 | 2026-08-30 12:32:54 | 52.41823 | 15.03642 | 74° | 15km/h | 34150m | 5.9m/s | -36.3°C | 0.5% | 6.5hPa | 2.7V | 00:00:00 | 00:00:00 | 00:00:00 | |
| DO2SHX-10 | 2026-08-30 12:32:53 | 52.41824 | 15.03631 | 113° | 5km/h | 34139m | 6.3m/s | -36.3°C | 2.1% | 6.5hPa | 2.7V | 00:00:00 | 02:21:39 | 00:00:00 | |
| KRY50SP-1 | 2026-08-30 12:32:52 | 52.41824 | 15.03631 | 114° | 11km/h | 34139m | 6.3m/s | -36.3°C | 0.5% | 6.6hPa | 2.7V | 00:00:00 | 00:00:00 | 00:00:00 | |
| SP3WXH-11 | 2026-08-30 12:32:49 | 52.41827 | 15.03625 | 43° | 0km/h | 34113m | 5.3m/s | -36.4°C | 0.5% | 6.6hPa | 2.7V | 00:00:00 | 00:00:00 | 00:00:00 | |
| EDDB2-12 | 2026-08-30 12:32:48 | 52.41826 | 15.03622 | 86° | 9km/h | 34102m | 6.6m/s | -36.3°C | 0.5% | 6.6hPa | 2.7V | 00:00:00 | 00:00:00 | 00:00:00 | |
| AA1-15 | 2026-08-30 12:32:43 | 52.41831 | 15.03595 | 119° | 16km/h | 34078m | 4.9m/s | -36.7°C | 0% | 6.6hPa | 2.7V | 18:12:15 | 02:21:29 | 00:00:00 | |
| SQ2ODE-11 | 2026-08-30 12:32:37 | 52.41834 | 15.03601 | 294° | 13km/h | 34046m | 5.9m/s | -36.6°C | 0.5% | 6.6hPa | 2.6V | 00:00:00 | 00:00:00 | 00:00:00 | |
| DO2SHX-10 | 2026-08-30 12:32:35 | 52.41828 | 15.03605 | 17° | 11km/h | 34026m | 6.3m/s | -36.5°C | 2.0% | 6.6hPa | 2.6V | 00:00:00 | 02:21:21 | 00:00:00 | |
| SQ2ODE-11 | 2026-08-30 12:32:32 | 52.41818 | 15.03599 | 17° | 13km/h | 34006m | 6.1m/s | -36.8°C | 0.5% | 6.7hPa | 2.6V | 00:00:00 | 00:00:00 | 00:00:00 | |
| DO2SHX-10 | 2026-08-30 12:32:28 | 52.41813 | 15.03589 | 101° | 11km/h | 33983m | 7.1m/s | -36.8°C | 2.1% | 6.7hPa | 2.6V | 00:00:00 | 02:21:14 | 08:30:00 | |
| DJ2DS-15 | 2026-08-30 12:32:26 | 52.41815 | 15.03580 | 129° | 11km/h | 33971m | 5.2m/s | -37.0°C | 2.1% | 6.7hPa | 2.6V | 00:00:00 | 02:21:12 | 00:00:00 | |
| DO2SHX-10 | 2026-08-30 12:32:25 | 52.41817 | 15.03577 | 155° | 7km/h | 33965m | 6.7m/s | -36.9°C | 2.1% | 6.7hPa | 2.6V | 00:00:00 | 02:21:11 | 00:00:00 | |
| SQ2ODE-11 | 2026-08-30 12:32:24 | 52.41817 | 15.03577 | 156° | 5km/h | 33965m | 6.7m/s | -37.0°C | 0.5% | 6.7hPa | 2.6V | 00:00:00 | 00:00:00 | 00:00:00 | |
| SP6BVK | 2026-08-30 12:32:22 | 52.41817 | 15.03584 | 301° | 11km/h | 33946m | 5.3m/s | -37.1°C | 0.5% | 6.7hPa | 2.6V | 00:00:00 | 00:00:00 | 00:00:00 | |
| SQ2ODE-11 | 2026-08-30 12:32:19 | 52.41813 | 15.03590 | 354° | 11km/h | 33934m | 6.7m/s | -37.2°C | 0.5% | 6.7hPa | 2.6V | 00:00:00 | 00:00:00 | 00:00:00 | |
| DO2SHX-10 | 2026-08-30 12:32:14 | 52.41803 | 15.03575 | 25° | 2km/h | 33896m | 6.0m/s | -37.3°C | 2.1% | 6.7hPa | 2.6V | 00:00:00 | 02:21:00 | 00:00:00 | |
| SQ2ODE-11 | 2026-08-30 12:32:12 | 52.41803 | 15.03575 | 0° | 0km/h | 33890m | 5.1m/s | -37.4°C | 0.5% | 6.8hPa | 2.6V | 00:00:00 | 00:00:00 | 00:00:00 | |
| DO2SHX-10 | 2026-08-30 12:32:11 | 52.41801 | 15.03572 | 63° | 13km/h | 33878m | 7.3m/s | -37.5°C | 2.2% | 6.8hPa | 2.6V | 00:00:00 | 02:20:57 | 00:00:00 | |
| DO2SHX-10 | 2026-08-30 12:32:08 | 52.41797 | 15.03555 | 69° | 15km/h | 33859m | 5.3m/s | -37.4°C | 2.2% | 6.8hPa | 2.6V | 00:00:00 | 02:20:54 | 00:00:00 | |
| DJ2DS-15 | 2026-08-30 12:32:06 | 52.41794 | 15.03543 | 72° | 18km/h | 33847m | 6.6m/s | -37.5°C | 2.2% | 6.8hPa | 2.6V | 00:00:00 | 02:20:52 | 00:00:00 | |
| DO2SHX-10 | 2026-08-30 12:32:05 | 52.41793 | 15.03539 | 84° | 13km/h | 33840m | 6.0m/s | -37.3°C | 2.2% | 6.8hPa | 2.7V | 00:00:00 | 02:20:51 | 00:00:00 | |
| KRY50SP-1 | 2026-08-30 12:32:03 | 52.41793 | 15.03530 | 92° | 15km/h | 33829m | 6.3m/s | -37.3°C | 0.5% | 6.9hPa | 2.7V | 00:00:00 | 00:00:00 | 00:00:00 | |
| AA1-15 | 2026-08-30 12:32:02 | 52.41792 | 15.03505 | 78° | 24km/h | 33808m | 5.5m/s | -37.2°C | 0% | 6.9hPa | 2.7V | 18:12:15 | 02:20:46 | 00:00:00 | |
| SQ2ODE-11 | 2026-08-30 12:32:01 | 52.41793 | 15.03514 | 85° | 24km/h | 33815m | 6.6m/s | -37.3°C | 0.5% | 6.9hPa | 2.6V | 00:00:00 | 00:00:00 | 00:00:00 | |
| DL2RXE-15 | 2026-08-30 12:31:59 | 52.41792 | 15.03505 | 79° | 24km/h | 33809m | 5.5m/s | -37.2°C | 0.5% | 6.9hPa | 2.6V | 00:00:00 | 00:00:00 | 00:00:00 | |
| MECKS9 | 2026-08-30 12:31:58 | 52.41790 | 15.03496 | 71° | 22km/h | 33803m | 5.8m/s | -37.2°C | 0.5% | 6.9hPa | 2.6V | 00:00:00 | 00:00:00 | 00:00:00 | |
| SONDE2-12 | 2026-08-30 12:31:57 | 52.41786 | 15.03484 | 41° | 15km/h | 33789m | 6.7m/s | -37.3°C | 0% | 6.9hPa | 2.6V | 00:00:00 | 00:00:00 | 00:00:00 | |
| SQ2ODE-11 | 2026-08-30 12:31:56 | 52.41783 | 15.03480 | 33° | 15km/h | 33783m | 5.5m/s | -37.3°C | 0.5% | 6.9hPa | 2.6V | 00:00:00 | 00:00:00 | 00:00:00 | |
| DO2SHX-10 | 2026-08-30 12:31:53 | 52.41774 | 15.03466 | 64° | 24km/h | 33764m | 7.1m/s | -37.2°C | 2.1% | 6.9hPa | 2.6V | 00:00:00 | 02:20:39 | 00:00:00 | |
| KRY50SP-1 | 2026-08-30 12:31:51 | 52.41772 | 15.03457 | 75° | 24km/h | 33758m | 6.2m/s | -37.4°C | 0.5% | 7.0hPa | 2.6V | 00:00:00 | 00:00:00 | 00:00:00 | |
| SQ2ODE-11 | 2026-08-30 12:31:50 | 52.41771 | 15.03447 | 80° | 24km/h | 33751m | 6.0m/s | -37.3°C | 0.5% | 6.9hPa | 2.6V | 00:00:00 | 00:00:00 | 00:00:00 | |
| SP3WXH-11 | 2026-08-30 12:31:47 | 52.41771 | 15.03417 | 101° | 13km/h | 33726m | 5.5m/s | -37.5°C | 0.5% | 7.0hPa | 2.6V | 00:00:00 | 00:00:00 | 00:00:00 | |
| EDDB2-12 | 2026-08-30 12:31:46 | 52.41772 | 15.03404 | 96° | 18km/h | 33714m | 7.1m/s | -37.4°C | 0.5% | 7.0hPa | 2.6V | 00:00:00 | 00:00:00 | 00:00:00 | |
| AA1-15 | 2026-08-30 12:31:41 | 52.41766 | 15.03351 | 52° | 18km/h | 33675m | 6.1m/s | -37.6°C | 0% | 7hPa | 2.6V | 18:12:15 | 02:20:25 | 00:00:00 | |
| SQ2ODE-11 | 2026-08-30 12:31:34 | 52.41754 | 15.03311 | 85° | 27km/h | 33644m | 5.5m/s | -37.8°C | 0.5% | 7.1hPa | 2.6V | 00:00:00 | 00:00:00 | 00:00:00 | |
| AA1-15 | 2026-08-30 12:31:30 | 52.41758 | 15.03263 | 105° | 18km/h | 33609m | 5.9m/s | -38.2°C | 0% | 7.1hPa | 2.6V | 18:12:15 | 02:20:14 | 00:00:00 | |
| DO2SHX-10 | 2026-08-30 12:31:21 | 52.41754 | 15.03204 | 42° | 22km/h | 33564m | 5.6m/s | -38.3°C | 2.2% | 7.1hPa | 2.7V | 00:00:00 | 02:20:07 | 00:00:00 | |
| SP6BVK | 2026-08-30 12:31:20 | 52.41754 | 15.03204 | 42° | 15km/h | 33564m | 5.6m/s | -38.3°C | 0.6% | 7.1hPa | 2.7V | 00:00:00 | 00:00:00 | 00:00:00 | |
| SQ2ODE-11 | 2026-08-30 12:31:17 | 52.41744 | 15.03188 | 52° | 24km/h | 33547m | 7.3m/s | -38.3°C | 0.6% | 7.2hPa | 2.7V | 00:00:00 | 00:00:00 | 00:00:00 | |
| SP3WXH-11 | 2026-08-30 12:31:16 | 52.41734 | 15.03159 | 71° | 26km/h | 33527m | 6.4m/s | -38.6°C | 0.6% | 7.2hPa | 2.7V | 00:00:00 | 00:00:00 | 00:00:00 | |
| MECKS9 | 2026-08-30 12:31:15 | 52.41734 | 15.03159 | 72° | 26km/h | 33527m | 6.4m/s | -38.5°C | 0.6% | 7.2hPa | 2.7V | 00:00:00 | 00:00:00 | 00:00:00 | |
| DJ2DS-15 | 2026-08-30 12:31:13 | 52.41731 | 15.03141 | 82° | 24km/h | 33514m | 6.7m/s | -38.3°C | 2.2% | 7.1hPa | 2.7V | 00:00:00 | 02:19:59 | 00:00:00 | |
| KRY50SP-1 | 2026-08-30 12:31:12 | 52.41731 | 15.03141 | 83° | 20km/h | 33514m | 6.7m/s | -38.4°C | 0.6% | 7.2hPa | 2.7V | 00:00:00 | 00:00:00 | 00:00:00 | |
| SQ2ODE-11 | 2026-08-30 12:31:11 | 52.41730 | 15.03133 | 84° | 18km/h | 33507m | 6.3m/s | -38.4°C | 0.5% | 7.2hPa | 2.7V | 00:00:00 | 00:00:00 | 00:00:00 | |
| DB0DAN | 2026-08-30 12:31:10 | 52.41729 | 15.03118 | 75° | 20km/h | 33493m | 7.1m/s | -38.5°C | 0.6% | 7.22hPa | 2.7V | 00:00:00 | 00:00:00 | 00:00:00 | |
| DO2SHX-10 | 2026-08-30 12:31:07 | 52.41721 | 15.03091 | 55° | 18km/h | 33476m | 5.3m/s | -38.4°C | 2.2% | 7.2hPa | 2.6V | 00:00:00 | 02:19:53 | 08:30:00 | |
| SQ2ODE-11 | 2026-08-30 12:31:06 | 52.41722 | 15.03091 | 56° | 22km/h | 33476m | 5.4m/s | -38.4°C | 0.6% | 7.2hPa | 2.6V | 00:00:00 | 00:00:00 | 00:00:00 | |
| MECKS9 | 2026-08-30 12:31:03 | 52.41712 | 15.03075 | 48° | 15km/h | 33457m | 5.6m/s | -38.6°C | 0.5% | 7.3hPa | 2.6V | 00:00:00 | 00:00:00 | 00:00:00 | |
| AA1-15 | 2026-08-30 12:30:57 | 52.41699 | 15.02997 | 55° | 20km/h | 33406m | 5.9m/s | -38.6°C | 0% | 7.3hPa | 2.6V | 18:12:15 | 02:19:42 | 00:00:00 | |
| SONDE2-12 | 2026-08-30 12:30:56 | 52.41695 | 15.02991 | 40° | 20km/h | 33401m | 5.2m/s | -38.7°C | 0.6% | 7.3hPa | 2.6V | 00:00:00 | 00:00:00 | 00:00:00 | |
| AA1-15 | 2026-08-30 12:30:46 | 52.41653 | 15.02942 | 58° | 20km/h | 33342m | 6.8m/s | -39°C | 0% | 7.4hPa | 2.6V | 18:12:15 | 02:19:32 | 00:00:00 | |
| DO2SHX-10 | 2026-08-30 12:30:38 | 52.41630 | 15.02877 | 29° | 24km/h | 33292m | 5.1m/s | -38.8°C | 2.3% | 7.4hPa | 2.7V | 00:00:00 | 02:19:24 | 00:00:00 | |
| SQ2ODE-11 | 2026-08-30 12:30:37 | 52.41630 | 15.02877 | 29° | 20km/h | 33292m | 5.2m/s | -38.9°C | 0.6% | 7.4hPa | 2.7V | 00:00:00 | 00:00:00 | 00:00:00 | |
| DO2SHX-10 | 2026-08-30 12:30:35 | 52.41615 | 15.02857 | 48° | 29km/h | 33272m | 6.1m/s | -38.8°C | 2.3% | 7.4hPa | 2.7V | 00:00:00 | 02:19:21 | 08:30:00 | |
| DJ2DS-15 | 2026-08-30 12:30:33 | 52.41606 | 15.02839 | 58° | 20km/h | 33260m | 5.8m/s | -38.9°C | 2.3% | 7.4hPa | 2.6V | 00:00:00 | 02:19:19 | 00:00:00 | |
| MECKS9 | 2026-08-30 12:30:32 | 52.41603 | 15.02830 | 60° | 22km/h | 33254m | 7.4m/s | -39.0°C | 0.6% | 7.5hPa | 2.6V | 00:00:00 | 00:00:00 | 00:00:00 | |
| SQ2ODE-11 | 2026-08-30 12:30:31 | 52.41601 | 15.02824 | 60° | 16km/h | 33246m | 6.9m/s | -38.9°C | 0.6% | 7.5hPa | 2.6V | 00:00:00 | 00:00:00 | 00:00:00 | |
| DO2SHX-10 | 2026-08-30 12:30:29 | 52.41597 | 15.02814 | 51° | 18km/h | 33234m | 5.5m/s | -38.8°C | 2.3% | 7.5hPa | 2.6V | 00:00:00 | 02:19:15 | 00:00:00 | |
| KRY50SP-1 | 2026-08-30 12:30:27 | 52.41594 | 15.02809 | 49° | 18km/h | 33228m | 6.9m/s | -39.0°C | 0.6% | 7.5hPa | 2.6V | 00:00:00 | 00:00:00 | 00:00:00 | |
| DO2SHX-10 | 2026-08-30 12:30:26 | 52.41586 | 15.02795 | 46° | 24km/h | 33214m | 5.7m/s | -38.9°C | 2.3% | 7.5hPa | 2.6V | 00:00:00 | 02:19:12 | 00:00:00 | |
| SQ2ODE-11 | 2026-08-30 12:30:25 | 52.41580 | 15.02787 | 41° | 31km/h | 33209m | 5.0m/s | -38.9°C | 0.6% | 7.5hPa | 2.6V | 00:00:00 | 00:00:00 | 00:00:00 | |
| DO2SHX-10 | 2026-08-30 12:30:21 | 52.41560 | 15.02766 | 27° | 16km/h | 33184m | 5.9m/s | -39.0°C | 2.3% | 7.5hPa | 2.6V | 00:00:00 | 02:19:07 | 00:00:00 | |
| MECKS9 | 2026-08-30 12:30:20 | 52.41560 | 15.02767 | 27° | 15km/h | 33184m | 5.9m/s | -39.0°C | 0.6% | 7.6hPa | 2.6V | 00:00:00 | 00:00:00 | 00:00:00 | |
| SQ2ODE-11 | 2026-08-30 12:30:18 | 52.41556 | 15.02759 | 66° | 15km/h | 33171m | 7.0m/s | -39.0°C | 0.6% | 7.6hPa | 2.6V | 00:00:00 | 00:00:00 | 00:00:00 | |
| SP6BVK | 2026-08-30 12:30:17 | 52.41555 | 15.02753 | 76° | 18km/h | 33164m | 7.3m/s | -39.1°C | 0.6% | 7.6hPa | 2.6V | 00:00:00 | 00:00:00 | 00:00:00 | |
| AA1-15 | 2026-08-30 12:30:13 | 52.41546 | 15.02716 | 27° | 13km/h | 33133m | 7.5m/s | -39.2°C | 0% | 7.6hPa | 2.6V | 18:12:15 | 02:18:59 | 00:00:00 | |
| SQ2ODE-11 | 2026-08-30 12:30:07 | 52.41526 | 15.02710 | 41° | 18km/h | 33101m | 6.5m/s | -39.2°C | 0.6% | 7.7hPa | 2.6V | 00:00:00 | 00:00:00 | 00:00:00 | |
| DO2SHX-10 | 2026-08-30 12:29:54 | 52.41514 | 15.02661 | 327° | 7km/h | 33011m | 4.7m/s | -39.4°C | 2.3% | 7.7hPa | 2.6V | 00:00:00 | 02:18:40 | 08:30:00 | |
| SONDE2-12 | 2026-08-30 12:29:53 | 52.41514 | 15.02661 | 94° | 4km/h | 33005m | 6.7m/s | -39.5°C | 0.6% | 7.8hPa | 2.7V | 00:00:00 | 00:00:00 | 00:00:00 | |
| DJ2DS-15 | 2026-08-30 12:29:52 | 52.41514 | 15.02657 | 116° | 18km/h | 32998m | 7.6m/s | -39.5°C | 2.3% | 7.7hPa | 2.7V | 00:00:00 | 02:18:38 | 00:00:00 | |
| DO2SHX-10 | 2026-08-30 12:29:51 | 52.41517 | 15.02650 | 123° | 29km/h | 32990m | 7.2m/s | -39.4°C | 2.3% | 7.7hPa | 2.7V | 00:00:00 | 02:18:37 | 00:00:00 | |
| 13BRC | 2026-08-30 12:29:50 | 52.41521 | 15.02641 | 129° | 31km/h | 32983m | 6.6m/s | -39.6°C | 0.6% | 7.8hPa | 2.7V | 00:00:00 | 00:00:00 | 00:00:00 | |
| DO2SHX-10 | 2026-08-30 12:29:48 | 52.41532 | 15.02622 | 142° | 20km/h | 32971m | 6.5m/s | -39.6°C | 2.3% | 7.8hPa | 2.7V | 00:00:00 | 02:18:34 | 00:00:00 | |
| MECKS9 | 2026-08-30 12:29:46 | 52.41538 | 15.02616 | 153° | 24km/h | 32964m | 6.0m/s | -39.6°C | 0.6% | 7.8hPa | 2.7V | 00:00:00 | 00:00:00 | 00:00:00 | |
| SQ2ODE-11 | 2026-08-30 12:29:45 | 52.41546 | 15.02611 | 167° | 7km/h | 32953m | 6.0m/s | -39.7°C | 0.6% | 7.8hPa | 2.7V | 00:00:00 | 00:00:00 | 00:00:00 | |
| KRY50SP-1 | 2026-08-30 12:29:43 | 52.41547 | 15.02610 | 124° | 2km/h | 32946m | 7.4m/s | -39.6°C | 0.6% | 7.9hPa | 2.7V | 00:00:00 | 00:00:00 | 00:00:00 | |
| SP3BTT-10 | 2026-08-30 12:29:42 | 52.41544 | 15.02608 | 18° | 22km/h | 32931m | 6.9m/s | -39.7°C | 2.4% | 7.8hPa | 2.7V | 00:00:00 | 00:00:00 | 00:00:00 | |
| AA1-15 | 2026-08-30 12:29:32 | 52.41540 | 15.02555 | 120° | 24km/h | 32868m | 5.3m/s | -39.7°C | 0% | 7.9hPa | 2.7V | 18:12:15 | 02:18:18 | 00:00:00 | |
| AA1-15 | 2026-08-30 12:29:22 | 52.41531 | 15.02495 | 113° | 33km/h | 32799m | 7.2m/s | -39.7°C | 0% | 8hPa | 2.7V | 18:12:15 | 02:18:07 | 00:00:00 | |
| KRY50SP-1 | 2026-08-30 12:29:15 | 52.41554 | 15.02461 | 108° | 13km/h | 32761m | 7.0m/s | -39.6°C | 0.6% | 8.1hPa | 2.6V | 00:00:00 | 00:00:00 | 00:00:00 | |
| DO2SHX-10 | 2026-08-30 12:29:12 | 52.41550 | 15.02441 | 64° | 16km/h | 32742m | 5.7m/s | -39.6°C | 2.3% | 8.0hPa | 2.6V | 00:00:00 | 02:17:58 | 00:00:00 | |
| SQ2ODE-11 | 2026-08-30 12:29:11 | 52.41550 | 15.02441 | 64° | 20km/h | 32742m | 5.8m/s | -39.6°C | 0.6% | 8.1hPa | 2.7V | 00:00:00 | 00:00:00 | 00:00:00 | |
| AA1-15 | 2026-08-30 12:29:11 | 52.41548 | 15.02434 | 62° | 20km/h | 32735m | 6.8m/s | -39.7°C | 0% | 8.1hPa | 2.6V | 18:12:15 | 02:17:57 | 00:00:00 | |
| KRY50SP-1 | 2026-08-30 12:29:08 | 52.41545 | 15.02421 | 79° | 15km/h | 32722m | 6.2m/s | -39.7°C | 0.6% | 8.1hPa | 2.7V | 00:00:00 | 00:00:00 | 00:00:00 | |
| AA1-15 | 2026-08-30 12:29:01 | 52.41556 | 15.02332 | 105° | 27km/h | 32672m | 7m/s | -39.8°C | 0% | 8.2hPa | 2.7V | 18:12:15 | 02:17:47 | 00:00:00 | |
| DO2SHX-10 | 2026-08-30 12:29:01 | 52.41556 | 15.02332 | 106° | 26km/h | 32672m | 7.0m/s | -39.7°C | 2.3% | 8.1hPa | 2.7V | 00:00:00 | 02:17:47 | 08:30:00 | |
| 13BRC | 2026-08-30 12:28:58 | 52.41561 | 15.02310 | 110° | 15km/h | 32652m | 5.4m/s | -39.8°C | 0.6% | 8.2hPa | 2.6V | 00:00:00 | 00:00:00 | 00:00:00 | |
| DB0DAN | 2026-08-30 12:28:55 | 52.41562 | 15.02286 | 90° | 27km/h | 32633m | 6.4m/s | -40°C | 0.6% | 8.22hPa | 2.6V | 00:00:00 | 00:00:00 | 00:00:00 | |
| SONDE2-12 | 2026-08-30 12:28:51 | 52.41567 | 15.02229 | 108° | 33km/h | 32608m | 7.2m/s | -40.1°C | 0.6% | 8.3hPa | 2.7V | 00:00:00 | 00:00:00 | 00:00:00 | |
| AA1-15 | 2026-08-30 12:28:50 | 52.41570 | 15.02216 | 114° | 33km/h | 32600m | 6.4m/s | -40.2°C | 0% | 8.3hPa | 2.7V | 18:12:15 | 02:17:36 | 00:00:00 | |
| SONDE2-11 | 2026-08-30 12:28:49 | 52.41573 | 15.02204 | 115° | 31km/h | 32595m | 5.7m/s | -40.3°C | 0.6% | 8.3hPa | 2.6V | 00:00:00 | 00:00:00 | 00:00:00 | |
| AA1-15 | 2026-08-30 12:28:40 | 52.41583 | 15.02100 | 94° | 22km/h | 32537m | 5.1m/s | -40.6°C | 0% | 8.4hPa | 2.6V | 18:12:15 | 02:17:26 | 00:00:00 | |
| AA1-15 | 2026-08-30 12:28:29 | 52.41575 | 15.01945 | 92° | 35km/h | 32465m | 7.2m/s | -41.5°C | 0% | 8.4hPa | 2.6V | 18:12:15 | 02:17:15 | 00:00:00 | |
| SONDE2-12 | 2026-08-30 12:28:20 | 52.41581 | 15.01814 | 77° | 49km/h | 32407m | 6.9m/s | -42.0°C | 0.7% | 8.5hPa | 2.6V | 00:00:00 | 00:00:00 | 00:00:00 | |
| AA1-15 | 2026-08-30 12:28:18 | 52.41573 | 15.01775 | 67° | 49km/h | 32394m | 6m/s | -42.1°C | 0% | 8.6hPa | 2.6V | 18:12:15 | 02:17:04 | 00:00:00 | |
| AA1-15 | 2026-08-30 12:28:08 | 52.41533 | 15.01630 | 61° | 33km/h | 32323m | 7.5m/s | -42.4°C | 0% | 8.6hPa | 2.7V | 18:12:15 | 02:16:53 | 00:00:00 | |
| AA1-15 | 2026-08-30 12:27:57 | 52.41479 | 15.01514 | 51° | 29km/h | 32250m | 6.7m/s | -42.6°C | 0% | 8.7hPa | 2.6V | 18:12:15 | 02:16:42 | 00:00:00 | |
| SONDE2-12 | 2026-08-30 12:27:49 | 52.41443 | 15.01442 | 43° | 24km/h | 32204m | 5.3m/s | -42.5°C | 0.7% | 8.8hPa | 2.7V | 00:00:00 | 00:00:00 | 00:00:00 | |
| AA1-15 | 2026-08-30 12:27:46 | 52.41431 | 15.01415 | 61° | 29km/h | 32183m | 6.9m/s | -42.4°C | 0% | 8.8hPa | 2.7V | 18:12:15 | 02:16:32 | 00:00:00 | |
| AA1-15 | 2026-08-30 12:27:35 | 52.41370 | 15.01288 | 48° | 35km/h | 32111m | 6.5m/s | -42.6°C | 0% | 8.9hPa | 2.7V | 18:12:15 | 02:16:21 | 00:00:00 | |
| S3001 | 2026-08-30 12:27:34 | 52.41359 | 15.01268 | 55° | 29km/h | 32099m | 6.3m/s | -42.6°C | 0.7% | 8.9hPa | 2.7V | 00:00:00 | 00:00:00 | 00:00:00 | |
| DO2SHX-10 | 2026-08-30 12:27:33 | 52.41359 | 15.01268 | 56° | 33km/h | 32099m | 6.3m/s | -42.5°C | 2.7% | 8.9hPa | 2.7V | 00:00:00 | 02:16:19 | 08:30:00 | |
| DAC517 | 2026-08-30 12:27:30 | 52.41346 | 15.01231 | 61° | 37km/h | 32080m | 5.1m/s | -42.5°C | 0.7% | 9.0hPa | 2.6V | 00:00:00 | 00:00:00 | 00:00:00 | |
| OK1SLM-15 | 2026-08-30 12:27:29 | 52.41346 | 15.01231 | 61° | 37km/h | 32080m | 5.1m/s | -42.5°C | 0% | 0hPa | 2.6V | 00:00:00 | 00:00:00 | 00:00:00 | |
| DJ2DS-15 | 2026-08-30 12:27:28 | 52.41336 | 15.01207 | 46° | 26km/h | 32068m | 7.4m/s | -42.5°C | 2.7% | 8.9hPa | 2.6V | 00:00:00 | 02:16:14 | 00:00:00 | |
| DB0DAN | 2026-08-30 12:27:25 | 52.41314 | 15.01186 | 23° | 31km/h | 32048m | 5.3m/s | -42.5°C | 0.7% | 9.02hPa | 2.6V | 00:00:00 | 00:00:00 | 00:00:00 | |
| AA1-15 | 2026-08-30 12:27:25 | 52.41307 | 15.01180 | 29° | 33km/h | 32042m | 5.8m/s | -42.5°C | 0% | 9hPa | 2.7V | 18:12:15 | 02:16:10 | 00:00:00 | |
| SONDE2-12 | 2026-08-30 12:27:18 | 52.41269 | 15.01116 | 41° | 29km/h | 32004m | 7.0m/s | -42.5°C | 0.7% | 9.1hPa | 2.7V | 00:00:00 | 00:00:00 | 00:00:00 | |
| AA1-15 | 2026-08-30 12:27:14 | 52.41245 | 15.01090 | 48° | 20km/h | 31972m | 6.7m/s | -42.5°C | 0% | 9.1hPa | 2.7V | 18:12:15 | 02:15:59 | 00:00:00 | |
| SP6BVK | 2026-08-30 12:27:13 | 52.41245 | 15.01090 | 49° | 20km/h | 31972m | 6.7m/s | -42.5°C | 0.7% | 9.1hPa | 2.6V | 00:00:00 | 00:00:00 | 00:00:00 | |
| DB0DAN | 2026-08-30 12:27:10 | 52.41234 | 15.01070 | 36° | 22km/h | 31955m | 6m/s | -42.5°C | 0.7% | 9.13hPa | 2.6V | 00:00:00 | 00:00:00 | 00:00:00 | |
| AA1-15 | 2026-08-30 12:27:03 | 52.41188 | 15.01038 | 40° | 29km/h | 31908m | 6m/s | -42.4°C | 0% | 9.2hPa | 2.6V | 18:12:15 | 02:15:49 | 00:00:00 | |
| AA1-15 | 2026-08-30 12:26:53 | 52.41131 | 15.00976 | 19° | 29km/h | 31842m | 7.3m/s | -42.1°C | 0% | 9.3hPa | 2.7V | 18:12:15 | 02:15:39 | 00:00:00 | |
| SONDE2-12 | 2026-08-30 12:26:47 | 52.41085 | 15.00943 | 35° | 35km/h | 31803m | 5.8m/s | -42.2°C | 0.7% | 9.4hPa | 2.6V | 00:00:00 | 00:00:00 | 00:00:00 | |
| AA1-15 | 2026-08-30 12:26:42 | 52.41047 | 15.00915 | 20° | 27km/h | 31770m | 7.6m/s | -42.2°C | 0% | 9.4hPa | 2.6V | 18:12:15 | 02:15:28 | 00:00:00 | |
| AA1-15 | 2026-08-30 12:26:31 | 52.40965 | 15.00878 | 34° | 29km/h | 31700m | 5.2m/s | -42.2°C | 0% | 9.5hPa | 2.6V | 18:12:15 | 02:15:17 | 00:00:00 | |
| DO2SHX-10 | 2026-08-30 12:26:31 | 52.40965 | 15.00877 | 34° | 27km/h | 31701m | 5.1m/s | -42.2°C | 2.6% | 9.4hPa | 2.7V | 00:00:00 | 02:15:17 | 00:00:00 | |
| SQ2ODE-11 | 2026-08-30 12:26:30 | 52.40965 | 15.00877 | 35° | 29km/h | 31701m | 5.2m/s | -42.2°C | 0.7% | 9.5hPa | 2.7V | 00:00:00 | 00:00:00 | 00:00:00 | |
| OK1SLM-15 | 2026-08-30 12:26:29 | 52.40959 | 15.00871 | 28° | 27km/h | 31695m | 6.6m/s | -42.2°C | 0% | 0hPa | 2.7V | 00:00:00 | 00:00:00 | 00:00:00 | |
| DO2SHX-10 | 2026-08-30 12:26:28 | 52.40946 | 15.00866 | 5° | 24km/h | 31681m | 6.4m/s | -41.7°C | 2.6% | 9.5hPa | 2.7V | 00:00:00 | 02:15:14 | 00:00:00 | |
| DAC517 | 2026-08-30 12:26:27 | 52.40946 | 15.00866 | 6° | 26km/h | 31681m | 6.5m/s | -41.8°C | 0.7% | 9.5hPa | 2.6V | 00:00:00 | 00:00:00 | 00:00:00 | |
| DB0DAN | 2026-08-30 12:26:25 | 52.40930 | 15.00864 | 12° | 16km/h | 31661m | 7.1m/s | -41.7°C | 0.7% | 9.56hPa | 2.6V | 00:00:00 | 00:00:00 | 00:00:00 | |
| AA1-15 | 2026-08-30 12:26:20 | 52.40907 | 15.00849 | 15° | 24km/h | 31630m | 6.5m/s | -41.7°C | 0% | 9.6hPa | 2.6V | 18:12:15 | 02:15:06 | 00:00:00 | |
| SONDE2-12 | 2026-08-30 12:26:16 | 52.40886 | 15.00834 | 39° | 18km/h | 31605m | 5.8m/s | -42.0°C | 0% | 9.6hPa | 2.6V | 00:00:00 | 00:00:00 | 00:00:00 | |
| AA1-15 | 2026-08-30 12:26:09 | 52.40866 | 15.00833 | 359° | 9km/h | 31558m | 6.7m/s | -41.6°C | 0% | 9.7hPa | 2.6V | 18:12:15 | 02:14:55 | 00:00:00 | |
| AA1-15 | 2026-08-30 12:25:59 | 52.40826 | 15.00829 | 324° | 16km/h | 31481m | 6m/s | -42.1°C | 0% | 9.8hPa | 2.6V | 18:12:15 | 02:14:43 | 00:00:00 | |
| AA1-15 | 2026-08-30 12:25:47 | 52.40793 | 15.00830 | 357° | 18km/h | 31419m | 5.9m/s | -42.5°C | 0% | 9.9hPa | 2.7V | 18:12:15 | 02:14:33 | 00:00:00 | |
| SONDE2-12 | 2026-08-30 12:25:45 | 52.40786 | 15.00829 | 14° | 9km/h | 31406m | 6.0m/s | -42.5°C | 0.7% | 9.9hPa | 2.6V | 00:00:00 | 00:00:00 | 00:00:00 | |
| AA1-15 | 2026-08-30 12:25:37 | 52.40765 | 15.00834 | 31° | 16km/h | 31358m | 7.8m/s | -42.6°C | 0% | 10hPa | 2.6V | 18:12:15 | 02:14:23 | 00:00:00 | |
| AA1-15 | 2026-08-30 12:25:26 | 52.40738 | 15.00794 | 66° | 9km/h | 31290m | 5.4m/s | -43.1°C | 0% | 10.1hPa | 2.7V | 18:12:15 | 02:14:12 | 00:00:00 | |
| AA1-15 | 2026-08-30 12:25:15 | 52.40712 | 15.00746 | 30° | 29km/h | 31222m | 6.3m/s | -43.3°C | 0% | 10.2hPa | 2.6V | 18:12:15 | 02:14:01 | 00:00:00 | |
| SONDE2-12 | 2026-08-30 12:25:14 | 52.40706 | 15.00740 | 25° | 29km/h | 31217m | 5.2m/s | -43.2°C | 0.7% | 10.2hPa | 2.7V | 00:00:00 | 00:00:00 | 00:00:00 | |
| AA1-15 | 2026-08-30 12:25:05 | 52.40668 | 15.00692 | 27° | 27km/h | 31158m | 5.1m/s | -43.3°C | 0% | 10.3hPa | 2.7V | 18:12:15 | 02:13:50 | 00:00:00 | |
| AA1-15 | 2026-08-30 12:24:54 | 52.40601 | 15.00585 | 41° | 16km/h | 31084m | 4.9m/s | -43.5°C | 0% | 10.5hPa | 2.7V | 18:12:15 | 02:13:38 | 00:00:00 | |
| SONDE2-12 | 2026-08-30 12:24:43 | 52.40523 | 15.00508 | 39° | 44km/h | 31029m | 4.5m/s | -43.4°C | 0.8% | 10.6hPa | 2.6V | 00:00:00 | 00:00:00 | 00:00:00 | |
| AA1-15 | 2026-08-30 12:24:41 | 52.40507 | 15.00487 | 34° | 38km/h | 31017m | 7m/s | -43.6°C | 0% | 10.6hPa | 2.6V | 18:12:15 | 02:13:27 | 00:00:00 | |
| DB0DAN | 2026-08-30 12:24:40 | 52.40499 | 15.00480 | 30° | 31km/h | 31011m | 5.9m/s | -43.6°C | 0.7% | 10.55hPa | 2.6V | 00:00:00 | 00:00:00 | 00:00:00 | |
| AA1-15 | 2026-08-30 12:24:30 | 52.40426 | 15.00418 | 28° | 49km/h | 30952m | 6.5m/s | -43.7°C | 0% | 10.7hPa | 2.7V | 18:12:15 | 02:13:16 | 00:00:00 | |
| DO2SHX-10 | 2026-08-30 12:24:29 | 52.40416 | 15.00408 | 34° | 42km/h | 30945m | 6.7m/s | -43.7°C | 2.7% | 10.6hPa | 2.6V | 00:00:00 | 02:13:15 | 00:00:00 | |
| OK1SLM-15 | 2026-08-30 12:24:28 | 52.40416 | 15.00408 | 35° | 46km/h | 30945m | 6.7m/s | -43.7°C | 0% | 0hPa | 2.6V | 00:00:00 | 00:00:00 | 00:00:00 | |
| SP6BVK | 2026-08-30 12:24:27 | 52.40407 | 15.00398 | 39° | 42km/h | 30939m | 5.7m/s | -43.8°C | 0.7% | 10.7hPa | 2.6V | 00:00:00 | 00:00:00 | 00:00:00 | |
| DB0DAN | 2026-08-30 12:24:25 | 52.40386 | 15.00371 | 32° | 27km/h | 30920m | 5.9m/s | -43.6°C | 0.7% | 10.72hPa | 2.6V | 00:00:00 | 00:00:00 | 00:00:00 | |
| AA1-15 | 2026-08-30 12:24:20 | 52.40365 | 15.00358 | 3° | 20km/h | 30890m | 4.7m/s | -43.7°C | 0% | 10.8hPa | 2.6V | 18:12:15 | 02:13:06 | 00:00:00 | |
| SONDE2-12 | 2026-08-30 12:24:12 | 52.40301 | 15.00316 | 51° | 22km/h | 30842m | 5.4m/s | -43.4°C | 0.8% | 10.8hPa | 2.7V | 00:00:00 | 00:00:00 | 00:00:00 | |
| AA1-15 | 2026-08-30 12:24:10 | 52.40291 | 15.00303 | 10° | 13km/h | 30823m | 5.9m/s | -43.5°C | 0% | 10.9hPa | 2.7V | 18:12:15 | 02:12:55 | 00:00:00 | |
| AA1-15 | 2026-08-30 12:23:59 | 52.40226 | 15.00286 | 51° | 20km/h | 30756m | 6.4m/s | -43.5°C | 0% | 11hPa | 2.7V | 18:12:15 | 02:12:44 | 00:00:00 | |
| DO2SHX-10 | 2026-08-30 12:23:59 | 52.40230 | 15.00291 | 32° | 20km/h | 30763m | 7.3m/s | -43.4°C | 2.7% | 10.9hPa | 2.7V | 00:00:00 | 02:12:45 | 00:00:00 | |
| KRY50SP-1 | 2026-08-30 12:23:58 | 52.40230 | 15.00291 | 32° | 24km/h | 30763m | 7.3m/s | -43.5°C | 0.7% | 11.0hPa | 2.7V | 00:00:00 | 00:00:00 | 00:00:00 | |
| DL1XH-15 | 2026-08-30 12:23:56 | 52.40211 | 15.00272 | 354° | 15km/h | 30719m | 7.2m/s | 0°C | 0% | 0hPa | 2.7V | 00:00:00 | 02:12:38 | 00:00:00 | |
| AA1-15 | 2026-08-30 12:23:49 | 52.40180 | 15.00278 | 351° | 29km/h | 30688m | 4.4m/s | -43.5°C | 0% | 11.1hPa | 2.6V | 18:12:15 | 02:12:33 | 00:00:00 | |
| SONDE2-12 | 2026-08-30 12:23:41 | 52.40170 | 15.00265 | 134° | 11km/h | 30654m | 5.4m/s | -43.3°C | 0.8% | 11.2hPa | 2.7V | 00:00:00 | 00:00:00 | 00:00:00 | |
| AA1-15 | 2026-08-30 12:23:37 | 52.40160 | 15.00263 | 358° | 22km/h | 30623m | 6.3m/s | -43.5°C | 0% | 11.2hPa | 2.7V | 18:12:15 | 02:12:22 | 00:00:00 | |
| 13BRC | 2026-08-30 12:23:36 | 52.40165 | 15.00262 | 352° | 18km/h | 30630m | 5.7m/s | -43.4°C | 0.7% | 11.2hPa | 2.7V | 00:00:00 | 00:00:00 | 00:00:00 | |
| DO2SHX-10 | 2026-08-30 12:23:35 | 52.40155 | 15.00263 | 8° | 18km/h | 30617m | 6.3m/s | -43.4°C | 2.7% | 11.2hPa | 2.7V | 00:00:00 | 02:12:21 | 00:00:00 | |
| KRY50SP-1 | 2026-08-30 12:23:32 | 52.40143 | 15.00258 | 18° | 9km/h | 30601m | 5.5m/s | -43.4°C | 0.7% | 11.3hPa | 2.7V | 00:00:00 | 00:00:00 | 00:00:00 | |
| DL1XH-15 | 2026-08-30 12:23:30 | 52.40145 | 15.00250 | 88° | 13km/h | 30557m | 5.6m/s | 0°C | 0% | 0hPa | 2.7V | 00:00:00 | 02:12:11 | 00:00:00 | |
| AA1-15 | 2026-08-30 12:23:25 | 52.40145 | 15.00250 | 89° | 13km/h | 30557m | 5.6m/s | -43.8°C | 0% | 11.3hPa | 2.7V | 18:12:15 | 02:12:11 | 00:00:00 | |
| DB0DAN | 2026-08-30 12:23:25 | 52.40145 | 15.00250 | 89° | 11km/h | 30557m | 5.6m/s | -43.8°C | 0.7% | 11.33hPa | 2.7V | 00:00:00 | 00:00:00 | 00:00:00 | |
| AA1-15 | 2026-08-30 12:23:15 | 52.40132 | 15.00215 | 97° | 2km/h | 30494m | 5.9m/s | -43.7°C | 0% | 11.4hPa | 2.6V | 18:12:15 | 02:12:01 | 00:00:00 | |
| SONDE2-12 | 2026-08-30 12:23:10 | 52.40131 | 15.00191 | 78° | 20km/h | 30463m | 5.5m/s | -43.9°C | 0.8% | 11.5hPa | 2.7V | 00:00:00 | 00:00:00 | 00:00:00 | |
| AA1-15 | 2026-08-30 12:23:04 | 52.40124 | 15.00158 | 95° | 13km/h | 30426m | 7.1m/s | -43.9°C | 0% | 11.6hPa | 2.7V | 18:12:15 | 02:11:50 | 00:00:00 | |
| AA1-15 | 2026-08-30 12:22:54 | 52.40112 | 15.00081 | 57° | 29km/h | 30366m | 5.5m/s | -44.1°C | 0% | 11.7hPa | 2.6V | 18:12:15 | 02:11:40 | 00:00:00 | |
| DJ2DS-15 | 2026-08-30 12:22:52 | 52.40104 | 15.00065 | 43° | 20km/h | 30353m | 6.7m/s | -44.1°C | 0.7% | 11.7hPa | 2.7V | 00:00:00 | 00:00:00 | 00:00:00 | |
| EDDB2-11 | 2026-08-30 12:22:51 | 52.40100 | 15.00059 | 43° | 18km/h | 30346m | 5.5m/s | -44.1°C | 0.7% | 11.7hPa | 2.7V | 00:00:00 | 00:00:00 | 00:00:00 | |
| AA1-15 | 2026-08-30 12:22:43 | 52.40081 | 14.99995 | 45° | 26km/h | 30296m | 5m/s | -44°C | 0% | 11.8hPa | 2.7V | 18:12:15 | 02:11:29 | 00:00:00 | |
| DAC517 | 2026-08-30 12:22:42 | 52.40081 | 14.99995 | 46° | 26km/h | 30297m | 5.0m/s | -44.0°C | 0.7% | 11.8hPa | 2.6V | 00:00:00 | 00:00:00 | 00:00:00 | |
| DB0DAN | 2026-08-30 12:22:40 | 52.40066 | 14.99968 | 52° | 33km/h | 30278m | 6.5m/s | -44.1°C | 0.7% | 11.83hPa | 2.6V | 00:00:00 | 00:00:00 | 00:00:00 | |
| SONDE2-12 | 2026-08-30 12:22:39 | 52.40061 | 14.99957 | 54° | 31km/h | 30272m | 4.9m/s | -44.2°C | 0.8% | 11.8hPa | 2.7V | 00:00:00 | 00:00:00 | 00:00:00 | |
| AA1-15 | 2026-08-30 12:22:32 | 52.40045 | 14.99928 | 56° | 11km/h | 30231m | 5.9m/s | -44.5°C | 0% | 11.9hPa | 2.7V | 18:12:15 | 02:11:18 | 00:00:00 | |
| AA1-15 | 2026-08-30 12:22:22 | 52.39983 | 14.99871 | 12° | 11km/h | 30169m | 5.4m/s | -45.1°C | 0.1% | 12hPa | 2.6V | 18:12:15 | 02:11:08 | 00:00:00 | |
| AA1-15 | 2026-08-30 12:22:11 | 52.39913 | 14.99852 | 5° | 38km/h | 30100m | 6.1m/s | -45.4°C | 0.1% | 12.1hPa | 2.7V | 18:12:15 | 02:10:57 | 00:00:00 | |
| SONDE2-12 | 2026-08-30 12:22:08 | 52.39890 | 14.99856 | 341° | 20km/h | 30082m | 7.5m/s | -45.3°C | 0.9% | 12.2hPa | 2.6V | 00:00:00 | 00:00:00 | 00:00:00 | |
| AA1-15 | 2026-08-30 12:22:01 | 52.39856 | 14.99866 | 16° | 27km/h | 30037m | 7.9m/s | -45.3°C | 0.1% | 12.3hPa | 2.6V | 18:12:15 | 02:10:47 | 00:00:00 | |
| SP3WXH-11 | 2026-08-30 12:21:57 | 52.39829 | 14.99850 | 7° | 27km/h | 30011m | 7.2m/s | -45.4°C | 0.8% | 12.3hPa | 2.6V | 00:00:00 | 00:00:00 | 00:00:00 | |
| EDDB2-12 | 2026-08-30 12:21:56 | 52.39816 | 14.99853 | 337° | 20km/h | 29998m | 5.6m/s | -45.2°C | 0.8% | 12.3hPa | 2.6V | 00:00:00 | 00:00:00 | 00:00:00 | |
| DB0DAN | 2026-08-30 12:21:55 | 52.39816 | 14.99853 | 338° | 20km/h | 29998m | 5.6m/s | -45.2°C | 0.8% | 12.33hPa | 2.6V | 00:00:00 | 00:00:00 | 00:00:00 | |
| AA1-15 | 2026-08-30 12:21:50 | 52.39806 | 14.99869 | 309° | 9km/h | 29965m | 7.1m/s | -45.2°C | 0.1% | 12.4hPa | 2.6V | 18:12:15 | 02:10:36 | 00:00:00 | |
| EDDB2-11 | 2026-08-30 12:21:49 | 52.39804 | 14.99871 | 330° | 11km/h | 29958m | 6.8m/s | -45.3°C | 0.8% | 12.4hPa | 2.7V | 00:00:00 | 00:00:00 | 00:00:00 | |
| AA1-15 | 2026-08-30 12:21:40 | 52.39767 | 14.99866 | 297° | 11km/h | 29894m | 7.3m/s | -45.4°C | 0.1% | 12.6hPa | 2.7V | 18:12:15 | 02:10:25 | 00:00:00 | |
| SONDE2-12 | 2026-08-30 12:21:38 | 52.39768 | 14.99873 | 214° | 11km/h | 29880m | 5.8m/s | -45.3°C | 0.9% | 12.6hPa | 2.7V | 00:00:00 | 00:00:00 | 00:00:00 | |
| AA1-15 | 2026-08-30 12:21:28 | 52.39765 | 14.99871 | 46° | 11km/h | 29823m | 5m/s | -45.2°C | 0.1% | 12.7hPa | 2.7V | 18:12:15 | 02:10:14 | 00:00:00 | |
| DB0DAN | 2026-08-30 12:21:25 | 52.39759 | 14.99869 | 326° | 11km/h | 29805m | 6.9m/s | -45.1°C | 0.8% | 12.7hPa | 2.6V | 00:00:00 | 00:00:00 | 00:00:00 | |
| AA1-15 | 2026-08-30 12:21:17 | 52.39756 | 14.99882 | 41° | 7km/h | 29754m | 7.3m/s | -44.8°C | 0.1% | 12.8hPa | 2.7V | 18:12:15 | 02:10:03 | 00:00:00 | |
| DO2SHX-10 | 2026-08-30 12:21:17 | 52.39756 | 14.99882 | 42° | 11km/h | 29754m | 7.3m/s | -44.8°C | 3.0% | 12.8hPa | 2.7V | 00:00:00 | 02:10:03 | 00:00:00 | |
| DO2SHX-10 | 2026-08-30 12:21:14 | 52.39747 | 14.99874 | 37° | 16km/h | 29735m | 7.4m/s | -44.7°C | 2.9% | 12.8hPa | 2.7V | 00:00:00 | 02:10:00 | 00:00:00 | |
| MECKS9 | 2026-08-30 12:21:13 | 52.39747 | 14.99874 | 38° | 16km/h | 29735m | 7.4m/s | 0°C | 0% | 12.9hPa | 2.7V | 00:00:00 | 00:00:00 | 00:00:00 | |
| SQ2ODE-11 | 2026-08-30 12:21:12 | 52.39744 | 14.99870 | 43° | 16km/h | 29728m | 6.7m/s | -44.8°C | 0.8% | 12.9hPa | 2.7V | 00:00:00 | 00:00:00 | 00:00:00 | |
| DB0DAN | 2026-08-30 12:21:10 | 52.39736 | 14.99863 | 354° | 11km/h | 29708m | 8m/s | -44.7°C | 0.8% | 12.92hPa | 2.7V | 00:00:00 | 00:00:00 | 00:00:00 | |
| AA1-15 | 2026-08-30 12:21:06 | 52.39730 | 14.99873 | 222° | 4km/h | 29682m | 7m/s | -44.6°C | 0% | 13hPa | 2.7V | 18:12:15 | 02:09:52 | 00:00:00 | |
| SONDE2-12 | 2026-08-30 12:21:06 | 52.39731 | 14.99872 | 135° | 4km/h | 29676m | 5.9m/s | -44.6°C | 0.8% | 13.0hPa | 2.6V | 00:00:00 | 00:00:00 | 00:00:00 | |
| AA1-15 | 2026-08-30 12:20:56 | 52.39709 | 14.99847 | 292° | 2km/h | 29613m | 5.3m/s | -44.7°C | 0.1% | 13.1hPa | 2.6V | 18:12:15 | 02:09:41 | 00:00:00 | |
| DB0DAN | 2026-08-30 12:20:55 | 52.39709 | 14.99847 | 292° | 2km/h | 29613m | 5.3m/s | -44.7°C | 0.8% | 13.1hPa | 2.6V | 00:00:00 | 00:00:00 | 00:00:00 | |
| AA1-15 | 2026-08-30 12:20:45 | 52.39711 | 14.99864 | 35° | 11km/h | 29547m | 6.6m/s | -44.4°C | 0% | 13.2hPa | 2.7V | 18:12:15 | 02:09:31 | 00:00:00 | |
| SONDE2-12 | 2026-08-30 12:20:35 | 52.39707 | 14.99862 | 122° | 9km/h | 29476m | 6.1m/s | -44.3°C | 0.8% | 13.4hPa | 2.7V | 00:00:00 | 00:00:00 | 00:00:00 | |
| AA1-15 | 2026-08-30 12:20:34 | 52.39707 | 14.99862 | 122° | 11km/h | 29475m | 6.1m/s | -44.3°C | 0% | 13.4hPa | 2.7V | 18:12:15 | 02:09:20 | 00:00:00 | |
| AA1-15 | 2026-08-30 12:20:24 | 52.39693 | 14.99812 | 302° | 5km/h | 29402m | 6.1m/s | -44.5°C | 0.1% | 13.6hPa | 2.7V | 18:12:15 | 02:09:09 | 00:00:00 | |
| AA1-15 | 2026-08-30 12:20:12 | 52.39684 | 14.99745 | 74° | 7km/h | 29334m | 7.1m/s | -44.7°C | 0.1% | 13.7hPa | 2.6V | 18:12:15 | 02:08:58 | 00:00:00 | |
| SONDE2-12 | 2026-08-30 12:20:04 | 52.39699 | 14.99764 | 95° | 7km/h | 29276m | 7.3m/s | -44.6°C | 0.9% | 13.8hPa | 2.6V | 00:00:00 | 00:00:00 | 00:00:00 | |
| AA1-15 | 2026-08-30 12:20:02 | 52.39698 | 14.99753 | 79° | 18km/h | 29263m | 5.8m/s | -44.6°C | 0.1% | 13.8hPa | 2.6V | 18:12:15 | 02:08:47 | 00:00:00 | |
| AA1-15 | 2026-08-30 12:19:51 | 52.39687 | 14.99729 | 4° | 7km/h | 29193m | 6.2m/s | -44.4°C | 0% | 14hPa | 2.6V | 18:12:15 | 02:08:36 | 00:00:00 | |
| S3001 | 2026-08-30 12:19:48 | 52.39685 | 14.99727 | 67° | 2km/h | 29180m | 7.4m/s | -44.4°C | 0.8% | 14.0hPa | 2.7V | 00:00:00 | 00:00:00 | 00:00:00 | |
| AA1-15 | 2026-08-30 12:19:40 | 52.39674 | 14.99714 | 14° | 7km/h | 29129m | 7.1m/s | -44.4°C | 0% | 14.1hPa | 2.7V | 18:12:15 | 02:08:26 | 00:00:00 | |
| SONDE2-12 | 2026-08-30 12:19:33 | 52.39658 | 14.99686 | 65° | 15km/h | 29077m | 6.5m/s | -44.6°C | 0.8% | 14.2hPa | 2.6V | 00:00:00 | 00:00:00 | 00:00:00 | |
| AA1-15 | 2026-08-30 12:19:30 | 52.39655 | 14.99676 | 55° | 15km/h | 29065m | 6.5m/s | -44.6°C | 0% | 14.2hPa | 2.6V | 18:12:15 | 02:08:16 | 00:00:00 | |
| AA1-15 | 2026-08-30 12:19:19 | 52.39616 | 14.99628 | 29° | 24km/h | 28995m | 5.7m/s | -44.9°C | 0.1% | 14.4hPa | 2.6V | 18:12:15 | 02:08:05 | 00:00:00 | |
| AA1-15 | 2026-08-30 12:19:09 | 52.39559 | 14.99569 | 42° | 22km/h | 28927m | 5.7m/s | -44.9°C | 0.2% | 14.5hPa | 2.6V | 18:12:15 | 02:07:54 | 00:00:00 | |
| SONDE2-12 | 2026-08-30 12:19:02 | 52.39530 | 14.99557 | 9° | 11km/h | 28882m | 4.6m/s | -44.7°C | 0.8% | 14.6hPa | 2.6V | 00:00:00 | 00:00:00 | 00:00:00 | |
| AA1-15 | 2026-08-30 12:18:58 | 52.39514 | 14.99551 | 22° | 18km/h | 28858m | 5.7m/s | -44.4°C | 0% | 14.7hPa | 2.6V | 18:12:15 | 02:07:43 | 00:00:00 | |
| AA1-15 | 2026-08-30 12:18:48 | 52.39470 | 14.99529 | 1° | 16km/h | 28788m | 6m/s | -44.6°C | 0% | 14.9hPa | 2.7V | 18:12:15 | 02:07:32 | 00:00:00 | |
| AA1-15 | 2026-08-30 12:18:36 | 52.39424 | 14.99503 | 13° | 16km/h | 28725m | 4.5m/s | -45°C | 0% | 15hPa | 2.7V | 18:12:15 | 02:07:22 | 00:00:00 | |
| SONDE2-12 | 2026-08-30 12:18:31 | 52.39406 | 14.99499 | 358° | 16km/h | 28687m | 5.7m/s | -45.3°C | 0.9% | 15.1hPa | 2.6V | 00:00:00 | 00:00:00 | 00:00:00 | |
| AA1-15 | 2026-08-30 12:18:25 | 52.39383 | 14.99479 | 51° | 26km/h | 28658m | 5m/s | -45.5°C | 0.1% | 15.2hPa | 2.6V | 18:12:15 | 02:07:11 | 00:00:00 | |
| AA1-15 | 2026-08-30 12:18:15 | 52.39347 | 14.99466 | 323° | 16km/h | 28591m | 5.5m/s | -45.9°C | 0.2% | 15.3hPa | 2.6V | 18:12:15 | 02:07:00 | 00:00:00 | |
| AA1-15 | 2026-08-30 12:18:04 | 52.39306 | 14.99457 | 242° | 13km/h | 28518m | 5.5m/s | -46.6°C | 0.2% | 15.5hPa | 2.6V | 18:12:15 | 02:06:48 | 00:00:00 | |
| SONDE2-12 | 2026-08-30 12:18:00 | 52.39307 | 14.99473 | 295° | 13km/h | 28501m | 5.5m/s | -46.6°C | 0.9% | 15.5hPa | 2.6V | 00:00:00 | 00:00:00 | 00:00:00 | |
| AA1-15 | 2026-08-30 12:17:51 | 52.39294 | 14.99472 | 324° | 7km/h | 28452m | 5.4m/s | -47°C | 0.3% | 15.6hPa | 2.6V | 18:12:15 | 02:06:37 | 00:00:00 | |
| SP3WXH-11 | 2026-08-30 12:17:49 | 52.39292 | 14.99478 | 204° | 4km/h | 28434m | 6.7m/s | -47.1°C | 0.9% | 15.7hPa | 2.7V | 00:00:00 | 00:00:00 | 00:00:00 | |
| EDDB2-12 | 2026-08-30 12:17:48 | 52.39294 | 14.99478 | 178° | 5km/h | 28427m | 6.2m/s | -47.1°C | 0.9% | 15.7hPa | 2.7V | 00:00:00 | 00:00:00 | 00:00:00 | |
| AA1-15 | 2026-08-30 12:17:41 | 52.39303 | 14.99475 | 134° | 13km/h | 28391m | 7.4m/s | -47°C | 0.3% | 15.8hPa | 2.7V | 18:12:15 | 02:06:27 | 00:00:00 | |
| AA1-15 | 2026-08-30 12:17:31 | 52.39322 | 14.99420 | 150° | 26km/h | 28325m | 5.5m/s | -47.4°C | 0.3% | 15.9hPa | 2.7V | 18:12:15 | 02:06:16 | 00:00:00 | |
| SONDE2-12 | 2026-08-30 12:17:29 | 52.39333 | 14.99412 | 157° | 18km/h | 28313m | 6.7m/s | -47.3°C | 1.0% | 15.9hPa | 2.6V | 00:00:00 | 00:00:00 | 00:00:00 | |
| AA1-15 | 2026-08-30 12:17:20 | 52.39351 | 14.99344 | 111° | 16km/h | 28257m | 6m/s | -47.2°C | 0.3% | 16.1hPa | 2.6V | 18:12:15 | 02:06:05 | 00:00:00 | |
| AA1-15 | 2026-08-30 12:17:08 | 52.39362 | 14.99285 | 62° | 26km/h | 28190m | 7m/s | -47.6°C | 0.3% | 16.3hPa | 2.6V | 18:12:15 | 02:05:54 | 00:00:00 | |
| AA1-15 | 2026-08-30 12:16:58 | 52.39365 | 14.99225 | 81° | 16km/h | 28130m | 6.4m/s | -47.6°C | 0.4% | 16.4hPa | 2.7V | 18:12:15 | 02:05:44 | 00:00:00 | |
| SONDE2-12 | 2026-08-30 12:16:57 | 52.39364 | 14.99219 | 55° | 18km/h | 28124m | 7.1m/s | -47.6°C | 1.0% | 16.5hPa | 2.7V | 00:00:00 | 00:00:00 | 00:00:00 | |
| AA1-15 | 2026-08-30 12:16:48 | 52.39334 | 14.99153 | 116° | 11km/h | 28063m | 6.2m/s | -47.8°C | 0.3% | 16.6hPa | 2.7V | 18:12:15 | 02:05:33 | 00:00:00 | |
| SP3WXH-11 | 2026-08-30 12:16:47 | 52.39335 | 14.99147 | 102° | 15km/h | 28057m | 6.4m/s | -47.8°C | 0.9% | 16.6hPa | 2.7V | 00:00:00 | 00:00:00 | 00:00:00 | |
| EDDB2-12 | 2026-08-30 12:16:46 | 52.39336 | 14.99141 | 82° | 18km/h | 28051m | 5.2m/s | -47.8°C | 0.9% | 16.6hPa | 2.7V | 00:00:00 | 00:00:00 | 00:00:00 | |
| AA1-15 | 2026-08-30 12:16:36 | 52.39289 | 14.99091 | 37° | 22km/h | 27998m | 5m/s | -48.2°C | 0.4% | 16.8hPa | 2.7V | 18:12:15 | 02:05:22 | 00:00:00 | |
| SONDE2-12 | 2026-08-30 12:16:26 | 52.39254 | 14.99056 | 8° | 29km/h | 27936m | 5.8m/s | -48.5°C | 1.0% | 16.9hPa | 2.6V | 00:00:00 | 00:00:00 | 00:00:00 | |
| AA1-15 | 2026-08-30 12:16:25 | 52.39246 | 14.99054 | 13° | 31km/h | 27929m | 7.1m/s | -48.6°C | 0.3% | 16.9hPa | 2.6V | 18:12:15 | 02:05:11 | 00:00:00 | |
| DB0DAN | 2026-08-30 12:16:25 | 52.39246 | 14.99054 | 13° | 29km/h | 27929m | 7.1m/s | -48.6°C | 0.9% | 16.95hPa | 2.6V | 00:00:00 | 00:00:00 | 00:00:00 | |
| AA1-15 | 2026-08-30 12:16:14 | 52.39195 | 14.99038 | 343° | 16km/h | 27861m | 6.4m/s | -49.2°C | 0.5% | 17.1hPa | 2.6V | 18:12:15 | 02:05:00 | 00:00:00 | |
| AA1-15 | 2026-08-30 12:16:03 | 52.39144 | 14.99031 | 44° | 5km/h | 27793m | 5.9m/s | -49.2°C | 0.6% | 17.3hPa | 2.6V | 18:12:15 | 02:04:49 | 00:00:00 | |
| SONDE2-12 | 2026-08-30 12:15:55 | 52.39106 | 14.99027 | 7° | 27km/h | 27745m | 5.1m/s | -49.3°C | 1.0% | 17.5hPa | 2.7V | 00:00:00 | 00:00:00 | 00:00:00 | |
| AA1-15 | 2026-08-30 12:15:53 | 52.39090 | 14.99027 | 356° | 11km/h | 27726m | 5.7m/s | -49.4°C | 0.5% | 17.5hPa | 2.7V | 18:12:15 | 02:04:38 | 00:00:00 | |
| SONDE2-11 | 2026-08-30 12:15:53 | 52.39090 | 14.99027 | 355° | 11km/h | 27727m | 5.7m/s | -49.4°C | 1.0% | 17.5hPa | 2.7V | 00:00:00 | 00:00:00 | 00:00:00 | |
| AA1-15 | 2026-08-30 12:15:42 | 52.39068 | 14.99017 | 359° | 27km/h | 27665m | 5.7m/s | -49.7°C | 0.5% | 17.7hPa | 2.7V | 18:12:15 | 02:04:28 | 00:00:00 | |
| AA1-15 | 2026-08-30 12:15:31 | 52.39016 | 14.99038 | 304° | 11km/h | 27599m | 6.1m/s | -49.3°C | 0.5% | 17.9hPa | 2.6V | 18:12:15 | 02:04:17 | 00:00:00 | |
| SONDE2-12 | 2026-08-30 12:15:24 | 52.38985 | 14.99073 | 323° | 27km/h | 27557m | 4.7m/s | -49.4°C | 1.0% | 18.0hPa | 2.6V | 00:00:00 | 00:00:00 | 00:00:00 | |
| AA1-15 | 2026-08-30 12:15:20 | 52.38970 | 14.99085 | 26° | 5km/h | 27533m | 5.1m/s | -49.4°C | 0.5% | 18hPa | 2.6V | 18:12:15 | 02:04:06 | 00:00:00 | |
| AA1-15 | 2026-08-30 12:15:10 | 52.38959 | 14.99117 | 308° | 22km/h | 27471m | 6.8m/s | -49.7°C | 0.6% | 18.2hPa | 2.7V | 18:12:15 | 02:03:56 | 00:00:00 | |
| AA1-15 | 2026-08-30 12:14:59 | 52.38939 | 14.99149 | 326° | 7km/h | 27405m | 6.6m/s | -49.6°C | 0.6% | 18.4hPa | 2.7V | 18:12:15 | 02:03:45 | 00:00:00 | |
| DJ2DS-15 | 2026-08-30 12:14:59 | 52.38939 | 14.99149 | 326° | 11km/h | 27405m | 6.6m/s | -49.5°C | 3.6% | 18.4hPa | 2.6V | 00:00:00 | 02:03:45 | 00:00:00 | |
| DB0DAN | 2026-08-30 12:14:55 | 52.38926 | 14.99157 | 330° | 18km/h | 27380m | 7.1m/s | -49.6°C | 1% | 18.46hPa | 2.6V | 00:00:00 | 00:00:00 | 00:00:00 | |
| SONDE2-12 | 2026-08-30 12:14:53 | 52.38912 | 14.99170 | 338° | 20km/h | 27363m | 6.7m/s | -49.6°C | 1.1% | 18.5hPa | 2.6V | 00:00:00 | 00:00:00 | 00:00:00 | |
| AA1-15 | 2026-08-30 12:14:49 | 52.38897 | 14.99172 | 9° | 16km/h | 27345m | 5.3m/s | -49.6°C | 0.5% | 18.6hPa | 2.6V | 18:12:15 | 02:03:35 | 00:00:00 | |
| AA1-15 | 2026-08-30 12:14:38 | 52.38867 | 14.99179 | 313° | 13km/h | 27277m | 5.2m/s | -49.6°C | 0.5% | 18.8hPa | 2.6V | 18:12:15 | 02:03:24 | 00:00:00 | |
| AA1-15 | 2026-08-30 12:14:27 | 52.38851 | 14.99199 | 354° | 9km/h | 27211m | 5.9m/s | -49.9°C | 0.6% | 18.9hPa | 2.6V | 18:12:15 | 02:03:13 | 00:00:00 | |
| SONDE2-12 | 2026-08-30 12:14:22 | 52.38835 | 14.99212 | 346° | 15km/h | 27183m | 7.0m/s | -50.0°C | 1.1% | 19.0hPa | 2.7V | 00:00:00 | 00:00:00 | 00:00:00 | |
| AA1-15 | 2026-08-30 12:14:17 | 52.38830 | 14.99212 | 225° | 9km/h | 27146m | 5.4m/s | -50°C | 0.7% | 19.1hPa | 2.7V | 18:12:15 | 02:03:02 | 00:00:00 | |
| KRY50SP-1 | 2026-08-30 12:14:17 | 52.38829 | 14.99209 | 220° | 7km/h | 27152m | 6.2m/s | -50.0°C | 1.0% | 19.1hPa | 2.6V | 00:00:00 | 00:00:00 | 00:00:00 | |
| DO2SHX-10 | 2026-08-30 12:14:15 | 52.38832 | 14.99214 | 229° | 4km/h | 27141m | 5.2m/s | -49.9°C | 3.7% | 19.1hPa | 2.6V | 00:00:00 | 02:03:01 | 00:00:00 | |
| OK1SLM-15 | 2026-08-30 12:14:13 | 52.38833 | 14.99216 | 216° | 5km/h | 27135m | 6.7m/s | 0°C | 0% | 0hPa | 2.7V | 00:00:00 | 00:00:00 | 00:00:00 | |
| DB0DAN | 2026-08-30 12:14:10 | 52.38834 | 14.99216 | 266° | 2km/h | 27110m | 6.9m/s | -49.9°C | 1% | 19.27hPa | 2.7V | 00:00:00 | 00:00:00 | 00:00:00 | |
| AA1-15 | 2026-08-30 12:14:05 | 52.38829 | 14.99216 | 345° | 9km/h | 27080m | 5.1m/s | -49.8°C | 0.6% | 19.3hPa | 2.7V | 18:12:15 | 02:02:51 | 00:00:00 | |
| AA1-15 | 2026-08-30 12:13:54 | 52.38810 | 14.99244 | 333° | 15km/h | 27013m | 5.1m/s | -49.9°C | 0.5% | 19.5hPa | 2.7V | 18:12:15 | 02:02:40 | 00:00:00 | |
| SONDE2-12 | 2026-08-30 12:13:51 | 52.38801 | 14.99251 | 332° | 11km/h | 26994m | 5.5m/s | -49.9°C | 1.1% | 19.6hPa | 2.6V | 00:00:00 | 00:00:00 | 00:00:00 | |
| SONDE2-11 | 2026-08-30 12:13:48 | 52.38796 | 14.99264 | 279° | 15km/h | 26974m | 5.9m/s | -50.0°C | 1.0% | 19.7hPa | 2.6V | 00:00:00 | 00:00:00 | 00:00:00 | |
| AA1-15 | 2026-08-30 12:13:44 | 52.38791 | 14.99280 | 355° | 9km/h | 26950m | 6.3m/s | -50°C | 0.7% | 19.8hPa | 2.6V | 18:12:15 | 02:02:30 | 00:00:00 | |
| AA1-15 | 2026-08-30 12:13:34 | 52.38754 | 14.99304 | 278° | 22km/h | 26888m | 7.3m/s | -50°C | 0.7% | 19.9hPa | 2.7V | 18:12:15 | 02:02:20 | 00:00:00 | |
| AA1-15 | 2026-08-30 12:13:24 | 52.38712 | 14.99358 | 331° | 22km/h | 26822m | 6.2m/s | -49.8°C | 0.6% | 20.1hPa | 2.7V | 18:12:15 | 02:02:09 | 00:00:00 | |
| SONDE2-12 | 2026-08-30 12:13:20 | 52.38679 | 14.99404 | 333° | 11km/h | 26768m | 6.0m/s | -49.7°C | 1.1% | 20.3hPa | 2.6V | 00:00:00 | 00:00:00 | 00:00:00 | |
| AA1-15 | 2026-08-30 12:13:13 | 52.38676 | 14.99405 | 352° | 9km/h | 26762m | 5m/s | -49.6°C | 0.6% | 20.3hPa | 2.6V | 18:12:15 | 02:01:59 | 00:00:00 | |
| AA1-15 | 2026-08-30 12:13:03 | 52.38638 | 14.99435 | 290° | 20km/h | 26695m | 6.1m/s | -49.3°C | 0.5% | 20.5hPa | 2.6V | 18:12:15 | 02:01:48 | 00:00:00 | |
| EDDB2-11 | 2026-08-30 12:13:01 | 52.38637 | 14.99443 | 281° | 18km/h | 26689m | 5.4m/s | -49.3°C | 1.0% | 20.5hPa | 2.6V | 00:00:00 | 00:00:00 | 00:00:00 | |
| DAC517 | 2026-08-30 12:13:00 | 52.38636 | 14.99449 | 281° | 15km/h | 26683m | 6.6m/s | -49.2°C | 1.0% | 20.6hPa | 2.6V | 00:00:00 | 00:00:00 | 00:00:00 | |
| DO2SHX-10 | 2026-08-30 12:12:59 | 52.38636 | 14.99454 | 279° | 7km/h | 26676m | 6.6m/s | -49.1°C | 3.5% | 20.6hPa | 2.6V | 00:00:00 | 02:01:45 | 00:00:00 | |
| SQ2ODE-11 | 2026-08-30 12:12:58 | 52.38636 | 14.99457 | 285° | 5km/h | 26670m | 5.4m/s | -49.2°C | 1.0% | 20.6hPa | 2.6V | 00:00:00 | 00:00:00 | 00:00:00 | |
| DB0DAN | 2026-08-30 12:12:55 | 52.38633 | 14.99465 | 307° | 11km/h | 26652m | 6.3m/s | -49.2°C | 1% | 20.68hPa | 2.6V | 00:00:00 | 00:00:00 | 00:00:00 | |
| AA1-15 | 2026-08-30 12:12:53 | 52.38626 | 14.99477 | 325° | 13km/h | 26634m | 7.2m/s | -49.1°C | 0.5% | 20.7hPa | 2.7V | 18:12:15 | 02:01:38 | 00:00:00 | |
| SONDE2-12 | 2026-08-30 12:12:49 | 52.38620 | 14.99485 | 293° | 9km/h | 26615m | 6.7m/s | -49.1°C | 1.0% | 20.8hPa | 2.7V | 00:00:00 | 00:00:00 | 00:00:00 | |
| SONDE2-11 | 2026-08-30 12:12:46 | 52.38620 | 14.99502 | 253° | 15km/h | 26596m | 6.0m/s | -49.4°C | 1.0% | 20.8hPa | 2.7V | 00:00:00 | 00:00:00 | 00:00:00 | |
| AA1-15 | 2026-08-30 12:12:41 | 52.38622 | 14.99524 | 293° | 11km/h | 26564m | 5.5m/s | -49.5°C | 0.5% | 20.9hPa | 2.7V | 18:12:15 | 02:01:27 | 00:00:00 | |
| AA1-15 | 2026-08-30 12:12:30 | 52.38618 | 14.99551 | 206° | 7km/h | 26497m | 5.7m/s | -49.6°C | 0.5% | 21.2hPa | 2.7V | 18:12:15 | 02:01:16 | 00:00:00 | |
| AA1-15 | 2026-08-30 12:12:20 | 52.38609 | 14.99565 | 211° | 5km/h | 26429m | 5.6m/s | -49.8°C | 0.6% | 21.4hPa | 2.6V | 18:12:15 | 02:01:05 | 00:00:00 | |
| SONDE2-12 | 2026-08-30 12:12:19 | 52.38610 | 14.99566 | 195° | 4km/h | 26423m | 7.1m/s | -49.9°C | 1.1% | 21.4hPa | 2.6V | 00:00:00 | 00:00:00 | 00:00:00 | |
| DL1XH-west | 2026-08-30 12:12:08 | 52.38598 | 14.99595 | 274° | 5km/h | 26361m | 6.6m/s | -50°C | 0.6% | 21.6hPa | 2.6V | 18:12:15 | 02:00:54 | 00:00:00 | |
| DL1XH-west | 2026-08-30 12:11:57 | 52.38600 | 14.99595 | 347° | 11km/h | 26293m | 5.3m/s | -50.4°C | 0.6% | 21.9hPa | 2.6V | 18:12:15 | 02:00:43 | 00:00:00 | |
| DB0DAN | 2026-08-30 12:11:55 | 52.38597 | 14.99598 | 295° | 5km/h | 26282m | 6.7m/s | -50.4°C | 1% | 21.91hPa | 2.6V | 00:00:00 | 00:00:00 | 00:00:00 | |
| SONDE2-12 | 2026-08-30 12:11:47 | 52.38615 | 14.99589 | 263° | 0km/h | 26235m | 5.1m/s | -50.4°C | 1.1% | 22.1hPa | 2.7V | 00:00:00 | 00:00:00 | 00:00:00 | |
| DL1XH-west | 2026-08-30 12:11:46 | 52.38614 | 14.99589 | 342° | 7km/h | 26229m | 6.2m/s | -50.5°C | 0.6% | 22.1hPa | 2.7V | 18:12:15 | 02:00:32 | 00:00:00 | |
| DO2SHX-10 | 2026-08-30 12:11:46 | 52.38614 | 14.99589 | 342° | 7km/h | 26229m | 6.1m/s | -50.4°C | 3.7% | 22.0hPa | 2.7V | 00:00:00 | 02:00:32 | 00:00:00 | |
| SQ2ODE-11 | 2026-08-30 12:11:45 | 52.38614 | 14.99589 | 343° | 7km/h | 26229m | 6.2m/s | -50.5°C | 1.0% | 22.1hPa | 2.7V | 00:00:00 | 00:00:00 | 00:00:00 | |
| SONDE2-11 | 2026-08-30 12:11:44 | 52.38607 | 14.99590 | 1° | 16km/h | 26216m | 5.9m/s | -50.7°C | 1.0% | 22.1hPa | 2.7V | 00:00:00 | 00:00:00 | 00:00:00 | |
| DO2SHX-10 | 2026-08-30 12:11:43 | 52.38603 | 14.99590 | 360° | 16km/h | 26210m | 4.6m/s | -50.7°C | 3.7% | 22.1hPa | 2.7V | 00:00:00 | 02:00:29 | 00:00:00 | |
| DB0DAN | 2026-08-30 12:11:40 | 52.38592 | 14.99593 | 336° | 5km/h | 26192m | 5.7m/s | -50.6°C | 1.1% | 22.22hPa | 2.7V | 00:00:00 | 00:00:00 | 00:00:00 | |
| AA1-15 | 2026-08-30 12:11:35 | 52.38592 | 14.99590 | 194° | 2km/h | 26162m | 6.8m/s | -50.6°C | 0.7% | 22.3hPa | 2.7V | 18:12:15 | 02:00:21 | 00:00:00 | |
| DL1XH-west | 2026-08-30 12:11:35 | 52.38592 | 14.99591 | 261° | 4km/h | 26156m | 5.8m/s | -50.5°C | 0.7% | 22.3hPa | 2.7V | 18:12:15 | 02:00:20 | 00:00:00 | |
| DL1XH-west | 2026-08-30 12:11:24 | 52.38584 | 14.99589 | 103° | 5km/h | 26095m | 6m/s | -50.5°C | 0.6% | 22.6hPa | 2.7V | 18:12:15 | 02:00:10 | 00:00:00 | |
| SONDE2-12 | 2026-08-30 12:11:16 | 52.38563 | 14.99587 | 19° | 22km/h | 26049m | 5.1m/s | -50.6°C | 1.1% | 22.7hPa | 2.6V | 00:00:00 | 00:00:00 | 00:00:00 | |
| AA1-15 | 2026-08-30 12:11:14 | 52.38553 | 14.99582 | 17° | 16km/h | 26037m | 6.5m/s | -50.6°C | 0.6% | 22.8hPa | 2.6V | 18:12:15 | 02:00:00 | 00:00:00 | |
| AA1-15 | 2026-08-30 12:11:03 | 52.38521 | 14.99566 | 10° | 18km/h | 25971m | 5m/s | -51°C | 0.7% | 23hPa | 2.6V | 18:12:15 | 01:59:49 | 00:00:00 | |
| DL1XH-west | 2026-08-30 12:11:02 | 52.38516 | 14.99565 | 8° | 16km/h | 25966m | 4.8m/s | -51°C | 0.6% | 23hPa | 2.6V | 18:12:15 | 01:59:48 | 00:00:00 | |
| AA1-15 | 2026-08-30 12:10:52 | 52.38500 | 14.99578 | 335° | 13km/h | 25908m | 4.8m/s | -51.2°C | 0.7% | 23.2hPa | 2.7V | 18:12:15 | 01:59:38 | 00:00:00 | |
| DJ2DS-15 | 2026-08-30 12:10:50 | 52.38493 | 14.99580 | 3° | 16km/h | 25895m | 6.9m/s | -51.3°C | 1.1% | 23.3hPa | 2.7V | 00:00:00 | 00:00:00 | 00:00:00 | |
| SONDE2-12 | 2026-08-30 12:10:45 | 52.38473 | 14.99576 | 18° | 9km/h | 25860m | 6.4m/s | -51.3°C | 1.2% | 23.4hPa | 2.7V | 00:00:00 | 00:00:00 | 00:00:00 | |
| AA1-15 | 2026-08-30 12:10:42 | 52.38469 | 14.99575 | 2° | 9km/h | 25848m | 6m/s | -51.1°C | 0.7% | 23.4hPa | 2.7V | 18:12:15 | 01:59:28 | 00:00:00 | |
| AA1-15 | 2026-08-30 12:10:31 | 52.38445 | 14.99610 | 303° | 11km/h | 25780m | 5.3m/s | -51.4°C | 0.7% | 23.7hPa | 2.6V | 18:12:15 | 01:59:17 | 00:00:00 | |
| 13BRC | 2026-08-30 12:10:30 | 52.38445 | 14.99610 | 304° | 11km/h | 25781m | 5.3m/s | -51.3°C | 1.1% | 23.7hPa | 2.7V | 00:00:00 | 00:00:00 | 00:00:00 | |
| DO2SHX-10 | 2026-08-30 12:10:29 | 52.38442 | 14.99619 | 287° | 15km/h | 25770m | 6.4m/s | -51.5°C | 3.9% | 23.7hPa | 2.7V | 00:00:00 | 01:59:15 | 00:00:00 | |
| SP6BVK | 2026-08-30 12:10:27 | 52.38441 | 14.99625 | 275° | 16km/h | 25764m | 6.3m/s | -51.6°C | 1.2% | 23.8hPa | 2.6V | 00:00:00 | 00:00:00 | 00:00:00 | |
| DB0DAN | 2026-08-30 12:10:25 | 52.38441 | 14.99644 | 282° | 13km/h | 25748m | 5.9m/s | -51.6°C | 1.1% | 23.79hPa | 2.6V | 00:00:00 | 00:00:00 | 00:00:00 | |
| AA1-15 | 2026-08-30 12:10:21 | 52.38428 | 14.99672 | 290° | 24km/h | 25720m | 5.5m/s | -51.6°C | 0.7% | 23.9hPa | 2.6V | 18:12:15 | 01:59:06 | 00:00:00 | |
| SONDE2-12 | 2026-08-30 12:10:14 | 52.38442 | 14.99721 | 225° | 20km/h | 25687m | 5.8m/s | -51.7°C | 1.2% | 24.0hPa | 2.6V | 00:00:00 | 00:00:00 | 00:00:00 | |
| AA1-15 | 2026-08-30 12:10:09 | 52.38449 | 14.99754 | 267° | 11km/h | 25657m | 6.4m/s | -51.8°C | 0.8% | 24.2hPa | 2.6V | 18:12:15 | 01:58:55 | 00:00:00 | |
| DL1XH-west | 2026-08-30 12:09:59 | 52.38490 | 14.99810 | 207° | 29km/h | 25599m | 5.5m/s | -51.7°C | 0.8% | 24.4hPa | 2.7V | 18:12:15 | 01:58:45 | 00:00:00 | |
| AA1-15 | 2026-08-30 12:09:58 | 52.38496 | 14.99815 | 213° | 26km/h | 25594m | 4.4m/s | -51.7°C | 0.8% | 24.4hPa | 2.7V | 18:12:15 | 01:58:44 | 00:00:00 | |
| AA1-15 | 2026-08-30 12:09:48 | 52.38528 | 14.99863 | 201° | 18km/h | 25536m | 5.5m/s | -51.9°C | 0.8% | 24.6hPa | 2.7V | 18:12:15 | 01:58:34 | 00:00:00 | |
| SONDE2-12 | 2026-08-30 12:09:43 | 52.38556 | 14.99877 | 190° | 22km/h | 25508m | 6.2m/s | -51.9°C | 1.2% | 24.7hPa | 2.6V | 00:00:00 | 00:00:00 | 00:00:00 | |
| AA1-15 | 2026-08-30 12:09:38 | 52.38581 | 14.99881 | 196° | 20km/h | 25477m | 5.1m/s | -51.6°C | 0.8% | 24.8hPa | 2.6V | 18:12:15 | 01:58:24 | 00:00:00 | |
| AA1-15 | 2026-08-30 12:09:28 | 52.38624 | 14.99887 | 167° | 18km/h | 25415m | 5.2m/s | -51.8°C | 0.7% | 25.1hPa | 2.6V | 18:12:15 | 01:58:13 | 00:00:00 | |
| DL1XH-west | 2026-08-30 12:09:16 | 52.38649 | 14.99907 | 190° | 7km/h | 25351m | 6.4m/s | -52.1°C | 0.9% | 25.3hPa | 2.6V | 18:12:15 | 01:58:02 | 00:00:00 | |
| SONDE2-12 | 2026-08-30 12:09:12 | 52.38658 | 14.99902 | 170° | 11km/h | 25327m | 6.4m/s | -52.2°C | 1.3% | 25.4hPa | 2.7V | 00:00:00 | 00:00:00 | 00:00:00 | |
| DL1XH-west | 2026-08-30 12:09:06 | 52.38674 | 14.99893 | 140° | 9km/h | 25293m | 5.4m/s | -52.2°C | 0.8% | 25.6hPa | 2.7V | 18:12:15 | 01:57:52 | 00:00:00 | |
| AA1-15 | 2026-08-30 12:09:06 | 52.38675 | 14.99892 | 154° | 7km/h | 25287m | 7m/s | -52.2°C | 0.8% | 25.6hPa | 2.7V | 18:12:15 | 01:57:51 | 00:00:00 | |
| DL1XH-west | 2026-08-30 12:08:56 | 52.38690 | 14.99873 | 125° | 5km/h | 25234m | 5.2m/s | -52.2°C | 0.8% | 25.8hPa | 2.6V | 18:12:15 | 01:57:42 | 00:00:00 | |
| AA1-15 | 2026-08-30 12:08:54 | 52.38690 | 14.99869 | 80° | 5km/h | 25223m | 5.3m/s | -52.1°C | 0.9% | 25.9hPa | 2.7V | 18:12:15 | 01:57:40 | 00:00:00 | |
| DL1XH-west | 2026-08-30 12:08:46 | 52.38679 | 14.99863 | 48° | 5km/h | 25176m | 5.9m/s | -52.1°C | 0.8% | 26hPa | 2.6V | 18:12:15 | 01:57:32 | 00:00:00 | |
| AA1-15 | 2026-08-30 12:08:43 | 52.38678 | 14.99859 | 106° | 5km/h | 25159m | 5.5m/s | -52°C | 0.8% | 26.1hPa | 2.7V | 18:12:15 | 01:57:29 | 00:00:00 | |
| SONDE2-12 | 2026-08-30 12:08:41 | 52.38679 | 14.99854 | 94° | 7km/h | 25147m | 5.3m/s | -52.0°C | 1.2% | 26.1hPa | 2.7V | 00:00:00 | 00:00:00 | 00:00:00 | |
| DL1XH-west | 2026-08-30 12:08:35 | 52.38668 | 14.99852 | 2° | 13km/h | 25112m | 5.5m/s | -51.8°C | 0.7% | 26.3hPa | 2.7V | 18:12:15 | 01:57:21 | 00:00:00 | |
| AA1-15 | 2026-08-30 12:08:33 | 52.38660 | 14.99854 | 319° | 9km/h | 25094m | 6.9m/s | -51.9°C | 0.8% | 26.4hPa | 2.6V | 18:12:15 | 01:57:18 | 00:00:00 | |
| DL1XH1-15 | 2026-08-30 12:08:30 | 52.38656 | 14.99860 | 6° | 4km/h | 25065m | 5.3m/s | -52°C | 4% | 26.5hPa | 2.6V | 08:30:00 | 01:57:13 | 00:00:00 | |
| DL1XH-west | 2026-08-30 12:08:24 | 52.38650 | 14.99864 | 340° | 13km/h | 25048m | 5.2m/s | -52.1°C | 0.8% | 26.6hPa | 2.7V | 18:12:15 | 01:57:10 | 00:00:00 | |
| AA1-15 | 2026-08-30 12:08:21 | 52.38637 | 14.99867 | 352° | 22km/h | 25030m | 4.9m/s | -52.2°C | 0.8% | 26.6hPa | 2.6V | 18:12:15 | 01:57:07 | 00:00:00 | |
| DO2SHX-10 | 2026-08-30 12:08:20 | 52.38631 | 14.99869 | 344° | 20km/h | 25025m | 6.3m/s | -52.1°C | 4.0% | 26.6hPa | 2.6V | 00:00:00 | 01:57:06 | 00:00:00 | |
| DL1XH1-15 | 2026-08-30 12:08:19 | 52.38618 | 14.99883 | 317° | 18km/h | 25007m | 5.5m/s | -52.2°C | 4% | 26.7hPa | 2.6V | 08:30:00 | 01:57:03 | 00:00:00 | |
| DL1XH-west | 2026-08-30 12:08:14 | 52.38609 | 14.99895 | 320° | 15km/h | 24990m | 5m/s | -52.2°C | 0.9% | 26.8hPa | 2.7V | 18:12:15 | 01:57:00 | 00:00:00 | |
| AA1-15 | 2026-08-30 12:08:11 | 52.38601 | 14.99909 | 315° | 15km/h | 24972m | 4.7m/s | -52.1°C | 0.9% | 26.9hPa | 2.7V | 18:12:15 | 01:56:57 | 00:00:00 | |
| DB0DAN | 2026-08-30 12:08:10 | 52.38598 | 14.99912 | 325° | 13km/h | 24966m | 6.7m/s | -52°C | 1.2% | 26.9hPa | 2.7V | 00:00:00 | 00:00:00 | 00:00:00 | |
| DO2SHX-10 | 2026-08-30 12:08:10 | 52.38598 | 14.99912 | 326° | 13km/h | 24966m | 6.7m/s | 0°C | 0% | 0hPa | 2.7V | 00:00:00 | 01:56:56 | 08:30:00 | |
| DL1XH1-15 | 2026-08-30 12:08:09 | 52.38589 | 14.99918 | 334° | 15km/h | 24948m | 5.8m/s | -51.9°C | 4% | 27hPa | 2.7V | 08:30:00 | 01:56:53 | 00:00:00 | |
| DL1XH-west | 2026-08-30 12:08:04 | 52.38580 | 14.99932 | 299° | 16km/h | 24931m | 5.3m/s | -51.9°C | 0.8% | 27.1hPa | 2.6V | 18:12:15 | 01:56:50 | 00:00:00 | |
| AA1-15 | 2026-08-30 12:08:00 | 52.38577 | 14.99950 | 275° | 11km/h | 24908m | 6m/s | -52°C | 0.8% | 27.1hPa | 2.7V | 18:12:15 | 01:56:46 | 00:00:00 | |
| DL1XH1-15 | 2026-08-30 12:07:59 | 52.38576 | 14.99963 | 285° | 9km/h | 24890m | 5.7m/s | -51.9°C | 3.9% | 27.2hPa | 2.6V | 08:30:00 | 01:56:43 | 00:00:00 | |
| SP3WXH-11 | 2026-08-30 12:07:59 | 52.38577 | 14.99954 | 275° | 11km/h | 24902m | 6.5m/s | -51.8°C | 1.1% | 27.2hPa | 2.7V | 00:00:00 | 00:00:00 | 00:00:00 | |
| EDDB2-12 | 2026-08-30 12:07:58 | 52.38576 | 14.99963 | 285° | 7km/h | 24890m | 5.7m/s | -51.9°C | 1.1% | 27.2hPa | 2.7V | 00:00:00 | 00:00:00 | 00:00:00 | |
| DB0DAN | 2026-08-30 12:07:55 | 52.38574 | 14.99967 | 319° | 4km/h | 24877m | 5.4m/s | -51.8°C | 1.1% | 27.26hPa | 2.7V | 00:00:00 | 00:00:00 | 00:00:00 | |
| DL1XH-west | 2026-08-30 12:07:54 | 52.38573 | 14.99969 | 316° | 5km/h | 24872m | 5.3m/s | -51.9°C | 0.8% | 27.3hPa | 2.7V | 18:12:15 | 01:56:40 | 00:00:00 | |
| EDDB2-11 | 2026-08-30 12:07:51 | 52.38570 | 14.99983 | 273° | 9km/h | 24850m | 6.1m/s | -51.9°C | 1.1% | 27.4hPa | 2.6V | 00:00:00 | 00:00:00 | 00:00:00 | |
| DL1XH1-15 | 2026-08-30 12:07:50 | 52.38572 | 14.99990 | 215° | 7km/h | 24833m | 4.5m/s | -51.7°C | 4% | 27.5hPa | 2.6V | 08:30:00 | 01:56:33 | 00:00:00 | |
| AA1-15 | 2026-08-30 12:07:50 | 52.38570 | 14.99983 | 274° | 9km/h | 24850m | 6.1m/s | -51.9°C | 0.8% | 27.4hPa | 2.7V | 18:12:15 | 01:56:36 | 00:00:00 | |
| DL1XH-west | 2026-08-30 12:07:43 | 52.38575 | 15.00005 | 278° | 11km/h | 24811m | 4.7m/s | -51.9°C | 0.7% | 27.6hPa | 2.7V | 18:12:15 | 01:56:29 | 00:00:00 | |
| AA1-15 | 2026-08-30 12:07:39 | 52.38575 | 15.00009 | 156° | 5km/h | 24790m | 5m/s | -51.8°C | 0.6% | 27.6hPa | 2.6V | 18:12:15 | 01:56:25 | 00:00:00 | |
| SONDE2-12 | 2026-08-30 12:07:39 | 52.38575 | 15.00009 | 155° | 4km/h | 24790m | 5.0m/s | -51.8°C | 1.1% | 27.6hPa | 2.6V | 00:00:00 | 00:00:00 | 00:00:00 | |
| DL1XH-west | 2026-08-30 12:07:33 | 52.38589 | 15.00011 | 155° | 2km/h | 24756m | 5.5m/s | -52.1°C | 0.8% | 27.8hPa | 2.6V | 18:12:15 | 01:56:19 | 00:00:00 | |
| AA1-15 | 2026-08-30 12:07:28 | 52.38583 | 15.00019 | 324° | 11km/h | 24729m | 5m/s | -52.4°C | 0.8% | 27.9hPa | 2.6V | 18:12:15 | 01:56:14 | 00:00:00 | |
| DO2SHX-10 | 2026-08-30 12:07:28 | 52.38583 | 15.00019 | 324° | 11km/h | 24729m | 4.9m/s | 0°C | 0% | 0hPa | 2.6V | 00:00:00 | 01:56:14 | 00:00:00 | |
| DC4HF-4 | 2026-08-30 12:07:26 | 52.38578 | 15.00023 | 348° | 11km/h | 24717m | 5.2m/s | -52.5°C | 1.2% | 28.0hPa | 2.6V | 00:00:00 | 00:00:00 | 00:00:00 | |
| DL1XH1-15 | 2026-08-30 12:07:24 | 52.38575 | 15.00030 | 209° | 9km/h | 24695m | 6m/s | -52.3°C | 3.9% | 28.1hPa | 2.6V | 08:30:00 | 01:56:08 | 00:00:00 | |
| DL1XH-west | 2026-08-30 12:07:22 | 52.38575 | 15.00030 | 210° | 9km/h | 24695m | 6m/s | -52.3°C | 0.8% | 28.1hPa | 2.6V | 18:12:15 | 01:56:08 | 00:00:00 | |
| AA1-15 | 2026-08-30 12:07:17 | 52.38589 | 15.00025 | 158° | 9km/h | 24666m | 5.9m/s | -52.4°C | 1% | 28.2hPa | 2.6V | 18:12:15 | 01:56:03 | 00:00:00 | |
| DJ2DS-15 | 2026-08-30 12:07:15 | 52.38592 | 15.00024 | 183° | 5km/h | 24655m | 5.0m/s | -52.3°C | 4.2% | 28.2hPa | 2.7V | 00:00:00 | 01:56:01 | 00:00:00 | |
| DL1XH1-15 | 2026-08-30 12:07:14 | 52.38586 | 15.00014 | 16° | 5km/h | 24619m | 5.4m/s | -52.4°C | 4% | 28.4hPa | 2.7V | 08:30:00 | 01:55:55 | 00:00:00 | |
| DL1XH-west | 2026-08-30 12:07:13 | 52.38591 | 15.00020 | 47° | 9km/h | 24637m | 5.9m/s | -52.4°C | 0.9% | 28.3hPa | 2.6V | 18:12:15 | 01:55:58 | 00:00:00 | |
| SONDE2-12 | 2026-08-30 12:07:08 | 52.38585 | 15.00013 | 17° | 2km/h | 24614m | 4.6m/s | -52.4°C | 1.3% | 28.4hPa | 2.7V | 00:00:00 | 00:00:00 | 00:00:00 | |
| AA1-15 | 2026-08-30 12:07:06 | 52.38585 | 15.00009 | 94° | 7km/h | 24596m | 5.6m/s | -52.4°C | 0.9% | 28.5hPa | 2.7V | 18:12:15 | 01:55:51 | 00:00:00 | |
| DL1XH-west | 2026-08-30 12:07:01 | 52.38585 | 15.00002 | 272° | 0km/h | 24572m | 5m/s | -52.3°C | 0.9% | 28.6hPa | 2.7V | 18:12:15 | 01:55:47 | 00:00:00 | |
| AA1-15 | 2026-08-30 12:06:55 | 52.38581 | 14.99997 | 15° | 7km/h | 24536m | 4.7m/s | -52.5°C | 0.9% | 28.8hPa | 2.7V | 18:12:15 | 01:55:41 | 00:00:00 | |
| DJ2DS-15 | 2026-08-30 12:06:55 | 52.38581 | 14.99997 | 16° | 9km/h | 24536m | 4.7m/s | -52.4°C | 4.1% | 28.7hPa | 2.7V | 00:00:00 | 01:55:41 | 08:30:00 | |
| DL1XH1-15 | 2026-08-30 12:06:53 | 52.38567 | 14.99988 | 334° | 5km/h | 24496m | 5.3m/s | -52.1°C | 4.1% | 29hPa | 2.6V | 08:30:00 | 01:55:34 | 00:00:00 | |
| DL1XH-west | 2026-08-30 12:06:51 | 52.38572 | 14.99988 | 31° | 11km/h | 24513m | 5.9m/s | -52.4°C | 0.9% | 28.9hPa | 2.7V | 18:12:15 | 01:55:37 | 00:00:00 | |
| DC4HF-4 | 2026-08-30 12:06:50 | 52.38570 | 14.99986 | 8° | 7km/h | 24507m | 6.6m/s | -52.4°C | 1.2% | 28.9hPa | 2.7V | 00:00:00 | 00:00:00 | 00:00:00 | |
| AA1-15 | 2026-08-30 12:06:44 | 52.38560 | 14.99990 | 336° | 9km/h | 24470m | 6.9m/s | -52.2°C | 0.9% | 29.1hPa | 2.7V | 18:12:15 | 01:55:30 | 00:00:00 | |
| DL1XH-west | 2026-08-30 12:06:40 | 52.38552 | 14.99999 | 348° | 9km/h | 24449m | 6.6m/s | -52.1°C | 0.8% | 29.2hPa | 2.6V | 18:12:15 | 01:55:26 | 00:00:00 | |
| SONDE2-12 | 2026-08-30 12:06:37 | 52.38547 | 15.00002 | 299° | 5km/h | 24432m | 7.1m/s | -52.0°C | 1.2% | 29.2hPa | 2.6V | 00:00:00 | 00:00:00 | 00:00:00 | |
| AA1-15 | 2026-08-30 12:06:34 | 52.38546 | 15.00009 | 287° | 4km/h | 24413m | 6.7m/s | -51.8°C | 0.8% | 29.3hPa | 2.6V | 18:12:15 | 01:55:20 | 00:00:00 | |
| DL1XH-west | 2026-08-30 12:06:30 | 52.38544 | 15.00017 | 294° | 9km/h | 24390m | 5.5m/s | -52°C | 0.8% | 29.4hPa | 2.6V | 18:12:15 | 01:55:16 | 00:00:00 | |
| AA1-15 | 2026-08-30 12:06:23 | 52.38534 | 15.00020 | 343° | 2km/h | 24350m | 5.7m/s | -51.9°C | 0.8% | 29.6hPa | 2.6V | 18:12:15 | 01:55:09 | 00:00:00 | |
| DL1XH-west | 2026-08-30 12:06:19 | 52.38538 | 15.00020 | 187° | 7km/h | 24327m | 5.7m/s | -52.2°C | 0.8% | 29.7hPa | 2.7V | 18:12:15 | 01:55:05 | 00:00:00 | |
| DL1XH1-15 | 2026-08-30 12:06:18 | 52.38542 | 15.00023 | 215° | 11km/h | 24314m | 5.5m/s | -52.1°C | 4% | 29.8hPa | 2.6V | 08:30:00 | 01:55:03 | 00:00:00 | |
| AA1-15 | 2026-08-30 12:06:12 | 52.38547 | 15.00025 | 35° | 4km/h | 24286m | 6.7m/s | -51.9°C | 0.8% | 29.9hPa | 2.6V | 18:12:15 | 01:54:58 | 00:00:00 | |
| DL1XH1-15 | 2026-08-30 12:06:12 | 52.38540 | 15.00020 | 57° | 5km/h | 24258m | 5m/s | -52°C | 4% | 30.1hPa | 2.7V | 08:30:00 | 01:54:53 | 00:00:00 | |
| DL1XH-west | 2026-08-30 12:06:09 | 52.38543 | 15.00024 | 19° | 7km/h | 24269m | 5.8m/s | -52°C | 0.8% | 30hPa | 2.6V | 18:12:15 | 01:54:55 | 00:00:00 | |
| SONDE2-12 | 2026-08-30 12:06:06 | 52.38540 | 15.00018 | 199° | 4km/h | 24247m | 6.8m/s | -52.1°C | 1.2% | 30.1hPa | 2.6V | 00:00:00 | 00:00:00 | 00:00:00 | |
| AA1-15 | 2026-08-30 12:06:01 | 52.38553 | 15.00026 | 183° | 18km/h | 24225m | 6.5m/s | -52°C | 0.9% | 30.2hPa | 2.6V | 18:12:15 | 01:54:47 | 00:00:00 | |
| DL1XH-west | 2026-08-30 12:05:59 | 52.38562 | 15.00023 | 153° | 16km/h | 24213m | 5.1m/s | -52°C | 0.8% | 30.3hPa | 2.6V | 18:12:15 | 01:54:45 | 00:00:00 | |
| DL1XH1-15 | 2026-08-30 12:05:58 | 52.38566 | 15.00018 | 133° | 7km/h | 24202m | 6m/s | -52°C | 3.9% | 30.3hPa | 2.7V | 08:30:00 | 01:54:43 | 00:00:00 | |
| SP3WXH-11 | 2026-08-30 12:05:55 | 52.38567 | 15.00017 | 343° | 2km/h | 24190m | 5.8m/s | -52.2°C | 1.2% | 30.4hPa | 2.6V | 00:00:00 | 00:00:00 | 00:00:00 | |
| EDDB2-12 | 2026-08-30 12:05:53 | 52.38565 | 15.00016 | 28° | 5km/h | 24179m | 6.9m/s | -52.2°C | 1.2% | 30.4hPa | 2.6V | 00:00:00 | 00:00:00 | 00:00:00 | |
| DL1XH1-15 | 2026-08-30 12:05:52 | 52.38563 | 15.00000 | 115° | 9km/h | 24143m | 6m/s | -52.4°C | 4.1% | 30.6hPa | 2.6V | 08:30:00 | 01:54:33 | 00:00:00 | |
| AA1-15 | 2026-08-30 12:05:50 | 52.38562 | 15.00008 | 75° | 7km/h | 24161m | 6.5m/s | -52.3°C | 0.9% | 30.5hPa | 2.7V | 18:12:15 | 01:54:36 | 00:00:00 | |
| DL1XH-west | 2026-08-30 12:05:49 | 52.38562 | 15.00003 | 119° | 7km/h | 24148m | 5m/s | -52.4°C | 0.9% | 30.6hPa | 2.6V | 18:12:15 | 01:54:34 | 00:00:00 | |
| EDDB2-11 | 2026-08-30 12:05:47 | 52.38564 | 14.99996 | 109° | 11km/h | 24137m | 6.5m/s | -52.3°C | 1.2% | 30.6hPa | 2.7V | 00:00:00 | 00:00:00 | 00:00:00 | |
| DO2SHX-10 | 2026-08-30 12:05:45 | 52.38565 | 14.99991 | 108° | 11km/h | 24131m | 5.4m/s | 0°C | 0% | 0hPa | 2.7V | 00:00:00 | 01:54:31 | 00:00:00 | |
| 13BRC | 2026-08-30 12:05:43 | 52.38566 | 14.99986 | 108° | 13km/h | 24126m | 5.3m/s | -52.4°C | 1.2% | 30.7hPa | 2.7V | 00:00:00 | 00:00:00 | 00:00:00 | |
| SQ2ODE-11 | 2026-08-30 12:05:42 | 52.38567 | 14.99982 | 103° | 9km/h | 24120m | 6.5m/s | -52.4°C | 1.2% | 30.7hPa | 2.7V | 00:00:00 | 00:00:00 | 00:00:00 | |
| DB0DAN | 2026-08-30 12:05:40 | 52.38564 | 14.99973 | 46° | 11km/h | 24103m | 6.5m/s | -52.5°C | 1.2% | 30.78hPa | 2.7V | 00:00:00 | 00:00:00 | 00:00:00 | |
| DL1XH1-15 | 2026-08-30 12:05:39 | 52.38556 | 14.99959 | 45° | 15km/h | 24086m | 6.3m/s | -52.3°C | 4% | 30.9hPa | 2.6V | 08:30:00 | 01:54:23 | 00:00:00 | |
| DL1XH-west | 2026-08-30 12:05:39 | 52.38559 | 14.99964 | 46° | 16km/h | 24092m | 4.8m/s | -52.3°C | 0.9% | 30.8hPa | 2.7V | 18:12:15 | 01:54:24 | 00:00:00 | |
| SONDE2-12 | 2026-08-30 12:05:35 | 52.38550 | 14.99950 | 44° | 9km/h | 24069m | 5.5m/s | -52.2°C | 1.3% | 30.9hPa | 2.7V | 00:00:00 | 00:00:00 | 00:00:00 | |
| DO2SHX-10 | 2026-08-30 12:05:33 | 52.38548 | 14.99947 | 51° | 11km/h | 24063m | 6.6m/s | 0°C | 0% | 0hPa | 2.7V | 00:00:00 | 01:54:19 | 00:00:00 | |
| DL1XH1-15 | 2026-08-30 12:05:32 | 52.38535 | 14.99939 | 352° | 13km/h | 24029m | 6.1m/s | -52.1°C | 4% | 31.1hPa | 2.7V | 08:30:00 | 01:54:13 | 00:00:00 | |
| DL1XH-west | 2026-08-30 12:05:28 | 52.38538 | 14.99938 | 346° | 11km/h | 24034m | 4.6m/s | -52.1°C | 0.9% | 31.1hPa | 2.7V | 18:12:15 | 01:54:14 | 00:00:00 | |
| AA1-15 | 2026-08-30 12:05:27 | 52.38535 | 14.99939 | 352° | 13km/h | 24029m | 6.1m/s | -52.1°C | 0.8% | 31.1hPa | 2.7V | 18:12:15 | 01:54:13 | 00:00:00 | |
| DO2SHX-10 | 2026-08-30 12:05:27 | 52.38535 | 14.99938 | 353° | 16km/h | 24029m | 6.1m/s | 0°C | 0% | 0hPa | 2.7V | 00:00:00 | 01:54:13 | 08:30:00 | |
| KRY50SP-1 | 2026-08-30 12:05:26 | 52.38535 | 14.99938 | 353° | 13km/h | 24029m | 6.1m/s | -52.1°C | 1.2% | 31.1hPa | 2.7V | 00:00:00 | 00:00:00 | 00:00:00 | |
| SQ2ODE-11 | 2026-08-30 12:05:25 | 52.38532 | 14.99939 | 5° | 16km/h | 24023m | 6.3m/s | -52.1°C | 1.2% | 31.2hPa | 2.7V | 00:00:00 | 00:00:00 | 00:00:00 | |
| DO2SHX-10 | 2026-08-30 12:05:24 | 52.38523 | 14.99937 | 9° | 15km/h | 24012m | 5.3m/s | 0°C | 0% | 0hPa | 2.7V | 00:00:00 | 01:54:10 | 00:00:00 | |
| EDDB2-12 | 2026-08-30 12:05:23 | 52.38516 | 14.99935 | 7° | 11km/h | 23999m | 5.5m/s | -52.4°C | 1.2% | 31.3hPa | 2.7V | 00:00:00 | 00:00:00 | 00:00:00 | |
| DO2SHX-10 | 2026-08-30 12:05:21 | 52.38514 | 14.99934 | 19° | 11km/h | 23994m | 5.6m/s | 0°C | 0% | 0hPa | 2.7V | 00:00:00 | 01:54:07 | 00:00:00 | |
| SP6BVK | 2026-08-30 12:05:20 | 52.38514 | 14.99934 | 20° | 11km/h | 23994m | 5.6m/s | -52.4°C | 1.2% | 31.3hPa | 2.7V | 00:00:00 | 00:00:00 | 00:00:00 | |
| DL1XH1-15 | 2026-08-30 12:05:18 | 52.38506 | 14.99927 | 356° | 4km/h | 23972m | 6.6m/s | -52.1°C | 4.2% | 31.4hPa | 2.7V | 08:30:00 | 01:54:03 | 00:00:00 | |
| DL1XH-west | 2026-08-30 12:05:17 | 52.38506 | 14.99927 | 357° | 4km/h | 23972m | 6.6m/s | -52.1°C | 0.9% | 31.4hPa | 2.7V | 18:12:15 | 01:54:03 | 00:00:00 | |
| AA1-15 | 2026-08-30 12:05:16 | 52.38505 | 14.99928 | 302° | 7km/h | 23966m | 6.1m/s | -52.2°C | 0.9% | 31.5hPa | 2.6V | 18:12:15 | 01:54:02 | 00:00:00 | |
| EDDB2-11 | 2026-08-30 12:05:16 | 52.38504 | 14.99931 | 296° | 9km/h | 23960m | 5.0m/s | -52.3°C | 1.2% | 31.5hPa | 2.6V | 00:00:00 | 00:00:00 | 00:00:00 | |
| DJ2DS-15 | 2026-08-30 12:05:15 | 52.38504 | 14.99931 | 297° | 9km/h | 23960m | 5.0m/s | -52.2°C | 4.1% | 31.4hPa | 2.6V | 00:00:00 | 01:54:01 | 00:00:00 | |
| DAC517 | 2026-08-30 12:05:14 | 52.38503 | 14.99931 | 298° | 11km/h | 23960m | 5.0m/s | -52.3°C | 1.2% | 31.5hPa | 2.6V | 00:00:00 | 00:00:00 | 00:00:00 | |
| DO2SHX-10 | 2026-08-30 12:05:13 | 52.38500 | 14.99939 | 324° | 15km/h | 23949m | 5.9m/s | 0°C | 0% | 0hPa | 2.6V | 00:00:00 | 01:53:59 | 00:00:00 | |
| DL1XH1-15 | 2026-08-30 12:05:12 | 52.38485 | 14.99952 | 358° | 4km/h | 23915m | 6.9m/s | -52°C | 3.9% | 31.7hPa | 2.6V | 08:30:00 | 01:53:53 | 00:00:00 | |
| DF8AY | 2026-08-30 12:05:10 | 52.38490 | 14.99947 | 333° | 13km/h | 23933m | 6.7m/s | 0°C | 0% | 0hPa | 2.7V | 18:12:15 | 01:53:56 | 00:00:00 | |
| DL1XH-west | 2026-08-30 12:05:07 | 52.38484 | 14.99952 | 359° | 4km/h | 23915m | 6.9m/s | -52°C | 0.8% | 31.7hPa | 2.6V | 18:12:15 | 01:53:53 | 00:00:00 | |
| AA1-15 | 2026-08-30 12:05:05 | 52.38484 | 14.99951 | 126° | 2km/h | 23903m | 4.9m/s | -51.9°C | 0.8% | 31.8hPa | 2.7V | 18:12:15 | 01:53:51 | 00:00:00 | |
| SONDE2-12 | 2026-08-30 12:05:04 | 52.38486 | 14.99951 | 209° | 5km/h | 23892m | 5.4m/s | -51.8°C | 1.3% | 31.8hPa | 2.7V | 00:00:00 | 00:00:00 | 00:00:00 | |
| DC4HF-4 | 2026-08-30 12:05:02 | 52.38487 | 14.99954 | 235° | 2km/h | 23880m | 6.5m/s | -51.9°C | 1.2% | 31.9hPa | 2.7V | 00:00:00 | 00:00:00 | 00:00:00 | |
| 13BRC | 2026-08-30 12:05:01 | 52.38486 | 14.99953 | 223° | 5km/h | 23887m | 5.0m/s | -51.8°C | 1.2% | 31.8hPa | 2.7V | 00:00:00 | 00:00:00 | 00:00:00 | |
| SQ2ODE-11 | 2026-08-30 12:05:00 | 52.38487 | 14.99954 | 236° | 4km/h | 23881m | 6.5m/s | -51.9°C | 1.2% | 31.9hPa | 2.7V | 00:00:00 | 00:00:00 | 00:00:00 | |
| SP6BVK | 2026-08-30 12:04:59 | 52.38488 | 14.99955 | 301° | 4km/h | 23875m | 5.6m/s | -51.9°C | 1.2% | 31.9hPa | 2.7V | 00:00:00 | 00:00:00 | 00:00:00 | |
| DL1XH1-15 | 2026-08-30 12:04:58 | 52.38484 | 14.99965 | 291° | 15km/h | 23857m | 5.9m/s | -52.1°C | 4% | 32hPa | 2.7V | 08:30:00 | 01:53:43 | 00:00:00 | |
| DL1XH-west | 2026-08-30 12:04:56 | 52.38483 | 14.99970 | 289° | 15km/h | 23852m | 4.5m/s | -52.1°C | 0.8% | 32hPa | 2.6V | 18:12:15 | 01:53:42 | 00:00:00 | |
| AA1-15 | 2026-08-30 12:04:54 | 52.38480 | 14.99980 | 297° | 9km/h | 23840m | 6.4m/s | -52.1°C | 0.8% | 32.1hPa | 2.6V | 18:12:15 | 01:53:40 | 00:00:00 | |
| DL1XH-west | 2026-08-30 12:04:46 | 52.38484 | 15.00002 | 278° | 15km/h | 23795m | 6.6m/s | -52.3°C | 0.7% | 32.3hPa | 2.7V | 18:12:15 | 01:53:32 | 00:00:00 | |
| DF8AY | 2026-08-30 12:04:44 | 52.38481 | 15.00037 | 261° | 13km/h | 23765m | 4.9m/s | 0°C | 0% | 0hPa | 2.7V | 18:12:15 | 01:53:27 | 00:00:00 | |
| AA1-15 | 2026-08-30 12:04:43 | 52.38482 | 15.00025 | 278° | 18km/h | 23776m | 6.6m/s | -52.5°C | 0.8% | 32.4hPa | 2.6V | 18:12:15 | 01:53:29 | 00:00:00 | |
| DL1XH-west | 2026-08-30 12:04:36 | 52.38491 | 15.00047 | 149° | 11km/h | 23736m | 4.6m/s | -52.8°C | 0.9% | 32.6hPa | 2.6V | 18:12:15 | 01:53:22 | 00:00:00 | |
| SONDE2-12 | 2026-08-30 12:04:33 | 52.38499 | 15.00051 | 251° | 16km/h | 23715m | 5.2m/s | -52.9°C | 1.3% | 32.7hPa | 2.7V | 00:00:00 | 00:00:00 | 00:00:00 | |
| DL1XH1-15 | 2026-08-30 12:04:32 | 52.38506 | 15.00091 | 242° | 20km/h | 23688m | 5.4m/s | -53.1°C | 4.2% | 32.8hPa | 2.7V | 08:30:00 | 01:53:13 | 00:00:00 | |
| AA1-15 | 2026-08-30 12:04:32 | 52.38499 | 15.00051 | 252° | 16km/h | 23715m | 5.2m/s | -52.9°C | 0.9% | 32.7hPa | 2.6V | 18:12:15 | 01:53:18 | 00:00:00 | |
| DL1XH-west | 2026-08-30 12:04:26 | 52.38508 | 15.00098 | 236° | 20km/h | 23681m | 6.7m/s | -53.1°C | 1% | 32.9hPa | 2.6V | 18:12:15 | 01:53:12 | 00:00:00 | |
| AA1-15 | 2026-08-30 12:04:22 | 52.38520 | 15.00117 | 199° | 9km/h | 23661m | 6.7m/s | -53.1°C | 0.9% | 33hPa | 2.7V | 18:12:15 | 01:53:08 | 00:00:00 | |
| DO2SHX-10 | 2026-08-30 12:04:22 | 52.38519 | 15.00117 | 199° | 9km/h | 23661m | 6.6m/s | 0°C | 0% | 0hPa | 2.6V | 00:00:00 | 01:53:08 | 00:00:00 | |
| EDDB2-12 | 2026-08-30 12:04:20 | 52.38522 | 15.00118 | 178° | 0km/h | 23650m | 4.8m/s | -53.2°C | 1.2% | 33.0hPa | 2.6V | 00:00:00 | 00:00:00 | 00:00:00 | |
| 13BRC | 2026-08-30 12:04:19 | 52.38522 | 15.00118 | 0° | 0km/h | 23650m | 4.8m/s | -53.2°C | 1.2% | 33.0hPa | 2.6V | 00:00:00 | 00:00:00 | 00:00:00 | |
| DL1XH1-15 | 2026-08-30 12:04:18 | 52.38523 | 15.00126 | 260° | 15km/h | 23633m | 4.7m/s | -53.2°C | 4.1% | 33.1hPa | 2.6V | 08:30:00 | 01:53:03 | 00:00:00 | |
| DL1XH-west | 2026-08-30 12:04:15 | 52.38525 | 15.00137 | 240° | 15km/h | 23622m | 5.7m/s | -53.3°C | 0.9% | 33.2hPa | 2.7V | 18:12:15 | 01:53:01 | 00:00:00 | |
| DO2SHX-10 | 2026-08-30 12:04:14 | 52.38528 | 15.00142 | 228° | 16km/h | 23617m | 5.8m/s | 0°C | 0% | 0hPa | 2.6V | 00:00:00 | 01:53:00 | 00:00:00 | |
| EDDB2-11 | 2026-08-30 12:04:13 | 52.38531 | 15.00147 | 222° | 18km/h | 23611m | 4.7m/s | -53.3°C | 1.2% | 33.2hPa | 2.6V | 00:00:00 | 00:00:00 | 00:00:00 | |
| DL1XH1-15 | 2026-08-30 12:04:12 | 52.38549 | 15.00171 | 157° | 4km/h | 23578m | 5.3m/s | -53.4°C | 4.2% | 33.4hPa | 2.6V | 08:30:00 | 01:52:53 | 00:00:00 | |
| AA1-15 | 2026-08-30 12:04:11 | 52.38538 | 15.00159 | 225° | 22km/h | 23600m | 5.4m/s | -53.3°C | 1% | 33.3hPa | 2.7V | 18:12:15 | 01:52:57 | 00:00:00 | |
| DF8AY | 2026-08-30 12:04:07 | 52.38549 | 15.00171 | 158° | 4km/h | 23578m | 5.3m/s | 0°C | 0% | 0hPa | 2.6V | 18:12:15 | 01:52:53 | 00:00:00 | |
| DL1XH-west | 2026-08-30 12:04:05 | 52.38549 | 15.00170 | 359° | 2km/h | 23566m | 6.3m/s | -53.4°C | 0.9% | 33.5hPa | 2.7V | 18:12:15 | 01:52:51 | 00:00:00 | |
| SONDE2-12 | 2026-08-30 12:04:02 | 52.38548 | 15.00171 | 175° | 2km/h | 23544m | 5.1m/s | -53.5°C | 1.3% | 33.6hPa | 2.6V | 00:00:00 | 00:00:00 | 00:00:00 | |
| AA1-15 | 2026-08-30 12:04:01 | 52.38548 | 15.00171 | 176° | 4km/h | 23544m | 5.1m/s | -53.5°C | 0.9% | 33.6hPa | 2.6V | 18:12:15 | 01:52:47 | 00:00:00 | |
| SONDE2-11 | 2026-08-30 12:03:58 | 52.38554 | 15.00176 | 215° | 13km/h | 23526m | 5.3m/s | -53.6°C | 1.3% | 33.7hPa | 2.6V | 00:00:00 | 00:00:00 | 00:00:00 | |
| DL1XH1-15 | 2026-08-30 12:03:58 | 52.38557 | 15.00179 | 207° | 16km/h | 23521m | 5.6m/s | -53.6°C | 4.3% | 33.7hPa | 2.6V | 08:30:00 | 01:52:43 | 00:00:00 | |
| DB0DAN | 2026-08-30 12:03:55 | 52.38564 | 15.00183 | 189° | 13km/h | 23510m | 4.5m/s | -53.7°C | 1.3% | 33.77hPa | 2.6V | 00:00:00 | 00:00:00 | 00:00:00 | |
| DL1XH-west | 2026-08-30 12:03:55 | 52.38564 | 15.00183 | 189° | 13km/h | 23510m | 4.5m/s | -53.7°C | 1% | 33.8hPa | 2.6V | 18:12:15 | 01:52:41 | 00:00:00 | |
| AA1-15 | 2026-08-30 12:03:50 | 52.38566 | 15.00182 | 40° | 11km/h | 23482m | 6.6m/s | -54°C | 1% | 33.9hPa | 2.6V | 18:12:15 | 01:52:36 | 00:00:00 | |
| DC4HF-4 | 2026-08-30 12:03:50 | 52.38564 | 15.00179 | 41° | 13km/h | 23476m | 4.8m/s | -53.9°C | 1.3% | 34.0hPa | 2.6V | 00:00:00 | 00:00:00 | 00:00:00 | |
| EDDB2-12 | 2026-08-30 12:03:49 | 52.38564 | 15.00179 | 41° | 13km/h | 23476m | 4.8m/s | -53.9°C | 1.3% | 34.0hPa | 2.6V | 00:00:00 | 00:00:00 | 00:00:00 | |
| S3001 | 2026-08-30 12:03:45 | 52.38556 | 15.00174 | 268° | 5km/h | 23456m | 5.1m/s | -53.9°C | 1.3% | 34.1hPa | 2.6V | 00:00:00 | 00:00:00 | 00:00:00 | |
| DL1XH-west | 2026-08-30 12:03:44 | 52.38557 | 15.00177 | 238° | 11km/h | 23451m | 4.7m/s | -53.8°C | 1% | 34.1hPa | 2.6V | 18:12:15 | 01:52:30 | 00:00:00 | |
| DO2SHX-10 | 2026-08-30 12:03:43 | 52.38559 | 15.00180 | 218° | 9km/h | 23446m | 6.1m/s | 0°C | 0% | 0hPa | 2.7V | 00:00:00 | 01:52:29 | 00:00:00 | |
| DB0DAN | 2026-08-30 12:03:40 | 52.38566 | 15.00184 | 199° | 7km/h | 23428m | 6.4m/s | -53.9°C | 1.3% | 34.21hPa | 2.7V | 00:00:00 | 00:00:00 | 00:00:00 | |
| AA1-15 | 2026-08-30 12:03:39 | 52.38567 | 15.00185 | 213° | 4km/h | 23423m | 5.5m/s | -53.8°C | 1.1% | 34.2hPa | 2.6V | 18:12:15 | 01:52:25 | 00:00:00 | |
| DL1XH1-15 | 2026-08-30 12:03:38 | 52.38568 | 15.00185 | 129° | 2km/h | 23412m | 6m/s | -53.9°C | 4.4% | 34.3hPa | 2.6V | 08:30:00 | 01:52:23 | 00:00:00 | |
| DL1XH-west | 2026-08-30 12:03:34 | 52.38573 | 15.00191 | 246° | 13km/h | 23385m | 5m/s | -54°C | 1% | 34.4hPa | 2.6V | 18:12:15 | 01:52:18 | 00:00:00 | |
| SONDE2-12 | 2026-08-30 12:03:31 | 52.38576 | 15.00199 | 220° | 11km/h | 23375m | 6.5m/s | -54.0°C | 1.4% | 34.5hPa | 2.7V | 00:00:00 | 00:00:00 | 00:00:00 | |
| AA1-15 | 2026-08-30 12:03:29 | 52.38579 | 15.00202 | 198° | 11km/h | 23369m | 5.5m/s | -54°C | 1% | 34.5hPa | 2.7V | 18:12:15 | 01:52:15 | 00:00:00 | |
| DAC517 | 2026-08-30 12:03:28 | 52.38578 | 15.00202 | 199° | 11km/h | 23369m | 5.5m/s | -54.0°C | 1.3% | 34.5hPa | 2.7V | 00:00:00 | 00:00:00 | 00:00:00 | |
| KRY50SP-1 | 2026-08-30 12:03:27 | 52.38581 | 15.00203 | 193° | 11km/h | 23364m | 5.1m/s | -53.9°C | 1.3% | 34.6hPa | 2.7V | 00:00:00 | 00:00:00 | 00:00:00 | |
| DB0DAN | 2026-08-30 12:03:25 | 52.38590 | 15.00205 | 178° | 11km/h | 23347m | 4.9m/s | -53.9°C | 1.3% | 34.65hPa | 2.7V | 00:00:00 | 00:00:00 | 00:00:00 | |
| DL1XH-west | 2026-08-30 12:03:23 | 52.38595 | 15.00202 | 149° | 11km/h | 23335m | 5.4m/s | -53.9°C | 1.1% | 34.7hPa | 2.6V | 18:12:15 | 01:52:09 | 00:00:00 | |
| AA1-15 | 2026-08-30 12:03:19 | 52.38601 | 15.00200 | 251° | 4km/h | 23314m | 5.3m/s | -53.9°C | 1.1% | 34.8hPa | 2.6V | 18:12:15 | 01:52:05 | 00:00:00 | |
| DL1XH1-15 | 2026-08-30 12:03:18 | 52.38601 | 15.00201 | 147° | 2km/h | 23302m | 6.2m/s | -53.9°C | 4.3% | 34.9hPa | 2.7V | 08:30:00 | 01:52:03 | 00:00:00 | |
| DL1XH-west | 2026-08-30 12:03:13 | 52.38612 | 15.00199 | 175° | 16km/h | 23276m | 5.2m/s | -53.8°C | 0.9% | 35hPa | 2.7V | 18:12:15 | 01:51:58 | 00:00:00 | |
| DJ2DS-15 | 2026-08-30 12:03:13 | 52.38608 | 15.00199 | 183° | 13km/h | 23281m | 5.2m/s | -53.8°C | 4.2% | 35.0hPa | 2.7V | 00:00:00 | 01:51:59 | 00:00:00 | |
| DL1XH1-15 | 2026-08-30 12:03:12 | 52.38636 | 15.00192 | 178° | 11km/h | 23242m | 4.6m/s | -53.8°C | 4.4% | 35.2hPa | 2.7V | 08:30:00 | 01:51:52 | 00:00:00 | |
| AA1-15 | 2026-08-30 12:03:08 | 52.38629 | 15.00192 | 173° | 16km/h | 23253m | 6.5m/s | -53.7°C | 1% | 35.2hPa | 2.6V | 18:12:15 | 01:51:54 | 00:00:00 | |
| DL1XH-west | 2026-08-30 12:03:02 | 52.38647 | 15.00189 | 188° | 11km/h | 23213m | 4.9m/s | -53.9°C | 1.1% | 35.4hPa | 2.7V | 18:12:15 | 01:51:47 | 00:00:00 | |
| SONDE2-12 | 2026-08-30 12:03:00 | 52.38653 | 15.00189 | 173° | 13km/h | 23203m | 6.5m/s | -54.0°C | 1.4% | 35.4hPa | 2.6V | 00:00:00 | 00:00:00 | 00:00:00 | |
| AA1-15 | 2026-08-30 12:02:58 | 52.38657 | 15.00189 | 172° | 15km/h | 23196m | 5.2m/s | -53.9°C | 1% | 35.5hPa | 2.6V | 18:12:15 | 01:51:44 | 00:00:00 | |
| DL1XH-west | 2026-08-30 12:02:52 | 52.38693 | 15.00183 | 170° | 20km/h | 23157m | 6.3m/s | -53.9°C | 1.1% | 35.7hPa | 2.6V | 18:12:15 | 01:51:37 | 00:00:00 | |
| SP3WXH-11 | 2026-08-30 12:02:49 | 52.38702 | 15.00182 | 173° | 13km/h | 23147m | 4.4m/s | -53.8°C | 1.3% | 35.8hPa | 2.6V | 00:00:00 | 00:00:00 | 00:00:00 | |
| DL1XH1-15 | 2026-08-30 12:02:48 | 52.38708 | 15.00176 | 105° | 7km/h | 23129m | 5.3m/s | -53.8°C | 4.3% | 35.8hPa | 2.6V | 08:30:00 | 01:51:32 | 00:00:00 | |
| AA1-15 | 2026-08-30 12:02:47 | 52.38707 | 15.00179 | 132° | 9km/h | 23135m | 6.9m/s | -53.8°C | 1% | 35.8hPa | 2.7V | 18:12:15 | 01:51:33 | 00:00:00 | |
| DL1XH-west | 2026-08-30 12:02:41 | 52.38711 | 15.00171 | 179° | 5km/h | 23101m | 5.9m/s | -53.8°C | 1% | 36hPa | 2.7V | 18:12:15 | 01:51:27 | 00:00:00 | |
| DL1XH1-15 | 2026-08-30 12:02:41 | 52.38723 | 15.00160 | 146° | 15km/h | 23071m | 4.4m/s | -53.8°C | 4.4% | 36.2hPa | 2.7V | 08:30:00 | 01:51:22 | 00:00:00 | |
| DB0DAN | 2026-08-30 12:02:40 | 52.38713 | 15.00170 | 155° | 7km/h | 23095m | 6.3m/s | -53.8°C | 1.3% | 36.05hPa | 2.6V | 00:00:00 | 00:00:00 | 00:00:00 | |
| AA1-15 | 2026-08-30 12:02:36 | 52.38723 | 15.00160 | 147° | 15km/h | 23071m | 4.4m/s | -53.8°C | 1.1% | 36.2hPa | 2.7V | 18:12:15 | 01:51:22 | 00:00:00 | |
| DL1XH-west | 2026-08-30 12:02:30 | 52.38743 | 15.00130 | 139° | 9km/h | 23032m | 6m/s | -53.8°C | 1% | 36.4hPa | 2.6V | 18:12:15 | 01:51:15 | 00:00:00 | |
| DL1XH1-15 | 2026-08-30 12:02:29 | 52.38747 | 15.00120 | 113° | 11km/h | 23015m | 4.8m/s | -53.7°C | 4.4% | 36.5hPa | 2.7V | 08:30:00 | 01:51:12 | 00:00:00 | |
| AA1-15 | 2026-08-30 12:02:26 | 52.38747 | 15.00120 | 114° | 11km/h | 23015m | 4.8m/s | -53.7°C | 1.1% | 36.5hPa | 2.7V | 18:12:15 | 01:51:12 | 00:00:00 | |
| DB0DAN | 2026-08-30 12:02:25 | 52.38748 | 15.00116 | 119° | 9km/h | 23010m | 5.7m/s | -53.7°C | 1.3% | 36.53hPa | 2.6V | 00:00:00 | 00:00:00 | 00:00:00 | |
| KRY50SP-1 | 2026-08-30 12:02:22 | 52.38750 | 15.00110 | 124° | 11km/h | 22999m | 4.8m/s | -53.7°C | 1.3% | 36.6hPa | 2.6V | 00:00:00 | 00:00:00 | 00:00:00 | |
| DL1XH1-15 | 2026-08-30 12:02:21 | 52.38765 | 15.00072 | 146° | 11km/h | 22961m | 4.2m/s | -53.9°C | 4.3% | 36.8hPa | 2.6V | 08:30:00 | 01:51:02 | 00:00:00 | |
| DL1XH-west | 2026-08-30 12:02:18 | 52.38760 | 15.00079 | 127° | 16km/h | 22972m | 6.2m/s | -53.9°C | 1% | 36.8hPa | 2.7V | 18:12:15 | 01:51:04 | 00:00:00 | |
| AA1-15 | 2026-08-30 12:02:15 | 52.38767 | 15.00070 | 141° | 9km/h | 22956m | 5.6m/s | -53.9°C | 1% | 36.8hPa | 2.6V | 18:12:15 | 01:51:01 | 00:00:00 | |
| SQ2ODE-11 | 2026-08-30 12:02:14 | 52.38767 | 15.00070 | 142° | 9km/h | 22957m | 5.6m/s | -53.9°C | 1.3% | 36.8hPa | 2.6V | 00:00:00 | 00:00:00 | 00:00:00 | |
| DB0DAN | 2026-08-30 12:02:10 | 52.38765 | 15.00056 | 42° | 11km/h | 22929m | 4.8m/s | -53.9°C | 1.3% | 36.99hPa | 2.6V | 00:00:00 | 00:00:00 | 00:00:00 | |
| EDDB2-11 | 2026-08-30 12:02:09 | 52.38763 | 15.00052 | 49° | 15km/h | 22924m | 5.0m/s | -53.9°C | 1.3% | 37.0hPa | 2.7V | 00:00:00 | 00:00:00 | 00:00:00 | |
| DL1XH1-15 | 2026-08-30 12:02:08 | 52.38755 | 15.00030 | 64° | 22km/h | 22906m | 5.1m/s | -53.7°C | 4.2% | 37.1hPa | 2.7V | 08:30:00 | 01:50:52 | 00:00:00 | |
| DL1XH-west | 2026-08-30 12:02:07 | 52.38758 | 15.00039 | 62° | 22km/h | 22912m | 5.4m/s | -53.7°C | 1% | 37.1hPa | 2.7V | 18:12:15 | 01:50:53 | 00:00:00 | |
| AA1-15 | 2026-08-30 12:02:04 | 52.38751 | 15.00016 | 68° | 16km/h | 22895m | 5m/s | -53.8°C | 1% | 37.2hPa | 2.6V | 18:12:15 | 01:50:50 | 00:00:00 | |
| SQ2ODE-11 | 2026-08-30 12:02:04 | 52.38753 | 15.00023 | 66° | 20km/h | 22901m | 6.6m/s | -53.8°C | 1.3% | 37.2hPa | 2.7V | 00:00:00 | 00:00:00 | 00:00:00 | |
| DC4HF-4 | 2026-08-30 12:02:01 | 52.38747 | 14.99996 | 75° | 15km/h | 22878m | 4.9m/s | -53.7°C | 1.3% | 37.3hPa | 2.7V | 00:00:00 | 00:00:00 | 00:00:00 | |
| KRY50SP-1 | 2026-08-30 12:01:59 | 52.38746 | 14.99991 | 73° | 11km/h | 22873m | 5.3m/s | -53.8°C | 1.3% | 37.3hPa | 2.7V | 00:00:00 | 00:00:00 | 00:00:00 | |
| DL1XH1-15 | 2026-08-30 12:01:58 | 52.38741 | 14.99984 | 25° | 11km/h | 22850m | 6.4m/s | -53.6°C | 4.4% | 37.4hPa | 2.7V | 08:30:00 | 01:50:42 | 00:00:00 | |
| DL1XH-west | 2026-08-30 12:01:58 | 52.38743 | 14.99986 | 15° | 7km/h | 22856m | 4.8m/s | -53.6°C | 1% | 37.4hPa | 2.6V | 18:12:15 | 01:50:43 | 00:00:00 | |
| DB0DAN | 2026-08-30 12:01:55 | 52.38738 | 14.99982 | 34° | 15km/h | 22844m | 5.2m/s | -53.6°C | 1.3% | 37.5hPa | 2.7V | 00:00:00 | 00:00:00 | 00:00:00 | |
| AA1-15 | 2026-08-30 12:01:54 | 52.38735 | 14.99978 | 32° | 16km/h | 22840m | 4.4m/s | -53.7°C | 1% | 37.5hPa | 2.7V | 18:12:15 | 01:50:40 | 00:00:00 | |
| SONDE2-11 | 2026-08-30 12:01:54 | 52.38735 | 14.99978 | 32° | 16km/h | 22840m | 4.4m/s | -53.7°C | 1.3% | 37.5hPa | 2.6V | 00:00:00 | 00:00:00 | 00:00:00 | |
| DL1XH1-15 | 2026-08-30 12:01:51 | 52.38700 | 14.99950 | 53° | 11km/h | 22799m | 5.1m/s | -54.1°C | 4.3% | 37.7hPa | 2.6V | 08:30:00 | 01:50:32 | 00:00:00 | |
| DL1XH-west | 2026-08-30 12:01:46 | 52.38700 | 14.99950 | 54° | 11km/h | 22799m | 5.1m/s | -54.1°C | 1% | 37.8hPa | 2.6V | 18:12:15 | 01:50:32 | 00:00:00 | |
| EDDB2-12 | 2026-08-30 12:01:45 | 52.38699 | 14.99947 | 60° | 4km/h | 22794m | 5.7m/s | -54.1°C | 1.3% | 37.8hPa | 2.7V | 00:00:00 | 00:00:00 | 00:00:00 | |
| AA1-15 | 2026-08-30 12:01:43 | 52.38697 | 14.99947 | 324° | 7km/h | 22783m | 5.1m/s | -54°C | 1.1% | 37.9hPa | 2.7V | 18:12:15 | 01:50:29 | 00:00:00 | |
| DL1XH-west | 2026-08-30 12:01:35 | 52.38670 | 14.99952 | 342° | 18km/h | 22740m | 5.5m/s | -53.9°C | 1.1% | 38.1hPa | 2.6V | 18:12:15 | 01:50:21 | 00:00:00 | |
| AA1-15 | 2026-08-30 12:01:32 | 52.38658 | 14.99962 | 327° | 15km/h | 22724m | 6.6m/s | -53.9°C | 1.1% | 38.2hPa | 2.7V | 18:12:15 | 01:50:18 | 00:00:00 | |
| DJ2DS-15 | 2026-08-30 12:01:32 | 52.38658 | 14.99962 | 327° | 13km/h | 22725m | 6.5m/s | -53.9°C | 4.4% | 38.2hPa | 2.7V | 00:00:00 | 01:50:18 | 00:00:00 | |
| KRY50SP-1 | 2026-08-30 12:01:31 | 52.38658 | 14.99962 | 328° | 15km/h | 22725m | 6.6m/s | -53.9°C | 1.3% | 38.2hPa | 2.7V | 00:00:00 | 00:00:00 | 00:00:00 | |
| SP6BVK | 2026-08-30 12:01:29 | 52.38652 | 14.99968 | 322° | 13km/h | 22713m | 5.7m/s | -53.9°C | 1.3% | 38.3hPa | 2.7V | 00:00:00 | 00:00:00 | 00:00:00 | |
| SQ2ODE-11 | 2026-08-30 12:01:28 | 52.38650 | 14.99972 | 320° | 15km/h | 22707m | 6.2m/s | -53.9°C | 1.3% | 38.3hPa | 2.7V | 00:00:00 | 00:00:00 | 00:00:00 | |
| DL1XH1-15 | 2026-08-30 12:01:27 | 52.38641 | 14.99983 | 327° | 11km/h | 22692m | 6.5m/s | -54°C | 4.4% | 38.4hPa | 2.7V | 08:30:00 | 01:50:12 | 00:00:00 | |
| SONDE2-12 | 2026-08-30 12:01:26 | 52.38641 | 14.99983 | 327° | 11km/h | 22692m | 6.5m/s | -54.0°C | 1.4% | 38.4hPa | 2.6V | 00:00:00 | 00:00:00 | 00:00:00 | |
| DL1XH-west | 2026-08-30 12:01:24 | 52.38636 | 14.99985 | 355° | 11km/h | 22680m | 4.9m/s | -53.9°C | 1% | 38.5hPa | 2.6V | 18:12:15 | 01:50:10 | 00:00:00 | |
| AA1-15 | 2026-08-30 12:01:21 | 52.38626 | 14.99986 | 360° | 16km/h | 22664m | 5.1m/s | -53.9°C | 1% | 38.6hPa | 2.7V | 18:12:15 | 01:50:07 | 00:00:00 | |
| KRY50SP-1 | 2026-08-30 12:01:19 | 52.38622 | 14.99986 | 5° | 15km/h | 22659m | 6.1m/s | -54.0°C | 1.3% | 38.6hPa | 2.6V | 00:00:00 | 00:00:00 | 00:00:00 | |
| DL1XH1-15 | 2026-08-30 12:01:17 | 52.38611 | 14.99984 | 357° | 13km/h | 22636m | 5.8m/s | -53.9°C | 4.3% | 38.7hPa | 2.6V | 08:30:00 | 01:50:02 | 00:00:00 | |
| DL1XH-west | 2026-08-30 12:01:13 | 52.38601 | 14.99981 | 30° | 13km/h | 22620m | 5.8m/s | -54.1°C | 1.1% | 38.8hPa | 2.7V | 18:12:15 | 01:49:59 | 00:00:00 | |
| AA1-15 | 2026-08-30 12:01:10 | 52.38592 | 14.99973 | 16° | 15km/h | 22604m | 5.8m/s | -54°C | 1% | 38.9hPa | 2.6V | 18:12:15 | 01:49:56 | 00:00:00 | |
| S3001 | 2026-08-30 12:01:10 | 52.38592 | 14.99973 | 16° | 15km/h | 22604m | 5.8m/s | -54.0°C | 1.3% | 38.9hPa | 2.7V | 00:00:00 | 00:00:00 | 00:00:00 | |
| SP6BVK | 2026-08-30 12:01:09 | 52.38592 | 14.99973 | 17° | 15km/h | 22604m | 5.8m/s | -54.0°C | 1.3% | 38.9hPa | 2.7V | 00:00:00 | 00:00:00 | 00:00:00 | |
| KRY50SP-1 | 2026-08-30 12:01:07 | 52.38584 | 14.99971 | 13° | 15km/h | 22593m | 5.6m/s | -53.9°C | 1.3% | 39.0hPa | 2.7V | 00:00:00 | 00:00:00 | 00:00:00 | |
| SQ2ODE-11 | 2026-08-30 12:01:05 | 52.38579 | 14.99967 | 25° | 11km/h | 22581m | 5.0m/s | -54.0°C | 1.3% | 39.1hPa | 2.7V | 00:00:00 | 00:00:00 | 00:00:00 | |
| DL1XH1-15 | 2026-08-30 12:01:04 | 52.38568 | 14.99964 | 2° | 9km/h | 22559m | 5.5m/s | -54.1°C | 4.4% | 39.2hPa | 2.7V | 08:30:00 | 01:49:48 | 00:00:00 | |
| DL1XH-west | 2026-08-30 12:01:02 | 52.38569 | 14.99964 | 2° | 9km/h | 22560m | 5.5m/s | -54.2°C | 1.1% | 39.2hPa | 2.7V | 18:12:15 | 01:49:48 | 00:00:00 | |
| AA1-15 | 2026-08-30 12:01:00 | 52.38566 | 14.99963 | 29° | 4km/h | 22548m | 5m/s | -54.2°C | 1.1% | 39.3hPa | 2.6V | 18:12:15 | 01:49:46 | 00:00:00 | |
| SQ2ODE-11 | 2026-08-30 12:00:59 | 52.38566 | 14.99963 | 30° | 4km/h | 22548m | 5.0m/s | -54.2°C | 1.4% | 39.3hPa | 2.7V | 00:00:00 | 00:00:00 | 00:00:00 | |
| DB0DAN | 2026-08-30 12:00:55 | 52.38559 | 14.99959 | 52° | 5km/h | 22519m | 6.3m/s | -54.1°C | 1.3% | 39.45hPa | 2.7V | 00:00:00 | 00:00:00 | 00:00:00 | |
| DL1XH-west | 2026-08-30 12:00:52 | 52.38557 | 14.99956 | 355° | 4km/h | 22502m | 5.7m/s | -54.2°C | 1.1% | 39.6hPa | 2.6V | 18:12:15 | 01:49:38 | 00:00:00 | |
| DL1XH1-15 | 2026-08-30 12:00:51 | 52.38556 | 14.99957 | 7° | 2km/h | 22492m | 6.5m/s | -54.1°C | 4.3% | 39.6hPa | 2.7V | 08:30:00 | 01:49:36 | 00:00:00 | |
| AA1-15 | 2026-08-30 12:00:49 | 52.38555 | 14.99956 | 99° | 2km/h | 22486m | 5.5m/s | -54.2°C | 1.1% | 39.6hPa | 2.7V | 18:12:15 | 01:49:35 | 00:00:00 | |
| SQ2ODE-11 | 2026-08-30 12:00:48 | 52.38555 | 14.99956 | 0° | 0km/h | 22486m | 5.5m/s | -54.2°C | 1.4% | 39.6hPa | 2.6V | 00:00:00 | 00:00:00 | 00:00:00 | |
| DL1XH1-15 | 2026-08-30 12:00:45 | 52.38556 | 14.99968 | 264° | 9km/h | 22436m | 5.1m/s | -54.4°C | 4.5% | 40hPa | 2.6V | 08:30:00 | 01:49:26 | 00:00:00 | |
| DL1XH-west | 2026-08-30 12:00:41 | 52.38555 | 14.99965 | 259° | 7km/h | 22442m | 6.4m/s | -54.4°C | 1.1% | 40hPa | 2.6V | 18:12:15 | 01:49:27 | 00:00:00 | |
| DB0DAN | 2026-08-30 12:00:40 | 52.38555 | 14.99968 | 265° | 9km/h | 22436m | 5.1m/s | -54.4°C | 1.4% | 39.98hPa | 2.6V | 00:00:00 | 00:00:00 | 00:00:00 | |
| AA1-15 | 2026-08-30 12:00:38 | 52.38557 | 14.99976 | 242° | 9km/h | 22425m | 6.6m/s | -54.2°C | 1.1% | 40hPa | 2.7V | 18:12:15 | 01:49:24 | 00:00:00 | |
| DL1XH-west | 2026-08-30 12:00:31 | 52.38565 | 14.99985 | 174° | 7km/h | 22385m | 5.5m/s | -54.2°C | 1% | 40.3hPa | 2.7V | 18:12:15 | 01:49:17 | 00:00:00 | |
| AA1-15 | 2026-08-30 12:00:28 | 52.38571 | 14.99987 | 197° | 7km/h | 22363m | 5.3m/s | -54.5°C | 1.1% | 40.4hPa | 2.7V | 18:12:15 | 01:49:13 | 00:00:00 | |
| DL1XH1-15 | 2026-08-30 12:00:26 | 52.38581 | 14.99986 | 144° | 5km/h | 22324m | 6.2m/s | -54.5°C | 4.6% | 40.7hPa | 2.7V | 08:30:00 | 01:49:06 | 00:00:00 | |
| DB0DAN | 2026-08-30 12:00:25 | 52.38575 | 14.99988 | 175° | 9km/h | 22352m | 5m/s | -54.5°C | 1.4% | 40.5hPa | 2.7V | 00:00:00 | 00:00:00 | 00:00:00 | |
| SONDE2-12 | 2026-08-30 12:00:24 | 52.38577 | 14.99987 | 177° | 5km/h | 22347m | 5.4m/s | -54.5°C | 1.5% | 40.6hPa | 2.7V | 00:00:00 | 00:00:00 | 00:00:00 | |
| DL1XH-west | 2026-08-30 12:00:21 | 52.38580 | 14.99987 | 162° | 4km/h | 22330m | 5.4m/s | -54.6°C | 1.2% | 40.6hPa | 2.7V | 18:12:15 | 01:49:07 | 00:00:00 | |
| AA1-15 | 2026-08-30 12:00:17 | 52.38585 | 14.99980 | 134° | 4km/h | 22297m | 4.9m/s | -54.7°C | 1.1% | 40.9hPa | 2.6V | 18:12:15 | 01:49:01 | 00:00:00 | |
| DF8AY | 2026-08-30 12:00:17 | 52.38585 | 14.99980 | 120° | 2km/h | 22302m | 5m/s | 0°C | 0% | 0hPa | 2.7V | 18:12:15 | 01:49:02 | 00:00:00 | |
| DL1XH-west | 2026-08-30 12:00:10 | 52.38591 | 14.99976 | 198° | 4km/h | 22269m | 5.5m/s | -54.6°C | 1.2% | 41hPa | 2.6V | 18:12:15 | 01:48:56 | 00:00:00 | |
| AA1-15 | 2026-08-30 12:00:06 | 52.38593 | 14.99972 | 72° | 5km/h | 22247m | 5.3m/s | -54.6°C | 1.2% | 41.2hPa | 2.6V | 18:12:15 | 01:48:52 | 00:00:00 | |
| EDDB2-11 | 2026-08-30 12:00:05 | 52.38592 | 14.99970 | 49° | 5km/h | 22241m | 6.4m/s | -54.6°C | 1.4% | 41.2hPa | 2.6V | 00:00:00 | 00:00:00 | 00:00:00 | |
| DL1XH1-15 | 2026-08-30 12:00:02 | 52.38587 | 14.99959 | 40° | 5km/h | 22214m | 6.2m/s | -54.7°C | 4.6% | 41.4hPa | 2.6V | 08:30:00 | 01:48:46 | 00:00:00 | |
| DL1XH-west | 2026-08-30 12:00:00 | 52.38587 | 14.99959 | 40° | 5km/h | 22214m | 6.2m/s | -54.7°C | 1.2% | 41.4hPa | 2.6V | 18:12:15 | 01:48:46 | 00:00:00 | |
| DF8AY | 2026-08-30 11:59:58 | 52.38584 | 14.99958 | 337° | 5km/h | 22202m | 5m/s | 0°C | 0% | 0hPa | 2.7V | 18:12:15 | 01:48:44 | 00:00:00 | |
| AA1-15 | 2026-08-30 11:59:55 | 52.38584 | 14.99960 | 146° | 4km/h | 22185m | 5m/s | -54.5°C | 1.2% | 41.6hPa | 2.6V | 18:12:15 | 01:48:41 | 00:00:00 | |
| DL1XH1-15 | 2026-08-30 11:59:55 | 52.38579 | 14.99942 | 62° | 9km/h | 22153m | 4.6m/s | -54.3°C | 4.4% | 41.8hPa | 2.6V | 08:30:00 | 01:48:35 | 00:00:00 | |
| SONDE2-12 | 2026-08-30 11:59:53 | 52.38584 | 14.99956 | 69° | 5km/h | 22175m | 6.2m/s | -54.5°C | 1.5% | 41.7hPa | 2.7V | 00:00:00 | 00:00:00 | 00:00:00 | |
| DL1XH-west | 2026-08-30 11:59:51 | 52.38580 | 14.99946 | 64° | 11km/h | 22158m | 5.9m/s | -54.3°C | 1.1% | 41.7hPa | 2.7V | 18:12:15 | 01:48:36 | 00:00:00 | |
| AA1-15 | 2026-08-30 11:59:44 | 52.38569 | 14.99938 | 356° | 7km/h | 22125m | 6.4m/s | -54.4°C | 1.1% | 42hPa | 2.7V | 18:12:15 | 01:48:30 | 00:00:00 | |
| DL1XH1-15 | 2026-08-30 11:59:44 | 52.38557 | 14.99927 | 44° | 16km/h | 22097m | 5.6m/s | -54.2°C | 4.5% | 42.2hPa | 2.7V | 08:30:00 | 01:48:25 | 00:00:00 | |
| DL1XH-west | 2026-08-30 11:59:40 | 52.38557 | 14.99927 | 45° | 16km/h | 22097m | 5.6m/s | -54.3°C | 1.2% | 42.2hPa | 2.7V | 18:12:15 | 01:48:25 | 00:00:00 | |
| KRY50SP-1 | 2026-08-30 11:59:38 | 52.38557 | 14.99927 | 46° | 16km/h | 22098m | 5.6m/s | -54.3°C | 1.4% | 42.2hPa | 2.6V | 00:00:00 | 00:00:00 | 00:00:00 | |
| DC4HF-4 | 2026-08-30 11:59:37 | 52.38552 | 14.99916 | 57° | 16km/h | 22086m | 4.9m/s | -54.2°C | 1.4% | 42.3hPa | 2.6V | 00:00:00 | 00:00:00 | 00:00:00 | |
| DL1XH1-15 | 2026-08-30 11:59:34 | 52.38532 | 14.99898 | 14° | 7km/h | 22042m | 5.7m/s | -54.2°C | 4.4% | 42.5hPa | 2.6V | 08:30:00 | 01:48:15 | 00:00:00 | |
| AA1-15 | 2026-08-30 11:59:33 | 52.38540 | 14.99900 | 14° | 13km/h | 22064m | 5.5m/s | -54.3°C | 1.1% | 42.4hPa | 2.7V | 18:12:15 | 01:48:19 | 00:00:00 | |
| DL1XH-west | 2026-08-30 11:59:29 | 52.38532 | 14.99898 | 14° | 7km/h | 22042m | 5.7m/s | -54.3°C | 1.1% | 42.6hPa | 2.6V | 18:12:15 | 01:48:15 | 00:00:00 | |
| SP6BVK | 2026-08-30 11:59:27 | 52.38530 | 14.99897 | 41° | 9km/h | 22037m | 4.2m/s | -54.3°C | 1.4% | 42.6hPa | 2.6V | 00:00:00 | 00:00:00 | 00:00:00 | |
| DB0DAN | 2026-08-30 11:59:25 | 52.38528 | 14.99885 | 92° | 13km/h | 22021m | 5.2m/s | -54.2°C | 1.4% | 42.68hPa | 2.6V | 00:00:00 | 00:00:00 | 00:00:00 | |
| DL1XH1-15 | 2026-08-30 11:59:24 | 52.38518 | 14.99845 | 49° | 16km/h | 21987m | 4.2m/s | -53.9°C | 4.4% | 42.9hPa | 2.6V | 08:30:00 | 01:48:05 | 00:00:00 | |
| AA1-15 | 2026-08-30 11:59:22 | 52.38525 | 14.99864 | 64° | 20km/h | 22004m | 5.5m/s | -54.1°C | 1.1% | 42.8hPa | 2.7V | 18:12:15 | 01:48:08 | 00:00:00 | |
| SONDE2-12 | 2026-08-30 11:59:22 | 52.38525 | 14.99864 | 63° | 18km/h | 22004m | 5.5m/s | -54.1°C | 1.5% | 42.8hPa | 2.6V | 00:00:00 | 00:00:00 | 00:00:00 | |
| DL1XH-west | 2026-08-30 11:59:19 | 52.38518 | 14.99845 | 50° | 16km/h | 21987m | 4.2m/s | -53.9°C | 1.1% | 42.9hPa | 2.6V | 18:12:15 | 01:48:05 | 00:00:00 | |
| DAC517 | 2026-08-30 11:59:17 | 52.38507 | 14.99832 | 34° | 20km/h | 21971m | 4.9m/s | -54.0°C | 1.3% | 43.0hPa | 2.7V | 00:00:00 | 00:00:00 | 00:00:00 | |
| DL1XH1-15 | 2026-08-30 11:59:14 | 52.38490 | 14.99792 | 52° | 20km/h | 21933m | 4.7m/s | -53.8°C | 4.4% | 43.3hPa | 2.7V | 08:30:00 | 01:47:55 | 00:00:00 | |
| AA1-15 | 2026-08-30 11:59:12 | 52.38497 | 14.99811 | 68° | 16km/h | 21950m | 5.1m/s | -53.8°C | 1.1% | 43.1hPa | 2.6V | 18:12:15 | 01:47:58 | 00:00:00 | |
| DB0DAN | 2026-08-30 11:59:10 | 52.38493 | 14.99799 | 55° | 18km/h | 21938m | 5.8m/s | -53.9°C | 1.3% | 43.22hPa | 2.7V | 00:00:00 | 00:00:00 | 00:00:00 | |
| DL1XH-west | 2026-08-30 11:59:09 | 52.38490 | 14.99792 | 53° | 20km/h | 21933m | 4.7m/s | -53.8°C | 1.1% | 43.3hPa | 2.7V | 18:12:15 | 01:47:55 | 00:00:00 | |
| SQ2ODE-11 | 2026-08-30 11:59:08 | 52.38490 | 14.99792 | 54° | 20km/h | 21933m | 4.7m/s | -53.8°C | 1.4% | 43.3hPa | 2.7V | 00:00:00 | 00:00:00 | 00:00:00 | |
| S3001 | 2026-08-30 11:59:06 | 52.38482 | 14.99774 | 55° | 16km/h | 21917m | 4.4m/s | -53.9°C | 1.4% | 43.4hPa | 2.7V | 00:00:00 | 00:00:00 | 00:00:00 | |
| KRY50SP-1 | 2026-08-30 11:59:05 | 52.38482 | 14.99774 | 56° | 16km/h | 21917m | 4.4m/s | -53.9°C | 1.4% | 43.4hPa | 2.7V | 00:00:00 | 00:00:00 | 00:00:00 | |
| DL1XH1-15 | 2026-08-30 11:59:04 | 52.38456 | 14.99741 | 36° | 22km/h | 21878m | 6.3m/s | -54°C | 4.3% | 43.6hPa | 2.7V | 08:30:00 | 01:47:45 | 00:00:00 | |
| AA1-15 | 2026-08-30 11:59:02 | 52.38467 | 14.99755 | 30° | 20km/h | 21894m | 5.9m/s | -54°C | 1% | 43.5hPa | 2.6V | 18:12:15 | 01:47:48 | 00:00:00 | |
| DL1XH-west | 2026-08-30 11:58:59 | 52.38456 | 14.99741 | 37° | 22km/h | 21878m | 6.3m/s | -54°C | 1% | 43.6hPa | 2.7V | 18:12:15 | 01:47:45 | 00:00:00 | |
| DB0DAN | 2026-08-30 11:58:55 | 52.38437 | 14.99716 | 48° | 22km/h | 21855m | 5.6m/s | -53.9°C | 1.3% | 43.8hPa | 2.7V | 00:00:00 | 00:00:00 | 00:00:00 | |
| KRY50SP-1 | 2026-08-30 11:58:53 | 52.38433 | 14.99709 | 52° | 22km/h | 21850m | 4.4m/s | -53.7°C | 1.3% | 43.8hPa | 2.6V | 00:00:00 | 00:00:00 | 00:00:00 | |
| DL1XH1-15 | 2026-08-30 11:58:52 | 52.38406 | 14.99674 | 28° | 29km/h | 21823m | 5.9m/s | -53.7°C | 4.3% | 44hPa | 2.6V | 08:30:00 | 01:47:35 | 00:00:00 | |
| AA1-15 | 2026-08-30 11:58:51 | 52.38419 | 14.99687 | 34° | 31km/h | 21834m | 5.6m/s | -53.8°C | 1.2% | 44hPa | 2.7V | 18:12:15 | 01:47:37 | 00:00:00 | |
| DL1XH-west | 2026-08-30 11:58:48 | 52.38400 | 14.99669 | 29° | 26km/h | 21817m | 5.6m/s | -53.7°C | 1% | 44.1hPa | 2.7V | 18:12:15 | 01:47:34 | 00:00:00 | |
| SONDE2-11 | 2026-08-30 11:58:48 | 52.38400 | 14.99669 | 29° | 26km/h | 21817m | 5.6m/s | -53.7°C | 1.3% | 44.1hPa | 2.6V | 00:00:00 | 00:00:00 | 00:00:00 | |
| SP6BVK | 2026-08-30 11:58:45 | 52.38389 | 14.99659 | 30° | 24km/h | 21806m | 5.7m/s | -53.6°C | 1.3% | 44.1hPa | 2.6V | 00:00:00 | 00:00:00 | 00:00:00 | |
| DL1XH1-15 | 2026-08-30 11:58:44 | 52.38358 | 14.99618 | 41° | 26km/h | 21768m | 5.8m/s | -53.8°C | 4.3% | 44.4hPa | 2.6V | 08:30:00 | 01:47:25 | 00:00:00 | |
| AA1-15 | 2026-08-30 11:58:40 | 52.38363 | 14.99625 | 47° | 22km/h | 21773m | 5.1m/s | -53.8°C | 1% | 44.4hPa | 2.6V | 18:12:15 | 01:47:26 | 00:00:00 | |
| DB0DAN | 2026-08-30 11:58:40 | 52.38363 | 14.99625 | 47° | 20km/h | 21774m | 5.1m/s | -53.8°C | 1.3% | 44.36hPa | 2.6V | 00:00:00 | 00:00:00 | 00:00:00 | |
| DL1XH-west | 2026-08-30 11:58:37 | 52.38346 | 14.99606 | 26° | 29km/h | 21758m | 4.7m/s | -53.8°C | 1% | 44.5hPa | 2.7V | 18:12:15 | 01:47:23 | 00:00:00 | |
| SQ2ODE-11 | 2026-08-30 11:58:36 | 52.38346 | 14.99606 | 27° | 29km/h | 21759m | 4.7m/s | -53.8°C | 1.3% | 44.5hPa | 2.7V | 00:00:00 | 00:00:00 | 00:00:00 | |
| S3001 | 2026-08-30 11:58:35 | 52.38332 | 14.99597 | 16° | 29km/h | 21747m | 5.1m/s | -54.0°C | 1.4% | 44.5hPa | 2.7V | 00:00:00 | 00:00:00 | 00:00:00 | |
| DAC517 | 2026-08-30 11:58:34 | 52.38332 | 14.99597 | 17° | 29km/h | 21748m | 5.1m/s | -54.0°C | 1.4% | 44.6hPa | 2.7V | 00:00:00 | 00:00:00 | 00:00:00 | |
| DL1XH1-15 | 2026-08-30 11:58:33 | 52.38290 | 14.99578 | 10° | 24km/h | 21713m | 4.5m/s | -54°C | 4.5% | 44.8hPa | 2.7V | 08:30:00 | 01:47:15 | 00:00:00 | |
| AA1-15 | 2026-08-30 11:58:29 | 52.38289 | 14.99578 | 10° | 24km/h | 21713m | 4.5m/s | -54°C | 1.2% | 44.8hPa | 2.7V | 18:12:15 | 01:47:15 | 00:00:00 | |
| DL1XH-west | 2026-08-30 11:58:27 | 52.38277 | 14.99574 | 14° | 27km/h | 21701m | 5.8m/s | -54°C | 1.1% | 44.9hPa | 2.6V | 18:12:15 | 01:47:13 | 00:00:00 | |
| SP6BVK | 2026-08-30 11:58:24 | 52.38264 | 14.99570 | 7° | 27km/h | 21691m | 6.8m/s | -54.0°C | 1.4% | 44.9hPa | 2.7V | 00:00:00 | 00:00:00 | 00:00:00 | |
| SQ2ODE-11 | 2026-08-30 11:58:23 | 52.38257 | 14.99569 | 3° | 27km/h | 21684m | 6.1m/s | -54.0°C | 1.3% | 45.0hPa | 2.7V | 00:00:00 | 00:00:00 | 00:00:00 | |
| DL1XH1-15 | 2026-08-30 11:58:22 | 52.38219 | 14.99567 | 357° | 27km/h | 21657m | 6.3m/s | -54°C | 4.4% | 45.2hPa | 2.7V | 08:30:00 | 01:47:05 | 00:00:00 | |
| SONDE2-12 | 2026-08-30 11:58:20 | 52.38227 | 14.99567 | 1° | 29km/h | 21663m | 5.1m/s | -53.9°C | 1.4% | 45.1hPa | 2.7V | 00:00:00 | 00:00:00 | 00:00:00 | |
| AA1-15 | 2026-08-30 11:58:18 | 52.38212 | 14.99568 | 357° | 26km/h | 21651m | 5.4m/s | -53.9°C | 1.1% | 45.2hPa | 2.7V | 18:12:15 | 01:47:04 | 00:00:00 | |
| DL1XH-west | 2026-08-30 11:58:16 | 52.38201 | 14.99566 | 11° | 22km/h | 21639m | 5.9m/s | -53.9°C | 1.1% | 45.3hPa | 2.6V | 18:12:15 | 01:47:02 | 00:00:00 | |
| DF8AY | 2026-08-30 11:58:15 | 52.38196 | 14.99564 | 18° | 20km/h | 21634m | 4.9m/s | -53.9°C | 1.1% | 45.4hPa | 2.6V | 18:12:15 | 01:47:01 | 00:00:00 | |
| DL1XH1-15 | 2026-08-30 11:58:14 | 52.38171 | 14.99544 | 31° | 22km/h | 21601m | 5m/s | -53.9°C | 4.5% | 45.6hPa | 2.6V | 08:30:00 | 01:46:55 | 00:00:00 | |
| AA1-15 | 2026-08-30 11:58:08 | 52.38166 | 14.99540 | 26° | 22km/h | 21596m | 4.9m/s | -53.8°C | 1.2% | 45.6hPa | 2.6V | 18:12:15 | 01:46:54 | 00:00:00 | |
| DL1XH-west | 2026-08-30 11:58:06 | 52.38157 | 14.99535 | 5° | 16km/h | 21585m | 4.9m/s | -53.8°C | 1.1% | 45.7hPa | 2.7V | 18:12:15 | 01:46:52 | 00:00:00 | |
| DF8AY | 2026-08-30 11:58:03 | 52.38144 | 14.99535 | 2° | 18km/h | 21569m | 5.3m/s | -53.7°C | 1% | 45.8hPa | 2.6V | 18:12:15 | 01:46:49 | 00:00:00 | |
| AA1-15 | 2026-08-30 11:57:57 | 52.38124 | 14.99539 | 6° | 13km/h | 21537m | 6.2m/s | -53.5°C | 1% | 46hPa | 2.6V | 18:12:15 | 01:46:43 | 00:00:00 | |
| DL1XH-west | 2026-08-30 11:57:56 | 52.38118 | 14.99537 | 24° | 11km/h | 21526m | 5.7m/s | -53.5°C | 1% | 46.1hPa | 2.7V | 18:12:15 | 01:46:41 | 00:00:00 | |
| DB0DAN | 2026-08-30 11:57:55 | 52.38118 | 14.99537 | 24° | 11km/h | 21526m | 5.7m/s | -53.5°C | 1.3% | 46.13hPa | 2.7V | 00:00:00 | 00:00:00 | 00:00:00 | |
| DC4HF-4 | 2026-08-30 11:57:49 | 52.38100 | 14.99537 | 315° | 9km/h | 21487m | 6.2m/s | -53.3°C | 1.3% | 46.4hPa | 2.7V | 00:00:00 | 00:00:00 | 00:00:00 | |
| DL1XH1-15 | 2026-08-30 11:57:48 | 52.38099 | 14.99541 | 309° | 11km/h | 21481m | 4.6m/s | -53.2°C | 4.4% | 46.4hPa | 2.7V | 08:30:00 | 01:46:33 | 00:00:00 | |
| AA1-15 | 2026-08-30 11:57:47 | 52.38098 | 14.99540 | 309° | 11km/h | 21481m | 4.6m/s | -53.2°C | 1.1% | 46.4hPa | 2.7V | 18:12:15 | 01:46:33 | 00:00:00 | |
| SONDE2-11 | 2026-08-30 11:57:46 | 52.38097 | 14.99543 | 318° | 9km/h | 21476m | 6.1m/s | -53.2°C | 1.3% | 46.5hPa | 2.6V | 00:00:00 | 00:00:00 | 00:00:00 | |
| DL1XH-west | 2026-08-30 11:57:44 | 52.38093 | 14.99546 | 358° | 5km/h | 21465m | 4.7m/s | -53.2°C | 1% | 46.5hPa | 2.6V | 18:12:15 | 01:46:30 | 00:00:00 | |
| SP3BTT-10 | 2026-08-30 11:57:44 | 52.38093 | 14.99546 | 358° | 11km/h | 21466m | 4.7m/s | -53.1°C | 4.2% | 46.5hPa | 2.7V | 00:00:00 | 00:00:00 | 00:00:00 | |
| DL1XH1-15 | 2026-08-30 11:57:42 | 52.38086 | 14.99538 | 320° | 4km/h | 21427m | 6.4m/s | -53°C | 4.2% | 46.8hPa | 2.7V | 08:30:00 | 01:46:23 | 00:00:00 | |
| DB0DAN | 2026-08-30 11:57:40 | 52.38090 | 14.99541 | 51° | 7km/h | 21442m | 6.3m/s | -53.1°C | 1.3% | 46.71hPa | 2.6V | 00:00:00 | 00:00:00 | 00:00:00 | |
| AA1-15 | 2026-08-30 11:57:37 | 52.38086 | 14.99538 | 320° | 4km/h | 21427m | 6.4m/s | -53°C | 1% | 46.8hPa | 2.7V | 18:12:15 | 01:46:23 | 00:00:00 | |
| DL1XH-west | 2026-08-30 11:57:33 | 52.38083 | 14.99548 | 314° | 7km/h | 21405m | 4.9m/s | -53°C | 1% | 47hPa | 2.6V | 18:12:15 | 01:46:19 | 00:00:00 | |
| DF8AY | 2026-08-30 11:57:31 | 52.38081 | 14.99552 | 313° | 4km/h | 21395m | 6m/s | -52.9°C | 1% | 47.1hPa | 2.7V | 18:12:15 | 01:46:17 | 00:00:00 | |
| AA1-15 | 2026-08-30 11:57:27 | 52.38080 | 14.99551 | 44° | 4km/h | 21373m | 5.1m/s | -52.7°C | 1% | 47.2hPa | 2.6V | 18:12:15 | 01:46:13 | 00:00:00 | |
| DB0DAN | 2026-08-30 11:57:25 | 52.38079 | 14.99549 | 71° | 2km/h | 21363m | 6.1m/s | -52.9°C | 1.3% | 47.31hPa | 2.7V | 00:00:00 | 00:00:00 | 00:00:00 | |
| DL1XH-west | 2026-08-30 11:57:23 | 52.38080 | 14.99549 | 209° | 4km/h | 21351m | 5.6m/s | -52.9°C | 1% | 47.4hPa | 2.7V | 18:12:15 | 01:46:09 | 00:00:00 | |
| DL1XH1-15 | 2026-08-30 11:57:22 | 52.38086 | 14.99557 | 191° | 9km/h | 21318m | 4.5m/s | -52.6°C | 4.1% | 47.6hPa | 2.7V | 08:30:00 | 01:46:03 | 00:00:00 | |
| DF8AY | 2026-08-30 11:57:21 | 52.38081 | 14.99551 | 244° | 4km/h | 21339m | 5m/s | -52.7°C | 1% | 47.5hPa | 2.6V | 18:12:15 | 01:46:07 | 00:00:00 | |
| SONDE2-12 | 2026-08-30 11:57:18 | 52.38084 | 14.99556 | 203° | 7km/h | 21324m | 5.6m/s | -52.7°C | 1.4% | 47.6hPa | 2.6V | 00:00:00 | 00:00:00 | 00:00:00 | |
| AA1-15 | 2026-08-30 11:57:16 | 52.38088 | 14.99557 | 178° | 7km/h | 21313m | 6.2m/s | -52.6°C | 0.9% | 47.7hPa | 2.6V | 18:12:15 | 01:46:02 | 00:00:00 | |
| DL1XH-west | 2026-08-30 11:57:12 | 52.38093 | 14.99553 | 173° | 7km/h | 21293m | 5.4m/s | -52.5°C | 0.9% | 47.8hPa | 2.7V | 18:12:15 | 01:45:58 | 00:00:00 | |
| DB0DAN | 2026-08-30 11:57:10 | 52.38096 | 14.99555 | 215° | 7km/h | 21284m | 5m/s | -52.4°C | 1.3% | 47.92hPa | 2.6V | 00:00:00 | 00:00:00 | 00:00:00 | |
| DL1XH1-15 | 2026-08-30 11:57:08 | 52.38099 | 14.99559 | 187° | 5km/h | 21268m | 4.8m/s | -52.4°C | 4.1% | 48hPa | 2.6V | 08:30:00 | 01:45:53 | 00:00:00 | |
| DF8AY | 2026-08-30 11:57:07 | 52.38099 | 14.99559 | 188° | 5km/h | 21268m | 4.8m/s | -52.4°C | 0.9% | 48hPa | 2.6V | 18:12:15 | 01:45:53 | 00:00:00 | |
| AA1-15 | 2026-08-30 11:57:06 | 52.38101 | 14.99558 | 165° | 9km/h | 21263m | 6.4m/s | -52.4°C | 0.9% | 48.1hPa | 2.6V | 18:12:15 | 01:45:52 | 00:00:00 | |
| EDDB2-12 | 2026-08-30 11:57:06 | 52.38103 | 14.99557 | 156° | 13km/h | 21257m | 5.6m/s | -52.4°C | 1.3% | 48.1hPa | 2.7V | 00:00:00 | 00:00:00 | 00:00:00 | |
| SQ2ODE-11 | 2026-08-30 11:57:04 | 52.38103 | 14.99557 | 158° | 15km/h | 21257m | 5.6m/s | -52.4°C | 1.3% | 48.1hPa | 2.7V | 00:00:00 | 00:00:00 | 00:00:00 | |
| KRY50SP-1 | 2026-08-30 11:57:03 | 52.38107 | 14.99554 | 151° | 16km/h | 21252m | 5.0m/s | -52.4°C | 1.3% | 48.1hPa | 2.7V | 00:00:00 | 00:00:00 | 00:00:00 | |
| DL1XH1-15 | 2026-08-30 11:57:02 | 52.38119 | 14.99550 | 283° | 11km/h | 21213m | 6.6m/s | -52.6°C | 4% | 48.4hPa | 2.7V | 08:30:00 | 01:45:43 | 00:00:00 | |
| DL1XH-west | 2026-08-30 11:57:01 | 52.38115 | 14.99544 | 143° | 9km/h | 21236m | 4.4m/s | -52.5°C | 0.9% | 48.3hPa | 2.7V | 18:12:15 | 01:45:47 | 00:00:00 | |
| AA1-15 | 2026-08-30 11:56:56 | 52.38116 | 14.99560 | 292° | 15km/h | 21203m | 4.4m/s | -52.7°C | 0.9% | 48.5hPa | 2.6V | 18:12:15 | 01:45:41 | 00:00:00 | |
| DF8AY | 2026-08-30 11:56:55 | 52.38120 | 14.99569 | 137° | 9km/h | 21167m | 6.3m/s | -52.6°C | 0.9% | 48.8hPa | 2.6V | 18:12:15 | 01:45:34 | 00:00:00 | |
| DL1XH-west | 2026-08-30 11:56:51 | 52.38116 | 14.99575 | 194° | 4km/h | 21183m | 5.8m/s | -52.6°C | 1% | 48.7hPa | 2.7V | 18:12:15 | 01:45:37 | 00:00:00 | |
| SONDE2-12 | 2026-08-30 11:56:47 | 52.38121 | 14.99567 | 150° | 7km/h | 21162m | 5.2m/s | -52.6°C | 1.3% | 48.8hPa | 2.7V | 00:00:00 | 00:00:00 | 00:00:00 | |
| AA1-15 | 2026-08-30 11:56:44 | 52.38123 | 14.99565 | 344° | 4km/h | 21146m | 5.5m/s | -52.9°C | 0.9% | 49hPa | 2.7V | 18:12:15 | 01:45:30 | 00:00:00 | |
| DL1XH-west | 2026-08-30 11:56:41 | 52.38120 | 14.99569 | 277° | 4km/h | 21131m | 4.7m/s | -52.8°C | 0.9% | 49.1hPa | 2.6V | 18:12:15 | 01:45:27 | 00:00:00 | |
| DL1XH1-15 | 2026-08-30 11:56:40 | 52.38131 | 14.99552 | 133° | 18km/h | 21099m | 4.6m/s | -53°C | 4.1% | 49.3hPa | 2.6V | 08:30:00 | 01:45:21 | 00:00:00 | |
| DF8AY | 2026-08-30 11:56:38 | 52.38128 | 14.99557 | 132° | 16km/h | 21105m | 6.6m/s | -53°C | 1% | 49.2hPa | 2.6V | 18:12:15 | 01:45:22 | 00:00:00 | |
| AA1-15 | 2026-08-30 11:56:34 | 52.38134 | 14.99546 | 132° | 20km/h | 21095m | 5.2m/s | -53°C | 0.9% | 49.4hPa | 2.7V | 18:12:15 | 01:45:20 | 00:00:00 | |
| DL1XH-west | 2026-08-30 11:56:30 | 52.38145 | 14.99526 | 154° | 9km/h | 21072m | 5.4m/s | -53.1°C | 0.9% | 49.5hPa | 2.6V | 18:12:15 | 01:45:16 | 00:00:00 | |
| KRY50SP-1 | 2026-08-30 11:56:30 | 52.38143 | 14.99529 | 137° | 13km/h | 21078m | 6.1m/s | -53.0°C | 1.3% | 49.5hPa | 2.6V | 00:00:00 | 00:00:00 | 00:00:00 | |
| DL1XH1-15 | 2026-08-30 11:56:29 | 52.38149 | 14.99515 | 86° | 7km/h | 21047m | 5.6m/s | -53.2°C | 4.2% | 49.7hPa | 2.6V | 08:30:00 | 01:45:11 | 00:00:00 | |
| DF8AY | 2026-08-30 11:56:28 | 52.38149 | 14.99519 | 90° | 7km/h | 21052m | 4.6m/s | -53.2°C | 1% | 49.7hPa | 2.7V | 18:12:15 | 01:45:12 | 00:00:00 | |
| DB0DAN | 2026-08-30 11:56:25 | 52.38149 | 14.99515 | 86° | 7km/h | 21047m | 5.6m/s | -53.3°C | 1.3% | 49.7hPa | 2.6V | 00:00:00 | 00:00:00 | 00:00:00 | |
| AA1-15 | 2026-08-30 11:56:23 | 52.38149 | 14.99509 | 90° | 9km/h | 21037m | 4.6m/s | -53.4°C | 1% | 49.8hPa | 2.6V | 18:12:15 | 01:45:09 | 00:00:00 | |
| DAC517 | 2026-08-30 11:56:22 | 52.38149 | 14.99504 | 91° | 13km/h | 21032m | 4.5m/s | -53.4°C | 1.3% | 49.8hPa | 2.7V | 00:00:00 | 00:00:00 | 00:00:00 | |
| DL1XH1-15 | 2026-08-30 11:56:20 | 52.38155 | 14.99455 | 115° | 13km/h | 20996m | 5.3m/s | -53.5°C | 4.3% | 50.1hPa | 2.7V | 08:30:00 | 01:45:01 | 00:00:00 | |
| DL1XH-west | 2026-08-30 11:56:20 | 52.38149 | 14.99482 | 96° | 22km/h | 21017m | 3.9m/s | -53.4°C | 1% | 49.9hPa | 2.6V | 18:12:15 | 01:45:05 | 00:00:00 | |
| SONDE2-12 | 2026-08-30 11:56:16 | 52.38153 | 14.99460 | 118° | 13km/h | 21002m | 4.5m/s | -53.5°C | 1.4% | 50.0hPa | 2.7V | 00:00:00 | 00:00:00 | 00:00:00 | |
| DF8AY | 2026-08-30 11:56:15 | 52.38155 | 14.99455 | 115° | 13km/h | 20996m | 5.4m/s | -53.5°C | 1% | 50.1hPa | 2.7V | 18:12:15 | 01:45:01 | 00:00:00 | |
| AA1-15 | 2026-08-30 11:56:13 | 52.38156 | 14.99441 | 70° | 11km/h | 20981m | 4.2m/s | -53.5°C | 1% | 50.2hPa | 2.6V | 18:12:15 | 01:44:58 | 00:00:00 | |
| DB0DAN | 2026-08-30 11:56:10 | 52.38153 | 14.99433 | 50° | 11km/h | 20970m | 4.5m/s | -53.6°C | 1.3% | 50.33hPa | 2.7V | 00:00:00 | 00:00:00 | 00:00:00 | |
| KRY50SP-1 | 2026-08-30 11:56:09 | 52.38153 | 14.99433 | 51° | 11km/h | 20971m | 4.5m/s | -53.6°C | 1.3% | 50.3hPa | 2.6V | 00:00:00 | 00:00:00 | 00:00:00 | |
| DL1XH1-15 | 2026-08-30 11:56:08 | 52.38138 | 14.99405 | 48° | 16km/h | 20943m | 6.1m/s | -53.4°C | 4.3% | 50.5hPa | 2.6V | 08:30:00 | 01:44:51 | 00:00:00 | |
| DL1XH-west | 2026-08-30 11:56:08 | 52.38148 | 14.99424 | 46° | 18km/h | 20960m | 6.3m/s | -53.6°C | 1% | 50.4hPa | 2.7V | 18:12:15 | 01:44:54 | 00:00:00 | |
| DF8AY | 2026-08-30 11:56:05 | 52.38138 | 14.99405 | 49° | 16km/h | 20944m | 6.1m/s | -53.4°C | 1% | 50.5hPa | 2.6V | 18:12:15 | 01:44:51 | 00:00:00 | |
| AA1-15 | 2026-08-30 11:56:02 | 52.38132 | 14.99394 | 47° | 11km/h | 20929m | 5.3m/s | -53.4°C | 1% | 50.6hPa | 2.7V | 18:12:15 | 01:44:48 | 00:00:00 | |
| DL1XH-west | 2026-08-30 11:55:57 | 52.38123 | 14.99376 | 54° | 11km/h | 20903m | 4.6m/s | -53.6°C | 1% | 50.8hPa | 2.7V | 18:12:15 | 01:44:43 | 00:00:00 | |
| DF8AY | 2026-08-30 11:55:55 | 52.38117 | 14.99367 | 39° | 18km/h | 20892m | 5.5m/s | -53.6°C | 1% | 50.9hPa | 2.6V | 18:12:15 | 01:44:41 | 00:00:00 | |
| DB0DAN | 2026-08-30 11:55:55 | 52.38117 | 14.99367 | 39° | 16km/h | 20892m | 5.5m/s | -53.6°C | 1.3% | 50.91hPa | 2.6V | 00:00:00 | 00:00:00 | 00:00:00 | |
| AA1-15 | 2026-08-30 11:55:52 | 52.38102 | 14.99353 | 13° | 15km/h | 20872m | 4.4m/s | -53.8°C | 1.1% | 51.1hPa | 2.7V | 18:12:15 | 01:44:37 | 00:00:00 | |
| DJ2DS-15 | 2026-08-30 11:55:51 | 52.38101 | 14.99353 | 14° | 15km/h | 20872m | 4.3m/s | -53.7°C | 4.3% | 51.0hPa | 2.7V | 00:00:00 | 01:44:37 | 00:00:00 | |
| SQ2ODE-11 | 2026-08-30 11:55:50 | 52.38101 | 14.99353 | 14° | 15km/h | 20872m | 4.4m/s | -53.7°C | 1.4% | 51.1hPa | 2.7V | 00:00:00 | 00:00:00 | 00:00:00 | |
| DL1XH1-15 | 2026-08-30 11:55:48 | 52.38082 | 14.99354 | 330° | 9km/h | 20840m | 4.9m/s | -53.6°C | 4.3% | 51.3hPa | 2.7V | 08:30:00 | 01:44:31 | 00:00:00 | |
| DL1XH-west | 2026-08-30 11:55:46 | 52.38084 | 14.99352 | 339° | 9km/h | 20846m | 5.6m/s | -53.7°C | 1% | 51.3hPa | 2.7V | 18:12:15 | 01:44:32 | 00:00:00 | |
| DF8AY | 2026-08-30 11:55:45 | 52.38079 | 14.99355 | 336° | 11km/h | 20835m | 6.1m/s | -53.6°C | 1% | 51.4hPa | 2.7V | 18:12:15 | 01:44:30 | 00:00:00 | |
| AA1-15 | 2026-08-30 11:55:40 | 52.38064 | 14.99362 | 348° | 16km/h | 20814m | 5.4m/s | -53.6°C | 1% | 51.5hPa | 2.7V | 18:12:15 | 01:44:26 | 00:00:00 | |
| DB0DAN | 2026-08-30 11:55:40 | 52.38064 | 14.99362 | 348° | 15km/h | 20814m | 5.4m/s | -53.6°C | 1.3% | 51.55hPa | 2.7V | 00:00:00 | 00:00:00 | 00:00:00 | |
| DAC517 | 2026-08-30 11:55:39 | 52.38064 | 14.99362 | 349° | 16km/h | 20814m | 5.4m/s | -53.6°C | 1.3% | 51.6hPa | 2.7V | 00:00:00 | 00:00:00 | 00:00:00 | |
| SQ2ODE-11 | 2026-08-30 11:55:38 | 52.38060 | 14.99363 | 354° | 16km/h | 20809m | 4.8m/s | -53.6°C | 1.4% | 51.6hPa | 2.7V | 00:00:00 | 00:00:00 | 00:00:00 | |
| DL1XH1-15 | 2026-08-30 11:55:37 | 52.38031 | 14.99362 | 349° | 13km/h | 20772m | 5.6m/s | -53.7°C | 4.4% | 51.9hPa | 2.7V | 08:30:00 | 01:44:18 | 00:00:00 | |
| DL1XH-west | 2026-08-30 11:55:36 | 52.38046 | 14.99363 | 6° | 18km/h | 20793m | 4.8m/s | -53.7°C | 1.1% | 51.7hPa | 2.6V | 18:12:15 | 01:44:22 | 00:00:00 | |
| DF8AY | 2026-08-30 11:55:34 | 52.38038 | 14.99362 | 1° | 13km/h | 20782m | 4.9m/s | -53.6°C | 1.1% | 51.8hPa | 2.7V | 18:12:15 | 01:44:20 | 00:00:00 | |
| AA1-15 | 2026-08-30 11:55:29 | 52.38023 | 14.99369 | 319° | 11km/h | 20757m | 6m/s | -53.7°C | 1.1% | 52hPa | 2.6V | 18:12:15 | 01:44:15 | 00:00:00 | |
| S3001 | 2026-08-30 11:55:29 | 52.38021 | 14.99372 | 308° | 11km/h | 20752m | 4.2m/s | -53.7°C | 1.3% | 52.1hPa | 2.7V | 00:00:00 | 00:00:00 | 00:00:00 | |
| DL1XH1-15 | 2026-08-30 11:55:27 | 52.38002 | 14.99386 | 3° | 9km/h | 20722m | 4.5m/s | -53.6°C | 4.3% | 52.3hPa | 2.7V | 08:30:00 | 01:44:08 | 00:00:00 | |
| DL1XH-west | 2026-08-30 11:55:25 | 52.38012 | 14.99383 | 339° | 16km/h | 20737m | 4.2m/s | -53.6°C | 1% | 52.2hPa | 2.6V | 18:12:15 | 01:44:11 | 00:00:00 | |
| DB0DAN | 2026-08-30 11:55:25 | 52.38012 | 14.99383 | 339° | 15km/h | 20737m | 4.2m/s | -53.6°C | 1.3% | 52.17hPa | 2.6V | 00:00:00 | 00:00:00 | 00:00:00 | |
| DF8AY | 2026-08-30 11:55:21 | 52.38000 | 14.99386 | 1° | 9km/h | 20718m | 4.7m/s | -53.5°C | 1% | 52.3hPa | 2.7V | 18:12:15 | 01:44:07 | 00:00:00 | |
| AA1-15 | 2026-08-30 11:55:19 | 52.37996 | 14.99387 | 332° | 7km/h | 20708m | 4.7m/s | -53.5°C | 1.1% | 52.4hPa | 2.6V | 18:12:15 | 01:44:05 | 00:00:00 | |
| DL1XH-west | 2026-08-30 11:55:15 | 52.37995 | 14.99392 | 211° | 4km/h | 20687m | 4.7m/s | -53.4°C | 1% | 52.6hPa | 2.7V | 18:12:15 | 01:44:01 | 00:00:00 | |
| SONDE2-12 | 2026-08-30 11:55:14 | 52.37995 | 14.99392 | 258° | 0km/h | 20682m | 5.8m/s | -53.4°C | 1.4% | 52.6hPa | 2.7V | 00:00:00 | 00:00:00 | 00:00:00 | |
| AA1-15 | 2026-08-30 11:55:09 | 52.37989 | 14.99386 | 31° | 9km/h | 20651m | 5.9m/s | -53.8°C | 1.1% | 52.9hPa | 2.7V | 18:12:15 | 01:43:54 | 00:00:00 | |
| DL1XH1-15 | 2026-08-30 11:55:07 | 52.37983 | 14.99381 | 222° | 2km/h | 20618m | 5.4m/s | -53.7°C | 4.4% | 53.1hPa | 2.7V | 08:30:00 | 01:43:48 | 00:00:00 | |
| DF8AY | 2026-08-30 11:55:05 | 52.37984 | 14.99382 | 34° | 5km/h | 20634m | 6m/s | -53.7°C | 1% | 53hPa | 2.6V | 18:12:15 | 01:43:51 | 00:00:00 | |
| DL1XH-west | 2026-08-30 11:55:04 | 52.37983 | 14.99381 | 55° | 2km/h | 20629m | 4.6m/s | -53.7°C | 1.1% | 53.1hPa | 2.7V | 18:12:15 | 01:43:50 | 00:00:00 | |
| AA1-15 | 2026-08-30 11:54:58 | 52.37990 | 14.99374 | 133° | 9km/h | 20593m | 5.9m/s | -53.8°C | 1% | 53.4hPa | 2.7V | 18:12:15 | 01:43:43 | 00:00:00 | |
| DF8AY | 2026-08-30 11:54:57 | 52.37994 | 14.99356 | 93° | 9km/h | 20567m | 5m/s | -53.7°C | 1% | 53.6hPa | 2.7V | 18:12:15 | 01:43:38 | 00:00:00 | |
| DL1XH1-15 | 2026-08-30 11:54:57 | 52.37994 | 14.99356 | 92° | 9km/h | 20567m | 5m/s | -53.7°C | 4.3% | 53.6hPa | 2.7V | 08:30:00 | 01:43:38 | 00:00:00 | |
| DL1XH-west | 2026-08-30 11:54:54 | 52.37993 | 14.99364 | 106° | 11km/h | 20577m | 6.1m/s | -53.7°C | 1% | 53.5hPa | 2.6V | 18:12:15 | 01:43:40 | 00:00:00 | |
| AA1-15 | 2026-08-30 11:54:46 | 52.37998 | 14.99346 | 182° | 9km/h | 20537m | 4.9m/s | -53.8°C | 1.1% | 53.8hPa | 2.7V | 18:12:15 | 01:43:32 | 00:00:00 | |
| DL1XH-west | 2026-08-30 11:54:43 | 52.38003 | 14.99350 | 230° | 5km/h | 20521m | 4.4m/s | -53.6°C | 1.1% | 54hPa | 2.6V | 18:12:15 | 01:43:29 | 00:00:00 | |
| SONDE2-12 | 2026-08-30 11:54:43 | 52.38003 | 14.99350 | 230° | 4km/h | 20521m | 4.4m/s | -53.6°C | 1.5% | 54.0hPa | 2.7V | 00:00:00 | 00:00:00 | 00:00:00 | |
| DF8AY | 2026-08-30 11:54:41 | 52.38004 | 14.99348 | 47° | 5km/h | 20501m | 6.2m/s | -53.6°C | 1% | 54.1hPa | 2.7V | 18:12:15 | 01:43:25 | 00:00:00 | |
| DL1XH1-15 | 2026-08-30 11:54:40 | 52.37997 | 14.99337 | 56° | 11km/h | 20478m | 4.9m/s | -53.4°C | 4.3% | 54.3hPa | 2.6V | 08:30:00 | 01:43:21 | 00:00:00 | |
| DB0DAN | 2026-08-30 11:54:40 | 52.38005 | 14.99350 | 78° | 4km/h | 20506m | 4.3m/s | -53.5°C | 1.4% | 54.08hPa | 2.7V | 00:00:00 | 00:00:00 | 00:00:00 | |
| AA1-15 | 2026-08-30 11:54:36 | 52.37997 | 14.99338 | 56° | 11km/h | 20479m | 4.9m/s | -53.4°C | 1% | 54.3hPa | 2.6V | 18:12:15 | 01:43:21 | 00:00:00 | |
| DL1XH-west | 2026-08-30 11:54:32 | 52.37992 | 14.99331 | 6° | 5km/h | 20463m | 5.1m/s | -53.4°C | 1.1% | 54.5hPa | 2.7V | 18:12:15 | 01:43:18 | 00:00:00 | |
| DF8AY | 2026-08-30 11:54:28 | 52.37990 | 14.99336 | 303° | 5km/h | 20439m | 6m/s | -53.3°C | 1% | 54.7hPa | 2.7V | 18:12:15 | 01:43:13 | 00:00:00 | |
| AA1-15 | 2026-08-30 11:54:25 | 52.37987 | 14.99340 | 334° | 11km/h | 20429m | 3.9m/s | -53.1°C | 1% | 54.8hPa | 2.6V | 18:12:15 | 01:43:11 | 00:00:00 | |
| DB0DAN | 2026-08-30 11:54:25 | 52.37987 | 14.99340 | 334° | 9km/h | 20429m | 3.9m/s | -53.1°C | 1.3% | 54.75hPa | 2.6V | 00:00:00 | 00:00:00 | 00:00:00 | |
| DL1XH-west | 2026-08-30 11:54:21 | 52.37979 | 14.99342 | 25° | 5km/h | 20409m | 4.9m/s | -53.4°C | 1% | 54.9hPa | 2.7V | 18:12:15 | 01:43:07 | 00:00:00 | |
| DL1XH1-15 | 2026-08-30 11:54:20 | 52.37975 | 14.99330 | 23° | 4km/h | 20373m | 5.7m/s | -53.4°C | 4.3% | 55.2hPa | 2.7V | 08:30:00 | 01:43:00 | 00:00:00 | |
| DF8AY | 2026-08-30 11:54:17 | 52.37975 | 14.99335 | 92° | 5km/h | 20388m | 5.7m/s | -53.2°C | 0.9% | 55.1hPa | 2.6V | 18:12:15 | 01:43:03 | 00:00:00 | |
| AA1-15 | 2026-08-30 11:54:14 | 52.37975 | 14.99330 | 24° | 4km/h | 20373m | 5.7m/s | -53.4°C | 1% | 55.2hPa | 2.7V | 18:12:15 | 01:43:00 | 00:00:00 | |
| SONDE2-12 | 2026-08-30 11:54:12 | 52.37973 | 14.99330 | 336° | 4km/h | 20363m | 6.0m/s | -53.3°C | 1.4% | 55.3hPa | 2.7V | 00:00:00 | 00:00:00 | 00:00:00 | |
| DL1XH-west | 2026-08-30 11:54:10 | 52.37970 | 14.99333 | 321° | 7km/h | 20352m | 5.7m/s | -53.3°C | 1% | 55.4hPa | 2.7V | 18:12:15 | 01:42:56 | 00:00:00 | |
| DB0DAN | 2026-08-30 11:54:10 | 52.37970 | 14.99333 | 321° | 7km/h | 20352m | 5.7m/s | -53.3°C | 1.4% | 55.41hPa | 2.7V | 00:00:00 | 00:00:00 | 00:00:00 | |
| DL1XH1-15 | 2026-08-30 11:54:09 | 52.37962 | 14.99336 | 47° | 5km/h | 20320m | 5.8m/s | -53.1°C | 4.2% | 55.7hPa | 2.7V | 08:30:00 | 01:42:50 | 00:00:00 | |
| DF8AY | 2026-08-30 11:54:06 | 52.37964 | 14.99338 | 30° | 4km/h | 20330m | 5.3m/s | -53.2°C | 0% | 55.6hPa | 2.6V | 18:12:15 | 01:42:52 | 00:00:00 | |
| AA1-15 | 2026-08-30 11:54:03 | 52.37961 | 14.99334 | 65° | 5km/h | 20315m | 3.7m/s | -53.1°C | 1% | 55.7hPa | 2.7V | 18:12:15 | 01:42:49 | 00:00:00 | |
| DL1XH-west | 2026-08-30 11:53:59 | 52.37960 | 14.99326 | 0° | 2km/h | 20294m | 6m/s | -53.1°C | 0.9% | 55.9hPa | 2.6V | 18:12:15 | 01:42:45 | 00:00:00 | |
| SQ2ODE-11 | 2026-08-30 11:53:59 | 52.37960 | 14.99327 | 93° | 4km/h | 20300m | 4.9m/s | -53.0°C | 1.3% | 55.9hPa | 2.6V | 00:00:00 | 00:00:00 | 00:00:00 | |
| DL1XH1-15 | 2026-08-30 11:53:58 | 52.37955 | 14.99332 | 90° | 4km/h | 20271m | 4.1m/s | -52.9°C | 4.2% | 56.1hPa | 2.6V | 08:30:00 | 01:42:40 | 00:00:00 | |
| DF8AY | 2026-08-30 11:53:56 | 52.37957 | 14.99331 | 311° | 7km/h | 20280m | 5.2m/s | -53°C | 0% | 56hPa | 2.7V | 18:12:15 | 01:42:42 | 00:00:00 | |
| S3001 | 2026-08-30 11:53:56 | 52.37956 | 14.99332 | 330° | 2km/h | 20276m | 5.1m/s | -53.0°C | 1.3% | 56.1hPa | 2.6V | 00:00:00 | 00:00:00 | 00:00:00 | |
| DB0DAN | 2026-08-30 11:53:55 | 52.37956 | 14.99332 | 331° | 2km/h | 20275m | 5.1m/s | -53°C | 1.3% | 56.06hPa | 2.6V | 00:00:00 | 00:00:00 | 00:00:00 | |
| AA1-15 | 2026-08-30 11:53:52 | 52.37955 | 14.99326 | 79° | 9km/h | 20261m | 5.6m/s | -53°C | 1% | 56.2hPa | 2.7V | 18:12:15 | 01:42:38 | 00:00:00 | |
| DL1XH-west | 2026-08-30 11:53:48 | 52.37954 | 14.99303 | 100° | 16km/h | 20240m | 5.1m/s | -52.9°C | 0.9% | 56.4hPa | 2.6V | 18:12:15 | 01:42:34 | 00:00:00 | |
| DF8AY | 2026-08-30 11:53:46 | 52.37956 | 14.99286 | 94° | 11km/h | 20226m | 5.1m/s | -53.1°C | 0% | 0hPa | 2.7V | 18:12:15 | 01:42:31 | 00:00:00 | |
| AA1-15 | 2026-08-30 11:53:42 | 52.37958 | 14.99278 | 152° | 5km/h | 20210m | 5.6m/s | -53.1°C | 0.9% | 56.6hPa | 2.6V | 18:12:15 | 01:42:28 | 00:00:00 | |
| SONDE2-12 | 2026-08-30 11:53:41 | 52.37959 | 14.99276 | 160° | 7km/h | 20206m | 4.7m/s | -53.1°C | 1.3% | 56.7hPa | 2.7V | 00:00:00 | 00:00:00 | 00:00:00 | |
| DB0DAN | 2026-08-30 11:53:40 | 52.37961 | 14.99275 | 154° | 5km/h | 20201m | 4.9m/s | -53.1°C | 1.3% | 56.73hPa | 2.7V | 00:00:00 | 00:00:00 | 00:00:00 | |
| DL1XH-west | 2026-08-30 11:53:37 | 52.37963 | 14.99270 | 105° | 7km/h | 20185m | 4.7m/s | -53.1°C | 0.9% | 56.9hPa | 2.6V | 18:12:15 | 01:42:23 | 00:00:00 | |
| DF8AY | 2026-08-30 11:53:35 | 52.37967 | 14.99227 | 103° | 16km/h | 20145m | 4.4m/s | -53.6°C | 0% | 0hPa | 2.6V | 18:12:15 | 01:42:15 | 00:00:00 | |
| AA1-15 | 2026-08-30 11:53:31 | 52.37966 | 14.99240 | 91° | 16km/h | 20155m | 4.5m/s | -53.5°C | 1% | 57.1hPa | 2.6V | 18:12:15 | 01:42:17 | 00:00:00 | |
| SONCRA | 2026-08-30 11:53:31 | 52.37967 | 14.99234 | 98° | 16km/h | 20150m | 5.9m/s | -53.5°C | 1.3% | 57.2hPa | 2.7V | 00:00:00 | 00:00:00 | 00:00:00 | |
| SP3WXH-11 | 2026-08-30 11:53:30 | 52.37967 | 14.99234 | 98° | 16km/h | 20150m | 5.9m/s | -53.5°C | 1.3% | 57.2hPa | 2.7V | 00:00:00 | 00:00:00 | 00:00:00 | |
| DL1XH1-15 | 2026-08-30 11:53:27 | 52.37970 | 14.99209 | 99° | 11km/h | 20130m | 5m/s | -53.6°C | 4.3% | 57.4hPa | 2.7V | 08:30:00 | 01:42:12 | 00:00:00 | |
| DL1XH-west | 2026-08-30 11:53:26 | 52.37970 | 14.99209 | 100° | 11km/h | 20130m | 5m/s | -53.6°C | 1% | 57.4hPa | 2.7V | 18:12:15 | 01:42:12 | 00:00:00 | |
| DF8AY | 2026-08-30 11:53:23 | 52.37977 | 14.99189 | 114° | 13km/h | 20104m | 5.9m/s | -53.7°C | 0% | 0hPa | 2.7V | 18:12:15 | 01:42:07 | 00:00:00 | |
| EDDB2-11 | 2026-08-30 11:53:22 | 52.37977 | 14.99189 | 114° | 11km/h | 20104m | 5.9m/s | -53.7°C | 1.4% | 57.6hPa | 2.7V | 00:00:00 | 00:00:00 | 00:00:00 | |
| DL1XH1-15 | 2026-08-30 11:53:21 | 52.37979 | 14.99153 | 80° | 22km/h | 20079m | 6m/s | -53.6°C | 4.3% | 57.8hPa | 2.7V | 08:30:00 | 01:42:02 | 00:00:00 | |
| AA1-15 | 2026-08-30 11:53:20 | 52.37978 | 14.99184 | 104° | 15km/h | 20099m | 4.1m/s | -53.7°C | 1% | 57.6hPa | 2.7V | 18:12:15 | 01:42:06 | 00:00:00 | |
| DF8AY | 2026-08-30 11:53:18 | 52.37972 | 14.99123 | 73° | 16km/h | 20059m | 5.8m/s | 0°C | 0% | 0hPa | 2.6V | 18:12:15 | 01:41:58 | 00:00:00 | |
| DL1XH-west | 2026-08-30 11:53:15 | 52.37978 | 14.99145 | 67° | 20km/h | 20074m | 5.1m/s | -53.5°C | 1% | 57.9hPa | 2.7V | 18:12:15 | 01:42:01 | 00:00:00 | |
| AA1-15 | 2026-08-30 11:53:10 | 52.37971 | 14.99111 | 93° | 15km/h | 20050m | 3.7m/s | -53.4°C | 1% | 58.1hPa | 2.7V | 18:12:15 | 01:41:56 | 00:00:00 | |
| DB0DAN | 2026-08-30 11:53:10 | 52.37971 | 14.99111 | 93° | 15km/h | 20050m | 3.7m/s | -53.4°C | 1.3% | 58.07hPa | 2.7V | 00:00:00 | 00:00:00 | 00:00:00 | |
| DAC517 | 2026-08-30 11:53:09 | 52.37971 | 14.99105 | 89° | 13km/h | 20046m | 4.9m/s | -53.5°C | 1.4% | 58.1hPa | 2.6V | 00:00:00 | 00:00:00 | 00:00:00 | |
| DL1XH1-15 | 2026-08-30 11:53:08 | 52.37968 | 14.99092 | 49° | 13km/h | 20031m | 4.5m/s | -53.4°C | 4.3% | 58.2hPa | 2.6V | 08:30:00 | 01:41:52 | 00:00:00 | |
| DL1XH-west | 2026-08-30 11:53:04 | 52.37964 | 14.99083 | 62° | 13km/h | 20021m | 5.6m/s | -53.5°C | 1% | 58.3hPa | 2.7V | 18:12:15 | 01:41:50 | 00:00:00 | |
| DF8AY | 2026-08-30 11:53:01 | 52.37956 | 14.99060 | 53° | 20km/h | 20001m | 5.2m/s | 0°C | 0% | 0hPa | 2.6V | 18:12:15 | 01:41:46 | 00:00:00 | |
| DL1XH1-15 | 2026-08-30 11:53:01 | 52.37945 | 14.99027 | 61° | 24km/h | 19980m | 5.2m/s | -53.5°C | 4.3% | 58.7hPa | 2.7V | 08:30:00 | 01:41:42 | 00:00:00 | |
| AA1-15 | 2026-08-30 11:52:59 | 52.37953 | 14.99053 | 57° | 22km/h | 19995m | 5.6m/s | -53.5°C | 1% | 58.6hPa | 2.6V | 18:12:15 | 01:41:45 | 00:00:00 | |
| EDDB2-12 | 2026-08-30 11:52:58 | 52.37948 | 14.99036 | 64° | 22km/h | 19985m | 4.6m/s | -53.5°C | 1.4% | 58.6hPa | 2.6V | 00:00:00 | 00:00:00 | 00:00:00 | |
| DB0DAN | 2026-08-30 11:52:55 | 52.37942 | 14.99019 | 56° | 22km/h | 19974m | 5.4m/s | -53.5°C | 1.4% | 58.76hPa | 2.6V | 00:00:00 | 00:00:00 | 00:00:00 | |
| DL1XH-west | 2026-08-30 11:52:53 | 52.37935 | 14.99005 | 54° | 22km/h | 19965m | 4.5m/s | -53.5°C | 1% | 58.9hPa | 2.6V | 18:12:15 | 01:41:39 | 00:00:00 | |
| DF8AY | 2026-08-30 11:52:49 | 52.37923 | 14.98972 | 51° | 26km/h | 19946m | 5.5m/s | 0°C | 0% | 0hPa | 2.6V | 18:12:15 | 01:41:35 | 00:00:00 | |
| DAC517 | 2026-08-30 11:52:49 | 52.37923 | 14.98972 | 52° | 26km/h | 19946m | 5.5m/s | -53.4°C | 1.3% | 59.0hPa | 2.7V | 00:00:00 | 00:00:00 | 00:00:00 | |
| DL1XH1-15 | 2026-08-30 11:52:48 | 52.37903 | 14.98947 | 35° | 24km/h | 19926m | 5m/s | -53.2°C | 4.2% | 59.2hPa | 2.7V | 08:30:00 | 01:41:31 | 00:00:00 | |
| AA1-15 | 2026-08-30 11:52:48 | 52.37919 | 14.98965 | 41° | 26km/h | 19941m | 5.2m/s | -53.3°C | 1% | 59.1hPa | 2.6V | 18:12:15 | 01:41:34 | 00:00:00 | |
| DJ2DS-15 | 2026-08-30 11:52:48 | 52.37919 | 14.98965 | 40° | 24km/h | 19941m | 5.2m/s | -53.3°C | 1.4% | 59.1hPa | 2.6V | 00:00:00 | 00:00:00 | 00:00:00 | |
| DL1XH-west | 2026-08-30 11:52:43 | 52.37893 | 14.98935 | 37° | 27km/h | 19917m | 4.8m/s | -53.2°C | 0.9% | 59.3hPa | 2.6V | 18:12:15 | 01:41:29 | 00:00:00 | |
| SP3BTT-10 | 2026-08-30 11:52:43 | 52.37893 | 14.98935 | 37° | 20km/h | 19917m | 4.8m/s | -53.2°C | 4.2% | 59.2hPa | 2.6V | 00:00:00 | 00:00:00 | 08:30:00 | |
| DB0DAN | 2026-08-30 11:52:40 | 52.37875 | 14.98914 | 40° | 26km/h | 19902m | 4.3m/s | -53.3°C | 1.3% | 59.43hPa | 2.7V | 00:00:00 | 00:00:00 | 00:00:00 | |
| SONDE2-12 | 2026-08-30 11:52:39 | 52.37871 | 14.98907 | 44° | 24km/h | 19897m | 6.2m/s | -53.3°C | 1.5% | 59.5hPa | 2.6V | 00:00:00 | 00:00:00 | 00:00:00 | |
| AA1-15 | 2026-08-30 11:52:37 | 52.37864 | 14.98894 | 46° | 18km/h | 19886m | 5.3m/s | -53.3°C | 1% | 59.6hPa | 2.6V | 18:12:15 | 01:41:23 | 00:00:00 | |
| DL1XH-west | 2026-08-30 11:52:32 | 52.37847 | 14.98875 | 26° | 16km/h | 19860m | 4.1m/s | -53.1°C | 1% | 59.8hPa | 2.7V | 18:12:15 | 01:41:18 | 00:00:00 | |
| AA1-15 | 2026-08-30 11:52:27 | 52.37822 | 14.98860 | 23° | 22km/h | 19834m | 4.1m/s | -53°C | 0.9% | 60.1hPa | 2.7V | 18:12:15 | 01:41:13 | 00:00:00 | |
| DB0DAN | 2026-08-30 11:52:25 | 52.37811 | 14.98852 | 23° | 24km/h | 19823m | 5.5m/s | -53°C | 1.4% | 60.19hPa | 2.6V | 00:00:00 | 00:00:00 | 00:00:00 | |
| SQ2ODE-11 | 2026-08-30 11:52:24 | 52.37811 | 14.98852 | 24° | 24km/h | 19823m | 5.5m/s | -53.0°C | 1.4% | 60.2hPa | 2.7V | 00:00:00 | 00:00:00 | 00:00:00 | |
| DL1XH1-15 | 2026-08-30 11:52:23 | 52.37798 | 14.98840 | 34° | 16km/h | 19807m | 5.5m/s | -53°C | 4.3% | 60.3hPa | 2.7V | 08:30:00 | 01:41:08 | 00:00:00 | |
| DL1XH-west | 2026-08-30 11:52:21 | 52.37794 | 14.98837 | 34° | 15km/h | 19802m | 5.2m/s | -53°C | 1.1% | 60.4hPa | 2.7V | 18:12:15 | 01:41:07 | 00:00:00 | |
| AA1-15 | 2026-08-30 11:52:16 | 52.37778 | 14.98828 | 7° | 13km/h | 19776m | 4.2m/s | -52.9°C | 1% | 60.6hPa | 2.7V | 18:12:15 | 01:41:02 | 00:00:00 | |
| DL1XH-west | 2026-08-30 11:52:11 | 52.37752 | 14.98817 | 27° | 16km/h | 19746m | 4.2m/s | -52.7°C | 0.9% | 60.9hPa | 2.7V | 18:12:15 | 01:40:56 | 00:00:00 | |
| DB0DAN | 2026-08-30 11:52:10 | 52.37752 | 14.98817 | 27° | 16km/h | 19746m | 4.2m/s | -52.7°C | 1.3% | 60.87hPa | 2.7V | 00:00:00 | 00:00:00 | 00:00:00 | |
| DF8AY | 2026-08-30 11:52:10 | 52.37748 | 14.98814 | 27° | 16km/h | 19740m | 5.9m/s | 0°C | 0% | 0hPa | 2.7V | 18:12:15 | 01:40:55 | 00:00:00 | |
| SONDE2-12 | 2026-08-30 11:52:08 | 52.37741 | 14.98808 | 33° | 13km/h | 19730m | 5.5m/s | -52.6°C | 1.4% | 61.0hPa | 2.7V | 00:00:00 | 00:00:00 | 00:00:00 | |
| DL1XH1-15 | 2026-08-30 11:52:07 | 52.37732 | 14.98796 | 17° | 13km/h | 19704m | 5.3m/s | -52.4°C | 4% | 61.3hPa | 2.7V | 08:30:00 | 01:40:48 | 00:00:00 | |
| AA1-15 | 2026-08-30 11:52:05 | 52.37737 | 14.98802 | 50° | 9km/h | 19718m | 4.1m/s | -52.5°C | 0.9% | 61.1hPa | 2.6V | 18:12:15 | 01:40:51 | 00:00:00 | |
| DL1XH-west | 2026-08-30 11:52:00 | 52.37724 | 14.98792 | 28° | 16km/h | 19694m | 6m/s | -52.3°C | 0.8% | 61.4hPa | 2.6V | 18:12:15 | 01:40:46 | 00:00:00 | |
| DF8AY | 2026-08-30 11:51:57 | 52.37713 | 14.98781 | 25° | 18km/h | 19679m | 5.9m/s | 0°C | 0% | 0hPa | 2.7V | 18:12:15 | 01:40:43 | 00:00:00 | |
| AA1-15 | 2026-08-30 11:51:55 | 52.37706 | 14.98776 | 33° | 13km/h | 19669m | 5m/s | -52.2°C | 0.8% | 61.6hPa | 2.6V | 18:12:15 | 01:40:41 | 00:00:00 | |
| DB0DAN | 2026-08-30 11:51:55 | 52.37706 | 14.98776 | 33° | 13km/h | 19669m | 5m/s | -52.2°C | 1.3% | 61.61hPa | 2.6V | 00:00:00 | 00:00:00 | 00:00:00 | |
| DL1XH-west | 2026-08-30 11:51:50 | 52.37701 | 14.98760 | 62° | 9km/h | 19644m | 4.3m/s | -52.3°C | 0.9% | 61.9hPa | 2.7V | 18:12:15 | 01:40:36 | 00:00:00 | |
| EDDB2-11 | 2026-08-30 11:51:49 | 52.37698 | 14.98751 | 60° | 15km/h | 19633m | 5.8m/s | -52.5°C | 1.3% | 62.0hPa | 2.7V | 00:00:00 | 00:00:00 | 00:00:00 | |
| DC4HF-4 | 2026-08-30 11:51:48 | 52.37698 | 14.98751 | 60° | 15km/h | 19633m | 5.8m/s | -52.5°C | 1.3% | 62.0hPa | 2.7V | 00:00:00 | 00:00:00 | 00:00:00 | |
| AA1-15 | 2026-08-30 11:51:44 | 52.37684 | 14.98728 | 35° | 22km/h | 19612m | 4.3m/s | -52.6°C | 0.8% | 62.2hPa | 2.7V | 18:12:15 | 01:40:30 | 00:00:00 | |
| AA1-15 | 2026-08-30 11:51:33 | 52.37672 | 14.98666 | 72° | 16km/h | 19554m | 4.4m/s | -52.6°C | 0.9% | 62.7hPa | 2.7V | 18:12:15 | 01:40:19 | 00:00:00 | |
| DL1XH-west | 2026-08-30 11:51:31 | 52.37669 | 14.98652 | 66° | 20km/h | 19544m | 4.6m/s | -52.7°C | 0.9% | 62.8hPa | 2.6V | 18:12:15 | 01:40:17 | 00:00:00 | |
| AA1-15 | 2026-08-30 11:51:22 | 52.37648 | 14.98605 | 64° | 15km/h | 19497m | 4.5m/s | -53.3°C | 0.9% | 63.3hPa | 2.7V | 18:12:15 | 01:40:08 | 00:00:00 | |
| DL1XH-west | 2026-08-30 11:51:21 | 52.37646 | 14.98598 | 72° | 18km/h | 19492m | 5.9m/s | -53.3°C | 1% | 63.3hPa | 2.7V | 18:12:15 | 01:40:07 | 00:00:00 | |
| S3001 | 2026-08-30 11:51:20 | 52.37645 | 14.98590 | 74° | 22km/h | 19487m | 4.8m/s | -53.2°C | 1.4% | 63.4hPa | 2.6V | 00:00:00 | 00:00:00 | 00:00:00 | |
| 13BRC | 2026-08-30 11:51:17 | 52.37641 | 14.98572 | 65° | 24km/h | 19478m | 5.7m/s | -53.1°C | 1.3% | 63.5hPa | 2.6V | 00:00:00 | 00:00:00 | 00:00:00 | |
| DL1XH1-15 | 2026-08-30 11:51:16 | 52.37620 | 14.98532 | 44° | 26km/h | 19451m | 4.8m/s | -53.1°C | 4.1% | 63.8hPa | 2.6V | 08:30:00 | 01:39:59 | 00:00:00 | |
| SONDE2-12 | 2026-08-30 11:51:14 | 52.37625 | 14.98540 | 48° | 26km/h | 19456m | 5.2m/s | -53.2°C | 1.4% | 63.7hPa | 2.6V | 00:00:00 | 00:00:00 | 00:00:00 | |
| AA1-15 | 2026-08-30 11:51:11 | 52.37611 | 14.98518 | 40° | 24km/h | 19440m | 4.5m/s | -53.1°C | 0.9% | 63.9hPa | 2.6V | 18:12:15 | 01:39:57 | 00:00:00 | |
| DB0DAN | 2026-08-30 11:51:10 | 52.37607 | 14.98512 | 47° | 20km/h | 19435m | 5.6m/s | -53.3°C | 1.3% | 63.88hPa | 2.7V | 00:00:00 | 00:00:00 | 00:00:00 | |
| DL1XH-west | 2026-08-30 11:51:10 | 52.37607 | 14.98512 | 47° | 22km/h | 19435m | 5.6m/s | -53.3°C | 0.9% | 63.9hPa | 2.7V | 18:12:15 | 01:39:56 | 00:00:00 | |
| AA1-15 | 2026-08-30 11:51:01 | 52.37581 | 14.98449 | 49° | 18km/h | 19392m | 4.4m/s | -53.6°C | 0.9% | 64.3hPa | 2.6V | 18:12:15 | 01:39:47 | 00:00:00 | |
| DL1XH-west | 2026-08-30 11:50:59 | 52.37574 | 14.98440 | 28° | 16km/h | 19382m | 5.2m/s | -53.5°C | 1% | 64.4hPa | 2.6V | 18:12:15 | 01:39:45 | 00:00:00 | |
| DL1XH1-15 | 2026-08-30 11:50:58 | 52.37551 | 14.98417 | 32° | 18km/h | 19351m | 4.6m/s | -53.4°C | 4.3% | 64.7hPa | 2.6V | 08:30:00 | 01:39:39 | 00:00:00 | |
| 13BRC | 2026-08-30 11:50:57 | 52.37571 | 14.98437 | 28° | 16km/h | 19377m | 4.5m/s | -53.5°C | 1.4% | 64.5hPa | 2.6V | 00:00:00 | 00:00:00 | 00:00:00 | |
| DB0DAN | 2026-08-30 11:50:55 | 52.37559 | 14.98425 | 35° | 18km/h | 19362m | 5.1m/s | -53.4°C | 1.4% | 64.64hPa | 2.6V | 00:00:00 | 00:00:00 | 00:00:00 | |
| AA1-15 | 2026-08-30 11:50:50 | 52.37540 | 14.98400 | 55° | 18km/h | 19337m | 4.7m/s | -53.6°C | 1% | 64.9hPa | 2.7V | 18:12:15 | 01:39:36 | 00:00:00 | |
| S3001 | 2026-08-30 11:50:49 | 52.37538 | 14.98394 | 56° | 15km/h | 19332m | 4.8m/s | -53.5°C | 1.3% | 64.9hPa | 2.6V | 00:00:00 | 00:00:00 | 00:00:00 | |
| DL1XH1-15 | 2026-08-30 11:50:48 | 52.37518 | 14.98374 | 12° | 18km/h | 19300m | 6m/s | -53.6°C | 4.2% | 65.2hPa | 2.6V | 08:30:00 | 01:39:29 | 00:00:00 | |
| DL1XH-west | 2026-08-30 11:50:48 | 52.37536 | 14.98389 | 50° | 13km/h | 19326m | 5.7m/s | -53.4°C | 0.9% | 65hPa | 2.6V | 18:12:15 | 01:39:34 | 00:00:00 | |
| EDDB2-11 | 2026-08-30 11:50:46 | 52.37531 | 14.98382 | 34° | 13km/h | 19316m | 6.1m/s | -53.5°C | 1.3% | 65.1hPa | 2.7V | 00:00:00 | 00:00:00 | 00:00:00 | |
| SONDE2-12 | 2026-08-30 11:50:43 | 52.37518 | 14.98374 | 12° | 18km/h | 19300m | 6.0m/s | -53.6°C | 1.4% | 65.2hPa | 2.7V | 00:00:00 | 00:00:00 | 00:00:00 | |
| DB0DAN | 2026-08-30 11:50:40 | 52.37505 | 14.98366 | 36° | 18km/h | 19283m | 5.2m/s | -53.6°C | 1.3% | 65.43hPa | 2.7V | 00:00:00 | 00:00:00 | 00:00:00 | |
| AA1-15 | 2026-08-30 11:50:39 | 52.37502 | 14.98361 | 52° | 16km/h | 19279m | 4.6m/s | -53.6°C | 1% | 65.5hPa | 2.7V | 18:12:15 | 01:39:25 | 00:00:00 | |
| DL1XH-west | 2026-08-30 11:50:37 | 52.37499 | 14.98351 | 84° | 15km/h | 19268m | 5m/s | -53.6°C | 1.1% | 65.6hPa | 2.6V | 18:12:15 | 01:39:23 | 00:00:00 | |
| AA1-15 | 2026-08-30 11:50:29 | 52.37490 | 14.98315 | 31° | 13km/h | 19227m | 6.1m/s | -53.6°C | 1% | 66hPa | 2.6V | 18:12:15 | 01:39:15 | 00:00:00 | |
| DL1XH1-15 | 2026-08-30 11:50:28 | 52.37481 | 14.98272 | 88° | 26km/h | 19195m | 6.5m/s | -53.6°C | 4.2% | 66.3hPa | 2.6V | 08:30:00 | 01:39:09 | 00:00:00 | |
| DL1XH-west | 2026-08-30 11:50:27 | 52.37485 | 14.98306 | 57° | 18km/h | 19217m | 4.8m/s | -53.7°C | 1% | 66.1hPa | 2.7V | 18:12:15 | 01:39:13 | 00:00:00 | |
| DB0DAN | 2026-08-30 11:50:25 | 52.37481 | 14.98291 | 78° | 18km/h | 19206m | 5.5m/s | -53.6°C | 1.4% | 66.2hPa | 2.6V | 00:00:00 | 00:00:00 | 00:00:00 | |
| SP3WXH-11 | 2026-08-30 11:50:24 | 52.37481 | 14.98283 | 86° | 22km/h | 19201m | 4.7m/s | -53.6°C | 1.4% | 66.3hPa | 2.7V | 00:00:00 | 00:00:00 | 00:00:00 | |
| SQ2ODE-11 | 2026-08-30 11:50:23 | 52.37480 | 14.98272 | 90° | 27km/h | 19196m | 6.5m/s | -53.6°C | 1.3% | 66.3hPa | 2.7V | 00:00:00 | 00:00:00 | 00:00:00 | |
| EDDB2-12 | 2026-08-30 11:50:22 | 52.37480 | 14.98261 | 89° | 27km/h | 19190m | 4.8m/s | -53.7°C | 1.4% | 66.4hPa | 2.7V | 00:00:00 | 00:00:00 | 00:00:00 | |
| DL1XH1-15 | 2026-08-30 11:50:18 | 52.37456 | 14.98140 | 79° | 26km/h | 19121m | 4.5m/s | -53.6°C | 4.3% | 67.1hPa | 2.7V | 08:30:00 | 01:38:54 | 00:00:00 | |
| AA1-15 | 2026-08-30 11:50:18 | 52.37480 | 14.98223 | 80° | 18km/h | 19171m | 4m/s | -53.6°C | 1% | 66.6hPa | 2.6V | 18:12:15 | 01:39:04 | 00:00:00 | |
| DL1XH-west | 2026-08-30 11:50:16 | 52.37476 | 14.98208 | 62° | 22km/h | 19160m | 5.3m/s | -53.5°C | 1% | 66.7hPa | 2.7V | 18:12:15 | 01:39:02 | 00:00:00 | |
| SQ2ODE-11 | 2026-08-30 11:50:15 | 52.37476 | 14.98208 | 63° | 22km/h | 19161m | 5.3m/s | -53.5°C | 1.4% | 66.7hPa | 2.7V | 00:00:00 | 00:00:00 | 00:00:00 | |
| DL1XH1-15 | 2026-08-30 11:50:13 | 52.37450 | 14.98091 | 61° | 24km/h | 19096m | 4m/s | -53.4°C | 4.3% | 67.4hPa | 2.7V | 08:30:00 | 01:38:49 | 00:00:00 | |
| SONDE2-12 | 2026-08-30 11:50:12 | 52.37464 | 14.98177 | 57° | 20km/h | 19140m | 4.5m/s | -53.4°C | 1.4% | 66.9hPa | 2.7V | 00:00:00 | 00:00:00 | 00:00:00 | |
| DB0DAN | 2026-08-30 11:50:10 | 52.37459 | 14.98161 | 69° | 24km/h | 19130m | 5.7m/s | -53.5°C | 1.4% | 66.99hPa | 2.7V | 00:00:00 | 00:00:00 | 00:00:00 | |
| AA1-15 | 2026-08-30 11:50:07 | 52.37455 | 14.98130 | 84° | 24km/h | 19116m | 5.5m/s | -53.6°C | 1% | 67.2hPa | 2.6V | 18:12:15 | 01:38:53 | 00:00:00 | |
| DL1XH-west | 2026-08-30 11:50:05 | 52.37454 | 14.98110 | 82° | 24km/h | 19106m | 5.4m/s | -53.5°C | 1.1% | 67.3hPa | 2.6V | 18:12:15 | 01:38:51 | 00:00:00 | |
| DF8AY | 2026-08-30 11:50:00 | 52.37402 | 14.98029 | 49° | 26km/h | 19050m | 5.2m/s | -53.1°C | 0.9% | 67.9hPa | 2.6V | 18:12:15 | 01:38:40 | 00:00:00 | |
| DL1XH1-15 | 2026-08-30 11:49:58 | 52.37398 | 14.98020 | 54° | 27km/h | 19044m | 5.2m/s | -53.2°C | 4.2% | 67.9hPa | 2.6V | 08:30:00 | 01:38:39 | 00:00:00 | |
| AA1-15 | 2026-08-30 11:49:56 | 52.37412 | 14.98044 | 37° | 29km/h | 19059m | 6m/s | -53.4°C | 0.9% | 67.7hPa | 2.7V | 18:12:15 | 01:38:42 | 00:00:00 | |
| DL1XH-west | 2026-08-30 11:49:55 | 52.37407 | 14.98037 | 43° | 26km/h | 19054m | 4.4m/s | -53.2°C | 1% | 67.8hPa | 2.6V | 18:12:15 | 01:38:41 | 00:00:00 | |
| AA1-15 | 2026-08-30 11:49:45 | 52.37368 | 14.97964 | 28° | 24km/h | 19004m | 5.7m/s | -53°C | 0.8% | 68.3hPa | 2.7V | 18:12:15 | 01:38:31 | 00:00:00 | |
| DL1XH-west | 2026-08-30 11:49:44 | 52.37362 | 14.97960 | 25° | 26km/h | 18998m | 5.1m/s | -53°C | 0.8% | 68.4hPa | 2.7V | 18:12:15 | 01:38:30 | 00:00:00 | |
| DF8AY | 2026-08-30 11:49:41 | 52.37324 | 14.97914 | 53° | 24km/h | 18959m | 4.7m/s | -53.5°C | 1% | 68.8hPa | 2.6V | 18:12:15 | 01:38:22 | 00:00:00 | |
| SONDE2-12 | 2026-08-30 11:49:41 | 52.37344 | 14.97943 | 32° | 26km/h | 18983m | 4.3m/s | -53.1°C | 1.4% | 68.6hPa | 2.6V | 00:00:00 | 00:00:00 | 00:00:00 | |
| AA1-15 | 2026-08-30 11:49:35 | 52.37320 | 14.97906 | 49° | 26km/h | 18954m | 4.1m/s | -53.4°C | 1% | 68.9hPa | 2.6V | 18:12:15 | 01:38:21 | 00:00:00 | |
| DL1XH-west | 2026-08-30 11:49:33 | 52.37311 | 14.97892 | 35° | 24km/h | 18945m | 5.3m/s | -53.5°C | 1% | 69hPa | 2.7V | 18:12:15 | 01:38:19 | 00:00:00 | |
| DF8AY | 2026-08-30 11:49:28 | 52.37283 | 14.97866 | 24° | 27km/h | 18920m | 6m/s | -53.3°C | 1% | 69.2hPa | 2.7V | 18:12:15 | 01:38:14 | 00:00:00 | |
| KRY50SP-1 | 2026-08-30 11:49:28 | 52.37283 | 14.97866 | 25° | 27km/h | 18920m | 6.0m/s | -53.3°C | 1.4% | 69.2hPa | 2.6V | 00:00:00 | 00:00:00 | 00:00:00 | |
| DB0DAN | 2026-08-30 11:49:25 | 52.37264 | 14.97850 | 33° | 27km/h | 18904m | 6m/s | -53.4°C | 1.4% | 69.4hPa | 2.6V | 00:00:00 | 00:00:00 | 00:00:00 | |
| AA1-15 | 2026-08-30 11:49:24 | 52.37258 | 14.97844 | 35° | 29km/h | 18899m | 4.3m/s | -53.3°C | 1% | 69.5hPa | 2.6V | 18:12:15 | 01:38:10 | 00:00:00 | |
| DL1XH1-15 | 2026-08-30 11:49:23 | 52.37252 | 14.97837 | 34° | 29km/h | 18894m | 5.8m/s | -53.3°C | 4.2% | 69.5hPa | 2.6V | 08:30:00 | 01:38:09 | 00:00:00 | |
| DL1XH-west | 2026-08-30 11:49:23 | 52.37252 | 14.97837 | 34° | 29km/h | 18894m | 5.9m/s | -53.3°C | 1% | 69.5hPa | 2.6V | 18:12:15 | 01:38:09 | 00:00:00 | |
| DF8AY | 2026-08-30 11:49:18 | 52.37231 | 14.97806 | 54° | 18km/h | 18868m | 4.6m/s | -53.2°C | 1% | 69.8hPa | 2.6V | 18:12:15 | 01:38:04 | 00:00:00 | |
| DL1XH1-15 | 2026-08-30 11:49:18 | 52.37217 | 14.97777 | 57° | 24km/h | 18843m | 4.2m/s | -53°C | 4.2% | 70.1hPa | 2.6V | 08:30:00 | 01:37:59 | 00:00:00 | |
| AA1-15 | 2026-08-30 11:49:13 | 52.37217 | 14.97777 | 57° | 24km/h | 18843m | 4.2m/s | -53°C | 1% | 70.1hPa | 2.6V | 18:12:15 | 01:37:59 | 00:00:00 | |
| DL1XH-west | 2026-08-30 11:49:12 | 52.37213 | 14.97769 | 54° | 24km/h | 18838m | 4.4m/s | -53°C | 0.9% | 70.1hPa | 2.6V | 18:12:15 | 01:37:58 | 00:00:00 | |
| DB0DAN | 2026-08-30 11:49:10 | 52.37205 | 14.97753 | 48° | 24km/h | 18828m | 4.4m/s | -53°C | 1.3% | 70.24hPa | 2.7V | 00:00:00 | 00:00:00 | 00:00:00 | |
| DF8AY | 2026-08-30 11:49:04 | 52.37189 | 14.97709 | 58° | 16km/h | 18798m | 4.6m/s | -52.9°C | 0.8% | 70.6hPa | 2.7V | 18:12:15 | 01:37:50 | 00:00:00 | |
| AA1-15 | 2026-08-30 11:49:03 | 52.37187 | 14.97703 | 59° | 16km/h | 18793m | 5.3m/s | -53°C | 0.8% | 70.6hPa | 2.7V | 18:12:15 | 01:37:49 | 00:00:00 | |
| DL1XH1-15 | 2026-08-30 11:49:02 | 52.37180 | 14.97685 | 52° | 20km/h | 18778m | 5.9m/s | -53.2°C | 4.1% | 70.8hPa | 2.6V | 08:30:00 | 01:37:46 | 00:00:00 | |
| DL1XH-west | 2026-08-30 11:49:01 | 52.37183 | 14.97691 | 59° | 18km/h | 18783m | 4.2m/s | -53.2°C | 0.9% | 70.8hPa | 2.6V | 18:12:15 | 01:37:47 | 00:00:00 | |
| SONDE2-11 | 2026-08-30 11:48:58 | 52.37173 | 14.97672 | 50° | 22km/h | 18767m | 3.9m/s | -53.4°C | 1.4% | 70.9hPa | 2.6V | 00:00:00 | 00:00:00 | 00:00:00 | |
| DAC517 | 2026-08-30 11:48:57 | 52.37173 | 14.97671 | 51° | 22km/h | 18768m | 3.9m/s | -53.4°C | 1.4% | 70.9hPa | 2.6V | 00:00:00 | 00:00:00 | 00:00:00 | |
| DB0DAN | 2026-08-30 11:48:55 | 52.37164 | 14.97648 | 63° | 22km/h | 18753m | 5m/s | -53.7°C | 1.4% | 71.06hPa | 2.6V | 00:00:00 | 00:00:00 | 00:00:00 | |
| DF8AY | 2026-08-30 11:48:53 | 52.37160 | 14.97633 | 70° | 18km/h | 18743m | 4.2m/s | -53.9°C | 1.1% | 71.2hPa | 2.6V | 18:12:15 | 01:37:39 | 00:00:00 | |
| DL1XH1-15 | 2026-08-30 11:48:52 | 52.37159 | 14.97614 | 95° | 11km/h | 18728m | 4.8m/s | -53.9°C | 4.3% | 71.4hPa | 2.7V | 08:30:00 | 01:37:36 | 00:00:00 | |
| AA1-15 | 2026-08-30 11:48:52 | 52.37159 | 14.97626 | 79° | 16km/h | 18738m | 5.9m/s | -54°C | 1% | 71.2hPa | 2.7V | 18:12:15 | 01:37:38 | 00:00:00 | |
| DL1XH-west | 2026-08-30 11:48:50 | 52.37159 | 14.97614 | 96° | 11km/h | 18728m | 4.8m/s | -53.9°C | 1% | 71.4hPa | 2.7V | 18:12:15 | 01:37:36 | 00:00:00 | |
| EDDB2-12 | 2026-08-30 11:48:49 | 52.37159 | 14.97610 | 90° | 7km/h | 18723m | 5.5m/s | -53.9°C | 1.4% | 71.4hPa | 2.7V | 00:00:00 | 00:00:00 | 00:00:00 | |
| DC4HF-4 | 2026-08-30 11:48:48 | 52.37159 | 14.97603 | 87° | 7km/h | 18714m | 4.8m/s | -53.8°C | 1.4% | 71.5hPa | 2.7V | 00:00:00 | 00:00:00 | 00:00:00 | |
| S3001 | 2026-08-30 11:48:45 | 52.37158 | 14.97594 | 83° | 13km/h | 18703m | 4.5m/s | -53.7°C | 1.4% | 71.6hPa | 2.7V | 00:00:00 | 00:00:00 | 00:00:00 | |
| SP6BVK | 2026-08-30 11:48:44 | 52.37158 | 14.97594 | 84° | 15km/h | 18704m | 4.5m/s | -53.7°C | 1.4% | 71.6hPa | 2.7V | 00:00:00 | 00:00:00 | 00:00:00 | |
| DL1XH1-15 | 2026-08-30 11:48:42 | 52.37151 | 14.97554 | 78° | 27km/h | 18678m | 4.5m/s | -53.5°C | 4.3% | 71.9hPa | 2.7V | 08:30:00 | 01:37:26 | 00:00:00 | |
| DF8AY | 2026-08-30 11:48:42 | 52.37151 | 14.97554 | 79° | 27km/h | 18678m | 4.5m/s | -53.5°C | 1% | 71.9hPa | 2.7V | 18:12:15 | 01:37:26 | 00:00:00 | |
| AA1-15 | 2026-08-30 11:48:41 | 52.37153 | 14.97564 | 75° | 26km/h | 18683m | 6.1m/s | -53.6°C | 1% | 71.8hPa | 2.6V | 18:12:15 | 01:37:27 | 00:00:00 | |
| DB0DAN | 2026-08-30 11:48:40 | 52.37151 | 14.97554 | 79° | 26km/h | 18678m | 4.5m/s | -53.5°C | 1.4% | 71.94hPa | 2.7V | 00:00:00 | 00:00:00 | 00:00:00 | |
| DL1XH-west | 2026-08-30 11:48:39 | 52.37150 | 14.97543 | 78° | 26km/h | 18674m | 3.7m/s | -53.6°C | 1.1% | 72hPa | 2.7V | 18:12:15 | 01:37:25 | 00:00:00 | |
| SQ2ODE-11 | 2026-08-30 11:48:37 | 52.37148 | 14.97533 | 75° | 24km/h | 18669m | 5.7m/s | -53.6°C | 1.4% | 72.0hPa | 2.6V | 00:00:00 | 00:00:00 | 00:00:00 | |
| DJ2DS-15 | 2026-08-30 11:48:36 | 52.37143 | 14.97510 | 75° | 16km/h | 18654m | 5.6m/s | -53.7°C | 1.4% | 72.2hPa | 2.6V | 00:00:00 | 00:00:00 | 00:00:00 | |
| 13BRC | 2026-08-30 11:48:33 | 52.37142 | 14.97503 | 83° | 16km/h | 18649m | 5.1m/s | -53.7°C | 1.4% | 72.3hPa | 2.6V | 00:00:00 | 00:00:00 | 00:00:00 | |
| DL1XH1-15 | 2026-08-30 11:48:32 | 52.37140 | 14.97478 | 69° | 16km/h | 18630m | 4.2m/s | -53.6°C | 4.2% | 72.5hPa | 2.6V | 08:30:00 | 01:37:16 | 00:00:00 | |
| DF8AY | 2026-08-30 11:48:31 | 52.37125 | 14.97415 | 67° | 35km/h | 18598m | 5.2m/s | -53.7°C | 0.9% | 72.8hPa | 2.6V | 18:12:15 | 01:37:10 | 00:00:00 | |
| AA1-15 | 2026-08-30 11:48:31 | 52.37140 | 14.97478 | 70° | 16km/h | 18630m | 4.2m/s | -53.6°C | 0.9% | 72.5hPa | 2.6V | 18:12:15 | 01:37:16 | 00:00:00 | |
| DL1XH-west | 2026-08-30 11:48:29 | 52.37138 | 14.97471 | 71° | 20km/h | 18625m | 5.7m/s | -53.7°C | 1% | 72.5hPa | 2.6V | 18:12:15 | 01:37:15 | 00:00:00 | |
| SQ2ODE-11 | 2026-08-30 11:48:27 | 52.37136 | 14.97462 | 75° | 26km/h | 18620m | 5.3m/s | -53.6°C | 1.4% | 72.6hPa | 2.6V | 00:00:00 | 00:00:00 | 00:00:00 | |
| DB0DAN | 2026-08-30 11:48:25 | 52.37128 | 14.97428 | 65° | 33km/h | 18603m | 4.6m/s | -53.6°C | 1.4% | 72.78hPa | 2.6V | 00:00:00 | 00:00:00 | 00:00:00 | |
| SP6BVK | 2026-08-30 11:48:23 | 52.37125 | 14.97415 | 68° | 35km/h | 18599m | 5.2m/s | -53.7°C | 1.4% | 72.8hPa | 2.7V | 00:00:00 | 00:00:00 | 00:00:00 | |
| DL1XH1-15 | 2026-08-30 11:48:22 | 52.37113 | 14.97366 | 62° | 27km/h | 18578m | 5.4m/s | -53.8°C | 4.3% | 73.1hPa | 2.7V | 08:30:00 | 01:37:06 | 00:00:00 | |
| AA1-15 | 2026-08-30 11:48:19 | 52.37110 | 14.97357 | 58° | 24km/h | 18573m | 3.9m/s | -53.9°C | 1% | 73.1hPa | 2.6V | 18:12:15 | 01:37:05 | 00:00:00 | |
| DL1XH-west | 2026-08-30 11:48:18 | 52.37107 | 14.97349 | 59° | 22km/h | 18569m | 5.5m/s | -54°C | 1% | 73.2hPa | 2.6V | 18:12:15 | 01:37:04 | 00:00:00 | |
| AA1-15 | 2026-08-30 11:48:09 | 52.37083 | 14.97264 | 62° | 31km/h | 18524m | 5.5m/s | -54.4°C | 1.1% | 73.7hPa | 2.7V | 18:12:15 | 01:36:55 | 00:00:00 | |
| DL1XH-west | 2026-08-30 11:48:09 | 52.37079 | 14.97254 | 52° | 31km/h | 18519m | 4.8m/s | -54.4°C | 1.2% | 73.8hPa | 2.7V | 18:12:15 | 01:36:54 | 00:00:00 | |
| SONDE2-12 | 2026-08-30 11:48:08 | 52.37079 | 14.97254 | 51° | 29km/h | 18519m | 4.8m/s | -54.4°C | 1.6% | 73.8hPa | 2.6V | 00:00:00 | 00:00:00 | 00:00:00 | |
| DF8AY | 2026-08-30 11:48:07 | 52.37074 | 14.97245 | 45° | 27km/h | 18514m | 4.6m/s | -54.4°C | 1.2% | 73.8hPa | 2.6V | 18:12:15 | 01:36:53 | 00:00:00 | |
| AA1-15 | 2026-08-30 11:47:58 | 52.37026 | 14.97183 | 47° | 29km/h | 18473m | 4.6m/s | -54.1°C | 1.1% | 74.2hPa | 2.7V | 18:12:15 | 01:36:44 | 00:00:00 | |
| DL1XH-west | 2026-08-30 11:47:58 | 52.37021 | 14.97173 | 50° | 33km/h | 18468m | 4.5m/s | -54.2°C | 1.1% | 74.3hPa | 2.7V | 18:12:15 | 01:36:43 | 00:00:00 | |
| KRY50SP-1 | 2026-08-30 11:47:57 | 52.37027 | 14.97183 | 48° | 29km/h | 18473m | 4.6m/s | -54.1°C | 1.5% | 74.3hPa | 2.6V | 00:00:00 | 00:00:00 | 00:00:00 | |
| DL1XH1-15 | 2026-08-30 11:47:56 | 52.37010 | 14.97152 | 47° | 37km/h | 18459m | 4.8m/s | -54.1°C | 4.4% | 74.4hPa | 2.6V | 08:30:00 | 01:36:41 | 00:00:00 | |
| DF8AY | 2026-08-30 11:47:55 | 52.37010 | 14.97152 | 47° | 37km/h | 18459m | 4.9m/s | -54.1°C | 1.1% | 74.4hPa | 2.6V | 18:12:15 | 01:36:41 | 00:00:00 | |
| SQ2ODE-11 | 2026-08-30 11:47:54 | 52.37010 | 14.97152 | 48° | 37km/h | 18459m | 4.9m/s | -54.1°C | 1.4% | 74.4hPa | 2.7V | 00:00:00 | 00:00:00 | 00:00:00 | |
| KRY50SP-1 | 2026-08-30 11:47:52 | 52.36998 | 14.97132 | 45° | 29km/h | 18450m | 4.7m/s | -54.0°C | 1.4% | 74.5hPa | 2.7V | 00:00:00 | 00:00:00 | 00:00:00 | |
| DL2RXE-15 | 2026-08-30 11:47:51 | 52.36993 | 14.97124 | 43° | 27km/h | 18445m | 5.0m/s | -54.0°C | 1.5% | 74.6hPa | 2.7V | 00:00:00 | 00:00:00 | 00:00:00 | |
| DL1XH1-15 | 2026-08-30 11:47:50 | 52.36957 | 14.97085 | 35° | 24km/h | 18409m | 3.7m/s | -53.9°C | 4.4% | 75hPa | 2.7V | 08:30:00 | 01:36:31 | 00:00:00 | |
| AA1-15 | 2026-08-30 11:47:48 | 52.36972 | 14.97101 | 27° | 26km/h | 18424m | 4.5m/s | -54.1°C | 1.1% | 74.9hPa | 2.6V | 18:12:15 | 01:36:34 | 00:00:00 | |
| DL1XH-west | 2026-08-30 11:47:47 | 52.36966 | 14.97096 | 30° | 24km/h | 18419m | 5.8m/s | -54°C | 1.1% | 74.9hPa | 2.6V | 18:12:15 | 01:36:33 | 00:00:00 | |
| EDDB2-12 | 2026-08-30 11:47:47 | 52.36966 | 14.97096 | 30° | 22km/h | 18419m | 5.8m/s | -54.0°C | 1.5% | 74.9hPa | 2.7V | 00:00:00 | 00:00:00 | 00:00:00 | |
| DF8AY | 2026-08-30 11:47:44 | 52.36952 | 14.97080 | 34° | 26km/h | 18404m | 5.5m/s | -53.9°C | 1% | 75hPa | 2.7V | 18:12:15 | 01:36:30 | 00:00:00 | |
| SQ2ODE-11 | 2026-08-30 11:47:43 | 52.36946 | 14.97074 | 36° | 26km/h | 18400m | 4.7m/s | -53.9°C | 1.5% | 75.1hPa | 2.7V | 00:00:00 | 00:00:00 | 00:00:00 | |
| DB0DAN | 2026-08-30 11:47:40 | 52.36932 | 14.97055 | 41° | 24km/h | 18385m | 3.5m/s | -53.7°C | 1.4% | 75.3hPa | 2.7V | 00:00:00 | 00:00:00 | 00:00:00 | |
| SONDE2-12 | 2026-08-30 11:47:37 | 52.36916 | 14.97033 | 42° | 29km/h | 18371m | 4.0m/s | -53.7°C | 1.5% | 75.5hPa | 2.6V | 00:00:00 | 00:00:00 | 00:00:00 | |
| DL1XH-west | 2026-08-30 11:47:37 | 52.36916 | 14.97033 | 42° | 29km/h | 18370m | 4m/s | -53.7°C | 1% | 75.5hPa | 2.6V | 18:12:15 | 01:36:23 | 00:00:00 | |
| DL1XH1-15 | 2026-08-30 11:47:36 | 52.36907 | 14.97016 | 51° | 27km/h | 18361m | 5.2m/s | -53.6°C | 4.4% | 75.6hPa | 2.6V | 08:30:00 | 01:36:21 | 00:00:00 | |
| DF8AY | 2026-08-30 11:47:34 | 52.36903 | 14.97007 | 57° | 26km/h | 18356m | 3.7m/s | -53.6°C | 1.1% | 75.6hPa | 2.7V | 18:12:15 | 01:36:20 | 00:00:00 | |
| 13BRC | 2026-08-30 11:47:31 | 52.36895 | 14.96990 | 52° | 26km/h | 18347m | 5.0m/s | -53.5°C | 1.5% | 75.8hPa | 2.6V | 00:00:00 | 00:00:00 | 00:00:00 | |
| DL1XH1-15 | 2026-08-30 11:47:30 | 52.36864 | 14.96942 | 36° | 31km/h | 18314m | 4m/s | -53.4°C | 4.2% | 76.1hPa | 2.6V | 08:30:00 | 01:36:11 | 00:00:00 | |
| AA1-15 | 2026-08-30 11:47:26 | 52.36871 | 14.96949 | 36° | 29km/h | 18318m | 4.5m/s | -53.4°C | 1% | 76.1hPa | 2.7V | 18:12:15 | 01:36:12 | 00:00:00 | |
| DB0DAN | 2026-08-30 11:47:25 | 52.36865 | 14.96942 | 37° | 29km/h | 18314m | 4m/s | -53.4°C | 1.4% | 76.13hPa | 2.6V | 00:00:00 | 00:00:00 | 00:00:00 | |
| DF8AY | 2026-08-30 11:47:23 | 52.36853 | 14.96925 | 47° | 29km/h | 18304m | 5.1m/s | -53.4°C | 1% | 76.3hPa | 2.6V | 18:12:15 | 01:36:09 | 00:00:00 | |
| SP6BVK | 2026-08-30 11:47:20 | 52.36844 | 14.96907 | 54° | 27km/h | 18294m | 4.9m/s | -53.3°C | 1.4% | 76.4hPa | 2.7V | 00:00:00 | 00:00:00 | 00:00:00 | |
| SQ2ODE-11 | 2026-08-30 11:47:19 | 52.36840 | 14.96899 | 52° | 26km/h | 18289m | 5.3m/s | -53.3°C | 1.4% | 76.4hPa | 2.7V | 00:00:00 | 00:00:00 | 00:00:00 | |
| SP3WXH-11 | 2026-08-30 11:47:18 | 52.36833 | 14.96884 | 57° | 20km/h | 18280m | 5.6m/s | -53.3°C | 1.4% | 76.5hPa | 2.7V | 00:00:00 | 00:00:00 | 00:00:00 | |
| DL1XH1-15 | 2026-08-30 11:47:16 | 52.36825 | 14.96865 | 45° | 20km/h | 18265m | 5.5m/s | -53.2°C | 4.2% | 76.7hPa | 2.7V | 08:30:00 | 01:36:01 | 00:00:00 | |
| DL1XH-west | 2026-08-30 11:47:15 | 52.36825 | 14.96865 | 46° | 20km/h | 18265m | 5.5m/s | -53.2°C | 1% | 76.7hPa | 2.7V | 18:12:15 | 01:36:01 | 00:00:00 | |
| DF8AY | 2026-08-30 11:47:13 | 52.36816 | 14.96853 | 39° | 26km/h | 18256m | 4.6m/s | -53.3°C | 0.9% | 76.9hPa | 2.6V | 18:12:15 | 01:35:59 | 00:00:00 | |
| S3001 | 2026-08-30 11:47:12 | 52.36806 | 14.96837 | 47° | 29km/h | 18246m | 4.8m/s | -53.3°C | 1.4% | 77.0hPa | 2.6V | 00:00:00 | 00:00:00 | 00:00:00 | |
| DL1XH1-15 | 2026-08-30 11:47:10 | 52.36777 | 14.96782 | 60° | 26km/h | 18218m | 3.8m/s | -53.5°C | 4.2% | 77.3hPa | 2.6V | 08:30:00 | 01:35:51 | 00:00:00 | |
| DB0DAN | 2026-08-30 11:47:10 | 52.36801 | 14.96828 | 47° | 29km/h | 18241m | 4.3m/s | -53.3°C | 1.4% | 77.03hPa | 2.7V | 00:00:00 | 00:00:00 | 00:00:00 | |
| EDDB2-11 | 2026-08-30 11:47:09 | 52.36795 | 14.96819 | 44° | 31km/h | 18236m | 5.7m/s | -53.2°C | 1.4% | 77.1hPa | 2.7V | 00:00:00 | 00:00:00 | 00:00:00 | |
| DM0DOS-11 | 2026-08-30 11:47:08 | 52.36770 | 14.96765 | 54° | 24km/h | 18208m | 5.4m/s | 0°C | 0% | 0hPa | 2.7V | 08:30:00 | 01:35:49 | 00:00:00 | |
| SONDE2-12 | 2026-08-30 11:47:06 | 52.36780 | 14.96791 | 55° | 27km/h | 18222m | 5.4m/s | -53.5°C | 1.5% | 77.2hPa | 2.6V | 00:00:00 | 00:00:00 | 00:00:00 | |
| DL1XH-west | 2026-08-30 11:47:05 | 52.36777 | 14.96782 | 60° | 26km/h | 18218m | 3.8m/s | -53.5°C | 1% | 77.3hPa | 2.6V | 18:12:15 | 01:35:51 | 00:00:00 | |
| AA1-15 | 2026-08-30 11:47:05 | 52.36774 | 14.96773 | 60° | 24km/h | 18213m | 4.7m/s | -53.6°C | 1% | 77.3hPa | 2.7V | 18:12:15 | 01:35:50 | 00:00:00 | |
| DF8AY | 2026-08-30 11:47:02 | 52.36767 | 14.96757 | 52° | 24km/h | 18204m | 4.4m/s | -53.6°C | 1.1% | 77.5hPa | 2.7V | 18:12:15 | 01:35:48 | 00:00:00 | |
| KRY50SP-1 | 2026-08-30 11:47:01 | 52.36767 | 14.96757 | 53° | 24km/h | 18204m | 4.4m/s | -53.6°C | 1.4% | 77.5hPa | 2.6V | 00:00:00 | 00:00:00 | 00:00:00 | |
| SP6BVK | 2026-08-30 11:47:00 | 52.36763 | 14.96749 | 54° | 26km/h | 18200m | 4.0m/s | -53.5°C | 1.4% | 77.5hPa | 2.6V | 00:00:00 | 00:00:00 | 00:00:00 | |
| DL1XH1-15 | 2026-08-30 11:46:59 | 52.36731 | 14.96680 | 55° | 33km/h | 18165m | 4.3m/s | -53.9°C | 4.2% | 77.9hPa | 2.6V | 08:30:00 | 01:35:40 | 00:00:00 | |
| DM0DOS-11 | 2026-08-30 11:46:58 | 52.36726 | 14.96668 | 53° | 35km/h | 18161m | 3.8m/s | 0°C | 0% | 0hPa | 2.6V | 08:30:00 | 01:35:39 | 00:00:00 | |
| DL1XH-west | 2026-08-30 11:46:55 | 52.36736 | 14.96691 | 53° | 33km/h | 18170m | 5.9m/s | -53.8°C | 1% | 77.9hPa | 2.6V | 18:12:15 | 01:35:41 | 00:00:00 | |
| DB0DAN | 2026-08-30 11:46:55 | 52.36736 | 14.96691 | 53° | 31km/h | 18170m | 5.9m/s | -53.8°C | 1.4% | 77.86hPa | 2.6V | 00:00:00 | 00:00:00 | 00:00:00 | |
| AA1-15 | 2026-08-30 11:46:55 | 52.36731 | 14.96680 | 55° | 33km/h | 18165m | 4.3m/s | -53.9°C | 0.9% | 77.9hPa | 2.6V | 18:12:15 | 01:35:40 | 00:00:00 | |
| DF8AY | 2026-08-30 11:46:51 | 52.36716 | 14.96647 | 46° | 33km/h | 18151m | 5m/s | -53.9°C | 1% | 78.1hPa | 2.7V | 18:12:15 | 01:35:37 | 00:00:00 | |
| KRY50SP-1 | 2026-08-30 11:46:50 | 52.36716 | 14.96647 | 47° | 33km/h | 18151m | 5.0m/s | -53.9°C | 1.4% | 78.1hPa | 2.6V | 00:00:00 | 00:00:00 | 00:00:00 | |
| 13BRC | 2026-08-30 11:46:49 | 52.36710 | 14.96638 | 45° | 33km/h | 18146m | 4.9m/s | -54.0°C | 1.4% | 78.2hPa | 2.6V | 00:00:00 | 00:00:00 | 00:00:00 | |
| DL1XH1-15 | 2026-08-30 11:46:48 | 52.36668 | 14.96577 | 43° | 35km/h | 18112m | 4.8m/s | -54.6°C | 4.4% | 78.6hPa | 2.6V | 08:30:00 | 01:35:29 | 00:00:00 | |
| SP3WXH-11 | 2026-08-30 11:46:47 | 52.36692 | 14.96610 | 41° | 29km/h | 18131m | 5.1m/s | -54.4°C | 1.5% | 78.3hPa | 2.7V | 00:00:00 | 00:00:00 | 00:00:00 | |
| DL1XH-west | 2026-08-30 11:46:44 | 52.36675 | 14.96586 | 42° | 31km/h | 18117m | 5.4m/s | -54.6°C | 1.1% | 78.5hPa | 2.7V | 18:12:15 | 01:35:30 | 00:00:00 | |
| AA1-15 | 2026-08-30 11:46:43 | 52.36668 | 14.96577 | 44° | 35km/h | 18112m | 4.8m/s | -54.6°C | 1.1% | 78.6hPa | 2.6V | 18:12:15 | 01:35:29 | 00:00:00 | |
| DF8AY | 2026-08-30 11:46:40 | 52.36648 | 14.96546 | 40° | 37km/h | 18098m | 4.9m/s | -54.8°C | 1.1% | 78.8hPa | 2.8V | 18:12:15 | 01:35:26 | 00:00:00 | |
| DB0DAN | 2026-08-30 11:46:40 | 52.36648 | 14.96546 | 40° | 35km/h | 18098m | 4.9m/s | -54.8°C | 1.5% | 78.76hPa | 2.8V | 00:00:00 | 00:00:00 | 00:00:00 | |
| KRY50SP-1 | 2026-08-30 11:46:40 | 52.36648 | 14.96546 | 41° | 37km/h | 18098m | 4.9m/s | -54.8°C | 1.5% | 78.8hPa | 2.7V | 00:00:00 | 00:00:00 | 00:00:00 | |
| EDDB2-11 | 2026-08-30 11:46:38 | 52.36634 | 14.96526 | 42° | 37km/h | 18089m | 4.6m/s | -54.9°C | 1.5% | 78.9hPa | 2.7V | 00:00:00 | 00:00:00 | 00:00:00 | |
| SQ2ODE-11 | 2026-08-30 11:46:37 | 52.36634 | 14.96526 | 43° | 38km/h | 18090m | 4.6m/s | -54.9°C | 1.5% | 78.9hPa | 2.7V | 00:00:00 | 00:00:00 | 00:00:00 | |
| DL1XH1-15 | 2026-08-30 11:46:34 | 52.36597 | 14.96470 | 36° | 42km/h | 18065m | 4m/s | -55°C | 4.7% | 79.2hPa | 2.7V | 08:30:00 | 01:35:19 | 00:00:00 | |
| DL1XH-west | 2026-08-30 11:46:34 | 52.36605 | 14.96480 | 40° | 40km/h | 18069m | 5.1m/s | -55.1°C | 1.3% | 79.1hPa | 2.8V | 18:12:15 | 01:35:20 | 00:00:00 | |
| AA1-15 | 2026-08-30 11:46:32 | 52.36588 | 14.96459 | 37° | 44km/h | 18060m | 5.8m/s | -54.9°C | 1.2% | 79.2hPa | 2.7V | 18:12:15 | 01:35:18 | 00:00:00 | |
| DF8AY | 2026-08-30 11:46:29 | 52.36561 | 14.96429 | 29° | 42km/h | 18045m | 5.8m/s | -54.9°C | 1.2% | 79.4hPa | 2.6V | 18:12:15 | 01:35:15 | 00:00:00 | |
| KRY50SP-1 | 2026-08-30 11:46:28 | 52.36561 | 14.96429 | 30° | 42km/h | 18045m | 5.8m/s | -54.9°C | 1.5% | 79.4hPa | 2.6V | 00:00:00 | 00:00:00 | 00:00:00 | |
| DB0DAN | 2026-08-30 11:46:25 | 52.36525 | 14.96399 | 30° | 37km/h | 18026m | 4.3m/s | -54.9°C | 1.6% | 79.66hPa | 2.6V | 00:00:00 | 00:00:00 | 00:00:00 | |
| DL1XH-west | 2026-08-30 11:46:23 | 52.36509 | 14.96384 | 29° | 35km/h | 18016m | 5.1m/s | -54.9°C | 1.2% | 79.7hPa | 2.6V | 18:12:15 | 01:35:09 | 00:00:00 | |
| AA1-15 | 2026-08-30 11:46:22 | 52.36502 | 14.96377 | 31° | 33km/h | 18011m | 3.8m/s | -55°C | 1.2% | 79.8hPa | 2.7V | 18:12:15 | 01:35:08 | 00:00:00 | |
| SONDE2-12 | 2026-08-30 11:46:22 | 52.36502 | 14.96377 | 30° | 33km/h | 18012m | 3.8m/s | -55.0°C | 1.6% | 79.8hPa | 2.6V | 00:00:00 | 00:00:00 | 00:00:00 | |
| DF8AY | 2026-08-30 11:46:19 | 52.36480 | 14.96354 | 31° | 35km/h | 17997m | 4.6m/s | -54.9°C | 1.2% | 80hPa | 2.6V | 18:12:15 | 01:35:05 | 00:00:00 | |
| KRY50SP-1 | 2026-08-30 11:46:18 | 52.36480 | 14.96353 | 32° | 35km/h | 17997m | 4.6m/s | -54.9°C | 1.5% | 80.0hPa | 2.6V | 00:00:00 | 00:00:00 | 00:00:00 | |
| SP3WXH-11 | 2026-08-30 11:46:16 | 52.36454 | 14.96333 | 24° | 38km/h | 17981m | 5.9m/s | -54.8°C | 1.5% | 80.2hPa | 2.6V | 00:00:00 | 00:00:00 | 00:00:00 | |
| DL1XH1-15 | 2026-08-30 11:46:14 | 52.36428 | 14.96317 | 16° | 33km/h | 17967m | 5.7m/s | -54.6°C | 4.7% | 80.4hPa | 2.6V | 08:30:00 | 01:34:59 | 00:00:00 | |
| DL1XH-west | 2026-08-30 11:46:13 | 52.36428 | 14.96317 | 16° | 35km/h | 17967m | 5.7m/s | -54.6°C | 1.2% | 80.4hPa | 2.6V | 18:12:15 | 01:34:59 | 00:00:00 | |
| AA1-15 | 2026-08-30 11:46:11 | 52.36413 | 14.96310 | 19° | 29km/h | 17957m | 6m/s | -54.6°C | 1.2% | 80.5hPa | 2.6V | 18:12:15 | 01:34:57 | 00:00:00 | |
| S3001 | 2026-08-30 11:46:10 | 52.36406 | 14.96305 | 22° | 27km/h | 17951m | 5.1m/s | -54.6°C | 1.5% | 80.6hPa | 2.7V | 00:00:00 | 00:00:00 | 00:00:00 | |
| DL1XH1-15 | 2026-08-30 11:46:09 | 52.36346 | 14.96270 | 9° | 37km/h | 17913m | 4.2m/s | -54.5°C | 4.5% | 81.1hPa | 2.7V | 08:30:00 | 01:34:48 | 00:00:00 | |
| DF8AY | 2026-08-30 11:46:09 | 52.36394 | 14.96297 | 22° | 27km/h | 17941m | 5.3m/s | -54.5°C | 1.2% | 80.7hPa | 2.7V | 18:12:15 | 01:34:54 | 00:00:00 | |
| DL1XH-west | 2026-08-30 11:46:03 | 52.36346 | 14.96270 | 9° | 37km/h | 17913m | 4.2m/s | -54.5°C | 1.1% | 81.1hPa | 2.7V | 18:12:15 | 01:34:48 | 00:00:00 | |
| AA1-15 | 2026-08-30 11:46:00 | 52.36328 | 14.96265 | 11° | 37km/h | 17903m | 5.5m/s | -54.4°C | 1.2% | 81.2hPa | 2.6V | 18:12:15 | 01:34:46 | 00:00:00 | |
| DF8AY | 2026-08-30 11:45:57 | 52.36302 | 14.96258 | 7° | 31km/h | 17889m | 5.1m/s | -54.2°C | 1.2% | 81.4hPa | 2.6V | 18:12:15 | 01:34:43 | 00:00:00 | |
| SONDE2-12 | 2026-08-30 11:45:51 | 52.36264 | 14.96237 | 18° | 27km/h | 17860m | 4.1m/s | -54.2°C | 1.7% | 81.8hPa | 2.7V | 00:00:00 | 00:00:00 | 00:00:00 | |
| DL1XH-west | 2026-08-30 11:45:50 | 52.36257 | 14.96233 | 18° | 29km/h | 17856m | 4.1m/s | -54.2°C | 1.2% | 81.8hPa | 2.7V | 18:12:15 | 01:34:36 | 00:00:00 | |
| AA1-15 | 2026-08-30 11:45:49 | 52.36250 | 14.96229 | 19° | 31km/h | 17851m | 5.5m/s | -54.2°C | 1.2% | 81.8hPa | 2.6V | 18:12:15 | 01:34:35 | 00:00:00 | |
| DF8AY | 2026-08-30 11:45:45 | 52.36216 | 14.96220 | 355° | 35km/h | 17831m | 4.4m/s | -54.1°C | 1.1% | 82.1hPa | 2.7V | 18:12:15 | 01:34:31 | 00:00:00 | |
| DL1XH-west | 2026-08-30 11:45:40 | 52.36175 | 14.96218 | 17° | 27km/h | 17808m | 4.8m/s | -53.8°C | 1.1% | 82.4hPa | 2.7V | 18:12:15 | 01:34:26 | 00:00:00 | |
| AA1-15 | 2026-08-30 11:45:39 | 52.36169 | 14.96215 | 18° | 24km/h | 17802m | 6m/s | -53.7°C | 1.1% | 82.5hPa | 2.7V | 18:12:15 | 01:34:25 | 00:00:00 | |
| DF8AY | 2026-08-30 11:45:34 | 52.36149 | 14.96199 | 36° | 18km/h | 17775m | 4.7m/s | -53.5°C | 1.1% | 82.8hPa | 2.7V | 18:12:15 | 01:34:20 | 00:00:00 | |
| DL1XH-west | 2026-08-30 11:45:29 | 52.36127 | 14.96189 | 9° | 22km/h | 17750m | 5.4m/s | -53.3°C | 1.1% | 83.2hPa | 2.8V | 18:12:15 | 01:34:15 | 00:00:00 | |
| AA1-15 | 2026-08-30 11:45:28 | 52.36122 | 14.96187 | 10° | 22km/h | 17745m | 4.1m/s | -53.1°C | 1% | 83.2hPa | 2.7V | 18:12:15 | 01:34:14 | 00:00:00 | |
| DB0DAN | 2026-08-30 11:45:25 | 52.36106 | 14.96185 | 1° | 20km/h | 17731m | 4.6m/s | -53.1°C | 1.5% | 83.39hPa | 2.6V | 00:00:00 | 00:00:00 | 00:00:00 | |
| DF8AY | 2026-08-30 11:45:24 | 52.36100 | 14.96184 | 4° | 22km/h | 17726m | 5.6m/s | -53.2°C | 1.1% | 83.5hPa | 2.6V | 18:12:15 | 01:34:10 | 00:00:00 | |
| DL1XH1-15 | 2026-08-30 11:45:22 | 52.36074 | 14.96180 | 7° | 18km/h | 17702m | 5m/s | -52.9°C | 4.3% | 83.8hPa | 2.6V | 08:30:00 | 01:34:05 | 00:00:00 | |
| SONDE2-12 | 2026-08-30 11:45:20 | 52.36078 | 14.96181 | 4° | 18km/h | 17707m | 4.8m/s | -53.0°C | 1.6% | 83.7hPa | 2.6V | 00:00:00 | 00:00:00 | 00:00:00 | |
| DL1XH-west | 2026-08-30 11:45:18 | 52.36069 | 14.96178 | 13° | 20km/h | 17697m | 5.3m/s | -52.9°C | 1% | 83.8hPa | 2.6V | 18:12:15 | 01:34:04 | 00:00:00 | |
| AA1-15 | 2026-08-30 11:45:17 | 52.36064 | 14.96176 | 15° | 18km/h | 17692m | 3.5m/s | -52.9°C | 1.1% | 83.9hPa | 2.7V | 18:12:15 | 01:34:03 | 00:00:00 | |
| DF8AY | 2026-08-30 11:45:14 | 52.36051 | 14.96172 | 7° | 18km/h | 17678m | 4.4m/s | -52.8°C | 1% | 84.1hPa | 2.6V | 18:12:15 | 01:34:00 | 00:00:00 | |
| SONCRA | 2026-08-30 11:45:14 | 52.36047 | 14.96171 | 7° | 18km/h | 17673m | 5.9m/s | -52.7°C | 1.4% | 84.2hPa | 2.7V | 00:00:00 | 00:00:00 | 00:00:00 | |
| DL1XH1-15 | 2026-08-30 11:45:12 | 52.36027 | 14.96170 | 355° | 16km/h | 17652m | 3.8m/s | -52.3°C | 4.2% | 84.4hPa | 2.7V | 08:30:00 | 01:33:55 | 00:00:00 | |
| DB0DAN | 2026-08-30 11:45:10 | 52.36032 | 14.96170 | 358° | 16km/h | 17657m | 5.7m/s | -52.5°C | 1.4% | 84.34hPa | 2.7V | 00:00:00 | 00:00:00 | 00:00:00 | |
| DL1XH-west | 2026-08-30 11:45:08 | 52.36023 | 14.96170 | 358° | 18km/h | 17648m | 5m/s | -52.3°C | 0.9% | 84.5hPa | 2.6V | 18:12:15 | 01:33:54 | 00:00:00 | |
| AA1-15 | 2026-08-30 11:45:06 | 52.36013 | 14.96170 | 358° | 20km/h | 17638m | 4.3m/s | -52.3°C | 0.9% | 84.6hPa | 2.6V | 18:12:15 | 01:33:52 | 00:00:00 | |
| DF8AY | 2026-08-30 11:45:04 | 52.36000 | 14.96172 | 360° | 18km/h | 17623m | 4.5m/s | -52.2°C | 0.9% | 84.8hPa | 2.7V | 18:12:15 | 01:33:49 | 00:00:00 | |
| DL1XH1-15 | 2026-08-30 11:45:02 | 52.35983 | 14.96166 | 20° | 13km/h | 17603m | 5.9m/s | -52.1°C | 4% | 85.1hPa | 2.8V | 08:30:00 | 01:33:45 | 00:00:00 | |
| DL1XH-west | 2026-08-30 11:44:57 | 52.35978 | 14.96162 | 25° | 11km/h | 17592m | 5.8m/s | -52.1°C | 1% | 85.2hPa | 2.7V | 18:12:15 | 01:33:43 | 00:00:00 | |
| AA1-15 | 2026-08-30 11:44:56 | 52.35975 | 14.96160 | 27° | 13km/h | 17587m | 4.9m/s | -52.1°C | 1% | 85.3hPa | 2.6V | 18:12:15 | 01:33:42 | 00:00:00 | |
| DB0DAN | 2026-08-30 11:44:55 | 52.35972 | 14.96158 | 18° | 11km/h | 17583m | 3.4m/s | -52.1°C | 1.4% | 85.37hPa | 2.6V | 00:00:00 | 00:00:00 | 00:00:00 | |
| DF8AY | 2026-08-30 11:44:51 | 52.35960 | 14.96161 | 344° | 15km/h | 17562m | 6.1m/s | -52.3°C | 1% | 85.6hPa | 2.6V | 18:12:15 | 01:33:37 | 00:00:00 | |
| DL1XH-west | 2026-08-30 11:44:46 | 52.35939 | 14.96166 | 354° | 16km/h | 17536m | 4.5m/s | -52.1°C | 0.9% | 86hPa | 2.8V | 18:12:15 | 01:33:32 | 00:00:00 | |
| AA1-15 | 2026-08-30 11:44:45 | 52.35934 | 14.96166 | 1° | 16km/h | 17531m | 6.1m/s | -52°C | 0.9% | 86hPa | 2.7V | 18:12:15 | 01:33:31 | 00:00:00 | |
| DF8AY | 2026-08-30 11:44:40 | 52.35917 | 14.96164 | 11° | 11km/h | 17504m | 6.5m/s | -51.8°C | 0.8% | 86.4hPa | 2.8V | 18:12:15 | 01:33:26 | 00:00:00 | |
| DB0DAN | 2026-08-30 11:44:40 | 52.35917 | 14.96164 | 11° | 9km/h | 17504m | 6.5m/s | -51.8°C | 1.3% | 86.41hPa | 2.8V | 00:00:00 | 00:00:00 | 00:00:00 | |
| DL1XH-west | 2026-08-30 11:44:35 | 52.35906 | 14.96157 | 19° | 9km/h | 17479m | 4m/s | -51.6°C | 0.8% | 86.7hPa | 2.6V | 18:12:15 | 01:33:21 | 00:00:00 | |
| AA1-15 | 2026-08-30 11:44:34 | 52.35904 | 14.96155 | 29° | 11km/h | 17474m | 6.3m/s | -51.7°C | 0.8% | 86.8hPa | 2.8V | 18:12:15 | 01:33:20 | 00:00:00 | |
| DF8AY | 2026-08-30 11:44:30 | 52.35892 | 14.96145 | 15° | 13km/h | 17453m | 4.7m/s | -51.5°C | 0.8% | 87.1hPa | 2.6V | 18:12:15 | 01:33:16 | 00:00:00 | |
| KRY50SP-1 | 2026-08-30 11:44:27 | 52.35886 | 14.96142 | 21° | 11km/h | 17445m | 5.7m/s | -51.6°C | 1.3% | 87.2hPa | 2.6V | 00:00:00 | 00:00:00 | 00:00:00 | |
| DB0DAN | 2026-08-30 11:44:25 | 52.35878 | 14.96135 | 28° | 13km/h | 17429m | 5.9m/s | -51.8°C | 1.4% | 87.39hPa | 2.6V | 00:00:00 | 00:00:00 | 00:00:00 | |
| DL1XH-west | 2026-08-30 11:44:24 | 52.35875 | 14.96133 | 24° | 13km/h | 17423m | 5.2m/s | -51.8°C | 0.9% | 87.5hPa | 2.6V | 18:12:15 | 01:33:10 | 00:00:00 | |
| SQ2ODE-11 | 2026-08-30 11:44:23 | 52.35875 | 14.96132 | 25° | 13km/h | 17424m | 5.2m/s | -51.7°C | 1.4% | 87.5hPa | 2.6V | 00:00:00 | 00:00:00 | 00:00:00 | |
| DL1XH1-15 | 2026-08-30 11:44:22 | 52.35863 | 14.96112 | 53° | 15km/h | 17398m | 6m/s | -51.9°C | 4% | 87.8hPa | 2.6V | 08:30:00 | 01:33:05 | 00:00:00 | |
| DF8AY | 2026-08-30 11:44:20 | 52.35863 | 14.96112 | 54° | 15km/h | 17398m | 6m/s | -51.9°C | 0.9% | 87.8hPa | 2.6V | 18:12:15 | 01:33:05 | 00:00:00 | |
| DL1XH-west | 2026-08-30 11:44:14 | 52.35849 | 14.96085 | 50° | 20km/h | 17373m | 5.7m/s | -51.9°C | 0.8% | 88.2hPa | 2.7V | 18:12:15 | 01:33:00 | 00:00:00 | |
| SONDE2-12 | 2026-08-30 11:44:14 | 52.35849 | 14.96085 | 49° | 20km/h | 17373m | 5.7m/s | -51.9°C | 1.4% | 88.2hPa | 2.6V | 00:00:00 | 00:00:00 | 00:00:00 | |
| AA1-15 | 2026-08-30 11:44:13 | 52.35845 | 14.96079 | 54° | 20km/h | 17368m | 4.7m/s | -52°C | 0.9% | 88.2hPa | 2.6V | 18:12:15 | 01:32:59 | 00:00:00 | |
| DL1XH1-15 | 2026-08-30 11:44:12 | 52.35834 | 14.96044 | 65° | 26km/h | 17348m | 4.3m/s | -51.8°C | 4% | 88.5hPa | 2.8V | 08:30:00 | 01:32:55 | 00:00:00 | |
| DF8AY | 2026-08-30 11:44:08 | 52.35832 | 14.96035 | 67° | 22km/h | 17343m | 5.6m/s | -51.8°C | 0.9% | 88.6hPa | 2.8V | 18:12:15 | 01:32:54 | 00:00:00 | |
| DL1XH-west | 2026-08-30 11:44:03 | 52.35819 | 14.95998 | 60° | 24km/h | 17320m | 3.8m/s | -51.7°C | 0.8% | 88.9hPa | 2.6V | 18:12:15 | 01:32:49 | 00:00:00 | |
| DL1XH1-15 | 2026-08-30 11:44:02 | 52.35810 | 14.95957 | 75° | 31km/h | 17300m | 5.8m/s | -51.8°C | 3.9% | 89.1hPa | 2.6V | 08:30:00 | 01:32:45 | 00:00:00 | |
| DF8AY | 2026-08-30 11:43:57 | 52.35806 | 14.95932 | 75° | 33km/h | 17290m | 5m/s | -51.9°C | 0.8% | 89.3hPa | 2.8V | 18:12:15 | 01:32:43 | 00:00:00 | |
| DL1XH-west | 2026-08-30 11:43:53 | 52.35797 | 14.95886 | 62° | 27km/h | 17270m | 5.5m/s | -52.2°C | 0.9% | 89.5hPa | 2.6V | 18:12:15 | 01:32:39 | 00:00:00 | |
| DL1XH1-15 | 2026-08-30 11:43:52 | 52.35785 | 14.95846 | 72° | 27km/h | 17252m | 3.9m/s | -52°C | 4.1% | 89.8hPa | 2.7V | 08:30:00 | 01:32:35 | 00:00:00 | |
| AA1-15 | 2026-08-30 11:43:52 | 52.35794 | 14.95876 | 59° | 27km/h | 17266m | 3.3m/s | -52.1°C | 0.9% | 89.6hPa | 2.6V | 18:12:15 | 01:32:38 | 00:00:00 | |
| SONDE2-11 | 2026-08-30 11:43:48 | 52.35781 | 14.95823 | 70° | 31km/h | 17243m | 5.1m/s | -52.0°C | 1.4% | 89.9hPa | 2.8V | 00:00:00 | 00:00:00 | 00:00:00 | |
| DJ2DS-15 | 2026-08-30 11:43:47 | 52.35781 | 14.95823 | 70° | 31km/h | 17243m | 5.1m/s | -52.0°C | 1.4% | 89.9hPa | 2.8V | 00:00:00 | 00:00:00 | 00:00:00 | |
| SONDE2-12 | 2026-08-30 11:43:43 | 52.35768 | 14.95769 | 68° | 35km/h | 17224m | 4.2m/s | -52.1°C | 1.5% | 90.2hPa | 2.8V | 00:00:00 | 00:00:00 | 00:00:00 | |
| DL1XH1-15 | 2026-08-30 11:43:42 | 52.35751 | 14.95719 | 56° | 33km/h | 17204m | 5.5m/s | -52.5°C | 4.2% | 90.5hPa | 2.8V | 08:30:00 | 01:32:25 | 00:00:00 | |
| DL1XH-west | 2026-08-30 11:43:42 | 52.35765 | 14.95756 | 64° | 35km/h | 17219m | 5.8m/s | -52.3°C | 0.9% | 90.3hPa | 2.6V | 18:12:15 | 01:32:28 | 00:00:00 | |
| AA1-15 | 2026-08-30 11:43:41 | 52.35760 | 14.95743 | 58° | 37km/h | 17214m | 5.1m/s | -52.5°C | 0.9% | 90.4hPa | 2.6V | 18:12:15 | 01:32:27 | 00:00:00 | |
| DB0DAN | 2026-08-30 11:43:40 | 52.35755 | 14.95730 | 55° | 33km/h | 17209m | 3.7m/s | -52.5°C | 1.4% | 90.43hPa | 2.6V | 00:00:00 | 00:00:00 | 00:00:00 | |
| EDDB2-12 | 2026-08-30 11:43:39 | 52.35746 | 14.95708 | 57° | 31km/h | 17200m | 4.5m/s | -52.4°C | 1.4% | 90.5hPa | 2.6V | 00:00:00 | 00:00:00 | 00:00:00 | |
| KRY50SP-1 | 2026-08-30 11:43:37 | 52.35746 | 14.95708 | 59° | 31km/h | 17200m | 4.5m/s | -52.4°C | 1.4% | 90.5hPa | 2.6V | 00:00:00 | 00:00:00 | 00:00:00 | |
| SP6BVK | 2026-08-30 11:43:36 | 52.35742 | 14.95696 | 59° | 31km/h | 17196m | 3.9m/s | -52.4°C | 1.4% | 90.6hPa | 2.6V | 00:00:00 | 00:00:00 | 00:00:00 | |
| S3001 | 2026-08-30 11:43:35 | 52.35728 | 14.95658 | 60° | 38km/h | 17180m | 4.7m/s | -52.3°C | 1.4% | 90.8hPa | 2.6V | 00:00:00 | 00:00:00 | 00:00:00 | |
| SQ2ODE-11 | 2026-08-30 11:43:33 | 52.35728 | 14.95658 | 62° | 40km/h | 17181m | 4.7m/s | -52.3°C | 1.4% | 90.8hPa | 2.6V | 00:00:00 | 00:00:00 | 00:00:00 | |
| DL1XH1-15 | 2026-08-30 11:43:32 | 52.35701 | 14.95563 | 62° | 44km/h | 17151m | 4.4m/s | -52.3°C | 4.2% | 91.2hPa | 2.6V | 08:30:00 | 01:32:14 | 00:00:00 | |
| DL1XH-west | 2026-08-30 11:43:32 | 52.35719 | 14.95629 | 68° | 40km/h | 17170m | 4.6m/s | -52.3°C | 1% | 91hPa | 2.8V | 18:12:15 | 01:32:18 | 00:00:00 | |
| AA1-15 | 2026-08-30 11:43:31 | 52.35715 | 14.95613 | 68° | 42km/h | 17165m | 4.1m/s | -52.4°C | 0.9% | 91hPa | 2.7V | 18:12:15 | 01:32:17 | 00:00:00 | |
| DF8AY | 2026-08-30 11:43:30 | 52.35711 | 14.95596 | 67° | 44km/h | 17161m | 5.7m/s | -52.2°C | 0.9% | 91.1hPa | 2.6V | 18:12:15 | 01:32:16 | 00:00:00 | |
| SQ2ODE-11 | 2026-08-30 11:43:29 | 52.35706 | 14.95579 | 65° | 46km/h | 17156m | 4.4m/s | -52.2°C | 1.4% | 91.2hPa | 2.8V | 00:00:00 | 00:00:00 | 00:00:00 | |
| DB0DAN | 2026-08-30 11:43:25 | 52.35686 | 14.95520 | 56° | 35km/h | 17136m | 4.3m/s | -52.1°C | 1.4% | 91.42hPa | 2.8V | 00:00:00 | 00:00:00 | 00:00:00 | |
| DJ2DS-15 | 2026-08-30 11:43:25 | 52.35686 | 14.95520 | 57° | 33km/h | 17137m | 4.3m/s | 0°C | 0% | 0hPa | 2.8V | 00:00:00 | 01:32:11 | 00:00:00 | |
| DC4HF-4 | 2026-08-30 11:43:23 | 52.35675 | 14.95496 | 49° | 37km/h | 17127m | 4.3m/s | -52.1°C | 1.4% | 91.6hPa | 2.8V | 00:00:00 | 00:00:00 | 00:00:00 | |
| DL1XH1-15 | 2026-08-30 11:43:22 | 52.35649 | 14.95440 | 58° | 38km/h | 17103m | 5.1m/s | -52°C | 4.1% | 91.9hPa | 2.8V | 08:30:00 | 01:32:04 | 00:00:00 | |
| DL1XH-west | 2026-08-30 11:43:21 | 52.35664 | 14.95474 | 51° | 33km/h | 17117m | 4.6m/s | -52.1°C | 1% | 91.7hPa | 2.8V | 18:12:15 | 01:32:07 | 00:00:00 | |
| AA1-15 | 2026-08-30 11:43:20 | 52.35659 | 14.95463 | 54° | 33km/h | 17113m | 3.8m/s | -52°C | 0.9% | 91.8hPa | 2.6V | 18:12:15 | 01:32:06 | 00:00:00 | |
| DF8AY | 2026-08-30 11:43:19 | 52.35654 | 14.95452 | 56° | 35km/h | 17108m | 5.5m/s | -52°C | 0.9% | 91.8hPa | 2.6V | 18:12:15 | 01:32:05 | 00:00:00 | |
| DL1XH-west | 2026-08-30 11:43:11 | 52.35624 | 14.95345 | 65° | 31km/h | 17068m | 5.8m/s | -51.8°C | 0.9% | 92.4hPa | 2.6V | 18:12:15 | 01:31:57 | 00:00:00 | |
| DB0DAN | 2026-08-30 11:43:10 | 52.35620 | 14.95334 | 59° | 26km/h | 17062m | 5.1m/s | -51.7°C | 1.4% | 92.51hPa | 2.8V | 00:00:00 | 00:00:00 | 00:00:00 | |
| DF8AY | 2026-08-30 11:43:09 | 52.35617 | 14.95325 | 54° | 27km/h | 17058m | 3.9m/s | -51.6°C | 0.9% | 92.6hPa | 2.8V | 18:12:15 | 01:31:55 | 00:00:00 | |
| EDDB2-12 | 2026-08-30 11:43:07 | 52.35608 | 14.95306 | 49° | 29km/h | 17048m | 4.5m/s | -51.6°C | 1.4% | 92.7hPa | 2.8V | 00:00:00 | 00:00:00 | 00:00:00 | |
| DJ2DS-15 | 2026-08-30 11:43:05 | 52.35598 | 14.95287 | 53° | 31km/h | 17037m | 4.7m/s | 0°C | 0% | 0hPa | 2.8V | 00:00:00 | 01:31:51 | 00:00:00 | |
| SQ2ODE-11 | 2026-08-30 11:43:04 | 52.35598 | 14.95287 | 53° | 29km/h | 17037m | 4.7m/s | -51.6°C | 1.4% | 92.8hPa | 2.8V | 00:00:00 | 00:00:00 | 00:00:00 | |
| S3001 | 2026-08-30 11:43:03 | 52.35589 | 14.95266 | 56° | 35km/h | 17027m | 6.1m/s | -51.5°C | 1.4% | 93.0hPa | 2.8V | 00:00:00 | 00:00:00 | 00:00:00 | |
| DL1XH1-15 | 2026-08-30 11:43:02 | 52.35564 | 14.95194 | 53° | 27km/h | 16999m | 5.8m/s | -51.5°C | 4% | 93.4hPa | 2.8V | 08:30:00 | 01:31:43 | 00:00:00 | |
| DL1XH-west | 2026-08-30 11:43:00 | 52.35575 | 14.95226 | 64° | 35km/h | 17014m | 5.5m/s | -51.5°C | 0.9% | 93.2hPa | 2.6V | 18:12:15 | 01:31:46 | 00:00:00 | |
| DF8AY | 2026-08-30 11:42:58 | 52.35545 | 14.95164 | 38° | 26km/h | 16979m | 4.8m/s | -51.3°C | 0.9% | 93.7hPa | 2.6V | 18:12:15 | 01:31:39 | 00:00:00 | |
| AA1-15 | 2026-08-30 11:42:58 | 52.35568 | 14.95204 | 59° | 27km/h | 17004m | 4m/s | -51.4°C | 0.9% | 93.4hPa | 2.8V | 18:12:15 | 01:31:44 | 00:00:00 | |
| DB0DAN | 2026-08-30 11:42:55 | 52.35555 | 14.95178 | 41° | 26km/h | 16989m | 4.2m/s | -51.3°C | 1.4% | 93.54hPa | 2.6V | 00:00:00 | 00:00:00 | 00:00:00 | |
| SONDE2-12 | 2026-08-30 11:42:51 | 52.35534 | 14.95148 | 42° | 31km/h | 16970m | 5.7m/s | -51.3°C | 1.4% | 93.8hPa | 2.6V | 00:00:00 | 00:00:00 | 00:00:00 | |
| AA1-15 | 2026-08-30 11:42:48 | 52.35516 | 14.95116 | 53° | 35km/h | 16957m | 5.5m/s | -51.3°C | 0.8% | 94hPa | 2.6V | 18:12:15 | 01:31:34 | 00:00:00 | |
| DC4HF-4 | 2026-08-30 11:42:47 | 52.35511 | 14.95105 | 56° | 31km/h | 16951m | 5.1m/s | -51.3°C | 1.4% | 94.1hPa | 2.8V | 00:00:00 | 00:00:00 | 00:00:00 | |
| DF8AY | 2026-08-30 11:42:47 | 52.35511 | 14.95105 | 57° | 31km/h | 16951m | 5.1m/s | -51.3°C | 0.8% | 94.1hPa | 2.6V | 18:12:15 | 01:31:33 | 00:00:00 | |
| DJ2DS-15 | 2026-08-30 11:42:45 | 52.35503 | 14.95085 | 59° | 27km/h | 16943m | 4.0m/s | 0°C | 0% | 0hPa | 2.8V | 00:00:00 | 01:31:31 | 00:00:00 | |
| KRY50SP-1 | 2026-08-30 11:42:42 | 52.35496 | 14.95066 | 54° | 29km/h | 16933m | 4.5m/s | -51.4°C | 1.4% | 94.4hPa | 2.8V | 00:00:00 | 00:00:00 | 00:00:00 | |
| DB0DAN | 2026-08-30 11:42:40 | 52.35484 | 14.95038 | 57° | 24km/h | 16918m | 4.6m/s | -51.3°C | 1.4% | 94.57hPa | 2.8V | 00:00:00 | 00:00:00 | 00:00:00 | |
| DL1XH-west | 2026-08-30 11:42:39 | 52.35480 | 14.95030 | 55° | 26km/h | 16914m | 4.6m/s | -51.4°C | 0.9% | 94.6hPa | 2.8V | 18:12:15 | 01:31:25 | 00:00:00 | |
| SP3WXH-11 | 2026-08-30 11:42:39 | 52.35476 | 14.95022 | 49° | 24km/h | 16909m | 5.3m/s | -51.2°C | 1.4% | 94.7hPa | 2.6V | 00:00:00 | 00:00:00 | 00:00:00 | |
| DL1XH1-15 | 2026-08-30 11:42:38 | 52.35457 | 14.94984 | 52° | 24km/h | 16885m | 5.1m/s | -51°C | 3.8% | 95hPa | 2.6V | 08:30:00 | 01:31:19 | 00:00:00 | |
| AA1-15 | 2026-08-30 11:42:37 | 52.35472 | 14.95014 | 47° | 26km/h | 16904m | 4.4m/s | -51.2°C | 0.8% | 94.8hPa | 2.6V | 18:12:15 | 01:31:23 | 00:00:00 | |
| DL1XH-west | 2026-08-30 11:42:29 | 52.35445 | 14.94949 | 73° | 26km/h | 16866m | 3.9m/s | -51.3°C | 0.8% | 95.3hPa | 2.6V | 18:12:15 | 01:31:15 | 00:00:00 | |
| AA1-15 | 2026-08-30 11:42:27 | 52.35441 | 14.94927 | 76° | 31km/h | 16856m | 4.8m/s | -51.5°C | 0.8% | 95.5hPa | 2.8V | 18:12:15 | 01:31:13 | 00:00:00 | |
| DB0DAN | 2026-08-30 11:42:25 | 52.35438 | 14.94902 | 82° | 29km/h | 16847m | 5.8m/s | -51.3°C | 1.4% | 95.62hPa | 2.8V | 00:00:00 | 00:00:00 | 00:00:00 | |
| DL1XH1-15 | 2026-08-30 11:42:23 | 52.35435 | 14.94878 | 80° | 29km/h | 16837m | 5m/s | -51.4°C | 3.8% | 95.8hPa | 2.6V | 08:30:00 | 01:31:09 | 00:00:00 | |
| DJ2DS-15 | 2026-08-30 11:42:23 | 52.35436 | 14.94878 | 81° | 26km/h | 16838m | 5.0m/s | 0°C | 0% | 0hPa | 2.6V | 00:00:00 | 01:31:09 | 00:00:00 | |
| DM0DOS-11 | 2026-08-30 11:42:22 | 52.35425 | 14.94829 | 65° | 22km/h | 16812m | 3.7m/s | 0°C | 0% | 0hPa | 2.6V | 08:30:00 | 01:31:04 | 00:00:00 | |
| SONDE2-12 | 2026-08-30 11:42:20 | 52.35430 | 14.94846 | 67° | 24km/h | 16823m | 5.4m/s | -51.4°C | 1.5% | 96.0hPa | 2.8V | 00:00:00 | 00:00:00 | 00:00:00 | |
| 13BRC | 2026-08-30 11:42:19 | 52.35430 | 14.94846 | 68° | 24km/h | 16823m | 5.4m/s | -51.4°C | 1.4% | 96.0hPa | 2.8V | 00:00:00 | 00:00:00 | 00:00:00 | |
| DL1XH1-15 | 2026-08-30 11:42:18 | 52.35409 | 14.94787 | 60° | 24km/h | 16791m | 5.1m/s | -51.5°C | 3.9% | 96.5hPa | 2.8V | 08:30:00 | 01:30:59 | 00:00:00 | |
| DL1XH-west | 2026-08-30 11:42:18 | 52.35423 | 14.94821 | 62° | 22km/h | 16809m | 3.6m/s | -51.3°C | 0.8% | 96.2hPa | 2.6V | 18:12:15 | 01:31:03 | 00:00:00 | |
| DF8AY | 2026-08-30 11:42:16 | 52.35420 | 14.94813 | 58° | 24km/h | 16805m | 5.4m/s | -51.4°C | 0.6% | 96.2hPa | 2.6V | 18:12:15 | 01:31:02 | 00:00:00 | |
| SP6BVK | 2026-08-30 11:42:15 | 52.35420 | 14.94813 | 59° | 24km/h | 16805m | 5.4m/s | -51.4°C | 1.2% | 96.2hPa | 2.8V | 00:00:00 | 00:00:00 | 00:00:00 | |
| SONDE2-11 | 2026-08-30 11:42:14 | 52.35413 | 14.94796 | 56° | 26km/h | 16795m | 4.2m/s | -51.4°C | 1.3% | 96.4hPa | 2.8V | 00:00:00 | 00:00:00 | 00:00:00 | |
| DM0DOS-11 | 2026-08-30 11:42:12 | 52.35394 | 14.94745 | 62° | 22km/h | 16767m | 5.2m/s | 0°C | 0% | 0hPa | 2.8V | 00:00:00 | 01:30:54 | 00:00:00 | |
| DL1XH-west | 2026-08-30 11:42:06 | 52.35390 | 14.94729 | 68° | 20km/h | 16758m | 4.3m/s | -52°C | 0.9% | 96.9hPa | 2.6V | 18:12:15 | 01:30:52 | 00:00:00 | |
| AA1-15 | 2026-08-30 11:42:06 | 52.35388 | 14.94721 | 63° | 22km/h | 16753m | 5.2m/s | -52°C | 0.9% | 97hPa | 2.6V | 18:12:15 | 01:30:51 | 00:00:00 | |
| DF8AY | 2026-08-30 11:42:05 | 52.35385 | 14.94713 | 59° | 26km/h | 16748m | 4.5m/s | -52°C | 0.9% | 97.1hPa | 2.6V | 18:12:15 | 01:30:50 | 00:00:00 | |
| KRY50SP-1 | 2026-08-30 11:42:02 | 52.35381 | 14.94703 | 61° | 29km/h | 16744m | 4.3m/s | -52.0°C | 1.4% | 97.1hPa | 2.6V | 00:00:00 | 00:00:00 | 00:00:00 | |
| DL1XH1-15 | 2026-08-30 11:42:02 | 52.35378 | 14.94692 | 63° | 31km/h | 16739m | 5.3m/s | -52°C | 4.1% | 97.2hPa | 2.8V | 08:30:00 | 01:30:48 | 00:00:00 | |
| S3001 | 2026-08-30 11:42:01 | 52.35374 | 14.94680 | 63° | 33km/h | 16734m | 4.0m/s | -52.0°C | 1.5% | 97.3hPa | 2.6V | 00:00:00 | 00:00:00 | 00:00:00 | |
| EDDB2-11 | 2026-08-30 11:41:59 | 52.35360 | 14.94642 | 56° | 35km/h | 16720m | 4.3m/s | -52.0°C | 1.4% | 97.5hPa | 2.6V | 00:00:00 | 00:00:00 | 00:00:00 | |
| DL1XH1-15 | 2026-08-30 11:41:57 | 52.35336 | 14.94575 | 62° | 27km/h | 16691m | 5.6m/s | -52°C | 4.1% | 97.9hPa | 2.6V | 08:30:00 | 01:30:38 | 00:00:00 | |
| DL1XH-west | 2026-08-30 11:41:55 | 52.35347 | 14.94606 | 62° | 31km/h | 16705m | 4.2m/s | -51.9°C | 0.9% | 97.7hPa | 2.6V | 18:12:15 | 01:30:41 | 00:00:00 | |
| DB0DAN | 2026-08-30 11:41:55 | 52.35347 | 14.94606 | 61° | 29km/h | 16705m | 4.2m/s | -51.9°C | 1.4% | 97.73hPa | 2.6V | 00:00:00 | 00:00:00 | 00:00:00 | |
| AA1-15 | 2026-08-30 11:41:54 | 52.35343 | 14.94595 | 59° | 31km/h | 16701m | 5.8m/s | -52°C | 0.9% | 97.8hPa | 2.8V | 18:12:15 | 01:30:40 | 00:00:00 | |
| DM0DOS-11 | 2026-08-30 11:41:52 | 52.35333 | 14.94565 | 67° | 27km/h | 16685m | 4.9m/s | 0°C | 0% | 0hPa | 2.6V | 00:00:00 | 01:30:37 | 00:00:00 | |
| SONDE2-12 | 2026-08-30 11:41:49 | 52.35319 | 14.94510 | 67° | 31km/h | 16662m | 4.5m/s | -51.8°C | 1.5% | 98.4hPa | 2.6V | 00:00:00 | 00:00:00 | 00:00:00 | |
| DL1XH-west | 2026-08-30 11:41:45 | 52.35316 | 14.94497 | 71° | 33km/h | 16657m | 5.4m/s | -51.8°C | 0.9% | 98.5hPa | 2.6V | 18:12:15 | 01:30:31 | 00:00:00 | |
| DF8AY | 2026-08-30 11:41:44 | 52.35313 | 14.94484 | 73° | 33km/h | 16652m | 4.2m/s | -51.7°C | 0.9% | 98.5hPa | 2.8V | 18:12:15 | 01:30:30 | 00:00:00 | |
| DM0DOS-11 | 2026-08-30 11:41:42 | 52.35306 | 14.94450 | 71° | 26km/h | 16638m | 4.5m/s | 0°C | 0% | 0hPa | 2.6V | 00:00:00 | 01:30:27 | 00:00:00 | |
| DL1XH1-15 | 2026-08-30 11:41:42 | 52.35308 | 14.94460 | 68° | 29km/h | 16642m | 4.6m/s | -51.7°C | 4% | 98.7hPa | 2.8V | 08:30:00 | 01:30:28 | 00:00:00 | |
| DL1XH-west | 2026-08-30 11:41:34 | 52.35298 | 14.94393 | 80° | 22km/h | 16606m | 5m/s | -51.8°C | 0.9% | 99.2hPa | 2.6V | 18:12:15 | 01:30:20 | 00:00:00 | |
| AA1-15 | 2026-08-30 11:41:33 | 52.35296 | 14.94383 | 80° | 27km/h | 16601m | 4.4m/s | -51.8°C | 0.9% | 99.3hPa | 2.6V | 18:12:15 | 01:30:19 | 00:00:00 | |
| DL1XH1-15 | 2026-08-30 11:41:32 | 52.35295 | 14.94371 | 77° | 31km/h | 16596m | 4.7m/s | -51.8°C | 4% | 99.4hPa | 2.8V | 08:30:00 | 01:30:18 | 00:00:00 | |
| S3001 | 2026-08-30 11:41:30 | 52.35290 | 14.94342 | 72° | 38km/h | 16587m | 3.7m/s | -51.8°C | 1.5% | 99.5hPa | 2.8V | 00:00:00 | 00:00:00 | 00:00:00 | |
| KRY50SP-1 | 2026-08-30 11:41:29 | 52.35290 | 14.94342 | 74° | 40km/h | 16587m | 3.7m/s | -51.8°C | 1.5% | 99.5hPa | 2.8V | 00:00:00 | 00:00:00 | 00:00:00 | |
| EDDB2-11 | 2026-08-30 11:41:28 | 52.35282 | 14.94294 | 76° | 38km/h | 16573m | 3.4m/s | -52.1°C | 1.4% | 99.8hPa | 2.8V | 00:00:00 | 00:00:00 | 00:00:00 | |
| DM0DOS-11 | 2026-08-30 11:41:27 | 52.35275 | 14.94255 | 72° | 27km/h | 16560m | 3.4m/s | 0°C | 0% | 0hPa | 2.8V | 00:00:00 | 01:30:10 | 00:00:00 | |
| DL1XH-west | 2026-08-30 11:41:23 | 52.35273 | 14.94244 | 78° | 26km/h | 16556m | 5.5m/s | -52.2°C | 0.9% | 100hPa | 2.6V | 18:12:15 | 01:30:09 | 00:00:00 | |
| DL1XH1-15 | 2026-08-30 11:41:22 | 52.35272 | 14.94234 | 88° | 24km/h | 16550m | 4.9m/s | -52.3°C | 4% | 100.1hPa | 2.6V | 08:30:00 | 01:30:08 | 00:00:00 | |
| AA1-15 | 2026-08-30 11:41:22 | 52.35272 | 14.94234 | 88° | 26km/h | 16550m | 4.9m/s | -52.3°C | 0.9% | 100.1hPa | 2.6V | 18:12:15 | 01:30:08 | 00:00:00 | |
| SONDE2-12 | 2026-08-30 11:41:18 | 52.35273 | 14.94189 | 82° | 29km/h | 16533m | 4.3m/s | -52.3°C | 1.5% | 100.3hPa | 2.8V | 00:00:00 | 00:00:00 | 00:00:00 | |
| DF8AY | 2026-08-30 11:41:13 | 52.35263 | 14.94115 | 74° | 38km/h | 16510m | 5.3m/s | -52.1°C | 0.9% | 100.7hPa | 2.8V | 18:12:15 | 01:29:59 | 00:00:00 | |
| DL1XH1-15 | 2026-08-30 11:41:12 | 52.35260 | 14.94100 | 72° | 37km/h | 16506m | 4.2m/s | -52.1°C | 4% | 100.8hPa | 2.8V | 08:30:00 | 01:29:58 | 00:00:00 | |
| DL1XH-west | 2026-08-30 11:41:12 | 52.35261 | 14.94100 | 72° | 37km/h | 16506m | 4.3m/s | -52.1°C | 0.9% | 100.8hPa | 2.8V | 18:12:15 | 01:29:58 | 00:00:00 | |
| AA1-15 | 2026-08-30 11:41:11 | 52.35258 | 14.94085 | 74° | 37km/h | 16502m | 3.2m/s | -52°C | 0.9% | 100.8hPa | 2.8V | 18:12:15 | 01:29:57 | 00:00:00 | |
| DB0DAN | 2026-08-30 11:41:10 | 52.35255 | 14.94071 | 77° | 35km/h | 16498m | 4.9m/s | -52.1°C | 1.4% | 100.91hPa | 2.6V | 00:00:00 | 00:00:00 | 00:00:00 | |
| DM0DOS-11 | 2026-08-30 11:41:08 | 52.35244 | 14.93960 | 77° | 40km/h | 16465m | 5.6m/s | 0°C | 0% | 0hPa | 2.6V | 00:00:00 | 01:29:49 | 00:00:00 | |
| SQ2ODE-11 | 2026-08-30 11:41:08 | 52.35253 | 14.94056 | 83° | 38km/h | 16493m | 5.0m/s | 0°C | 0% | 101.0hPa | 2.6V | 00:00:00 | 00:00:00 | 00:00:00 | |
| KRY50SP-1 | 2026-08-30 11:41:07 | 52.35253 | 14.94040 | 85° | 38km/h | 16488m | 4.3m/s | -52.2°C | 1.5% | 101.1hPa | 2.6V | 00:00:00 | 00:00:00 | 00:00:00 | |
| SP3WXH-11 | 2026-08-30 11:41:06 | 52.35248 | 14.93992 | 76° | 38km/h | 16474m | 4.4m/s | -52.3°C | 1.5% | 101.3hPa | 2.6V | 00:00:00 | 00:00:00 | 00:00:00 | |
| SONCRA | 2026-08-30 11:41:05 | 52.35248 | 14.93992 | 76° | 38km/h | 16474m | 4.4m/s | -52.3°C | 1.5% | 101.3hPa | 2.6V | 00:00:00 | 00:00:00 | 00:00:00 | |
| DL1XH1-15 | 2026-08-30 11:41:02 | 52.35242 | 14.93944 | 79° | 40km/h | 16460m | 4m/s | -52.5°C | 4.1% | 101.5hPa | 2.6V | 08:30:00 | 01:29:48 | 00:00:00 | |
| DL1XH-west | 2026-08-30 11:41:02 | 52.35242 | 14.93944 | 80° | 40km/h | 16460m | 4m/s | -52.5°C | 1% | 101.5hPa | 2.6V | 18:12:15 | 01:29:48 | 00:00:00 | |
| AA1-15 | 2026-08-30 11:41:00 | 52.35237 | 14.93912 | 76° | 38km/h | 16451m | 5.4m/s | -52.6°C | 1% | 101.7hPa | 2.8V | 18:12:15 | 01:29:46 | 00:00:00 | |
| S3001 | 2026-08-30 11:40:59 | 52.35235 | 14.93897 | 76° | 37km/h | 16446m | 4.1m/s | -52.8°C | 1.5% | 101.7hPa | 2.6V | 00:00:00 | 00:00:00 | 00:00:00 | |
| DAC517 | 2026-08-30 11:40:58 | 52.35233 | 14.93882 | 80° | 37km/h | 16442m | 5.7m/s | -52.9°C | 1.5% | 101.8hPa | 2.6V | 00:00:00 | 00:00:00 | 00:00:00 | |
| DL1XH1-15 | 2026-08-30 11:40:57 | 52.35226 | 14.93792 | 89° | 40km/h | 16415m | 4.9m/s | -53°C | 4.3% | 102.2hPa | 2.6V | 08:30:00 | 01:29:38 | 00:00:00 | |
| EDDB2-11 | 2026-08-30 11:40:57 | 52.35230 | 14.93853 | 81° | 35km/h | 16432m | 4.3m/s | -53.0°C | 1.5% | 102.0hPa | 2.8V | 00:00:00 | 00:00:00 | 00:00:00 | |
| DB0DAN | 2026-08-30 11:40:55 | 52.35229 | 14.93839 | 81° | 35km/h | 16427m | 5m/s | -53°C | 1.5% | 102.02hPa | 2.8V | 00:00:00 | 00:00:00 | 00:00:00 | |
| DF8AY | 2026-08-30 11:40:52 | 52.35219 | 14.93684 | 79° | 47km/h | 16387m | 4.2m/s | -52.9°C | 1.1% | 102.7hPa | 2.8V | 18:12:15 | 01:29:32 | 00:00:00 | |
| DL1XH-west | 2026-08-30 11:40:51 | 52.35226 | 14.93775 | 91° | 42km/h | 16410m | 4.4m/s | -53°C | 1.1% | 102.3hPa | 2.6V | 18:12:15 | 01:29:37 | 00:00:00 | |
| AA1-15 | 2026-08-30 11:40:49 | 52.35225 | 14.93739 | 83° | 44km/h | 16401m | 4.9m/s | -52.9°C | 1.2% | 102.5hPa | 2.8V | 18:12:15 | 01:29:35 | 00:00:00 | |
| DL1XH1-15 | 2026-08-30 11:40:47 | 52.35208 | 14.93608 | 79° | 47km/h | 16368m | 5.6m/s | -52.9°C | 4.2% | 103hPa | 2.8V | 08:30:00 | 01:29:28 | 00:00:00 | |
| DL1XH-west | 2026-08-30 11:40:41 | 52.35206 | 14.93589 | 83° | 47km/h | 16363m | 4.5m/s | -52.9°C | 1.1% | 103.1hPa | 2.8V | 18:12:15 | 01:29:27 | 00:00:00 | |
| DB0DAN | 2026-08-30 11:40:40 | 52.35205 | 14.93570 | 83° | 46km/h | 16360m | 3.5m/s | -52.9°C | 1.6% | 103.1hPa | 2.8V | 00:00:00 | 00:00:00 | 00:00:00 | |
| DF8AY | 2026-08-30 11:40:39 | 52.35203 | 14.93550 | 82° | 47km/h | 16355m | 5m/s | -53°C | 1.2% | 103.2hPa | 2.6V | 18:12:15 | 01:29:25 | 00:00:00 | |
| DAC517 | 2026-08-30 11:40:38 | 52.35201 | 14.93531 | 80° | 47km/h | 16351m | 4.6m/s | -53.0°C | 1.6% | 103.2hPa | 2.6V | 00:00:00 | 00:00:00 | 00:00:00 | |
| DL1XH1-15 | 2026-08-30 11:40:37 | 52.35185 | 14.93419 | 75° | 42km/h | 16323m | 4.1m/s | -53.1°C | 4.3% | 103.7hPa | 2.6V | 08:30:00 | 01:29:18 | 00:00:00 | |
| DL1XH-west | 2026-08-30 11:40:30 | 52.35181 | 14.93385 | 80° | 42km/h | 16314m | 3.7m/s | -53.2°C | 1.2% | 103.9hPa | 2.8V | 18:12:15 | 01:29:16 | 00:00:00 | |
| AA1-15 | 2026-08-30 11:40:29 | 52.35179 | 14.93367 | 78° | 44km/h | 16310m | 4.5m/s | -53.3°C | 1.2% | 103.9hPa | 2.8V | 18:12:15 | 01:29:15 | 00:00:00 | |
| DF8AY | 2026-08-30 11:40:28 | 52.35176 | 14.93349 | 75° | 46km/h | 16305m | 4.8m/s | -53.4°C | 1.3% | 104hPa | 2.8V | 18:12:15 | 01:29:14 | 00:00:00 | |
| DB0DAN | 2026-08-30 11:40:25 | 52.35166 | 14.93289 | 76° | 53km/h | 16291m | 5.2m/s | -53.4°C | 1.7% | 104.23hPa | 2.6V | 00:00:00 | 00:00:00 | 00:00:00 | |
| SP3BTT-10 | 2026-08-30 11:40:24 | 52.35162 | 14.93266 | 77° | 46km/h | 16287m | 3.3m/s | -53.4°C | 4.5% | 104.2hPa | 2.6V | 00:00:00 | 00:00:00 | 00:00:00 | |
| DM0DOS-11 | 2026-08-30 11:40:22 | 52.35152 | 14.93197 | 77° | 53km/h | 16274m | 4.3m/s | 0°C | 0% | 0hPa | 2.6V | 00:00:00 | 01:29:07 | 00:00:00 | |
| DL1XH1-15 | 2026-08-30 11:40:20 | 52.35148 | 14.93156 | 83° | 47km/h | 16264m | 4.5m/s | -53.3°C | 4.5% | 104.7hPa | 2.8V | 08:30:00 | 01:29:05 | 00:00:00 | |
| DL1XH-west | 2026-08-30 11:40:20 | 52.35149 | 14.93176 | 81° | 49km/h | 16269m | 5.5m/s | -53.3°C | 1.1% | 104.6hPa | 2.6V | 18:12:15 | 01:29:06 | 00:00:00 | |
| AA1-15 | 2026-08-30 11:40:18 | 52.35147 | 14.93138 | 85° | 46km/h | 16260m | 4.1m/s | -53.3°C | 1.2% | 104.7hPa | 2.8V | 18:12:15 | 01:29:04 | 00:00:00 | |
| SONDE2-12 | 2026-08-30 11:40:16 | 52.35144 | 14.93102 | 79° | 42km/h | 16251m | 4.1m/s | -53.2°C | 1.7% | 104.9hPa | 2.8V | 00:00:00 | 00:00:00 | 00:00:00 | |
| KRY50SP-1 | 2026-08-30 11:40:14 | 52.35142 | 14.93083 | 80° | 46km/h | 16247m | 3.9m/s | -53.3°C | 1.6% | 105.0hPa | 2.8V | 00:00:00 | 00:00:00 | 00:00:00 | |
| SQ2ODE-11 | 2026-08-30 11:40:13 | 52.35139 | 14.93064 | 80° | 47km/h | 16242m | 5.4m/s | 0°C | 0% | 0hPa | 2.8V | 00:00:00 | 00:00:00 | 00:00:00 | |
| SP6BVK | 2026-08-30 11:40:11 | 52.35134 | 14.93025 | 77° | 49km/h | 16232m | 5.4m/s | -53.1°C | 1.6% | 105.2hPa | 2.8V | 00:00:00 | 00:00:00 | 00:00:00 | |
| DL1XH1-15 | 2026-08-30 11:40:10 | 52.35123 | 14.92969 | 71° | 47km/h | 16217m | 5.8m/s | -52.9°C | 4.3% | 105.4hPa | 2.8V | 08:30:00 | 01:28:55 | 00:00:00 | |
| DB0DAN | 2026-08-30 11:40:10 | 52.35127 | 14.92987 | 71° | 46km/h | 16222m | 4m/s | -52.9°C | 1.6% | 105.34hPa | 2.6V | 00:00:00 | 00:00:00 | 00:00:00 | |
| DL1XH-west | 2026-08-30 11:40:09 | 52.35124 | 14.92969 | 72° | 47km/h | 16217m | 5.8m/s | -52.9°C | 1.2% | 105.4hPa | 2.8V | 18:12:15 | 01:28:55 | 00:00:00 | |
| DF8AY | 2026-08-30 11:40:08 | 52.35120 | 14.92949 | 74° | 49km/h | 16211m | 5.9m/s | -52.9°C | 1.2% | 105.5hPa | 2.8V | 18:12:15 | 01:28:54 | 00:00:00 | |
| AA1-15 | 2026-08-30 11:40:07 | 52.35116 | 14.92930 | 74° | 49km/h | 16207m | 3.7m/s | -52.9°C | 1.2% | 105.6hPa | 2.8V | 18:12:15 | 01:28:53 | 00:00:00 | |
| DL1XH1-15 | 2026-08-30 11:40:04 | 52.35088 | 14.92781 | 69° | 49km/h | 16168m | 4m/s | -52.9°C | 4.4% | 106.2hPa | 2.6V | 08:30:00 | 01:28:45 | 00:00:00 | |
| DL1XH-west | 2026-08-30 11:39:59 | 52.35088 | 14.92781 | 70° | 49km/h | 16168m | 4m/s | -52.9°C | 1.3% | 106.2hPa | 2.6V | 18:12:15 | 01:28:45 | 00:00:00 | |
| DF8AY | 2026-08-30 11:39:57 | 52.35079 | 14.92741 | 70° | 55km/h | 16158m | 4.5m/s | -53.1°C | 1.2% | 106.4hPa | 2.8V | 18:12:15 | 01:28:43 | 00:00:00 | |
| AA1-15 | 2026-08-30 11:39:57 | 52.35074 | 14.92719 | 70° | 57km/h | 16153m | 4.5m/s | -53.2°C | 1.3% | 106.5hPa | 2.8V | 18:12:15 | 01:28:42 | 00:00:00 | |
| DB0DAN | 2026-08-30 11:39:55 | 52.35069 | 14.92698 | 69° | 53km/h | 16149m | 5.5m/s | -53.3°C | 1.7% | 106.55hPa | 2.8V | 00:00:00 | 00:00:00 | 00:00:00 | |
| EDDB2-11 | 2026-08-30 11:39:55 | 52.35064 | 14.92676 | 68° | 55km/h | 16144m | 4.0m/s | -53.2°C | 1.7% | 106.6hPa | 2.7V | 00:00:00 | 00:00:00 | 00:00:00 | |
| DL2RXE-15 | 2026-08-30 11:39:54 | 52.35069 | 14.92697 | 70° | 57km/h | 16149m | 5.5m/s | -53.3°C | 1.7% | 106.6hPa | 2.7V | 00:00:00 | 00:00:00 | 00:00:00 | |
| DL1XH1-15 | 2026-08-30 11:39:52 | 52.35039 | 14.92568 | 67° | 53km/h | 16122m | 4.3m/s | -53.2°C | 4.5% | 107hPa | 2.7V | 08:30:00 | 01:28:35 | 00:00:00 | |
| DL1XH-west | 2026-08-30 11:39:48 | 52.35034 | 14.92548 | 66° | 53km/h | 16117m | 5.1m/s | -53.2°C | 1.4% | 107.1hPa | 2.8V | 18:12:15 | 01:28:34 | 00:00:00 | |
| DF8AY | 2026-08-30 11:39:47 | 52.35028 | 14.92528 | 65° | 53km/h | 16113m | 4.2m/s | -53.1°C | 1.3% | 107.1hPa | 2.8V | 18:12:15 | 01:28:33 | 00:00:00 | |
| AA1-15 | 2026-08-30 11:39:45 | 52.35017 | 14.92491 | 63° | 47km/h | 16104m | 5.8m/s | -53.1°C | 1.3% | 107.3hPa | 2.6V | 18:12:15 | 01:28:31 | 00:00:00 | |
| DL1XH-west | 2026-08-30 11:39:38 | 52.34981 | 14.92373 | 67° | 46km/h | 16070m | 5m/s | -53°C | 1.3% | 107.9hPa | 2.6V | 18:12:15 | 01:28:24 | 00:00:00 | |
| DF8AY | 2026-08-30 11:39:36 | 52.34972 | 14.92337 | 69° | 46km/h | 16061m | 3.8m/s | -52.9°C | 1.3% | 108hPa | 2.8V | 18:12:15 | 01:28:22 | 00:00:00 | |
| AA1-15 | 2026-08-30 11:39:35 | 52.34968 | 14.92320 | 69° | 44km/h | 16056m | 5.6m/s | -53°C | 1.3% | 108.1hPa | 2.8V | 18:12:15 | 01:28:21 | 00:00:00 | |
| DL1XH-west | 2026-08-30 11:39:27 | 52.34937 | 14.92198 | 64° | 42km/h | 16018m | 5.2m/s | -53°C | 1.3% | 108.7hPa | 2.6V | 18:12:15 | 01:28:13 | 00:00:00 | |
| DF8AY | 2026-08-30 11:39:25 | 52.34928 | 14.92167 | 63° | 42km/h | 16010m | 5.5m/s | -53.2°C | 1.3% | 108.9hPa | 2.8V | 18:12:15 | 01:28:11 | 00:00:00 | |
| AA1-15 | 2026-08-30 11:39:24 | 52.34923 | 14.92152 | 64° | 40km/h | 16005m | 4.3m/s | -53.3°C | 1.4% | 109hPa | 2.8V | 18:12:15 | 01:28:10 | 00:00:00 | |
| DL1XH-west | 2026-08-30 11:39:16 | 52.34897 | 14.92030 | 72° | 40km/h | 15966m | 4.4m/s | -53.4°C | 1.5% | 109.6hPa | 2.7V | 18:12:15 | 01:28:02 | 00:00:00 | |
| AA1-15 | 2026-08-30 11:39:14 | 52.34886 | 14.91981 | 66° | 44km/h | 15952m | 4.1m/s | -53.4°C | 1.6% | 109.9hPa | 2.8V | 18:12:15 | 01:27:59 | 00:00:00 | |
| KRY50SP-1 | 2026-08-30 11:39:11 | 52.34881 | 14.91964 | 65° | 46km/h | 15947m | 5.4m/s | -53.3°C | 1.8% | 110.0hPa | 2.8V | 00:00:00 | 00:00:00 | 00:00:00 | |
| SONDE2-11 | 2026-08-30 11:39:08 | 52.34861 | 14.91895 | 70° | 46km/h | 15929m | 5.0m/s | -53.4°C | 1.7% | 110.3hPa | 2.8V | 00:00:00 | 00:00:00 | 00:00:00 | |
| SQ2ODE-11 | 2026-08-30 11:39:07 | 52.34861 | 14.91895 | 71° | 46km/h | 15929m | 5.0m/s | 0°C | 0% | 0hPa | 2.8V | 00:00:00 | 00:00:00 | 00:00:00 | |
| DL1XH1-15 | 2026-08-30 11:39:06 | 52.34844 | 14.91771 | 77° | 47km/h | 15897m | 4.8m/s | -53.1°C | 4.5% | 110.8hPa | 2.8V | 08:30:00 | 01:27:47 | 00:00:00 | |
| DL1XH-west | 2026-08-30 11:39:06 | 52.34854 | 14.91859 | 76° | 46km/h | 15919m | 4.1m/s | -53.4°C | 1.4% | 110.5hPa | 2.6V | 18:12:15 | 01:27:52 | 00:00:00 | |
| DF8AY | 2026-08-30 11:39:05 | 52.34850 | 14.91824 | 80° | 42km/h | 15910m | 4.7m/s | -53.3°C | 1.3% | 110.6hPa | 2.7V | 18:12:15 | 01:27:50 | 00:00:00 | |
| AA1-15 | 2026-08-30 11:39:02 | 52.34846 | 14.91789 | 80° | 44km/h | 15901m | 5m/s | -53.3°C | 1.4% | 110.7hPa | 2.8V | 18:12:15 | 01:27:48 | 00:00:00 | |
| DL1XH-west | 2026-08-30 11:38:55 | 52.34819 | 14.91652 | 68° | 51km/h | 15868m | 4.2m/s | -52.9°C | 1.4% | 111.3hPa | 2.7V | 18:12:15 | 01:27:41 | 00:00:00 | |
| DB0DAN | 2026-08-30 11:38:55 | 52.34819 | 14.91652 | 68° | 49km/h | 15868m | 4.2m/s | -52.9°C | 1.7% | 111.32hPa | 2.7V | 00:00:00 | 00:00:00 | 00:00:00 | |
| DF8AY | 2026-08-30 11:38:54 | 52.34809 | 14.91616 | 66° | 46km/h | 15859m | 3.8m/s | -52.9°C | 1.4% | 111.5hPa | 2.8V | 18:12:15 | 01:27:39 | 00:00:00 | |
| DL1XH1-15 | 2026-08-30 11:38:52 | 52.34800 | 14.91582 | 68° | 44km/h | 15850m | 4.2m/s | -53°C | 4.5% | 111.6hPa | 2.6V | 08:30:00 | 01:27:37 | 00:00:00 | |
| AA1-15 | 2026-08-30 11:38:51 | 52.34800 | 14.91582 | 69° | 44km/h | 15850m | 4.2m/s | -53°C | 1.5% | 111.6hPa | 2.6V | 18:12:15 | 01:27:37 | 00:00:00 | |
| SQ2ODE-11 | 2026-08-30 11:38:50 | 52.34800 | 14.91582 | 70° | 44km/h | 15850m | 4.2m/s | 0°C | 0% | 0hPa | 2.8V | 00:00:00 | 00:00:00 | 00:00:00 | |
| KRY50SP-1 | 2026-08-30 11:38:48 | 52.34793 | 14.91548 | 70° | 44km/h | 15841m | 4.9m/s | -53.2°C | 1.8% | 111.8hPa | 2.8V | 00:00:00 | 00:00:00 | 00:00:00 | |
| SP6BVK | 2026-08-30 11:38:47 | 52.34788 | 14.91531 | 69° | 47km/h | 15836m | 3.9m/s | -53.2°C | 1.8% | 111.9hPa | 2.8V | 00:00:00 | 00:00:00 | 00:00:00 | |
| DL1XH1-15 | 2026-08-30 11:38:46 | 52.34760 | 14.91385 | 77° | 51km/h | 15806m | 5.1m/s | -53.4°C | 4.6% | 112.4hPa | 2.8V | 08:30:00 | 01:27:27 | 00:00:00 | |
| DL1XH-west | 2026-08-30 11:38:45 | 52.34775 | 14.91470 | 72° | 57km/h | 15823m | 3.9m/s | -53.2°C | 1.4% | 112.1hPa | 2.6V | 18:12:15 | 01:27:31 | 00:00:00 | |
| DF8AY | 2026-08-30 11:38:42 | 52.34763 | 14.91405 | 76° | 51km/h | 15810m | 4.1m/s | -53.4°C | 1.4% | 112.3hPa | 2.8V | 18:12:15 | 01:27:28 | 00:00:00 | |
| AA1-15 | 2026-08-30 11:38:41 | 52.34757 | 14.91364 | 77° | 51km/h | 15801m | 3.9m/s | -53.4°C | 1.5% | 112.5hPa | 2.8V | 18:12:15 | 01:27:26 | 00:00:00 | |
| DB0DAN | 2026-08-30 11:38:40 | 52.34757 | 14.91364 | 77° | 47km/h | 15801m | 3.9m/s | -53.4°C | 1.8% | 112.5hPa | 2.8V | 00:00:00 | 00:00:00 | 00:00:00 | |
| DL1XH-west | 2026-08-30 11:38:35 | 52.34738 | 14.91274 | 64° | 49km/h | 15778m | 4.5m/s | -53.1°C | 1.5% | 112.9hPa | 2.6V | 18:12:15 | 01:27:21 | 00:00:00 | |
| SQ2ODE-11 | 2026-08-30 11:38:34 | 52.34738 | 14.91274 | 64° | 49km/h | 15779m | 4.5m/s | 0°C | 0% | 0hPa | 2.8V | 00:00:00 | 00:00:00 | 00:00:00 | |
| 13BRC | 2026-08-30 11:38:33 | 52.34732 | 14.91256 | 63° | 51km/h | 15775m | 3.7m/s | -53.1°C | 1.8% | 113.0hPa | 2.8V | 00:00:00 | 00:00:00 | 00:00:00 | |
| DL1XH1-15 | 2026-08-30 11:38:32 | 52.34713 | 14.91201 | 61° | 51km/h | 15761m | 4.4m/s | -53.1°C | 4.6% | 113.2hPa | 2.8V | 08:30:00 | 01:27:17 | 00:00:00 | |
| DF8AY | 2026-08-30 11:38:31 | 52.34713 | 14.91201 | 61° | 51km/h | 15761m | 4.4m/s | -53.1°C | 1.5% | 113.2hPa | 2.8V | 18:12:15 | 01:27:17 | 00:00:00 | |
| AA1-15 | 2026-08-30 11:38:30 | 52.34701 | 14.91162 | 65° | 53km/h | 15751m | 4.4m/s | -52.9°C | 1.4% | 113.4hPa | 2.7V | 18:12:15 | 01:27:15 | 00:00:00 | |
| EDDB2-12 | 2026-08-30 11:38:28 | 52.34696 | 14.91142 | 64° | 51km/h | 15747m | 3.6m/s | -52.9°C | 1.8% | 113.4hPa | 2.8V | 00:00:00 | 00:00:00 | 00:00:00 | |
| DL1XH1-15 | 2026-08-30 11:38:26 | 52.34656 | 14.91028 | 56° | 44km/h | 15715m | 5m/s | -52.9°C | 4.5% | 114hPa | 2.8V | 08:30:00 | 01:27:07 | 00:00:00 | |
| DB0DAN | 2026-08-30 11:38:25 | 52.34678 | 14.91090 | 59° | 42km/h | 15733m | 4.3m/s | -52.9°C | 1.8% | 113.67hPa | 2.8V | 00:00:00 | 00:00:00 | 00:00:00 | |
| DL1XH-west | 2026-08-30 11:38:24 | 52.34673 | 14.91074 | 60° | 44km/h | 15728m | 5.5m/s | -52.8°C | 1.4% | 113.8hPa | 2.6V | 18:12:15 | 01:27:10 | 00:00:00 | |
| DF8AY | 2026-08-30 11:38:20 | 52.34649 | 14.91013 | 55° | 46km/h | 15711m | 4.4m/s | -52.8°C | 1.4% | 114.1hPa | 2.8V | 18:12:15 | 01:27:06 | 00:00:00 | |
| AA1-15 | 2026-08-30 11:38:19 | 52.34643 | 14.90997 | 55° | 47km/h | 15706m | 4.4m/s | -52.7°C | 1.3% | 114.2hPa | 2.8V | 18:12:15 | 01:27:05 | 00:00:00 | |
| DL1XH-west | 2026-08-30 11:38:14 | 52.34611 | 14.90904 | 65° | 55km/h | 15682m | 3.6m/s | -52.7°C | 1.4% | 114.6hPa | 2.7V | 18:12:15 | 01:27:00 | 00:00:00 | |
| DAC517 | 2026-08-30 11:38:13 | 52.34605 | 14.90883 | 68° | 55km/h | 15678m | 5.5m/s | -52.7°C | 1.7% | 114.7hPa | 2.8V | 00:00:00 | 00:00:00 | 00:00:00 | |
| DB0DAN | 2026-08-30 11:38:10 | 52.34591 | 14.90826 | 63° | 44km/h | 15664m | 5.1m/s | -52.6°C | 1.8% | 114.91hPa | 2.8V | 00:00:00 | 00:00:00 | 00:00:00 | |
| SONDE2-12 | 2026-08-30 11:38:09 | 52.34585 | 14.90810 | 57° | 44km/h | 15660m | 4.1m/s | -52.7°C | 1.9% | 115.0hPa | 2.6V | 00:00:00 | 00:00:00 | 00:00:00 | |
| AA1-15 | 2026-08-30 11:38:08 | 52.34579 | 14.90796 | 54° | 42km/h | 15655m | 4.2m/s | -52.7°C | 1.4% | 115.1hPa | 2.6V | 18:12:15 | 01:26:54 | 00:00:00 | |
| DL1XH-west | 2026-08-30 11:38:04 | 52.34556 | 14.90745 | 51° | 40km/h | 15636m | 5.8m/s | -52.9°C | 1.5% | 115.4hPa | 2.8V | 18:12:15 | 01:26:50 | 00:00:00 | |
| DF8AY | 2026-08-30 11:38:02 | 52.34531 | 14.90682 | 64° | 49km/h | 15617m | 4.4m/s | -52.6°C | 1.3% | 115.8hPa | 2.8V | 18:12:15 | 01:26:46 | 00:00:00 | |
| AA1-15 | 2026-08-30 11:37:57 | 52.34509 | 14.90608 | 62° | 46km/h | 15599m | 5.2m/s | -52.5°C | 1.3% | 116hPa | 2.7V | 18:12:15 | 01:26:42 | 00:00:00 | |
| DB0DAN | 2026-08-30 11:37:55 | 52.34503 | 14.90592 | 60° | 40km/h | 15594m | 4.2m/s | -52.5°C | 1.7% | 116.14hPa | 2.8V | 00:00:00 | 00:00:00 | 00:00:00 | |
| DL1XH-west | 2026-08-30 11:37:54 | 52.34491 | 14.90564 | 49° | 40km/h | 15585m | 5m/s | -52.4°C | 1.3% | 116.3hPa | 2.8V | 18:12:15 | 01:26:39 | 00:00:00 | |
| S3001 | 2026-08-30 11:37:53 | 52.34491 | 14.90564 | 49° | 38km/h | 15585m | 5.0m/s | -52.4°C | 1.7% | 116.3hPa | 2.7V | 00:00:00 | 00:00:00 | 00:00:00 | |
| DL1XH1-15 | 2026-08-30 11:37:52 | 52.34472 | 14.90530 | 46° | 37km/h | 15570m | 4.7m/s | -52.3°C | 4.5% | 116.6hPa | 2.7V | 00:00:00 | 01:26:36 | 00:00:00 | |
| DF8AY | 2026-08-30 11:37:48 | 52.34458 | 14.90508 | 44° | 42km/h | 15560m | 5.9m/s | -52.2°C | 1.3% | 116.8hPa | 2.8V | 18:12:15 | 01:26:34 | 00:00:00 | |
| AA1-15 | 2026-08-30 11:37:46 | 52.34432 | 14.90468 | 47° | 47km/h | 15546m | 5.7m/s | -52.1°C | 1.2% | 117hPa | 2.7V | 18:12:15 | 01:26:31 | 00:00:00 | |
| DL1XH-west | 2026-08-30 11:37:43 | 52.34418 | 14.90439 | 52° | 44km/h | 15537m | 3.6m/s | -52°C | 1.3% | 117.2hPa | 2.8V | 18:12:15 | 01:26:29 | 00:00:00 | |
| DL1XH1-15 | 2026-08-30 11:37:42 | 52.34398 | 14.90401 | 50° | 35km/h | 15522m | 4.9m/s | -51.9°C | 4.4% | 117.4hPa | 2.7V | 00:00:00 | 01:26:26 | 00:00:00 | |
| DB0DAN | 2026-08-30 11:37:40 | 52.34398 | 14.90401 | 50° | 33km/h | 15522m | 4.9m/s | -51.9°C | 1.7% | 117.45hPa | 2.7V | 00:00:00 | 00:00:00 | 00:00:00 | |
| DF8AY | 2026-08-30 11:37:37 | 52.34381 | 14.90370 | 42° | 37km/h | 15509m | 4.6m/s | -51.8°C | 1.3% | 117.7hPa | 2.8V | 18:12:15 | 01:26:23 | 00:00:00 | |
| AA1-15 | 2026-08-30 11:37:35 | 52.34356 | 14.90337 | 39° | 49km/h | 15496m | 4.2m/s | -51.7°C | 1.3% | 118hPa | 2.8V | 18:12:15 | 01:26:20 | 00:00:00 | |
| DL1XH-west | 2026-08-30 11:37:33 | 52.34346 | 14.90324 | 43° | 49km/h | 15491m | 4.8m/s | -51.7°C | 1.2% | 118hPa | 2.8V | 18:12:15 | 01:26:19 | 00:00:00 | |
| SQ2ODE-11 | 2026-08-30 11:37:31 | 52.34338 | 14.90310 | 48° | 47km/h | 15487m | 4.8m/s | 0°C | 0% | 0hPa | 2.6V | 00:00:00 | 00:00:00 | 00:00:00 | |
| DAC517 | 2026-08-30 11:37:30 | 52.34323 | 14.90282 | 50° | 42km/h | 15477m | 5.4m/s | -51.6°C | 1.6% | 118.3hPa | 2.6V | 00:00:00 | 00:00:00 | 00:00:00 | |
| SONCRA | 2026-08-30 11:37:28 | 52.34309 | 14.90259 | 44° | 38km/h | 15467m | 4.4m/s | -51.4°C | 1.6% | 118.4hPa | 2.6V | 00:00:00 | 00:00:00 | 00:00:00 | |
| DB0DAN | 2026-08-30 11:37:25 | 52.34286 | 14.90226 | 37° | 38km/h | 15452m | 4.9m/s | -51.4°C | 1.7% | 118.74hPa | 2.6V | 00:00:00 | 00:00:00 | 00:00:00 | |
| AA1-15 | 2026-08-30 11:37:23 | 52.34269 | 14.90207 | 36° | 40km/h | 15442m | 4.5m/s | -51.5°C | 1.3% | 118.9hPa | 2.7V | 18:12:15 | 01:26:09 | 00:00:00 | |
| DL1XH-west | 2026-08-30 11:37:22 | 52.34261 | 14.90197 | 36° | 42km/h | 15437m | 5.9m/s | -51.5°C | 1.3% | 119hPa | 2.8V | 18:12:15 | 01:26:08 | 00:00:00 | |
| DL1XH1-15 | 2026-08-30 11:37:22 | 52.34236 | 14.90165 | 40° | 40km/h | 15423m | 5.3m/s | -51.5°C | 4.3% | 119.2hPa | 2.6V | 00:00:00 | 01:26:05 | 00:00:00 | |
| DF8AY | 2026-08-30 11:37:14 | 52.34197 | 14.90104 | 44° | 46km/h | 15402m | 3.8m/s | -51.4°C | 1.2% | 119.7hPa | 2.6V | 18:12:15 | 01:26:00 | 00:00:00 | |
| DL1XH1-15 | 2026-08-30 11:37:12 | 52.34147 | 14.90037 | 32° | 44km/h | 15374m | 4.2m/s | -51.3°C | 4.1% | 120.2hPa | 2.7V | 00:00:00 | 01:25:54 | 00:00:00 | |
| DL1XH-west | 2026-08-30 11:37:12 | 52.34181 | 14.90079 | 43° | 40km/h | 15393m | 4.6m/s | -51.3°C | 1.2% | 119.8hPa | 2.7V | 18:12:15 | 01:25:58 | 00:00:00 | |
| DF8AY | 2026-08-30 11:37:03 | 52.34102 | 14.89989 | 34° | 40km/h | 15350m | 4.1m/s | -51.1°C | 1.1% | 120.6hPa | 2.8V | 18:12:15 | 01:25:49 | 00:00:00 | |
| AA1-15 | 2026-08-30 11:37:02 | 52.34094 | 14.89980 | 33° | 38km/h | 15345m | 5.4m/s | -51°C | 1.1% | 120.7hPa | 2.7V | 18:12:15 | 01:25:48 | 00:00:00 | |
| DL1XH1-15 | 2026-08-30 11:37:02 | 52.34061 | 14.89947 | 29° | 40km/h | 15327m | 4.3m/s | -51.2°C | 4.1% | 121hPa | 2.7V | 00:00:00 | 01:25:44 | 00:00:00 | |
| DL1XH-west | 2026-08-30 11:37:02 | 52.34086 | 14.89972 | 32° | 37km/h | 15341m | 3.9m/s | -51°C | 1.1% | 120.8hPa | 2.7V | 18:12:15 | 01:25:47 | 00:00:00 | |
| SONCRA | 2026-08-30 11:36:57 | 52.34052 | 14.89939 | 30° | 38km/h | 15322m | 5.3m/s | -51.3°C | 1.7% | 121.2hPa | 2.6V | 00:00:00 | 00:00:00 | 00:00:00 | |
| EDDB2-12 | 2026-08-30 11:36:55 | 52.34034 | 14.89921 | 31° | 42km/h | 15313m | 5.5m/s | -51.5°C | 1.7% | 121.3hPa | 2.6V | 00:00:00 | 00:00:00 | 00:00:00 | |
| SP3BTT-10 | 2026-08-30 11:36:53 | 52.34014 | 14.89902 | 31° | 40km/h | 15304m | 3.5m/s | -51.5°C | 4.2% | 121.4hPa | 2.6V | 00:00:00 | 00:00:00 | 00:00:00 | |
| DL1XH1-15 | 2026-08-30 11:36:52 | 52.33967 | 14.89858 | 31° | 42km/h | 15280m | 4.6m/s | -51.9°C | 4.3% | 121.9hPa | 2.8V | 00:00:00 | 01:25:34 | 00:00:00 | |
| AA1-15 | 2026-08-30 11:36:52 | 52.34004 | 14.89893 | 29° | 46km/h | 15299m | 5.3m/s | -51.5°C | 1.2% | 121.5hPa | 2.6V | 18:12:15 | 01:25:38 | 00:00:00 | |
| DL1XH-west | 2026-08-30 11:36:52 | 52.33995 | 14.89884 | 30° | 42km/h | 15295m | 4.3m/s | -51.6°C | 1.2% | 121.7hPa | 2.7V | 18:12:15 | 01:25:37 | 00:00:00 | |
| S3001 | 2026-08-30 11:36:51 | 52.33995 | 14.89884 | 29° | 42km/h | 15295m | 4.3m/s | -51.6°C | 1.7% | 121.7hPa | 2.7V | 00:00:00 | 00:00:00 | 00:00:00 | |
| EDDB2-11 | 2026-08-30 11:36:48 | 52.33967 | 14.89858 | 31° | 42km/h | 15280m | 4.6m/s | -51.9°C | 1.7% | 121.9hPa | 2.7V | 00:00:00 | 00:00:00 | 00:00:00 | |
| SQ2ODE-11 | 2026-08-30 11:36:45 | 52.33949 | 14.89841 | 30° | 38km/h | 15270m | 5.2m/s | 0°C | 0% | 0hPa | 2.7V | 00:00:00 | 00:00:00 | 00:00:00 | |
| SP6BVK | 2026-08-30 11:36:43 | 52.33934 | 14.89826 | 32° | 37km/h | 15260m | 6.3m/s | -51.7°C | 1.7% | 122.3hPa | 2.7V | 00:00:00 | 00:00:00 | 00:00:00 | |
| DL1XH1-15 | 2026-08-30 11:36:42 | 52.33895 | 14.89759 | 54° | 42km/h | 15230m | 5m/s | -51.6°C | 4.2% | 122.9hPa | 2.7V | 00:00:00 | 01:25:24 | 00:00:00 | |
| DL1XH-west | 2026-08-30 11:36:41 | 52.33912 | 14.89797 | 48° | 37km/h | 15245m | 6.2m/s | -51.6°C | 1.3% | 122.6hPa | 2.8V | 18:12:15 | 01:25:27 | 00:00:00 | |
| AA1-15 | 2026-08-30 11:36:41 | 52.33906 | 14.89785 | 53° | 37km/h | 15239m | 5.4m/s | -51.5°C | 1.3% | 122.7hPa | 2.6V | 18:12:15 | 01:25:26 | 00:00:00 | |
| DB0DAN | 2026-08-30 11:36:40 | 52.33906 | 14.89785 | 53° | 35km/h | 15239m | 5.4m/s | -51.5°C | 1.7% | 122.69hPa | 2.6V | 00:00:00 | 00:00:00 | 00:00:00 | |
| KRY50SP-1 | 2026-08-30 11:36:38 | 52.33895 | 14.89759 | 55° | 42km/h | 15230m | 5.0m/s | -51.6°C | 1.7% | 122.9hPa | 2.7V | 00:00:00 | 00:00:00 | 00:00:00 | |
| SQ2ODE-11 | 2026-08-30 11:36:34 | 52.33872 | 14.89716 | 45° | 46km/h | 15217m | 4.6m/s | 0°C | 0% | 0hPa | 2.7V | 00:00:00 | 00:00:00 | 00:00:00 | |
| SONDE2-11 | 2026-08-30 11:36:33 | 52.33850 | 14.89683 | 46° | 35km/h | 15204m | 4.5m/s | -51.3°C | 1.7% | 123.4hPa | 2.7V | 00:00:00 | 00:00:00 | 00:00:00 | |
| DL1XH1-15 | 2026-08-30 11:36:32 | 52.33828 | 14.89638 | 50° | 37km/h | 15186m | 4.3m/s | -51.2°C | 0% | 123.7hPa | 2.7V | 00:00:00 | 01:25:14 | 00:00:00 | |
| SONDE2-12 | 2026-08-30 11:36:32 | 52.33850 | 14.89683 | 46° | 35km/h | 15204m | 4.5m/s | -51.3°C | 1.8% | 123.4hPa | 2.8V | 00:00:00 | 00:00:00 | 00:00:00 | |
| DL1XH-west | 2026-08-30 11:36:31 | 52.33839 | 14.89661 | 53° | 35km/h | 15195m | 4.2m/s | -51.4°C | 1.2% | 123.5hPa | 2.8V | 18:12:15 | 01:25:16 | 00:00:00 | |
| AA1-15 | 2026-08-30 11:36:31 | 52.33844 | 14.89672 | 51° | 35km/h | 15199m | 4.1m/s | -51.3°C | 1.3% | 123.5hPa | 2.8V | 18:12:15 | 01:25:17 | 00:00:00 | |
| DAC517 | 2026-08-30 11:36:29 | 52.33833 | 14.89649 | 52° | 37km/h | 15191m | 5.0m/s | -51.3°C | 1.8% | 123.6hPa | 2.7V | 00:00:00 | 00:00:00 | 00:00:00 | |
| 13BRC | 2026-08-30 11:36:28 | 52.33833 | 14.89649 | 52° | 37km/h | 15191m | 5.0m/s | -51.3°C | 1.8% | 123.6hPa | 2.7V | 00:00:00 | 00:00:00 | 00:00:00 | |
| SP3WXH-11 | 2026-08-30 11:36:26 | 52.33816 | 14.89614 | 55° | 35km/h | 15177m | 5.6m/s | -51.2°C | 1.7% | 123.9hPa | 2.7V | 00:00:00 | 00:00:00 | 00:00:00 | |
| KRY50SP-1 | 2026-08-30 11:36:25 | 52.33816 | 14.89614 | 56° | 37km/h | 15177m | 5.6m/s | -51.2°C | 1.7% | 123.9hPa | 2.7V | 00:00:00 | 00:00:00 | 00:00:00 | |
| DL1XH1-15 | 2026-08-30 11:36:22 | 52.33772 | 14.89510 | 56° | 35km/h | 15140m | 4.6m/s | 0°C | 0% | 0hPa | 2.7V | 00:00:00 | 01:25:04 | 00:00:00 | |
| DL1XH-west | 2026-08-30 11:36:21 | 52.33788 | 14.89547 | 53° | 40km/h | 15154m | 3.8m/s | -51.1°C | 1.2% | 124.3hPa | 2.8V | 18:12:15 | 01:25:07 | 00:00:00 | |
| AA1-15 | 2026-08-30 11:36:20 | 52.33782 | 14.89534 | 55° | 38km/h | 15149m | 5.6m/s | -51°C | 1.2% | 124.4hPa | 2.8V | 18:12:15 | 01:25:06 | 00:00:00 | |
| S3001 | 2026-08-30 11:36:20 | 52.33782 | 14.89534 | 54° | 37km/h | 15149m | 5.6m/s | -51.0°C | 1.7% | 124.4hPa | 2.7V | 00:00:00 | 00:00:00 | 00:00:00 | |
| KRY50SP-1 | 2026-08-30 11:36:19 | 52.33782 | 14.89534 | 56° | 38km/h | 15149m | 5.6m/s | -51.0°C | 1.7% | 124.4hPa | 2.7V | 00:00:00 | 00:00:00 | 00:00:00 | |
| EDDB2-11 | 2026-08-30 11:36:18 | 52.33767 | 14.89498 | 54° | 35km/h | 15135m | 5.7m/s | -50.7°C | 1.7% | 124.7hPa | 2.7V | 00:00:00 | 00:00:00 | 00:00:00 | |
| DM0DOS-11 | 2026-08-30 11:36:17 | 52.33744 | 14.89437 | 62° | 38km/h | 15112m | 5m/s | 0°C | 0% | 0hPa | 2.7V | 00:00:00 | 01:24:58 | 00:00:00 | |
| DL1XH-west | 2026-08-30 11:36:11 | 52.33734 | 14.89408 | 60° | 44km/h | 15102m | 3.7m/s | -50.5°C | 1.3% | 125.3hPa | 2.8V | 18:12:15 | 01:24:56 | 00:00:00 | |
| DF8AY | 2026-08-30 11:36:10 | 52.33724 | 14.89376 | 62° | 44km/h | 15092m | 5.5m/s | -50.6°C | 1.3% | 125.5hPa | 2.8V | 18:12:15 | 01:24:54 | 00:00:00 | |
| DB0DAN | 2026-08-30 11:36:10 | 52.33734 | 14.89408 | 60° | 42km/h | 15102m | 3.7m/s | -50.5°C | 1.7% | 125.32hPa | 2.8V | 00:00:00 | 00:00:00 | 00:00:00 | |
| AA1-15 | 2026-08-30 11:36:09 | 52.33689 | 14.89283 | 70° | 33km/h | 15058m | 4m/s | -50.3°C | 1.3% | 126.2hPa | 2.7V | 18:12:15 | 01:24:47 | 00:00:00 | |
| DF8AY | 2026-08-30 11:36:06 | 52.33686 | 14.89270 | 71° | 35km/h | 15054m | 4.3m/s | -50.3°C | 1.3% | 126.3hPa | 2.7V | 18:12:15 | 01:24:46 | 00:00:00 | |
| DM0DOS-11 | 2026-08-30 11:36:06 | 52.33670 | 14.89211 | 64° | 44km/h | 15036m | 5.3m/s | 0°C | 0% | 0hPa | 2.7V | 00:00:00 | 01:24:42 | 00:00:00 | |
| DL2RXE-15 | 2026-08-30 11:36:04 | 52.33702 | 14.89319 | 55° | 38km/h | 15074m | 3.6m/s | -50.4°C | 1.7% | 125.9hPa | 2.8V | 00:00:00 | 00:00:00 | 00:00:00 | |
| KRY50SP-1 | 2026-08-30 11:35:57 | 52.33679 | 14.89242 | 66° | 38km/h | 15045m | 4.3m/s | -50.4°C | 1.8% | 126.4hPa | 2.8V | 00:00:00 | 00:00:00 | 00:00:00 | |
| DL1XH1-15 | 2026-08-30 11:35:55 | 52.33645 | 14.89124 | 62° | 47km/h | 15011m | 3.9m/s | 0°C | 0% | 0hPa | 2.8V | 00:00:00 | 01:24:37 | 00:00:00 | |
| DB0DAN | 2026-08-30 11:35:55 | 52.33666 | 14.89195 | 67° | 42km/h | 15030m | 5.4m/s | -50.4°C | 1.8% | 126.73hPa | 2.7V | 00:00:00 | 00:00:00 | 00:00:00 | |
| AA1-15 | 2026-08-30 11:35:50 | 52.33640 | 14.89107 | 64° | 46km/h | 15007m | 5.6m/s | -50.2°C | 1.4% | 127.2hPa | 2.7V | 18:12:15 | 01:24:36 | 00:00:00 | |
| DL1XH-west | 2026-08-30 11:35:49 | 52.33635 | 14.89091 | 66° | 42km/h | 15002m | 4m/s | -50.1°C | 1.4% | 127.3hPa | 2.7V | 18:12:15 | 01:24:35 | 00:00:00 | |
| S3001 | 2026-08-30 11:35:49 | 52.33635 | 14.89091 | 65° | 42km/h | 15002m | 4.0m/s | -50.1°C | 1.7% | 127.3hPa | 2.8V | 00:00:00 | 00:00:00 | 00:00:00 | |
| EDDB2-11 | 2026-08-30 11:35:46 | 52.33623 | 14.89045 | 68° | 38km/h | 14988m | 3.9m/s | -50.3°C | 1.8% | 127.5hPa | 2.8V | 00:00:00 | 00:00:00 | 00:00:00 | |
| DB0DAN | 2026-08-30 11:35:40 | 52.33605 | 14.88949 | 70° | 46km/h | 14960m | 3.8m/s | -50.6°C | 1.9% | 128.08hPa | 2.8V | 00:00:00 | 00:00:00 | 00:00:00 | |
| AA1-15 | 2026-08-30 11:35:39 | 52.33601 | 14.88930 | 70° | 51km/h | 14955m | 6.1m/s | -50.7°C | 1.6% | 128.2hPa | 2.7V | 18:12:15 | 01:24:25 | 00:00:00 | |
| DL1XH-west | 2026-08-30 11:35:38 | 52.33597 | 14.88910 | 72° | 55km/h | 14949m | 5.8m/s | -50.8°C | 1.8% | 128.3hPa | 2.7V | 18:12:15 | 01:24:24 | 00:00:00 | |
| DL1XH1-15 | 2026-08-30 11:35:36 | 52.33577 | 14.88817 | 69° | 58km/h | 14930m | 3.6m/s | 0°C | 0% | 0hPa | 2.8V | 00:00:00 | 01:24:20 | 00:00:00 | |
| SONDE2-12 | 2026-08-30 11:35:30 | 52.33565 | 14.88732 | 85° | 47km/h | 14913m | 4.5m/s | -51.3°C | 2.2% | 129.0hPa | 2.8V | 00:00:00 | 00:00:00 | 00:00:00 | |
| AA1-15 | 2026-08-30 11:35:29 | 52.33564 | 14.88712 | 85° | 47km/h | 14908m | 4.7m/s | -51.4°C | 2.1% | 129.1hPa | 2.8V | 18:12:15 | 01:24:15 | 00:00:00 | |
| DL1XH-west | 2026-08-30 11:35:28 | 52.33563 | 14.88692 | 85° | 49km/h | 14904m | 4.5m/s | -51.4°C | 2.1% | 129.2hPa | 2.7V | 18:12:15 | 01:24:14 | 00:00:00 | |
| DB0DAN | 2026-08-30 11:35:25 | 52.33559 | 14.88625 | 82° | 57km/h | 14890m | 4.7m/s | -51.4°C | 2.2% | 129.49hPa | 2.8V | 00:00:00 | 00:00:00 | 00:00:00 | |
| DL1XH-west | 2026-08-30 11:35:18 | 52.33533 | 14.88450 | 78° | 60km/h | 14855m | 4.7m/s | -51.8°C | 2.3% | 130.2hPa | 2.8V | 18:12:15 | 01:24:04 | 00:00:00 | |
| KRY50SP-1 | 2026-08-30 11:35:18 | 52.33533 | 14.88450 | 79° | 60km/h | 14856m | 4.7m/s | -51.8°C | 2.2% | 130.2hPa | 2.7V | 00:00:00 | 00:00:00 | 00:00:00 | |
| EDDB2-11 | 2026-08-30 11:35:15 | 52.33527 | 14.88378 | 87° | 57km/h | 14842m | 4.1m/s | -52.1°C | 2.3% | 130.5hPa | 2.7V | 00:00:00 | 00:00:00 | 00:00:00 | |
| DB0DAN | 2026-08-30 11:35:10 | 52.33520 | 14.88263 | 81° | 55km/h | 14818m | 4m/s | -52.4°C | 2.4% | 130.92hPa | 2.7V | 00:00:00 | 00:00:00 | 00:00:00 | |
| AA1-15 | 2026-08-30 11:35:08 | 52.33515 | 14.88218 | 77° | 55km/h | 14810m | 5.1m/s | -52.6°C | 2.6% | 131.1hPa | 2.8V | 18:12:15 | 01:23:54 | 00:00:00 | |
| DL1XH-west | 2026-08-30 11:35:07 | 52.33511 | 14.88196 | 76° | 55km/h | 14806m | 4m/s | -52.7°C | 2.5% | 131.2hPa | 2.8V | 18:12:15 | 01:23:53 | 00:00:00 | |
| SONDE2-12 | 2026-08-30 11:34:59 | 52.33493 | 14.88015 | 85° | 55km/h | 14770m | 4.0m/s | -53.1°C | 2.7% | 131.9hPa | 2.7V | 00:00:00 | 00:00:00 | 00:00:00 | |
| DL1XH-west | 2026-08-30 11:34:57 | 52.33491 | 14.87970 | 84° | 55km/h | 14760m | 4.6m/s | -53.2°C | 2.7% | 132.1hPa | 2.7V | 18:12:15 | 01:23:43 | 00:00:00 | |
| DB0DAN | 2026-08-30 11:34:55 | 52.33487 | 14.87924 | 79° | 55km/h | 14751m | 5.6m/s | -53.2°C | 2.5% | 132.28hPa | 2.8V | 00:00:00 | 00:00:00 | 00:00:00 | |
| SONCRA | 2026-08-30 11:34:53 | 52.33474 | 14.87855 | 70° | 57km/h | 14737m | 4.5m/s | -53.1°C | 2.5% | 132.6hPa | 2.8V | 00:00:00 | 00:00:00 | 00:00:00 | |
| DL1XH1-15 | 2026-08-30 11:34:52 | 52.33460 | 14.87786 | 75° | 58km/h | 14724m | 3.9m/s | 0°C | 0% | 0hPa | 2.8V | 00:00:00 | 01:23:35 | 00:00:00 | |
| DF8AY | 2026-08-30 11:34:48 | 52.33455 | 14.87740 | 83° | 55km/h | 14714m | 4.1m/s | -53.1°C | 2.5% | 133.1hPa | 2.8V | 18:12:15 | 01:23:33 | 00:00:00 | |
| AA1-15 | 2026-08-30 11:34:46 | 52.33453 | 14.87718 | 86° | 55km/h | 14710m | 4m/s | -53°C | 2.5% | 133.1hPa | 2.7V | 18:12:15 | 01:23:32 | 00:00:00 | |
| 13BRC | 2026-08-30 11:34:45 | 52.33453 | 14.87718 | 87° | 55km/h | 14711m | 4.0m/s | -53.0°C | 2.5% | 133.1hPa | 2.8V | 00:00:00 | 00:00:00 | 00:00:00 | |
| EDDB2-11 | 2026-08-30 11:34:44 | 52.33452 | 14.87671 | 86° | 57km/h | 14701m | 3.6m/s | -53.0°C | 2.5% | 133.3hPa | 2.8V | 00:00:00 | 00:00:00 | 00:00:00 | |
| DL1XH1-15 | 2026-08-30 11:34:42 | 52.33433 | 14.87509 | 73° | 58km/h | 14669m | 4.9m/s | 0°C | 0% | 0hPa | 2.8V | 00:00:00 | 01:23:23 | 00:00:00 | |
| DB0DAN | 2026-08-30 11:34:40 | 52.33444 | 14.87579 | 77° | 55km/h | 14684m | 5.5m/s | -53°C | 2.5% | 133.64hPa | 2.7V | 00:00:00 | 00:00:00 | 00:00:00 | |
| DF8AY | 2026-08-30 11:34:37 | 52.33433 | 14.87509 | 74° | 58km/h | 14669m | 4.9m/s | -52.9°C | 2.5% | 134hPa | 2.8V | 18:12:15 | 01:23:23 | 00:00:00 | |
| AA1-15 | 2026-08-30 11:34:36 | 52.33429 | 14.87486 | 75° | 60km/h | 14665m | 4m/s | -52.9°C | 2.5% | 134.1hPa | 2.8V | 18:12:15 | 01:23:22 | 00:00:00 | |
| DL1XH-west | 2026-08-30 11:34:35 | 52.33425 | 14.87461 | 77° | 62km/h | 14660m | 5.9m/s | -52.8°C | 2.4% | 134.2hPa | 2.7V | 18:12:15 | 01:23:21 | 00:00:00 | |
| KRY50SP-1 | 2026-08-30 11:34:33 | 52.33422 | 14.87435 | 82° | 66km/h | 14655m | 4.0m/s | -52.8°C | 2.4% | 134.3hPa | 2.7V | 00:00:00 | 00:00:00 | 00:00:00 | |
| DL1XH1-15 | 2026-08-30 11:34:32 | 52.33408 | 14.87253 | 78° | 64km/h | 14624m | 4.5m/s | 0°C | 0% | 0hPa | 2.7V | 00:00:00 | 01:23:13 | 00:00:00 | |
| SONDE2-12 | 2026-08-30 11:34:28 | 52.33411 | 14.87279 | 80° | 64km/h | 14629m | 4.3m/s | -52.6°C | 2.6% | 134.8hPa | 2.7V | 00:00:00 | 00:00:00 | 00:00:00 | |
| DF8AY | 2026-08-30 11:34:27 | 52.33408 | 14.87252 | 79° | 64km/h | 14625m | 4.5m/s | -52.6°C | 2.4% | 134.9hPa | 2.7V | 18:12:15 | 01:23:13 | 00:00:00 | |
| AA1-15 | 2026-08-30 11:34:26 | 52.33405 | 14.87227 | 78° | 64km/h | 14620m | 5.1m/s | -52.6°C | 2.4% | 135hPa | 2.7V | 18:12:15 | 01:23:12 | 00:00:00 | |
| DL1XH-west | 2026-08-30 11:34:25 | 52.33401 | 14.87201 | 77° | 64km/h | 14615m | 3.8m/s | -52.6°C | 2.3% | 135.2hPa | 2.8V | 18:12:15 | 01:23:11 | 00:00:00 | |
| SONCRA | 2026-08-30 11:34:22 | 52.33388 | 14.87092 | 79° | 68km/h | 14597m | 5.1m/s | -52.4°C | 2.2% | 135.5hPa | 2.8V | 00:00:00 | 00:00:00 | 00:00:00 | |
| EDDB2-12 | 2026-08-30 11:34:20 | 52.33385 | 14.87065 | 81° | 66km/h | 14592m | 4.9m/s | -52.4°C | 2.2% | 135.6hPa | 2.8V | 00:00:00 | 00:00:00 | 00:00:00 | |
| SP6BVK | 2026-08-30 11:34:19 | 52.33385 | 14.87065 | 82° | 66km/h | 14592m | 4.9m/s | -52.4°C | 2.2% | 135.6hPa | 2.8V | 00:00:00 | 00:00:00 | 00:00:00 | |
| DM0DOS-11 | 2026-08-30 11:34:17 | 52.33372 | 14.86906 | 85° | 64km/h | 14564m | 3.2m/s | 0°C | 0% | 0hPa | 2.8V | 00:00:00 | 01:23:00 | 00:00:00 | |
| AA1-15 | 2026-08-30 11:34:15 | 52.33374 | 14.86932 | 85° | 64km/h | 14568m | 4.9m/s | -52.2°C | 2.1% | 136.1hPa | 2.7V | 18:12:15 | 01:23:01 | 00:00:00 | |
| DL1XH-west | 2026-08-30 11:34:14 | 52.33372 | 14.86906 | 85° | 64km/h | 14564m | 3.2m/s | -52.2°C | 2.1% | 136.2hPa | 2.8V | 18:12:15 | 01:23:00 | 00:00:00 | |
| DF8AY | 2026-08-30 11:34:05 | 52.33350 | 14.86647 | 81° | 69km/h | 14524m | 4.6m/s | -52.1°C | 2% | 137.1hPa | 2.7V | 18:12:15 | 01:22:51 | 00:00:00 | |
| AA1-15 | 2026-08-30 11:34:04 | 52.33348 | 14.86620 | 82° | 66km/h | 14519m | 5.3m/s | -52.2°C | 2% | 137.2hPa | 2.7V | 18:12:15 | 01:22:50 | 00:00:00 | |
| DL1XH-west | 2026-08-30 11:34:00 | 52.33340 | 14.86513 | 85° | 66km/h | 14501m | 3.6m/s | -52.3°C | 2% | 137.5hPa | 2.8V | 18:12:15 | 01:22:46 | 00:00:00 | |
| SONDE2-12 | 2026-08-30 11:33:57 | 52.33337 | 14.86431 | 86° | 69km/h | 14488m | 5.2m/s | -52.2°C | 2.3% | 137.8hPa | 2.8V | 00:00:00 | 00:00:00 | 00:00:00 | |
| DF8AY | 2026-08-30 11:33:55 | 52.33333 | 14.86371 | 84° | 77km/h | 14479m | 2.7m/s | -52.1°C | 2% | 138hPa | 2.8V | 18:12:15 | 01:22:41 | 00:00:00 | |
| AA1-15 | 2026-08-30 11:33:53 | 52.33329 | 14.86309 | 84° | 73km/h | 14470m | 4.4m/s | -52.1°C | 2% | 138.2hPa | 2.8V | 18:12:15 | 01:22:39 | 00:00:00 | |
| DL1XH-west | 2026-08-30 11:33:50 | 52.33323 | 14.86220 | 82° | 73km/h | 14457m | 4.8m/s | -51.9°C | 1.9% | 138.5hPa | 2.7V | 18:12:15 | 01:22:36 | 00:00:00 | |
| EDDB2-12 | 2026-08-30 11:33:49 | 52.33318 | 14.86161 | 83° | 71km/h | 14448m | 5.2m/s | -52.0°C | 2.1% | 138.7hPa | 2.8V | 00:00:00 | 00:00:00 | 00:00:00 | |
| DL1XH1-15 | 2026-08-30 11:33:46 | 52.33308 | 14.85983 | 83° | 73km/h | 14422m | 5m/s | 0°C | 0% | 0hPa | 2.8V | 00:00:00 | 01:22:28 | 00:00:00 | |
| DF8AY | 2026-08-30 11:33:45 | 52.33313 | 14.86073 | 85° | 73km/h | 14434m | 5.3m/s | -51.9°C | 1.9% | 138.9hPa | 2.7V | 18:12:15 | 01:22:31 | 00:00:00 | |
| AA1-15 | 2026-08-30 11:33:42 | 52.33308 | 14.85983 | 84° | 73km/h | 14422m | 5m/s | -51.8°C | 1.9% | 139.2hPa | 2.8V | 18:12:15 | 01:22:28 | 00:00:00 | |
| DB0DAN | 2026-08-30 11:33:40 | 52.33303 | 14.85923 | 83° | 71km/h | 14413m | 4.5m/s | -51.7°C | 2.1% | 139.43hPa | 2.8V | 00:00:00 | 00:00:00 | 00:00:00 | |
| DL1XH-west | 2026-08-30 11:33:39 | 52.33301 | 14.85892 | 82° | 75km/h | 14409m | 5m/s | -51.8°C | 1.8% | 139.5hPa | 2.7V | 18:12:15 | 01:22:25 | 00:00:00 | |
| SP6BVK | 2026-08-30 11:33:38 | 52.33301 | 14.85892 | 83° | 75km/h | 14409m | 5.0m/s | -51.8°C | 2.0% | 139.5hPa | 2.7V | 00:00:00 | 00:00:00 | 00:00:00 | |
| DL1XH1-15 | 2026-08-30 11:33:34 | 52.33280 | 14.85654 | 81° | 71km/h | 14371m | 4.4m/s | 0°C | 0% | 0hPa | 2.7V | 00:00:00 | 01:22:17 | 00:00:00 | |
| AA1-15 | 2026-08-30 11:33:32 | 52.33283 | 14.85683 | 81° | 71km/h | 14376m | 5.3m/s | -51.7°C | 1.8% | 140.2hPa | 2.7V | 18:12:15 | 01:22:18 | 00:00:00 | |
| DL1XH-west | 2026-08-30 11:33:29 | 52.33274 | 14.85595 | 79° | 75km/h | 14362m | 5m/s | -51.7°C | 1.8% | 140.5hPa | 2.8V | 18:12:15 | 01:22:15 | 00:00:00 | |
| SONDE2-12 | 2026-08-30 11:33:26 | 52.33263 | 14.85504 | 80° | 73km/h | 14348m | 4.3m/s | -51.6°C | 2.2% | 140.8hPa | 2.7V | 00:00:00 | 00:00:00 | 00:00:00 | |
| DB0DAN | 2026-08-30 11:33:25 | 52.33260 | 14.85473 | 80° | 73km/h | 14344m | 4.3m/s | -51.6°C | 2% | 140.92hPa | 2.7V | 00:00:00 | 00:00:00 | 00:00:00 | |
| DF8AY | 2026-08-30 11:33:23 | 52.33253 | 14.85411 | 80° | 77km/h | 14334m | 4.2m/s | -51.6°C | 1.7% | 141.1hPa | 2.8V | 18:12:15 | 01:22:09 | 00:00:00 | |
| DL1XH1-15 | 2026-08-30 11:33:22 | 52.33247 | 14.85350 | 80° | 73km/h | 14324m | 3.7m/s | 0°C | 0% | 0hPa | 2.8V | 00:00:00 | 01:22:07 | 00:00:00 | |
| AA1-15 | 2026-08-30 11:33:22 | 52.33247 | 14.85350 | 81° | 73km/h | 14324m | 3.7m/s | -51.5°C | 1.7% | 141.3hPa | 2.8V | 18:12:15 | 01:22:07 | 00:00:00 | |
| DL1XH-west | 2026-08-30 11:33:18 | 52.33236 | 14.85263 | 76° | 71km/h | 14311m | 3.6m/s | -51.7°C | 1.7% | 141.7hPa | 2.8V | 18:12:15 | 01:22:04 | 00:00:00 | |
| DF8AY | 2026-08-30 11:33:17 | 52.33208 | 14.85104 | 76° | 68km/h | 14283m | 3.2m/s | -51.4°C | 1.7% | 142.3hPa | 2.8V | 18:12:15 | 01:21:58 | 00:00:00 | |
| DL1XH1-15 | 2026-08-30 11:33:16 | 52.33204 | 14.85076 | 78° | 69km/h | 14278m | 5.6m/s | 0°C | 0% | 0hPa | 2.8V | 00:00:00 | 01:21:57 | 00:00:00 | |
| AA1-15 | 2026-08-30 11:33:11 | 52.33204 | 14.85076 | 79° | 69km/h | 14278m | 5.6m/s | -51.4°C | 1.6% | 142.3hPa | 2.8V | 18:12:15 | 01:21:57 | 00:00:00 | |
| DB0DAN | 2026-08-30 11:33:10 | 52.33201 | 14.85048 | 82° | 69km/h | 14273m | 5.3m/s | -51.3°C | 2% | 142.48hPa | 2.8V | 00:00:00 | 00:00:00 | 00:00:00 | |
| DL1XH-west | 2026-08-30 11:33:08 | 52.33196 | 14.84986 | 81° | 77km/h | 14263m | 5.3m/s | -51.3°C | 1.6% | 142.7hPa | 2.7V | 18:12:15 | 01:21:54 | 00:00:00 | |
| DL1XH1-15 | 2026-08-30 11:33:05 | 52.33157 | 14.84775 | 73° | 62km/h | 14224m | 4.4m/s | 0°C | 0% | 0hPa | 2.8V | 00:00:00 | 01:21:46 | 00:00:00 | |
| AA1-15 | 2026-08-30 11:33:00 | 52.33157 | 14.84775 | 74° | 62km/h | 14224m | 4.4m/s | -51.1°C | 1.5% | 143.6hPa | 2.8V | 18:12:15 | 01:21:46 | 00:00:00 | |
| DL1XH-west | 2026-08-30 11:32:58 | 52.33149 | 14.84728 | 73° | 58km/h | 14214m | 5.9m/s | -51°C | 1.5% | 143.8hPa | 2.7V | 18:12:15 | 01:21:44 | 00:00:00 | |
| SP6BVK | 2026-08-30 11:32:57 | 52.33149 | 14.84728 | 74° | 58km/h | 14214m | 5.9m/s | -51.0°C | 1.9% | 143.8hPa | 2.8V | 00:00:00 | 00:00:00 | 00:00:00 | |
| DB0DAN | 2026-08-30 11:32:55 | 52.33136 | 14.84657 | 74° | 60km/h | 14199m | 4.3m/s | -50.9°C | 1.9% | 144.12hPa | 2.8V | 00:00:00 | 00:00:00 | 00:00:00 | |
| AA1-15 | 2026-08-30 11:32:49 | 52.33111 | 14.84510 | 76° | 62km/h | 14171m | 4.4m/s | -50.7°C | 1.5% | 144.7hPa | 2.7V | 18:12:15 | 01:21:35 | 00:00:00 | |
| DL1XH-west | 2026-08-30 11:32:48 | 52.33108 | 14.84485 | 76° | 60km/h | 14166m | 4.7m/s | -50.6°C | 0% | 144.8hPa | 2.7V | 18:12:15 | 01:21:34 | 00:00:00 | |
| DF8AY | 2026-08-30 11:32:47 | 52.33080 | 14.84344 | 69° | 58km/h | 14138m | 5.5m/s | -50.7°C | 1.4% | 145.5hPa | 2.7V | 18:12:15 | 01:21:28 | 00:00:00 | |
| KRY50SP-1 | 2026-08-30 11:32:43 | 52.33090 | 14.84390 | 73° | 62km/h | 14148m | 4.2m/s | -50.7°C | 1.8% | 145.3hPa | 2.8V | 00:00:00 | 00:00:00 | 00:00:00 | |
| 13BRC | 2026-08-30 11:32:42 | 52.33085 | 14.84367 | 71° | 60km/h | 14143m | 5.2m/s | -50.7°C | 1.9% | 145.4hPa | 2.8V | 00:00:00 | 00:00:00 | 00:00:00 | |
| DB0DAN | 2026-08-30 11:32:40 | 52.33069 | 14.84299 | 70° | 57km/h | 14128m | 5.9m/s | -50.6°C | 1.9% | 145.71hPa | 2.8V | 00:00:00 | 00:00:00 | 00:00:00 | |
| AA1-15 | 2026-08-30 11:32:38 | 52.33060 | 14.84253 | 72° | 58km/h | 14118m | 4.8m/s | -50.6°C | 1.5% | 145.9hPa | 2.7V | 18:12:15 | 01:21:24 | 00:00:00 | |
| DL1XH-west | 2026-08-30 11:32:37 | 52.33055 | 14.84230 | 72° | 57km/h | 14113m | 5.1m/s | -50.7°C | 0% | 0hPa | 2.7V | 18:12:15 | 01:21:23 | 00:00:00 | |
| DF8AY | 2026-08-30 11:32:36 | 52.33051 | 14.84208 | 72° | 57km/h | 14108m | 4.2m/s | -50.7°C | 1.5% | 146.1hPa | 2.7V | 18:12:15 | 01:21:22 | 00:00:00 | |
| DF8AY | 2026-08-30 11:32:30 | 52.32968 | 14.83875 | 63° | 57km/h | 14037m | 3.3m/s | -50.1°C | 1.4% | 147.8hPa | 2.7V | 18:12:15 | 01:21:07 | 00:00:00 | |
| DL1XH-west | 2026-08-30 11:32:27 | 52.33005 | 14.84004 | 68° | 58km/h | 14066m | 5.5m/s | -50.4°C | 0% | 0hPa | 2.7V | 18:12:15 | 01:21:13 | 00:00:00 | |
| DB0DAN | 2026-08-30 11:32:25 | 52.32993 | 14.83961 | 66° | 55km/h | 14056m | 5.1m/s | -50.3°C | 1.8% | 147.31hPa | 2.7V | 00:00:00 | 00:00:00 | 00:00:00 | |
| SONDE2-12 | 2026-08-30 11:32:24 | 52.32987 | 14.83939 | 66° | 57km/h | 14051m | 5.2m/s | -50.2°C | 2.0% | 147.4hPa | 2.7V | 00:00:00 | 00:00:00 | 00:00:00 | |
| DL1XH-west | 2026-08-30 11:32:16 | 52.32937 | 14.83767 | 65° | 58km/h | 14014m | 3.9m/s | -50°C | 0% | 0hPa | 2.7V | 18:12:15 | 01:21:02 | 00:00:00 | |
| DF8AY | 2026-08-30 11:32:13 | 52.32918 | 14.83699 | 66° | 62km/h | 14001m | 4.1m/s | -50.1°C | 1.5% | 148.6hPa | 2.8V | 18:12:15 | 01:20:59 | 00:00:00 | |
| DB0DAN | 2026-08-30 11:32:10 | 52.32898 | 14.83632 | 63° | 57km/h | 13987m | 4.1m/s | -50.1°C | 1.9% | 148.86hPa | 2.7V | 00:00:00 | 00:00:00 | 00:00:00 | |
| DL1XH-west | 2026-08-30 11:32:05 | 52.32868 | 14.83527 | 68° | 51km/h | 13963m | 4.2m/s | 0°C | 0% | 0hPa | 2.7V | 18:12:15 | 01:20:51 | 00:00:00 | |
| DF8AY | 2026-08-30 11:32:03 | 52.32859 | 14.83486 | 73° | 55km/h | 13952m | 4.4m/s | -50.2°C | 1.5% | 149.7hPa | 2.7V | 18:12:15 | 01:20:49 | 00:00:00 | |
| AA1-15 | 2026-08-30 11:32:02 | 52.32855 | 14.83464 | 73° | 58km/h | 13949m | 2.9m/s | -50.1°C | 1.4% | 149.8hPa | 2.8V | 18:12:15 | 01:20:48 | 00:00:00 | |
| 13BRC | 2026-08-30 11:32:00 | 52.32851 | 14.83440 | 74° | 58km/h | 13944m | 5.4m/s | -50.0°C | 1.8% | 149.8hPa | 2.8V | 00:00:00 | 00:00:00 | 00:00:00 | |
| KRY50SP-1 | 2026-08-30 11:31:58 | 52.32841 | 14.83392 | 73° | 64km/h | 13935m | 4.0m/s | -50.0°C | 1.9% | 150.1hPa | 2.8V | 00:00:00 | 00:00:00 | 00:00:00 | |
| DB0DAN | 2026-08-30 11:31:55 | 52.32822 | 14.83290 | 70° | 58km/h | 13915m | 5.3m/s | -50.3°C | 1.9% | 150.51hPa | 2.8V | 00:00:00 | 00:00:00 | 00:00:00 | |
| DL1XH-west | 2026-08-30 11:31:54 | 52.32816 | 14.83266 | 68° | 60km/h | 13910m | 3.6m/s | 0°C | 0% | 0hPa | 2.7V | 18:12:15 | 01:20:40 | 00:00:00 | |
| SONDE2-12 | 2026-08-30 11:31:53 | 52.32811 | 14.83243 | 67° | 60km/h | 13906m | 4.9m/s | -50.3°C | 2.0% | 150.7hPa | 2.7V | 00:00:00 | 00:00:00 | 00:00:00 | |
| DF8AY | 2026-08-30 11:31:52 | 52.32805 | 14.83220 | 67° | 64km/h | 13901m | 5.2m/s | -50.4°C | 1.6% | 150.8hPa | 2.7V | 18:12:15 | 01:20:38 | 00:00:00 | |
| AA1-15 | 2026-08-30 11:31:51 | 52.32798 | 14.83195 | 67° | 66km/h | 13896m | 4.3m/s | -50.4°C | 1.6% | 151hPa | 2.8V | 18:12:15 | 01:20:37 | 00:00:00 | |
| SONCRA | 2026-08-30 11:31:47 | 52.32763 | 14.83064 | 69° | 73km/h | 13873m | 5.3m/s | -50.3°C | 2.0% | 151.5hPa | 2.7V | 00:00:00 | 00:00:00 | 00:00:00 | |
| DL1XH-west | 2026-08-30 11:31:43 | 52.32743 | 14.82976 | 70° | 75km/h | 13860m | 4.5m/s | 0°C | 0% | 0hPa | 2.7V | 18:12:15 | 01:20:29 | 00:00:00 | |
| DF8AY | 2026-08-30 11:31:42 | 52.32737 | 14.82948 | 70° | 71km/h | 13855m | 4.7m/s | -50.3°C | 1.6% | 151.9hPa | 2.7V | 18:12:15 | 01:20:28 | 00:00:00 | |
| AA1-15 | 2026-08-30 11:31:35 | 52.32693 | 14.82767 | 67° | 66km/h | 13824m | 4m/s | -50.3°C | 1.8% | 152.7hPa | 2.7V | 18:12:15 | 01:20:21 | 00:00:00 | |
| DL1XH-west | 2026-08-30 11:31:33 | 52.32679 | 14.82717 | 65° | 66km/h | 13814m | 4m/s | 0°C | 0% | 0hPa | 2.8V | 18:12:15 | 01:20:19 | 00:00:00 | |
| DF8AY | 2026-08-30 11:31:31 | 52.32666 | 14.82669 | 66° | 64km/h | 13805m | 5.3m/s | -50.6°C | 1.8% | 153.2hPa | 2.8V | 18:12:15 | 01:20:17 | 00:00:00 | |
| DL1XH-west | 2026-08-30 11:31:22 | 52.32605 | 14.82452 | 67° | 64km/h | 13763m | 4.6m/s | 0°C | 0% | 0hPa | 2.7V | 18:12:15 | 01:20:08 | 00:00:00 | |
| DF8AY | 2026-08-30 11:31:21 | 52.32594 | 14.82403 | 71° | 62km/h | 13753m | 5.8m/s | -52°C | 2.3% | 154.4hPa | 2.8V | 18:12:15 | 01:20:06 | 00:00:00 | |
| AA1-15 | 2026-08-30 11:31:18 | 52.32582 | 14.82330 | 76° | 58km/h | 13740m | 5.3m/s | -52.1°C | 2.3% | 154.7hPa | 2.7V | 18:12:15 | 01:20:03 | 00:00:00 | |
| DL1XH-west | 2026-08-30 11:31:12 | 52.32565 | 14.82210 | 79° | 60km/h | 13718m | 4.9m/s | 0°C | 0% | 0hPa | 2.7V | 18:12:15 | 01:19:58 | 00:00:00 | |
| DB0DAN | 2026-08-30 11:31:10 | 52.32559 | 14.82162 | 81° | 57km/h | 13710m | 3m/s | -52.4°C | 2.4% | 155.41hPa | 2.7V | 00:00:00 | 00:00:00 | 00:00:00 | |
| DF8AY | 2026-08-30 11:31:09 | 52.32557 | 14.82138 | 82° | 60km/h | 13706m | 5m/s | -52.5°C | 2.4% | 155.5hPa | 2.8V | 18:12:15 | 01:19:55 | 00:00:00 | |
| AA1-15 | 2026-08-30 11:31:06 | 52.32548 | 14.82064 | 73° | 60km/h | 13694m | 5m/s | -52.4°C | 2.4% | 155.8hPa | 2.7V | 18:12:15 | 01:19:52 | 00:00:00 | |
| DF8AY | 2026-08-30 11:30:59 | 52.32503 | 14.81877 | 77° | 60km/h | 13660m | 5.3m/s | -52.6°C | 2.6% | 156.6hPa | 2.8V | 18:12:15 | 01:19:44 | 00:00:00 | |
| AA1-15 | 2026-08-30 11:30:54 | 52.32491 | 14.81776 | 78° | 60km/h | 13642m | 4.1m/s | -52.5°C | 2.6% | 157hPa | 2.7V | 18:12:15 | 01:19:40 | 00:00:00 | |
| SONDE2-12 | 2026-08-30 11:30:51 | 52.32473 | 14.81681 | 67° | 57km/h | 13626m | 4.7m/s | -52.7°C | 2.8% | 157.5hPa | 2.8V | 00:00:00 | 00:00:00 | 00:00:00 | |
| DF8AY | 2026-08-30 11:30:47 | 52.32458 | 14.81616 | 73° | 57km/h | 13612m | 5.1m/s | -52.6°C | 2.7% | 157.7hPa | 2.8V | 18:12:15 | 01:19:33 | 00:00:00 | |
| SP3WXH-11 | 2026-08-30 11:30:45 | 52.32451 | 14.81571 | 77° | 57km/h | 13604m | 4.8m/s | -52.6°C | 2.6% | 157.9hPa | 2.8V | 00:00:00 | 00:00:00 | 00:00:00 | |
| DL1XH-west | 2026-08-30 11:30:44 | 52.32448 | 14.81548 | 78° | 57km/h | 13599m | 4.5m/s | 0°C | 0% | 0hPa | 2.8V | 18:12:15 | 01:19:30 | 00:00:00 | |
| AA1-15 | 2026-08-30 11:30:43 | 52.32445 | 14.81525 | 78° | 58km/h | 13595m | 3.8m/s | -52.6°C | 2.8% | 158.2hPa | 2.7V | 18:12:15 | 01:19:29 | 00:00:00 | |
| DF8AY | 2026-08-30 11:30:37 | 52.32417 | 14.81382 | 66° | 62km/h | 13571m | 4.8m/s | -52.7°C | 2.9% | 158.8hPa | 2.7V | 18:12:15 | 01:19:23 | 00:00:00 | |
| AA1-15 | 2026-08-30 11:30:33 | 52.32392 | 14.81289 | 68° | 60km/h | 13554m | 3.5m/s | -52.7°C | 2.9% | 159.2hPa | 2.8V | 18:12:15 | 01:19:19 | 00:00:00 | |
| DL1XH-west | 2026-08-30 11:30:28 | 52.32366 | 14.81172 | 72° | 62km/h | 13531m | 3.8m/s | 0°C | 0% | 0hPa | 2.8V | 18:12:15 | 01:19:14 | 00:00:00 | |
| DF8AY | 2026-08-30 11:30:26 | 52.32356 | 14.81122 | 71° | 64km/h | 13522m | 3.4m/s | -52.6°C | 2.9% | 160hPa | 2.7V | 18:12:15 | 01:19:12 | 00:00:00 | |
| DB0DAN | 2026-08-30 11:30:25 | 52.32351 | 14.81097 | 70° | 60km/h | 13518m | 5m/s | -52.6°C | 2.7% | 160.06hPa | 2.7V | 00:00:00 | 00:00:00 | 00:00:00 | |
| AA1-15 | 2026-08-30 11:30:22 | 52.32335 | 14.81026 | 70° | 60km/h | 13505m | 5.2m/s | -52.6°C | 2.9% | 160.3hPa | 2.8V | 18:12:15 | 01:19:08 | 00:00:00 | |
| SONDE2-12 | 2026-08-30 11:30:20 | 52.32320 | 14.80955 | 71° | 57km/h | 13492m | 4.5m/s | -52.6°C | 3.0% | 160.7hPa | 2.8V | 00:00:00 | 00:00:00 | 00:00:00 | |
| DF8AY | 2026-08-30 11:30:16 | 52.32306 | 14.80885 | 74° | 60km/h | 13479m | 3.4m/s | -52.6°C | 3% | 161hPa | 2.8V | 18:12:15 | 01:19:02 | 00:00:00 | |
| AA1-15 | 2026-08-30 11:30:11 | 52.32287 | 14.80768 | 77° | 58km/h | 13458m | 3.6m/s | -52.7°C | 2.9% | 161.6hPa | 2.8V | 18:12:15 | 01:18:57 | 00:00:00 | |
| DB0DAN | 2026-08-30 11:30:10 | 52.32284 | 14.80745 | 78° | 55km/h | 13454m | 4.5m/s | -52.7°C | 2.7% | 161.63hPa | 2.8V | 00:00:00 | 00:00:00 | 00:00:00 | |
| DF8AY | 2026-08-30 11:30:06 | 52.32268 | 14.80631 | 77° | 60km/h | 13433m | 3.2m/s | -53°C | 2.9% | 162.2hPa | 2.8V | 18:12:15 | 01:18:51 | 00:00:00 | |
| AA1-15 | 2026-08-30 11:30:01 | 52.32252 | 14.80533 | 74° | 66km/h | 13416m | 4.6m/s | -53°C | 2.9% | 162.6hPa | 2.7V | 18:12:15 | 01:18:47 | 00:00:00 | |
| DL1XH-west | 2026-08-30 11:29:58 | 52.32237 | 14.80455 | 71° | 66km/h | 13403m | 3.4m/s | 0°C | 0% | 0hPa | 2.8V | 18:12:15 | 01:18:44 | 00:00:00 | |
| DF8AY | 2026-08-30 11:29:55 | 52.32220 | 14.80377 | 71° | 66km/h | 13389m | 3m/s | -52.9°C | 2.9% | 163.3hPa | 2.7V | 18:12:15 | 01:18:41 | 00:00:00 | |
| DB0DAN | 2026-08-30 11:29:55 | 52.32220 | 14.80377 | 71° | 64km/h | 13389m | 3m/s | -52.9°C | 2.9% | 163.29hPa | 2.7V | 00:00:00 | 00:00:00 | 00:00:00 | |
| SONDE2-12 | 2026-08-30 11:29:49 | 52.32172 | 14.80210 | 59° | 60km/h | 13357m | 6.2m/s | -52.6°C | 2.9% | 164.1hPa | 2.7V | 00:00:00 | 00:00:00 | 00:00:00 | |
| DF8AY | 2026-08-30 11:29:45 | 52.32147 | 14.80122 | 73° | 58km/h | 13337m | 3.9m/s | -52.4°C | 2.7% | 164.6hPa | 2.7V | 18:12:15 | 01:18:30 | 00:00:00 | |
| AA1-15 | 2026-08-30 11:29:43 | 52.32143 | 14.80099 | 73° | 58km/h | 13333m | 4.6m/s | -52.4°C | 2.6% | 164.7hPa | 2.7V | 18:12:15 | 01:18:29 | 00:00:00 | |
| KRY50SP-1 | 2026-08-30 11:29:43 | 52.32142 | 14.80099 | 74° | 58km/h | 13333m | 4.6m/s | -52.4°C | 2.6% | 164.7hPa | 2.8V | 00:00:00 | 00:00:00 | 00:00:00 | |
| DB0DAN | 2026-08-30 11:29:40 | 52.32129 | 14.80032 | 71° | 55km/h | 13319m | 5.8m/s | -52.4°C | 2.6% | 165.05hPa | 2.8V | 00:00:00 | 00:00:00 | 00:00:00 | |
| DF8AY | 2026-08-30 11:29:34 | 52.32101 | 14.79898 | 69° | 55km/h | 13290m | 4.7m/s | -52.2°C | 2.7% | 165.8hPa | 2.8V | 18:12:15 | 01:18:20 | 00:00:00 | |
| AA1-15 | 2026-08-30 11:29:33 | 52.32091 | 14.79858 | 67° | 51km/h | 13281m | 5.5m/s | -52.2°C | 2.7% | 166.1hPa | 2.7V | 18:12:15 | 01:18:18 | 00:00:00 | |
| DF8AY | 2026-08-30 11:29:25 | 52.32046 | 14.79696 | 71° | 55km/h | 13245m | 5.2m/s | -52.1°C | 2.6% | 166.9hPa | 2.8V | 18:12:15 | 01:18:10 | 00:00:00 | |
| DB0DAN | 2026-08-30 11:29:25 | 52.32050 | 14.79717 | 70° | 51km/h | 13250m | 4.1m/s | -52.1°C | 2.6% | 166.85hPa | 2.7V | 00:00:00 | 00:00:00 | 00:00:00 | |
| AA1-15 | 2026-08-30 11:29:22 | 52.32038 | 14.79653 | 74° | 53km/h | 13236m | 5.2m/s | -52.2°C | 2.6% | 167.2hPa | 2.8V | 18:12:15 | 01:18:08 | 00:00:00 | |
| SONDE2-12 | 2026-08-30 11:29:18 | 52.32020 | 14.79553 | 74° | 49km/h | 13215m | 4.9m/s | -52.0°C | 2.8% | 167.7hPa | 2.7V | 00:00:00 | 00:00:00 | 00:00:00 | |
| DF8AY | 2026-08-30 11:29:13 | 52.32007 | 14.79470 | 76° | 55km/h | 13197m | 3.1m/s | -51.7°C | 2.7% | 168.2hPa | 2.7V | 18:12:15 | 01:17:59 | 00:00:00 | |
| AA1-15 | 2026-08-30 11:29:11 | 52.32001 | 14.79427 | 80° | 53km/h | 13187m | 4.4m/s | -51.8°C | 2.8% | 168.5hPa | 2.8V | 18:12:15 | 01:17:57 | 00:00:00 | |
| DB0DAN | 2026-08-30 11:29:10 | 52.31999 | 14.79405 | 79° | 49km/h | 13183m | 3.4m/s | -51.7°C | 2.7% | 168.57hPa | 2.8V | 00:00:00 | 00:00:00 | 00:00:00 | |
| DF8AY | 2026-08-30 11:29:02 | 52.31976 | 14.79236 | 76° | 53km/h | 13148m | 4.4m/s | -51.5°C | 2.6% | 169.5hPa | 2.7V | 18:12:15 | 01:17:48 | 00:00:00 | |
| AA1-15 | 2026-08-30 11:29:00 | 52.31971 | 14.79194 | 79° | 53km/h | 13138m | 4m/s | -51.4°C | 2.6% | 169.8hPa | 2.7V | 18:12:15 | 01:17:46 | 00:00:00 | |
| KRY50SP-1 | 2026-08-30 11:28:58 | 52.31968 | 14.79172 | 79° | 53km/h | 13134m | 5.8m/s | -51.3°C | 2.6% | 169.9hPa | 2.7V | 00:00:00 | 00:00:00 | 00:00:00 | |
| DB0DAN | 2026-08-30 11:28:55 | 52.31959 | 14.79087 | 84° | 51km/h | 13116m | 4.1m/s | -51.2°C | 2.6% | 170.32hPa | 2.7V | 00:00:00 | 00:00:00 | 00:00:00 | |
| DF8AY | 2026-08-30 11:28:52 | 52.31953 | 14.78997 | 83° | 55km/h | 13098m | 5.4m/s | -51.2°C | 2.7% | 170.8hPa | 2.7V | 18:12:15 | 01:17:37 | 00:00:00 | |
| AA1-15 | 2026-08-30 11:28:50 | 52.31951 | 14.78975 | 82° | 53km/h | 13093m | 4.4m/s | -51.1°C | 2.7% | 170.9hPa | 2.7V | 18:12:15 | 01:17:36 | 00:00:00 | |
| SONDE2-12 | 2026-08-30 11:28:47 | 52.31942 | 14.78884 | 79° | 55km/h | 13074m | 5.3m/s | -51.1°C | 2.9% | 171.4hPa | 2.8V | 00:00:00 | 00:00:00 | 00:00:00 | |
| DF8AY | 2026-08-30 11:28:46 | 52.31928 | 14.78771 | 81° | 55km/h | 13052m | 4.7m/s | -51.2°C | 2.9% | 172hPa | 2.8V | 18:12:15 | 01:17:27 | 00:00:00 | |
| AA1-15 | 2026-08-30 11:28:39 | 52.31925 | 14.78725 | 84° | 58km/h | 13043m | 5.6m/s | -51.3°C | 2.8% | 172.3hPa | 2.8V | 18:12:15 | 01:17:25 | 00:00:00 | |
| DF8AY | 2026-08-30 11:28:30 | 52.31915 | 14.78499 | 82° | 60km/h | 13002m | 3.9m/s | -51.2°C | 2.8% | 173.4hPa | 2.7V | 18:12:15 | 01:17:16 | 00:00:00 | |
| AA1-15 | 2026-08-30 11:28:29 | 52.31912 | 14.78474 | 80° | 62km/h | 12998m | 4.8m/s | -51.3°C | 2.8% | 173.5hPa | 2.8V | 18:12:15 | 01:17:15 | 00:00:00 | |
| DF8AY | 2026-08-30 11:28:20 | 52.31881 | 14.78239 | 81° | 60km/h | 12956m | 4.7m/s | -51.2°C | 3.1% | 174.6hPa | 2.8V | 18:12:15 | 01:17:06 | 00:00:00 | |
| AA1-15 | 2026-08-30 11:28:17 | 52.31873 | 14.78165 | 78° | 64km/h | 12943m | 4.8m/s | -51.2°C | 3% | 174.9hPa | 2.7V | 18:12:15 | 01:17:03 | 00:00:00 | |
| SONDE2-12 | 2026-08-30 11:28:15 | 52.31865 | 14.78113 | 74° | 64km/h | 12934m | 4.5m/s | -51.3°C | 3.0% | 175.2hPa | 2.7V | 00:00:00 | 00:00:00 | 00:00:00 | |
| DF8AY | 2026-08-30 11:28:10 | 52.31844 | 14.77984 | 77° | 64km/h | 12911m | 5.1m/s | -51.2°C | 3.1% | 175.8hPa | 2.7V | 18:12:15 | 01:16:56 | 00:00:00 | |
| DB0DAN | 2026-08-30 11:28:10 | 52.31844 | 14.77984 | 77° | 60km/h | 12911m | 5.1m/s | -51.2°C | 2.9% | 175.8hPa | 2.7V | 00:00:00 | 00:00:00 | 00:00:00 | |
| AA1-15 | 2026-08-30 11:28:07 | 52.31833 | 14.77911 | 76° | 60km/h | 12897m | 5.5m/s | -51.3°C | 3.1% | 176.2hPa | 2.8V | 18:12:15 | 01:16:53 | 00:00:00 | |
| DF8AY | 2026-08-30 11:27:59 | 52.31798 | 14.77716 | 74° | 60km/h | 12860m | 5.3m/s | -51.2°C | 3.3% | 177.2hPa | 2.7V | 18:12:15 | 01:16:45 | 00:00:00 | |
| AA1-15 | 2026-08-30 11:27:56 | 52.31786 | 14.77643 | 76° | 62km/h | 12847m | 4.5m/s | -51.1°C | 3.3% | 177.6hPa | 2.8V | 18:12:15 | 01:16:42 | 00:00:00 | |
| DB0DAN | 2026-08-30 11:27:55 | 52.31782 | 14.77618 | 75° | 58km/h | 12843m | 3.5m/s | -51.1°C | 3.1% | 177.67hPa | 2.8V | 00:00:00 | 00:00:00 | 00:00:00 | |
| DF8AY | 2026-08-30 11:27:48 | 52.31749 | 14.77445 | 71° | 62km/h | 12810m | 4.1m/s | -51°C | 3.4% | 178.6hPa | 2.8V | 18:12:15 | 01:16:34 | 00:00:00 | |
| AA1-15 | 2026-08-30 11:27:45 | 52.31736 | 14.77373 | 77° | 58km/h | 12795m | 4.9m/s | -51°C | 3.4% | 178.9hPa | 2.7V | 18:12:15 | 01:16:31 | 00:00:00 | |
| SONDE2-12 | 2026-08-30 11:27:45 | 52.31733 | 14.77350 | 78° | 55km/h | 12790m | 5.6m/s | -50.9°C | 3.3% | 179.1hPa | 2.7V | 00:00:00 | 00:00:00 | 00:00:00 | |
| KRY50SP-1 | 2026-08-30 11:27:44 | 52.31736 | 14.77373 | 78° | 58km/h | 12796m | 4.9m/s | -51.0°C | 3.0% | 178.9hPa | 2.7V | 00:00:00 | 00:00:00 | 00:00:00 | |
| DB0DAN | 2026-08-30 11:27:40 | 52.31724 | 14.77259 | 81° | 55km/h | 12772m | 3.8m/s | -50.8°C | 3.2% | 179.59hPa | 2.7V | 00:00:00 | 00:00:00 | 00:00:00 | |
| DF8AY | 2026-08-30 11:27:38 | 52.31718 | 14.77212 | 79° | 57km/h | 12763m | 4m/s | -50.8°C | 3.7% | 179.9hPa | 2.8V | 18:12:15 | 01:16:24 | 00:00:00 | |
| AA1-15 | 2026-08-30 11:27:35 | 52.31707 | 14.77110 | 81° | 68km/h | 12744m | 3.8m/s | -51°C | 4% | 180.4hPa | 2.8V | 18:12:15 | 01:16:20 | 00:00:00 | |
| DF8AY | 2026-08-30 11:27:28 | 52.31696 | 14.76955 | 88° | 60km/h | 12715m | 4.4m/s | -51.2°C | 4.3% | 181.2hPa | 2.8V | 18:12:15 | 01:16:14 | 00:00:00 | |
| DB0DAN | 2026-08-30 11:27:25 | 52.31693 | 14.76881 | 86° | 58km/h | 12702m | 4.1m/s | -51.4°C | 3.7% | 181.54hPa | 2.8V | 00:00:00 | 00:00:00 | 00:00:00 | |
| AA1-15 | 2026-08-30 11:27:22 | 52.31690 | 14.76803 | 86° | 64km/h | 12688m | 5.2m/s | -51.4°C | 4.6% | 181.9hPa | 2.7V | 18:12:15 | 01:16:08 | 00:00:00 | |
| DF8AY | 2026-08-30 11:27:17 | 52.31684 | 14.76669 | 85° | 66km/h | 12665m | 4.6m/s | -51.6°C | 5% | 182.6hPa | 2.7V | 18:12:15 | 01:16:03 | 00:00:00 | |
| KRY50SP-1 | 2026-08-30 11:27:16 | 52.31684 | 14.76669 | 85° | 66km/h | 12665m | 4.6m/s | -51.6°C | 4.0% | 182.6hPa | 2.7V | 00:00:00 | 00:00:00 | 00:00:00 | |
| SONDE2-11 | 2026-08-30 11:27:14 | 52.31674 | 14.76560 | 81° | 69km/h | 12648m | 5.1m/s | -51.7°C | 4.1% | 183.1hPa | 2.7V | 00:00:00 | 00:00:00 | 00:00:00 | |
| DAC517 | 2026-08-30 11:27:13 | 52.31674 | 14.76560 | 83° | 69km/h | 12648m | 5.1m/s | -51.7°C | 4.1% | 183.1hPa | 2.7V | 00:00:00 | 00:00:00 | 00:00:00 | |
| DB0DAN | 2026-08-30 11:27:10 | 52.31669 | 14.76472 | 85° | 69km/h | 12633m | 5.4m/s | -51.7°C | 4.3% | 183.49hPa | 2.7V | 00:00:00 | 00:00:00 | 00:00:00 | |
| AA1-15 | 2026-08-30 11:27:09 | 52.31667 | 14.76442 | 84° | 71km/h | 12628m | 4.6m/s | -51.7°C | 5.3% | 183.6hPa | 2.7V | 18:12:15 | 01:15:55 | 00:00:00 | |
| DF8AY | 2026-08-30 11:27:07 | 52.31663 | 14.76384 | 84° | 71km/h | 12620m | 5.3m/s | -51.7°C | 5.4% | 183.8hPa | 2.8V | 18:12:15 | 01:15:53 | 00:00:00 | |
| DF8AY | 2026-08-30 11:26:56 | 52.31631 | 14.76063 | 77° | 73km/h | 12571m | 5.3m/s | -51.9°C | 5.6% | 185.3hPa | 2.7V | 18:12:15 | 01:15:42 | 00:00:00 | |
| DB0DAN | 2026-08-30 11:26:55 | 52.31627 | 14.76034 | 77° | 68km/h | 12566m | 3.9m/s | -51.9°C | 4.6% | 185.41hPa | 2.7V | 00:00:00 | 00:00:00 | 00:00:00 | |
| DF8AY | 2026-08-30 11:26:46 | 52.31592 | 14.75791 | 76° | 69km/h | 12524m | 4.9m/s | -51.8°C | 5.6% | 186.6hPa | 2.8V | 18:12:15 | 01:15:32 | 00:00:00 | |
| SONDE2-12 | 2026-08-30 11:26:42 | 52.31578 | 14.75680 | 80° | 69km/h | 12506m | 4.0m/s | -52.0°C | 5.1% | 187.1hPa | 2.7V | 00:00:00 | 00:00:00 | 00:00:00 | |
| DB0DAN | 2026-08-30 11:26:40 | 52.31571 | 14.75621 | 79° | 71km/h | 12495m | 4.7m/s | -52°C | 5% | 187.43hPa | 2.7V | 00:00:00 | 00:00:00 | 00:00:00 | |
| DF8AY | 2026-08-30 11:26:36 | 52.31556 | 14.75472 | 79° | 68km/h | 12470m | 4.7m/s | -52°C | 6.2% | 188.2hPa | 2.7V | 18:12:15 | 01:15:21 | 00:00:00 | |
| AA1-15 | 2026-08-30 11:26:33 | 52.31550 | 14.75419 | 80° | 60km/h | 12461m | 5.8m/s | -51.9°C | 6.2% | 188.4hPa | 2.7V | 18:12:15 | 01:15:19 | 00:00:00 | |
| DF8AY | 2026-08-30 11:26:24 | 52.31536 | 14.75155 | 88° | 95km/h | 12410m | 5.3m/s | -51.6°C | 6.5% | 189.9hPa | 2.8V | 18:12:15 | 01:15:10 | 00:00:00 | |
| AA1-15 | 2026-08-30 11:26:22 | 52.31535 | 14.75075 | 88° | 99km/h | 12399m | 4.7m/s | -51.5°C | 6.7% | 190.3hPa | 2.8V | 18:12:15 | 01:15:08 | 00:00:00 | |
| DF8AY | 2026-08-30 11:26:19 | 52.31531 | 14.74808 | 88° | 80km/h | 12355m | 6m/s | -51.6°C | 7.2% | 191.5hPa | 2.7V | 18:12:15 | 01:15:00 | 00:00:00 | |
| SONDE2-12 | 2026-08-30 11:26:11 | 52.31528 | 14.74704 | 88° | 84km/h | 12334m | 8.0m/s | -52.0°C | 6.2% | 192.1hPa | 2.7V | 00:00:00 | 00:00:00 | 00:00:00 | |
| AA1-15 | 2026-08-30 11:26:07 | 52.31527 | 14.74561 | 89° | 95km/h | 12311m | 5.2m/s | -52°C | 7.7% | 192.8hPa | 2.7V | 18:12:15 | 01:14:53 | 00:00:00 | |
| DF8AY | 2026-08-30 11:26:04 | 52.31524 | 14.74437 | 87° | 102km/h | 12293m | 6.2m/s | -51.9°C | 7.7% | 193.3hPa | 2.8V | 18:12:15 | 01:14:50 | 00:00:00 | |
| AA1-15 | 2026-08-30 11:25:56 | 52.31497 | 14.74119 | 83° | 91km/h | 12255m | 4m/s | -51.9°C | 7.9% | 194.5hPa | 2.8V | 18:12:15 | 01:14:42 | 00:00:00 | |
| DB0DAN | 2026-08-30 11:25:55 | 52.31494 | 14.74082 | 84° | 86km/h | 12250m | 5.9m/s | -51.9°C | 6.1% | 194.67hPa | 2.8V | 00:00:00 | 00:00:00 | 00:00:00 | |
| DF8AY | 2026-08-30 11:25:53 | 52.31490 | 14.74007 | 85° | 93km/h | 12241m | 4m/s | -51.8°C | 8% | 194.9hPa | 2.7V | 18:12:15 | 01:14:39 | 00:00:00 | |
| DF8AY | 2026-08-30 11:25:43 | 52.31455 | 14.73612 | 84° | 91km/h | 12198m | 4m/s | -51.6°C | 7.9% | 196.2hPa | 2.8V | 18:12:15 | 01:14:29 | 00:00:00 | |
| AA1-15 | 2026-08-30 11:25:40 | 52.31448 | 14.73502 | 86° | 88km/h | 12183m | 4.8m/s | -51.8°C | 7.9% | 196.7hPa | 2.7V | 18:12:15 | 01:14:26 | 00:00:00 | |
| DB0DAN | 2026-08-30 11:25:40 | 52.31448 | 14.73502 | 86° | 84km/h | 12183m | 4.8m/s | -51.8°C | 6% | 196.68hPa | 2.7V | 00:00:00 | 00:00:00 | 00:00:00 | |
| DF8AY | 2026-08-30 11:25:32 | 52.31425 | 14.73213 | 82° | 89km/h | 12150m | 4.4m/s | -51.7°C | 8% | 197.7hPa | 2.7V | 18:12:15 | 01:14:18 | 00:00:00 | |
| AA1-15 | 2026-08-30 11:25:30 | 52.31419 | 14.73141 | 84° | 86km/h | 12141m | 4m/s | -51.8°C | 8% | 198hPa | 2.8V | 18:12:15 | 01:14:16 | 00:00:00 | |
| S3001 | 2026-08-30 11:25:28 | 52.31415 | 14.73071 | 85° | 84km/h | 12132m | 4.3m/s | -51.8°C | 6.1% | 198.2hPa | 2.8V | 00:00:00 | 00:00:00 | 00:00:00 | |
| DB0DAN | 2026-08-30 11:25:25 | 52.31410 | 14.72967 | 84° | 80km/h | 12119m | 3.4m/s | -51.9°C | 6% | 198.66hPa | 2.8V | 00:00:00 | 00:00:00 | 00:00:00 | |
| DF8AY | 2026-08-30 11:25:22 | 52.31401 | 14.72860 | 82° | 89km/h | 12105m | 4.4m/s | -51.7°C | 7.8% | 199hPa | 2.7V | 18:12:15 | 01:14:08 | 00:00:00 | |
| AA1-15 | 2026-08-30 11:25:20 | 52.31395 | 14.72788 | 81° | 88km/h | 12097m | 4.2m/s | -51.6°C | 7.7% | 199.3hPa | 2.7V | 18:12:15 | 01:14:06 | 00:00:00 | |
| DF8AY | 2026-08-30 11:25:11 | 52.31366 | 14.72465 | 82° | 86km/h | 12057m | 4.9m/s | -51.5°C | 7.1% | 200.5hPa | 2.8V | 18:12:15 | 01:13:57 | 00:00:00 | |
| DB0DAN | 2026-08-30 11:25:10 | 52.31363 | 14.72431 | 81° | 80km/h | 12053m | 3.5m/s | -51.6°C | 5.5% | 200.66hPa | 2.7V | 00:00:00 | 00:00:00 | 00:00:00 | |
| AA1-15 | 2026-08-30 11:25:09 | 52.31360 | 14.72396 | 81° | 84km/h | 12048m | 5.5m/s | -51.6°C | 7% | 200.8hPa | 2.7V | 18:12:15 | 01:13:55 | 00:00:00 | |
| SONDE2-12 | 2026-08-30 11:25:09 | 52.31360 | 14.72396 | 80° | 84km/h | 12049m | 5.5m/s | -51.6°C | 5.8% | 200.8hPa | 2.8V | 00:00:00 | 00:00:00 | 00:00:00 | |
| DF8AY | 2026-08-30 11:25:01 | 52.31338 | 14.72130 | 83° | 78km/h | 12015m | 3.8m/s | -51.5°C | 6.8% | 201.8hPa | 2.8V | 18:12:15 | 01:13:47 | 00:00:00 | |
| AA1-15 | 2026-08-30 11:24:58 | 52.31331 | 14.72034 | 82° | 78km/h | 12002m | 5.2m/s | -51.5°C | 6.9% | 202.2hPa | 2.7V | 18:12:15 | 01:13:44 | 00:00:00 | |
| S3001 | 2026-08-30 11:24:57 | 52.31328 | 14.72002 | 81° | 80km/h | 11998m | 3.6m/s | -51.6°C | 5.3% | 202.4hPa | 2.8V | 00:00:00 | 00:00:00 | 00:00:00 | |
| DB0DAN | 2026-08-30 11:24:55 | 52.31323 | 14.71936 | 83° | 78km/h | 11989m | 4.6m/s | -51.6°C | 5.4% | 202.62hPa | 2.8V | 00:00:00 | 00:00:00 | 00:00:00 | |
| DF8AY | 2026-08-30 11:24:50 | 52.31311 | 14.71768 | 85° | 80km/h | 11967m | 3.9m/s | -51.5°C | 7.4% | 203.3hPa | 2.8V | 18:12:15 | 01:13:36 | 00:00:00 | |
| AA1-15 | 2026-08-30 11:24:47 | 52.31304 | 14.71668 | 83° | 82km/h | 11955m | 3.5m/s | -51.5°C | 7.7% | 203.7hPa | 2.7V | 18:12:15 | 01:13:33 | 00:00:00 | |
| KRY50SP-1 | 2026-08-30 11:24:44 | 52.31299 | 14.71600 | 83° | 86km/h | 11946m | 3.4m/s | -51.5°C | 6.1% | 204.0hPa | 2.7V | 00:00:00 | 00:00:00 | 00:00:00 | |
| SP6BVK | 2026-08-30 11:24:42 | 52.31292 | 14.71529 | 82° | 89km/h | 11937m | 4.3m/s | -51.6°C | 6.2% | 204.3hPa | 2.7V | 00:00:00 | 00:00:00 | 00:00:00 | |
| DB0DAN | 2026-08-30 11:24:40 | 52.31282 | 14.71418 | 83° | 88km/h | 11923m | 3.4m/s | -51.6°C | 6.5% | 204.66hPa | 2.7V | 00:00:00 | 00:00:00 | 00:00:00 | |
| DF8AY | 2026-08-30 11:24:39 | 52.31279 | 14.71381 | 82° | 91km/h | 11919m | 5.1m/s | -51.6°C | 8.7% | 204.8hPa | 2.7V | 18:12:15 | 01:13:25 | 00:00:00 | |
| SONDE2-12 | 2026-08-30 11:24:39 | 52.31276 | 14.71344 | 82° | 88km/h | 11915m | 3.5m/s | -51.6°C | 6.9% | 205.0hPa | 2.8V | 00:00:00 | 00:00:00 | 00:00:00 | |
| AA1-15 | 2026-08-30 11:24:37 | 52.31274 | 14.71308 | 84° | 86km/h | 11911m | 5.2m/s | -51.6°C | 8.8% | 205.1hPa | 2.8V | 18:12:15 | 01:13:23 | 00:00:00 | |
| DF8AY | 2026-08-30 11:24:28 | 52.31248 | 14.71010 | 79° | 84km/h | 11874m | 4.3m/s | -51.8°C | 9.8% | 206.2hPa | 2.8V | 18:12:15 | 01:13:14 | 00:00:00 | |
| AA1-15 | 2026-08-30 11:24:25 | 52.31237 | 14.70909 | 81° | 82km/h | 11861m | 3.9m/s | -51.8°C | 10.3% | 206.7hPa | 2.7V | 18:12:15 | 01:13:11 | 00:00:00 | |
| DB0DAN | 2026-08-30 11:24:25 | 52.31237 | 14.70909 | 81° | 78km/h | 11861m | 3.9m/s | -51.8°C | 7.6% | 206.69hPa | 2.7V | 00:00:00 | 00:00:00 | 00:00:00 | |
| DF8AY | 2026-08-30 11:24:16 | 52.31207 | 14.70598 | 80° | 88km/h | 11825m | 3.9m/s | -52.3°C | 12.3% | 207.8hPa | 2.8V | 18:12:15 | 01:13:02 | 00:00:00 | |
| AA1-15 | 2026-08-30 11:24:14 | 52.31201 | 14.70528 | 82° | 84km/h | 11816m | 3.7m/s | -52.4°C | 12.9% | 208.1hPa | 2.7V | 18:12:15 | 01:13:00 | 00:00:00 | |
| SONDE2-12 | 2026-08-30 11:24:07 | 52.31172 | 14.70286 | 76° | 88km/h | 11787m | 3.6m/s | -52.7°C | 12.0% | 209.1hPa | 2.7V | 00:00:00 | 00:00:00 | 00:00:00 | |
| DF8AY | 2026-08-30 11:24:05 | 52.31162 | 14.70214 | 76° | 91km/h | 11778m | 3.5m/s | -52.7°C | 15.7% | 209.4hPa | 2.7V | 18:12:15 | 01:12:51 | 00:00:00 | |
| AA1-15 | 2026-08-30 11:24:03 | 52.31151 | 14.70141 | 78° | 89km/h | 11770m | 4.6m/s | -52.9°C | 16.3% | 209.6hPa | 2.8V | 18:12:15 | 01:12:49 | 00:00:00 | |
| AA1-15 | 2026-08-30 11:23:52 | 52.31092 | 14.69752 | 73° | 84km/h | 11727m | 4m/s | -53°C | 20% | 211hPa | 2.8V | 18:12:15 | 01:12:38 | 00:00:00 | |
| DF8AY | 2026-08-30 11:23:51 | 52.31086 | 14.69719 | 73° | 82km/h | 11722m | 4.3m/s | -53.1°C | 20.5% | 211.2hPa | 2.8V | 18:12:15 | 01:12:37 | 00:00:00 | |
| DM0DOS-11 | 2026-08-30 11:23:46 | 52.31031 | 14.69425 | 71° | 82km/h | 11685m | 5m/s | 0°C | 0% | 0hPa | 2.9V | 00:00:00 | 01:12:28 | 00:00:00 | |
| AA1-15 | 2026-08-30 11:23:42 | 52.31031 | 14.69425 | 72° | 82km/h | 11685m | 5m/s | -53.2°C | 25.7% | 212.4hPa | 2.9V | 18:12:15 | 01:12:28 | 00:00:00 | |
| DF8AY | 2026-08-30 11:23:41 | 52.31024 | 14.69393 | 71° | 82km/h | 11681m | 4.5m/s | -53.2°C | 26.5% | 212.6hPa | 2.9V | 18:12:15 | 01:12:27 | 00:00:00 | |
| SONDE2-12 | 2026-08-30 11:23:36 | 52.30993 | 14.69229 | 72° | 82km/h | 11659m | 3.6m/s | -53.9°C | 25.0% | 213.3hPa | 2.7V | 00:00:00 | 00:00:00 | 00:00:00 | |
| SP3BTT-10 | 2026-08-30 11:23:34 | 52.30981 | 14.69164 | 75° | 82km/h | 11649m | 4.0m/s | -54.0°C | 30.7% | 213.5hPa | 2.7V | 00:00:00 | 00:00:00 | 00:00:00 | |
| DM0DOS-11 | 2026-08-30 11:23:32 | 52.30954 | 14.69011 | 74° | 77km/h | 11628m | 3.7m/s | 0°C | 0% | 0hPa | 2.7V | 00:00:00 | 01:12:15 | 00:00:00 | |
| AA1-15 | 2026-08-30 11:23:31 | 52.30965 | 14.69071 | 74° | 75km/h | 11637m | 3.9m/s | -54.2°C | 33.1% | 214hPa | 2.8V | 18:12:15 | 01:12:17 | 00:00:00 | |
| DF8AY | 2026-08-30 11:23:30 | 52.30960 | 14.69041 | 75° | 77km/h | 11632m | 5.2m/s | -54.3°C | 33.5% | 214.2hPa | 2.8V | 18:12:15 | 01:12:16 | 00:00:00 | |
| EDDB2-12 | 2026-08-30 11:23:28 | 52.30949 | 14.68981 | 72° | 75km/h | 11623m | 5.2m/s | -54.5°C | 26.9% | 214.5hPa | 2.7V | 00:00:00 | 00:00:00 | 00:00:00 | |
| KRY50SP-1 | 2026-08-30 11:23:26 | 52.30936 | 14.68921 | 72° | 78km/h | 11614m | 4.2m/s | -54.7°C | 27.0% | 214.7hPa | 2.7V | 00:00:00 | 00:00:00 | 00:00:00 | |
| DAC517 | 2026-08-30 11:23:25 | 52.30930 | 14.68890 | 72° | 80km/h | 11610m | 5.2m/s | -54.7°C | 27.1% | 214.9hPa | 2.7V | 00:00:00 | 00:00:00 | 00:00:00 | |
| 13BRC | 2026-08-30 11:23:24 | 52.30923 | 14.68858 | 73° | 80km/h | 11605m | 4.0m/s | -54.7°C | 27.3% | 215.1hPa | 2.7V | 00:00:00 | 00:00:00 | 00:00:00 | |
| DL2RXE-15 | 2026-08-30 11:23:23 | 52.30923 | 14.68858 | 73° | 80km/h | 11605m | 4.0m/s | -54.7°C | 27.3% | 215.1hPa | 2.7V | 00:00:00 | 00:00:00 | 00:00:00 | |
| DM0DOS-11 | 2026-08-30 11:23:21 | 52.30885 | 14.68636 | 76° | 77km/h | 11574m | 4.8m/s | 0°C | 0% | 0hPa | 2.7V | 00:00:00 | 01:12:03 | 00:00:00 | |
| AA1-15 | 2026-08-30 11:23:20 | 52.30899 | 14.68731 | 76° | 80km/h | 11588m | 5.1m/s | -54.7°C | 36.2% | 215.7hPa | 2.9V | 18:12:15 | 01:12:06 | 00:00:00 | |
| DF8AY | 2026-08-30 11:23:19 | 52.30894 | 14.68699 | 77° | 80km/h | 11583m | 4m/s | -54.6°C | 36.6% | 215.8hPa | 2.9V | 18:12:15 | 01:12:05 | 00:00:00 | |
| KRY50SP-1 | 2026-08-30 11:23:15 | 52.30880 | 14.68605 | 77° | 77km/h | 11570m | 3.6m/s | -54.7°C | 31.7% | 216.3hPa | 2.8V | 00:00:00 | 00:00:00 | 00:00:00 | |
| DM0DOS-11 | 2026-08-30 11:23:11 | 52.30837 | 14.68320 | 76° | 80km/h | 11529m | 4.9m/s | 0°C | 0% | 0hPa | 2.8V | 00:00:00 | 01:11:53 | 00:00:00 | |
| AA1-15 | 2026-08-30 11:23:09 | 52.30846 | 14.68385 | 77° | 80km/h | 11537m | 4.5m/s | -54.8°C | 39.5% | 217.4hPa | 2.9V | 18:12:15 | 01:11:55 | 00:00:00 | |
| DF8AY | 2026-08-30 11:23:08 | 52.30824 | 14.68222 | 79° | 82km/h | 11515m | 4.7m/s | -54.9°C | 40.1% | 0hPa | 2.7V | 18:12:15 | 01:11:50 | 00:00:00 | |
| SONDE2-12 | 2026-08-30 11:23:05 | 52.30828 | 14.68255 | 78° | 80km/h | 11520m | 5.6m/s | -55.0°C | 35.7% | 217.9hPa | 2.7V | 00:00:00 | 00:00:00 | 00:00:00 | |
| AA1-15 | 2026-08-30 11:22:58 | 52.30804 | 14.68035 | 83° | 77km/h | 11487m | 4.2m/s | -54.8°C | 41.2% | 219.1hPa | 2.7V | 18:12:15 | 01:11:44 | 00:00:00 | |
| DM0DOS-11 | 2026-08-30 11:22:58 | 52.30798 | 14.67971 | 80° | 80km/h | 11477m | 4.4m/s | 0°C | 0% | 0hPa | 2.9V | 00:00:00 | 01:11:42 | 00:00:00 | |
| DF8AY | 2026-08-30 11:22:55 | 52.30795 | 14.67938 | 80° | 82km/h | 11472m | 4.7m/s | -54.8°C | 41.5% | 0hPa | 2.8V | 18:12:15 | 01:11:41 | 00:00:00 | |
| S3001 | 2026-08-30 11:22:53 | 52.30783 | 14.67836 | 77° | 82km/h | 11459m | 5.2m/s | -55.0°C | 35.2% | 220.0hPa | 2.9V | 00:00:00 | 00:00:00 | 00:00:00 | |
| EDDB2-11 | 2026-08-30 11:22:50 | 52.30774 | 14.67769 | 77° | 84km/h | 11451m | 4.5m/s | -54.9°C | 35.6% | 220.3hPa | 2.9V | 00:00:00 | 00:00:00 | 00:00:00 | |
| DM0DOS-11 | 2026-08-30 11:22:47 | 52.30757 | 14.67599 | 81° | 82km/h | 11428m | 4m/s | 0°C | 0% | 0hPa | 2.9V | 00:00:00 | 01:11:31 | 00:00:00 | |
| AA1-15 | 2026-08-30 11:22:47 | 52.30763 | 14.67666 | 82° | 84km/h | 11437m | 4.5m/s | -54.7°C | 42.2% | 220.8hPa | 2.7V | 18:12:15 | 01:11:33 | 00:00:00 | |
| DF8AY | 2026-08-30 11:22:45 | 52.30757 | 14.67599 | 82° | 82km/h | 11428m | 4m/s | -54.7°C | 0% | 0hPa | 2.9V | 18:12:15 | 01:11:31 | 00:00:00 | |
| AA1-15 | 2026-08-30 11:22:36 | 52.30727 | 14.67297 | 80° | 82km/h | 11383m | 4.4m/s | -54.5°C | 45% | 222.7hPa | 2.8V | 18:12:15 | 01:11:22 | 00:00:00 | |
| DF8AY | 2026-08-30 11:22:34 | 52.30720 | 14.67230 | 80° | 84km/h | 11374m | 4.4m/s | 0°C | 0% | 0hPa | 2.7V | 18:12:15 | 01:11:20 | 00:00:00 | |
| AA1-15 | 2026-08-30 11:22:25 | 52.30685 | 14.66923 | 83° | 82km/h | 11332m | 5.1m/s | -54.3°C | 49.1% | 224.4hPa | 2.9V | 18:12:15 | 01:11:11 | 00:00:00 | |
| DF8AY | 2026-08-30 11:22:23 | 52.30680 | 14.66856 | 81° | 82km/h | 11323m | 4.8m/s | 0°C | 0% | 0hPa | 2.9V | 18:12:15 | 01:11:09 | 00:00:00 | |
| AA1-15 | 2026-08-30 11:22:15 | 52.30642 | 14.66598 | 74° | 75km/h | 11284m | 4.2m/s | -54.3°C | 51.2% | 226.2hPa | 2.9V | 18:12:15 | 01:11:01 | 00:00:00 | |
| DF8AY | 2026-08-30 11:22:13 | 52.30632 | 14.66538 | 77° | 75km/h | 11274m | 4.2m/s | 0°C | 0% | 0hPa | 2.7V | 18:12:15 | 01:10:59 | 00:00:00 | |
| AA1-15 | 2026-08-30 11:22:04 | 52.30591 | 14.66259 | 75° | 75km/h | 11233m | 4.6m/s | -54.2°C | 52.6% | 227.9hPa | 2.7V | 18:12:15 | 01:10:50 | 00:00:00 | |
| SONDE2-12 | 2026-08-30 11:22:03 | 52.30586 | 14.66230 | 75° | 73km/h | 11229m | 3.5m/s | -54.3°C | 49.7% | 228.0hPa | 2.7V | 00:00:00 | 00:00:00 | 00:00:00 | |
| DF8AY | 2026-08-30 11:22:02 | 52.30566 | 14.66078 | 80° | 77km/h | 11205m | 3.2m/s | 0°C | 0% | 0hPa | 2.7V | 18:12:15 | 01:10:44 | 00:00:00 | |
| AA1-15 | 2026-08-30 11:21:53 | 52.30553 | 14.65919 | 82° | 75km/h | 11182m | 4.8m/s | -54.2°C | 52.7% | 229.8hPa | 2.9V | 18:12:15 | 01:10:39 | 00:00:00 | |
| S3001 | 2026-08-30 11:21:51 | 52.30544 | 14.65828 | 80° | 75km/h | 11168m | 4.5m/s | -54.1°C | 46.2% | 230.2hPa | 2.9V | 00:00:00 | 00:00:00 | 00:00:00 | |
| EDDB2-11 | 2026-08-30 11:21:48 | 52.30537 | 14.65766 | 77° | 75km/h | 11159m | 5.3m/s | -54.1°C | 46.2% | 230.6hPa | 2.9V | 00:00:00 | 00:00:00 | 00:00:00 | |
| AA1-15 | 2026-08-30 11:21:43 | 52.30518 | 14.65613 | 82° | 75km/h | 11136m | 4.3m/s | -53.9°C | 51.9% | 231.4hPa | 2.9V | 18:12:15 | 01:10:29 | 00:00:00 | |
| DF8AY | 2026-08-30 11:21:41 | 52.30513 | 14.65553 | 81° | 71km/h | 11126m | 6.5m/s | 0°C | 0% | 0hPa | 2.9V | 18:12:15 | 01:10:27 | 00:00:00 | |
| AA1-15 | 2026-08-30 11:21:32 | 52.30488 | 14.65284 | 78° | 80km/h | 11082m | 4.3m/s | -53.8°C | 52.2% | 233.3hPa | 2.9V | 18:12:15 | 01:10:18 | 00:00:00 | |
| DF8AY | 2026-08-30 11:21:29 | 52.30478 | 14.65190 | 83° | 75km/h | 11069m | 4.1m/s | 0°C | 0% | 0hPa | 2.9V | 18:12:15 | 01:10:15 | 00:00:00 | |
| AA1-15 | 2026-08-30 11:21:21 | 52.30455 | 14.64953 | 78° | 75km/h | 11029m | 5.8m/s | -53.4°C | 51.8% | 235.3hPa | 2.7V | 18:12:15 | 01:10:07 | 00:00:00 | |
| DF8AY | 2026-08-30 11:21:14 | 52.30427 | 14.64757 | 76° | 69km/h | 10993m | 5.8m/s | 0°C | 0% | 0hPa | 2.7V | 18:12:15 | 01:10:00 | 00:00:00 | |
| AA1-15 | 2026-08-30 11:21:10 | 52.30414 | 14.64647 | 82° | 73km/h | 10972m | 4.6m/s | -52.9°C | 52.6% | 237.4hPa | 2.7V | 18:12:15 | 01:09:56 | 00:00:00 | |
| SONDE2-12 | 2026-08-30 11:21:01 | 52.30379 | 14.64364 | 79° | 78km/h | 10925m | 3.2m/s | -52.6°C | 53.6% | 239.2hPa | 2.9V | 00:00:00 | 00:00:00 | 00:00:00 | |
| AA1-15 | 2026-08-30 11:21:00 | 52.30375 | 14.64332 | 81° | 78km/h | 10921m | 5.3m/s | -52.6°C | 55.7% | 239.3hPa | 2.9V | 18:12:15 | 01:09:46 | 00:00:00 | |
| DF8AY | 2026-08-30 11:20:59 | 52.30373 | 14.64300 | 84° | 78km/h | 10916m | 4.8m/s | 0°C | 0% | 0hPa | 2.7V | 18:12:15 | 01:09:45 | 00:00:00 | |
| AA1-15 | 2026-08-30 11:20:50 | 52.30343 | 14.64012 | 77° | 78km/h | 10876m | 4.2m/s | -52.3°C | 55.1% | 240.9hPa | 2.9V | 18:12:15 | 01:09:36 | 00:00:00 | |
| DF8AY | 2026-08-30 11:20:49 | 52.30338 | 14.63981 | 76° | 78km/h | 10871m | 4.5m/s | 0°C | 0% | 0hPa | 2.9V | 18:12:15 | 01:09:35 | 00:00:00 | |
| S3001 | 2026-08-30 11:20:48 | 52.30334 | 14.63950 | 76° | 77km/h | 10867m | 4.8m/s | -52.3°C | 49.6% | 241.3hPa | 2.9V | 00:00:00 | 00:00:00 | 00:00:00 | |
| EDDB2-11 | 2026-08-30 11:20:46 | 52.30325 | 14.63887 | 77° | 78km/h | 10859m | 5.1m/s | -52.2°C | 49.3% | 241.6hPa | 2.9V | 00:00:00 | 00:00:00 | 00:00:00 | |
| AA1-15 | 2026-08-30 11:20:39 | 52.30295 | 14.63631 | 79° | 77km/h | 10823m | 4.4m/s | -51.9°C | 54% | 242.9hPa | 2.9V | 18:12:15 | 01:09:24 | 00:00:00 | |
| SONDE2-12 | 2026-08-30 11:20:30 | 52.30260 | 14.63370 | 80° | 82km/h | 10789m | 3.7m/s | -51.7°C | 52.1% | 244.2hPa | 2.7V | 00:00:00 | 00:00:00 | 00:00:00 | |
| AA1-15 | 2026-08-30 11:20:29 | 52.30257 | 14.63337 | 81° | 80km/h | 10784m | 4.9m/s | -51.6°C | 53.8% | 244.4hPa | 2.7V | 18:12:15 | 01:09:15 | 00:00:00 | |
| AA1-15 | 2026-08-30 11:20:18 | 52.30216 | 14.62950 | 77° | 84km/h | 10733m | 3.6m/s | -51.3°C | 55.2% | 246.3hPa | 2.9V | 18:12:15 | 01:09:03 | 00:00:00 | |
| AA1-15 | 2026-08-30 11:20:06 | 52.30172 | 14.62599 | 77° | 78km/h | 10688m | 4.9m/s | -50.9°C | 56.1% | 248.1hPa | 2.8V | 18:12:15 | 01:08:52 | 00:00:00 | |
| SONDE2-12 | 2026-08-30 11:19:59 | 52.30139 | 14.62371 | 79° | 78km/h | 10658m | 3.7m/s | -50.7°C | 54.7% | 249.2hPa | 2.8V | 00:00:00 | 00:00:00 | 00:00:00 | |
| AA1-15 | 2026-08-30 11:19:56 | 52.30124 | 14.62245 | 79° | 78km/h | 10641m | 5.6m/s | -50.7°C | 56.8% | 249.8hPa | 2.8V | 18:12:15 | 01:08:41 | 00:00:00 | |
| AA1-15 | 2026-08-30 11:19:45 | 52.30082 | 14.61921 | 78° | 80km/h | 10600m | 4.8m/s | -50.4°C | 57.2% | 251.4hPa | 2.9V | 18:12:15 | 01:08:31 | 00:00:00 | |
| AA1-15 | 2026-08-30 11:19:34 | 52.30034 | 14.61564 | 79° | 75km/h | 10554m | 4.4m/s | -50.1°C | 57.2% | 253.2hPa | 2.9V | 18:12:15 | 01:08:20 | 00:00:00 | |
| SONDE2-12 | 2026-08-30 11:19:28 | 52.30005 | 14.61379 | 74° | 75km/h | 10530m | 3.5m/s | -49.9°C | 57.2% | 254.1hPa | 2.9V | 00:00:00 | 00:00:00 | 00:00:00 | |
| AA1-15 | 2026-08-30 11:19:24 | 52.29980 | 14.61227 | 78° | 77km/h | 10510m | 3.3m/s | -49.8°C | 59.2% | 254.9hPa | 2.9V | 18:12:15 | 01:08:09 | 00:00:00 | |
| AA1-15 | 2026-08-30 11:19:12 | 52.29928 | 14.60874 | 77° | 80km/h | 10465m | 3.8m/s | -49.5°C | 62.1% | 256.7hPa | 2.8V | 18:12:15 | 01:07:58 | 00:00:00 | |
| DB0DAN | 2026-08-30 11:19:10 | 52.29920 | 14.60809 | 81° | 75km/h | 10457m | 5.4m/s | -49.5°C | 57.9% | 257hPa | 2.9V | 00:00:00 | 00:00:00 | 00:00:00 | |
| AA1-15 | 2026-08-30 11:19:02 | 52.29890 | 14.60551 | 80° | 82km/h | 10423m | 5.3m/s | -49.2°C | 63.2% | 258.3hPa | 2.9V | 18:12:15 | 01:07:48 | 00:00:00 | |
| KRY50SP-1 | 2026-08-30 11:18:57 | 52.29875 | 14.60420 | 80° | 78km/h | 10408m | 2.1m/s | -49.1°C | 63.0% | 258.9hPa | 2.9V | 00:00:00 | 00:00:00 | 00:00:00 | |
| DB0DAN | 2026-08-30 11:18:55 | 52.29860 | 14.60327 | 70° | 73km/h | 10396m | 3.2m/s | -49°C | 63.3% | 259.34hPa | 2.9V | 00:00:00 | 00:00:00 | 00:00:00 | |
| AA1-15 | 2026-08-30 11:18:52 | 52.29843 | 14.60234 | 79° | 80km/h | 10385m | 5m/s | -48.9°C | 66.1% | 259.8hPa | 2.9V | 18:12:15 | 01:07:38 | 00:00:00 | |
| SP3WXH-11 | 2026-08-30 11:18:51 | 52.29840 | 14.60201 | 81° | 80km/h | 10381m | 4.1m/s | -48.9°C | 62.9% | 260.0hPa | 2.9V | 00:00:00 | 00:00:00 | 00:00:00 | |
| SONCRA | 2026-08-30 11:18:50 | 52.29838 | 14.60167 | 85° | 80km/h | 10376m | 4.5m/s | -48.9°C | 62.5% | 260.2hPa | 2.9V | 00:00:00 | 00:00:00 | 00:00:00 | |
| EDDB2-12 | 2026-08-30 11:18:49 | 52.29835 | 14.60101 | 85° | 77km/h | 10366m | 4.7m/s | -48.8°C | 62.2% | 260.6hPa | 2.9V | 00:00:00 | 00:00:00 | 00:00:00 | |
| KRY50SP-1 | 2026-08-30 11:18:45 | 52.29832 | 14.60039 | 88° | 73km/h | 10355m | 5.2m/s | -48.7°C | 62.3% | 261.0hPa | 2.9V | 00:00:00 | 00:00:00 | 00:00:00 | |
| S3001 | 2026-08-30 11:18:44 | 52.29830 | 14.59981 | 84° | 69km/h | 10346m | 4.5m/s | -48.6°C | 63.4% | 261.3hPa | 2.9V | 00:00:00 | 00:00:00 | 00:00:00 | |
| DL2RXE-15 | 2026-08-30 11:18:43 | 52.29829 | 14.59981 | 85° | 69km/h | 10346m | 4.5m/s | -48.6°C | 0% | 0hPa | 2.9V | 00:00:00 | 00:00:00 | 00:00:00 | |
| DB0DAN | 2026-08-30 11:18:40 | 52.29818 | 14.59867 | 79° | 68km/h | 10328m | 6.7m/s | -48.5°C | 65.1% | 262.12hPa | 2.9V | 00:00:00 | 00:00:00 | 00:00:00 | |
| SONDE2-12 | 2026-08-30 11:18:26 | 52.29758 | 14.59425 | 74° | 73km/h | 10258m | 4.3m/s | -48.0°C | 74.0% | 265.0hPa | 2.9V | 00:00:00 | 00:00:00 | 00:00:00 | |
| DB0DAN | 2026-08-30 11:18:25 | 52.29754 | 14.59394 | 78° | 75km/h | 10253m | 5.7m/s | -47.9°C | 70% | 265.21hPa | 2.9V | 00:00:00 | 00:00:00 | 00:00:00 | |
| AA1-15 | 2026-08-30 11:18:25 | 52.29754 | 14.59394 | 78° | 78km/h | 10253m | 5.7m/s | -47.9°C | 71.6% | 265.2hPa | 2.9V | 18:12:15 | 01:07:11 | 00:00:00 | |
| KRY50SP-1 | 2026-08-30 11:18:23 | 52.29750 | 14.59362 | 81° | 80km/h | 10249m | 3.5m/s | -47.9°C | 69.7% | 265.3hPa | 2.9V | 00:00:00 | 00:00:00 | 00:00:00 | |
| SP3WXH-11 | 2026-08-30 11:18:20 | 52.29739 | 14.59228 | 82° | 80km/h | 10229m | 4.5m/s | -47.8°C | 69.9% | 266.1hPa | 2.9V | 00:00:00 | 00:00:00 | 00:00:00 | |
| MECKS9 | 2026-08-30 11:18:18 | 52.29736 | 14.59194 | 84° | 82km/h | 10224m | 5.9m/s | 0°C | 0% | 266.3hPa | 2.9V | 00:00:00 | 00:00:00 | 00:00:00 | |
| KRY50SP-1 | 2026-08-30 11:18:17 | 52.29733 | 14.59160 | 83° | 80km/h | 10218m | 5.8m/s | -47.7°C | 70.2% | 266.6hPa | 2.9V | 00:00:00 | 00:00:00 | 00:00:00 | |
| 13BRC | 2026-08-30 11:18:14 | 52.29721 | 14.59061 | 76° | 80km/h | 10200m | 4.7m/s | -47.5°C | 70.2% | 267.4hPa | 2.9V | 00:00:00 | 00:00:00 | 00:00:00 | |
| S3001 | 2026-08-30 11:18:13 | 52.29710 | 14.58998 | 72° | 75km/h | 10188m | 5.8m/s | -47.4°C | 69.4% | 267.8hPa | 2.9V | 00:00:00 | 00:00:00 | 00:00:00 | |
| KRY50SP-1 | 2026-08-30 11:18:12 | 52.29710 | 14.58998 | 73° | 77km/h | 10188m | 5.8m/s | -47.4°C | 69.4% | 267.8hPa | 2.9V | 00:00:00 | 00:00:00 | 00:00:00 | |
| DB0DAN | 2026-08-30 11:18:10 | 52.29693 | 14.58913 | 72° | 68km/h | 10171m | 3.6m/s | -47.2°C | 69.2% | 268.49hPa | 2.9V | 00:00:00 | 00:00:00 | 00:00:00 | |
| DAC517 | 2026-08-30 11:18:10 | 52.29693 | 14.58914 | 73° | 69km/h | 10171m | 3.6m/s | -47.2°C | 69.2% | 268.5hPa | 2.8V | 00:00:00 | 00:00:00 | 00:00:00 | |
| KRY50SP-1 | 2026-08-30 11:18:07 | 52.29683 | 14.58859 | 75° | 69km/h | 10162m | 6.2m/s | -47.1°C | 69.0% | 268.9hPa | 2.8V | 00:00:00 | 00:00:00 | 00:00:00 | |
| MECKS9 | 2026-08-30 11:18:06 | 52.29678 | 14.58831 | 78° | 71km/h | 10157m | 4.1m/s | 0°C | 0% | 269.1hPa | 2.8V | 00:00:00 | 00:00:00 | 00:00:00 | |
| SP3BTT-10 | 2026-08-30 11:18:04 | 52.29668 | 14.58740 | 82° | 75km/h | 10140m | 4.9m/s | -46.9°C | 75.8% | 269.8hPa | 2.8V | 00:00:00 | 00:00:00 | 00:00:00 | |
| KRY50SP-1 | 2026-08-30 11:18:01 | 52.29662 | 14.58676 | 83° | 80km/h | 10129m | 6.7m/s | -46.9°C | 68.6% | 270.2hPa | 2.8V | 00:00:00 | 00:00:00 | 00:00:00 | |
| DB0DAN | 2026-08-30 11:17:55 | 52.29622 | 14.58447 | 71° | 71km/h | 10091m | 4.3m/s | -46.5°C | 67.7% | 271.79hPa | 2.8V | 00:00:00 | 00:00:00 | 00:00:00 | |
| SONDE2-12 | 2026-08-30 11:17:55 | 52.29622 | 14.58447 | 70° | 73km/h | 10091m | 4.3m/s | -46.5°C | 71.5% | 271.8hPa | 2.9V | 00:00:00 | 00:00:00 | 00:00:00 | |
| SP3WXH-11 | 2026-08-30 11:17:49 | 52.29597 | 14.58273 | 84° | 78km/h | 10059m | 5.3m/s | -46.2°C | 61.4% | 273.1hPa | 2.9V | 00:00:00 | 00:00:00 | 00:00:00 | |
| SONCRA | 2026-08-30 11:17:48 | 52.29595 | 14.58241 | 84° | 78km/h | 10053m | 5.8m/s | -46.2°C | 60.6% | 273.4hPa | 2.9V | 00:00:00 | 00:00:00 | 00:00:00 | |
| EDDB2-12 | 2026-08-30 11:17:46 | 52.29589 | 14.58174 | 77° | 82km/h | 10043m | 4.0m/s | -46.1°C | 59.9% | 273.8hPa | 2.9V | 00:00:00 | 00:00:00 | 00:00:00 | |
| DL2RXE-15 | 2026-08-30 11:17:44 | 52.29584 | 14.58140 | 75° | 82km/h | 10040m | 4.2m/s | -46.1°C | 0% | 0hPa | 2.9V | 00:00:00 | 00:00:00 | 00:00:00 | |
| DB0DAN | 2026-08-30 11:17:40 | 52.29557 | 14.57991 | 76° | 66km/h | 10014m | 5.3m/s | -45.9°C | 55% | 274.96hPa | 2.9V | 00:00:00 | 00:00:00 | 00:00:00 | |
| AA1-15 | 2026-08-30 11:17:26 | 52.29502 | 14.57595 | 74° | 77km/h | 9941m | 5.5m/s | -45.3°C | 47.3% | 278hPa | 2.9V | 18:12:15 | 01:06:12 | 00:00:00 | |
| DB0DAN | 2026-08-30 11:17:25 | 52.29497 | 14.57564 | 74° | 77km/h | 9936m | 4.8m/s | -45.3°C | 44.4% | 278.22hPa | 2.9V | 00:00:00 | 00:00:00 | 00:00:00 | |
| SONDE2-12 | 2026-08-30 11:17:24 | 52.29485 | 14.57500 | 71° | 80km/h | 9926m | 6.9m/s | -45.2°C | 46.4% | 278.6hPa | 2.8V | 00:00:00 | 00:00:00 | 00:00:00 | |
| KRY50SP-1 | 2026-08-30 11:17:21 | 52.29478 | 14.57468 | 72° | 82km/h | 9920m | 5.1m/s | -45.2°C | 44.1% | 278.8hPa | 2.8V | 00:00:00 | 00:00:00 | 00:00:00 | |
| SP3WXH-11 | 2026-08-30 11:17:18 | 52.29453 | 14.57342 | 71° | 77km/h | 9897m | 7.0m/s | -45.0°C | 43.3% | 279.7hPa | 2.8V | 00:00:00 | 00:00:00 | 00:00:00 | |
| EDDB2-12 | 2026-08-30 11:17:15 | 52.29434 | 14.57253 | 71° | 71km/h | 9879m | 6.0m/s | -44.9°C | 42.9% | 280.5hPa | 2.8V | 00:00:00 | 00:00:00 | 00:00:00 | |
| KRY50SP-1 | 2026-08-30 11:17:14 | 52.29434 | 14.57253 | 73° | 71km/h | 9879m | 6.0m/s | -44.8°C | 42.9% | 280.5hPa | 2.8V | 00:00:00 | 00:00:00 | 00:00:00 | |
| 13BRC | 2026-08-30 11:17:12 | 52.29425 | 14.57198 | 78° | 68km/h | 9868m | 5.5m/s | -44.7°C | 43.0% | 281.0hPa | 2.8V | 00:00:00 | 00:00:00 | 00:00:00 | |
| S3001 | 2026-08-30 11:17:11 | 52.29418 | 14.57145 | 79° | 66km/h | 9857m | 5.5m/s | -44.7°C | 43.1% | 281.4hPa | 2.8V | 00:00:00 | 00:00:00 | 00:00:00 | |
| EDDB2-11 | 2026-08-30 11:17:09 | 52.29410 | 14.57089 | 74° | 71km/h | 9845m | 5.6m/s | -44.5°C | 43.0% | 281.9hPa | 2.8V | 00:00:00 | 00:00:00 | 00:00:00 | |
| MECKS9 | 2026-08-30 11:17:08 | 52.29410 | 14.57089 | 76° | 73km/h | 9846m | 5.6m/s | 0°C | 0% | 0hPa | 2.8V | 00:00:00 | 00:00:00 | 00:00:00 | |
| DAC517 | 2026-08-30 11:17:07 | 52.29399 | 14.57029 | 72° | 80km/h | 9834m | 4.2m/s | -44.4°C | 42.7% | 282.4hPa | 2.8V | 00:00:00 | 00:00:00 | 00:00:00 | |
| MECKS9 | 2026-08-30 11:16:58 | 52.29359 | 14.56784 | 80° | 75km/h | 9789m | 5.0m/s | 0°C | 0% | 0hPa | 2.8V | 00:00:00 | 00:00:00 | 00:00:00 | |
| DB0DAN | 2026-08-30 11:16:55 | 52.29343 | 14.56654 | 75° | 77km/h | 9770m | 7.6m/s | -43.9°C | 42% | 285.13hPa | 2.8V | 00:00:00 | 00:00:00 | 00:00:00 | |
| AA1-15 | 2026-08-30 11:16:54 | 52.29338 | 14.56623 | 73° | 77km/h | 9763m | 4.7m/s | -43.9°C | 45.7% | 285.4hPa | 2.8V | 18:12:15 | 01:05:40 | 00:00:00 | |
| SONDE2-12 | 2026-08-30 11:16:53 | 52.29326 | 14.56563 | 72° | 73km/h | 9752m | 8.4m/s | -43.8°C | 43.8% | 285.9hPa | 2.9V | 00:00:00 | 00:00:00 | 00:00:00 | |
| SP3WXH-11 | 2026-08-30 11:16:47 | 52.29306 | 14.56407 | 79° | 80km/h | 9724m | 4.1m/s | -43.6°C | 42.0% | 287.1hPa | 2.9V | 00:00:00 | 00:00:00 | 00:00:00 | |
| AA1-15 | 2026-08-30 11:16:42 | 52.29278 | 14.56245 | 73° | 84km/h | 9694m | 6.8m/s | -43.4°C | 45.6% | 288.3hPa | 2.9V | 18:12:15 | 01:05:28 | 00:00:00 | |
| DB0DAN | 2026-08-30 11:16:40 | 52.29268 | 14.56179 | 77° | 77km/h | 9684m | 4.3m/s | -43.3°C | 42% | 288.78hPa | 2.8V | 00:00:00 | 00:00:00 | 00:00:00 | |
| S3001 | 2026-08-30 11:16:40 | 52.29268 | 14.56179 | 77° | 80km/h | 9684m | 4.3m/s | -43.3°C | 42.0% | 288.8hPa | 2.7V | 00:00:00 | 00:00:00 | 00:00:00 | |
| EDDB2-11 | 2026-08-30 11:16:38 | 52.29259 | 14.56113 | 77° | 80km/h | 9673m | 5.3m/s | -43.2°C | 40.8% | 289.2hPa | 2.7V | 00:00:00 | 00:00:00 | 00:00:00 | |
| KRY50SP-1 | 2026-08-30 11:16:37 | 52.29259 | 14.56113 | 79° | 82km/h | 9673m | 5.3m/s | -43.2°C | 40.8% | 289.2hPa | 2.7V | 00:00:00 | 00:00:00 | 00:00:00 | |
| SP3BTT-10 | 2026-08-30 11:16:33 | 52.29233 | 14.55947 | 77° | 75km/h | 9645m | 5.3m/s | -42.9°C | 45.0% | 290.4hPa | 2.7V | 00:00:00 | 00:00:00 | 00:00:00 | |
| KRY50SP-1 | 2026-08-30 11:16:31 | 52.29229 | 14.55914 | 79° | 80km/h | 9640m | 5.1m/s | -42.9°C | 40.2% | 290.6hPa | 2.8V | 00:00:00 | 00:00:00 | 00:00:00 | |
| 13BRC | 2026-08-30 11:16:30 | 52.29225 | 14.55882 | 79° | 77km/h | 9635m | 4.0m/s | -42.9°C | 40.1% | 290.8hPa | 2.8V | 00:00:00 | 00:00:00 | 00:00:00 | |
| SP6BVK | 2026-08-30 11:16:27 | 52.29210 | 14.55791 | 75° | 77km/h | 9620m | 4.7m/s | -42.7°C | 39.9% | 291.5hPa | 2.8V | 00:00:00 | 00:00:00 | 00:00:00 | |
| DB0DAN | 2026-08-30 11:16:25 | 52.29196 | 14.55700 | 77° | 73km/h | 9607m | 4.8m/s | -42.7°C | 40.1% | 292.14hPa | 2.8V | 00:00:00 | 00:00:00 | 00:00:00 | |
| SONDE2-12 | 2026-08-30 11:16:22 | 52.29182 | 14.55607 | 75° | 78km/h | 9595m | 4.6m/s | -42.5°C | 41.4% | 292.7hPa | 2.9V | 00:00:00 | 00:00:00 | 00:00:00 | |
| KRY50SP-1 | 2026-08-30 11:16:20 | 52.29177 | 14.55575 | 77° | 78km/h | 9590m | 4.6m/s | -42.5°C | 39.2% | 292.8hPa | 2.9V | 00:00:00 | 00:00:00 | 00:00:00 | |
| SP3WXH-11 | 2026-08-30 11:16:16 | 52.29157 | 14.55417 | 78° | 77km/h | 9568m | 4.5m/s | -42.4°C | 38.9% | 293.8hPa | 2.9V | 00:00:00 | 00:00:00 | 00:00:00 | |
| KRY50SP-1 | 2026-08-30 11:16:14 | 52.29153 | 14.55385 | 80° | 75km/h | 9563m | 5.4m/s | -42.3°C | 39.0% | 294.0hPa | 2.9V | 00:00:00 | 00:00:00 | 00:00:00 | |
| EDDB2-12 | 2026-08-30 11:16:13 | 52.29146 | 14.55325 | 78° | 73km/h | 9555m | 4.5m/s | -42.2°C | 39.1% | 294.3hPa | 2.9V | 00:00:00 | 00:00:00 | 00:00:00 | |
| DB0DAN | 2026-08-30 11:16:10 | 52.29135 | 14.55234 | 80° | 71km/h | 9543m | 4.7m/s | -42.1°C | 39.2% | 294.91hPa | 2.9V | 00:00:00 | 00:00:00 | 00:00:00 | |
| AA1-15 | 2026-08-30 11:15:57 | 52.29084 | 14.54830 | 80° | 82km/h | 9489m | 4.4m/s | -41.9°C | 46.1% | 297.2hPa | 2.8V | 18:12:15 | 01:04:43 | 00:00:00 | |
| DB0DAN | 2026-08-30 11:15:55 | 52.29078 | 14.54765 | 82° | 71km/h | 9480m | 4.1m/s | -41.8°C | 43.3% | 297.62hPa | 2.9V | 00:00:00 | 00:00:00 | 00:00:00 | |
| SONDE2-12 | 2026-08-30 11:15:51 | 52.29066 | 14.54609 | 82° | 75km/h | 9457m | 5.1m/s | -41.6°C | 46.2% | 298.6hPa | 2.9V | 00:00:00 | 00:00:00 | 00:00:00 | |
| AA1-15 | 2026-08-30 11:15:46 | 52.29055 | 14.54481 | 81° | 78km/h | 9440m | 4.8m/s | -41.6°C | 48.8% | 299.4hPa | 2.9V | 18:12:15 | 01:04:32 | 00:00:00 | |
| SP3WXH-11 | 2026-08-30 11:15:45 | 52.29052 | 14.54450 | 80° | 75km/h | 9436m | 4.4m/s | -41.5°C | 45.5% | 299.6hPa | 2.9V | 00:00:00 | 00:00:00 | 00:00:00 | |
| DB0DAN | 2026-08-30 11:15:40 | 52.29035 | 14.54297 | 81° | 69km/h | 9415m | 3.2m/s | -41.4°C | 45.3% | 300.57hPa | 2.9V | 00:00:00 | 00:00:00 | 00:00:00 | |
| AA1-15 | 2026-08-30 11:15:36 | 52.29026 | 14.54176 | 87° | 73km/h | 9399m | 5.8m/s | -41.3°C | 48.1% | 301.3hPa | 2.9V | 18:12:15 | 01:04:22 | 00:00:00 | |
| EDDB2-11 | 2026-08-30 11:15:36 | 52.29026 | 14.54176 | 86° | 71km/h | 9399m | 5.8m/s | -41.3°C | 44.3% | 301.3hPa | 2.9V | 00:00:00 | 00:00:00 | 00:00:00 | |
| SP3BTT-10 | 2026-08-30 11:15:33 | 52.29025 | 14.54089 | 89° | 69km/h | 9387m | 4.6m/s | -41.1°C | 49.2% | 301.7hPa | 2.9V | 00:00:00 | 00:00:00 | 00:00:00 | |
| 13BRC | 2026-08-30 11:15:30 | 52.29023 | 14.54030 | 87° | 73km/h | 9379m | 3.4m/s | -41.1°C | 45.0% | 302.2hPa | 2.9V | 00:00:00 | 00:00:00 | 00:00:00 | |
| DB0DAN | 2026-08-30 11:15:25 | 52.29007 | 14.53854 | 78° | 71km/h | 9354m | 3.4m/s | -40.9°C | 44.2% | 303.3hPa | 2.9V | 00:00:00 | 00:00:00 | 00:00:00 | |
| AA1-15 | 2026-08-30 11:15:25 | 52.29007 | 14.53854 | 78° | 75km/h | 9354m | 3.4m/s | -40.9°C | 47.2% | 303.3hPa | 2.9V | 18:12:15 | 01:04:11 | 00:00:00 | |
| SONDE2-12 | 2026-08-30 11:15:20 | 52.28995 | 14.53684 | 86° | 64km/h | 9329m | 5.0m/s | -40.7°C | 45.9% | 304.3hPa | 2.9V | 00:00:00 | 00:00:00 | 00:00:00 | |
| AA1-15 | 2026-08-30 11:15:13 | 52.28982 | 14.53519 | 83° | 69km/h | 9303m | 5.3m/s | -40.5°C | 46.5% | 305.5hPa | 2.9V | 18:12:15 | 01:03:59 | 00:00:00 | |
| DB0DAN | 2026-08-30 11:15:10 | 52.28972 | 14.53434 | 77° | 68km/h | 9289m | 4.9m/s | -40.4°C | 42.4% | 306.16hPa | 2.9V | 00:00:00 | 00:00:00 | 00:00:00 | |
| 13BRC | 2026-08-30 11:15:09 | 52.28972 | 14.53434 | 78° | 71km/h | 9290m | 4.9m/s | -40.4°C | 42.4% | 306.2hPa | 2.8V | 00:00:00 | 00:00:00 | 00:00:00 | |
| S3001 | 2026-08-30 11:15:07 | 52.28961 | 14.53349 | 78° | 66km/h | 9276m | 4.2m/s | -40.3°C | 43.0% | 306.8hPa | 2.8V | 00:00:00 | 00:00:00 | 00:00:00 | |
| KRY50SP-1 | 2026-08-30 11:15:06 | 52.28961 | 14.53349 | 79° | 66km/h | 9276m | 4.2m/s | -40.3°C | 43.0% | 306.8hPa | 2.8V | 00:00:00 | 00:00:00 | 00:00:00 | |
| EDDB2-11 | 2026-08-30 11:15:05 | 52.28955 | 14.53297 | 80° | 64km/h | 9267m | 5.0m/s | -40.2°C | 42.9% | 307.1hPa | 2.8V | 00:00:00 | 00:00:00 | 00:00:00 | |
| DAC517 | 2026-08-30 11:15:04 | 52.28945 | 14.53218 | 77° | 66km/h | 9254m | 5.4m/s | -40.1°C | 42.9% | 307.7hPa | 2.8V | 00:00:00 | 00:00:00 | 00:00:00 | |
| DL2RXE-15 | 2026-08-30 11:15:01 | 52.28945 | 14.53218 | 77° | 66km/h | 9254m | 5.4m/s | -40.1°C | 0% | 0hPa | 2.8V | 00:00:00 | 00:00:00 | 00:00:00 | |
| KRY50SP-1 | 2026-08-30 11:15:00 | 52.28941 | 14.53192 | 77° | 66km/h | 9249m | 3.9m/s | -40.1°C | 43.0% | 307.9hPa | 2.8V | 00:00:00 | 00:00:00 | 00:00:00 | |
| DB0DAN | 2026-08-30 11:14:55 | 52.28922 | 14.53033 | 79° | 64km/h | 9225m | 3.8m/s | -39.9°C | 44% | 309.01hPa | 2.8V | 00:00:00 | 00:00:00 | 00:00:00 | |
| SONDE2-11 | 2026-08-30 11:14:49 | 52.28899 | 14.52855 | 75° | 62km/h | 9196m | 4.9m/s | -39.7°C | 46.5% | 310.4hPa | 2.8V | 00:00:00 | 00:00:00 | 00:00:00 | |
| SP6BVK | 2026-08-30 11:14:44 | 52.28886 | 14.52777 | 75° | 68km/h | 9182m | 5.8m/s | -39.6°C | 47.8% | 311.1hPa | 2.8V | 00:00:00 | 00:00:00 | 00:00:00 | |
| SP3WXH-11 | 2026-08-30 11:14:43 | 52.28876 | 14.52722 | 73° | 69km/h | 9173m | 5.5m/s | -39.6°C | 48.8% | 311.5hPa | 2.8V | 00:00:00 | 00:00:00 | 00:00:00 | |
| DB0DAN | 2026-08-30 11:14:40 | 52.28862 | 14.52638 | 77° | 64km/h | 9158m | 4.1m/s | -39.5°C | 49.3% | 312.11hPa | 2.8V | 00:00:00 | 00:00:00 | 00:00:00 | |
| S3001 | 2026-08-30 11:14:36 | 52.28846 | 14.52535 | 75° | 66km/h | 9140m | 5.5m/s | -39.3°C | 48.7% | 312.9hPa | 2.7V | 00:00:00 | 00:00:00 | 00:00:00 | |
| EDDB2-11 | 2026-08-30 11:14:34 | 52.28833 | 14.52452 | 76° | 69km/h | 9126m | 6.9m/s | -39.2°C | 48.5% | 313.6hPa | 2.7V | 00:00:00 | 00:00:00 | 00:00:00 | |
| SP3BTT-10 | 2026-08-30 11:14:32 | 52.28829 | 14.52424 | 77° | 75km/h | 9120m | 4.4m/s | -39.1°C | 53.6% | 313.8hPa | 2.7V | 00:00:00 | 00:00:00 | 08:30:00 | |
| DL2RXE-15 | 2026-08-30 11:14:29 | 52.28820 | 14.52368 | 77° | 71km/h | 9111m | 4.8m/s | 0°C | 0% | 314.3hPa | 2.9V | 00:00:00 | 00:00:00 | 00:00:00 | |
| 13BRC | 2026-08-30 11:14:28 | 52.28816 | 14.52340 | 76° | 73km/h | 9108m | 2.5m/s | -39.0°C | 49.2% | 314.5hPa | 2.9V | 00:00:00 | 00:00:00 | 00:00:00 | |
| DB0DAN | 2026-08-30 11:14:25 | 52.28797 | 14.52226 | 73° | 69km/h | 9091m | 5.3m/s | -38.9°C | 48.6% | 315.23hPa | 2.9V | 00:00:00 | 00:00:00 | 00:00:00 | |
| SONDE2-12 | 2026-08-30 11:14:18 | 52.28760 | 14.52000 | 77° | 71km/h | 9056m | 5.2m/s | -38.6°C | 52.6% | 316.8hPa | 2.9V | 00:00:00 | 00:00:00 | 00:00:00 | |
| DB0DAN | 2026-08-30 11:14:10 | 52.28722 | 14.51788 | 75° | 71km/h | 9027m | 4.2m/s | -38.3°C | 51.4% | 318.2hPa | 2.9V | 00:00:00 | 00:00:00 | 00:00:00 | |
| AA1-15 | 2026-08-30 11:14:10 | 52.28722 | 14.51788 | 75° | 75km/h | 9026m | 4.2m/s | -38.3°C | 53.4% | 318.2hPa | 2.9V | 18:12:15 | 01:02:56 | 00:00:00 | |
| AA1-15 | 2026-08-30 11:13:59 | 52.28671 | 14.51461 | 78° | 75km/h | 8975m | 3.5m/s | -37.9°C | 56.1% | 320.6hPa | 2.8V | 18:12:15 | 01:02:45 | 00:00:00 | |
| KRY50SP-1 | 2026-08-30 11:13:58 | 52.28671 | 14.51461 | 78° | 75km/h | 8975m | 3.5m/s | -37.9°C | 53.4% | 320.6hPa | 2.9V | 00:00:00 | 00:00:00 | 00:00:00 | |
| DB0DAN | 2026-08-30 11:13:55 | 52.28654 | 14.51343 | 74° | 69km/h | 8956m | 5.7m/s | -37.8°C | 56.5% | 321.48hPa | 2.9V | 00:00:00 | 00:00:00 | 00:00:00 | |
| AA1-15 | 2026-08-30 11:13:47 | 52.28616 | 14.51097 | 77° | 78km/h | 8921m | 4.5m/s | -37.6°C | 61.8% | 323.2hPa | 2.9V | 18:12:15 | 01:02:33 | 00:00:00 | |
| SONDE2-12 | 2026-08-30 11:13:47 | 52.28612 | 14.51066 | 77° | 73km/h | 8917m | 3.8m/s | -37.5°C | 62.9% | 323.4hPa | 2.9V | 00:00:00 | 00:00:00 | 00:00:00 | |
| SONDE2-11 | 2026-08-30 11:13:46 | 52.28612 | 14.51066 | 77° | 73km/h | 8917m | 3.8m/s | -37.5°C | 60.1% | 323.4hPa | 2.9V | 00:00:00 | 00:00:00 | 00:00:00 | |
| SP6BVK | 2026-08-30 11:13:43 | 52.28603 | 14.51006 | 78° | 73km/h | 8908m | 5.2m/s | -37.5°C | 60.0% | 323.8hPa | 2.9V | 00:00:00 | 00:00:00 | 00:00:00 | |
| DB0DAN | 2026-08-30 11:13:40 | 52.28584 | 14.50882 | 76° | 75km/h | 8890m | 5.2m/s | -37.3°C | 59.9% | 324.61hPa | 2.9V | 00:00:00 | 00:00:00 | 00:00:00 | |
| AA1-15 | 2026-08-30 11:13:28 | 52.28525 | 14.50508 | 76° | 80km/h | 8837m | 3.7m/s | -36.8°C | 62.5% | 327.1hPa | 2.8V | 18:12:15 | 01:02:14 | 00:00:00 | |
| DB0DAN | 2026-08-30 11:13:25 | 52.28509 | 14.50410 | 75° | 78km/h | 8825m | 3.7m/s | -36.7°C | 60.4% | 327.73hPa | 2.9V | 00:00:00 | 00:00:00 | 00:00:00 | |
| SONDE2-12 | 2026-08-30 11:13:15 | 52.28458 | 14.50112 | 71° | 73km/h | 8784m | 3.9m/s | -36.4°C | 63.4% | 329.7hPa | 2.8V | 00:00:00 | 00:00:00 | 00:00:00 | |
| DB0DAN | 2026-08-30 11:13:10 | 52.28428 | 14.49962 | 74° | 73km/h | 8763m | 4.9m/s | -36.2°C | 60.5% | 330.7hPa | 2.8V | 00:00:00 | 00:00:00 | 00:00:00 | |
| SP3WXH-11 | 2026-08-30 11:13:10 | 52.28428 | 14.49962 | 73° | 75km/h | 8763m | 4.9m/s | -36.2°C | 60.5% | 330.7hPa | 2.9V | 00:00:00 | 00:00:00 | 00:00:00 | |
| DAC517 | 2026-08-30 11:13:09 | 52.28423 | 14.49932 | 74° | 75km/h | 8759m | 4.0m/s | -36.1°C | 60.5% | 330.9hPa | 2.9V | 00:00:00 | 00:00:00 | 00:00:00 | |
| EDDB2-12 | 2026-08-30 11:13:07 | 52.28412 | 14.49871 | 73° | 77km/h | 8749m | 4.0m/s | -36.0°C | 60.9% | 331.3hPa | 2.9V | 00:00:00 | 00:00:00 | 00:00:00 | |
| 13BRC | 2026-08-30 11:13:06 | 52.28412 | 14.49871 | 74° | 77km/h | 8749m | 4.0m/s | -36.0°C | 60.9% | 331.3hPa | 2.9V | 00:00:00 | 00:00:00 | 00:00:00 | |
| S3001 | 2026-08-30 11:13:03 | 52.28393 | 14.49754 | 74° | 71km/h | 8731m | 5.3m/s | -35.9°C | 61.8% | 332.2hPa | 2.9V | 00:00:00 | 00:00:00 | 00:00:00 | |
| SP6BVK | 2026-08-30 11:13:02 | 52.28393 | 14.49754 | 76° | 71km/h | 8731m | 5.3m/s | -35.9°C | 61.7% | 332.2hPa | 2.9V | 00:00:00 | 00:00:00 | 00:00:00 | |
| EDDB2-11 | 2026-08-30 11:13:01 | 52.28378 | 14.49668 | 73° | 71km/h | 8718m | 3.3m/s | -35.8°C | 62.8% | 332.9hPa | 2.9V | 00:00:00 | 00:00:00 | 00:00:00 | |
| DB0DAN | 2026-08-30 11:12:55 | 52.28348 | 14.49517 | 72° | 75km/h | 8696m | 4.5m/s | -35.6°C | 62.3% | 333.85hPa | 2.9V | 00:00:00 | 00:00:00 | 00:00:00 | |
| SONDE2-12 | 2026-08-30 11:12:44 | 52.28298 | 14.49184 | 76° | 75km/h | 8648m | 4.3m/s | -35.2°C | 64.9% | 336.2hPa | 2.9V | 00:00:00 | 00:00:00 | 00:00:00 | |
| AA1-15 | 2026-08-30 11:12:41 | 52.28281 | 14.49089 | 72° | 82km/h | 8635m | 4.2m/s | -35.1°C | 63.8% | 336.8hPa | 2.9V | 18:12:15 | 01:01:27 | 00:00:00 | |
| DB0DAN | 2026-08-30 11:12:40 | 52.28275 | 14.49057 | 71° | 75km/h | 8630m | 4.9m/s | -35.1°C | 62.6% | 337.06hPa | 2.9V | 00:00:00 | 00:00:00 | 00:00:00 | |
| AA1-15 | 2026-08-30 11:12:27 | 52.28219 | 14.48671 | 74° | 75km/h | 8573m | 7.9m/s | 0°C | 0% | 339.9hPa | 2.8V | 18:12:15 | 01:01:13 | 00:00:00 | |
| AA1-15 | 2026-08-30 11:12:16 | 52.28172 | 14.48328 | 79° | 66km/h | 8506m | 5.2m/s | 0°C | 0% | 343.1hPa | 2.9V | 18:12:15 | 01:01:02 | 00:00:00 | |
| SONDE2-12 | 2026-08-30 11:12:14 | 52.28163 | 14.48251 | 79° | 66km/h | 8489m | 5.2m/s | -33.9°C | 64.1% | 343.8hPa | 2.9V | 00:00:00 | 00:00:00 | 00:00:00 | |
| SONDE2-11 | 2026-08-30 11:12:13 | 52.28163 | 14.48251 | 79° | 66km/h | 8489m | 5.2m/s | -33.9°C | 61.5% | 343.9hPa | 2.9V | 00:00:00 | 00:00:00 | 00:00:00 | |
| DB0DAN | 2026-08-30 11:12:10 | 52.28152 | 14.48160 | 78° | 78km/h | 8475m | 6.7m/s | -33.8°C | 59.9% | 344.5hPa | 2.9V | 00:00:00 | 00:00:00 | 00:00:00 | |
| AA1-15 | 2026-08-30 11:12:06 | 52.28131 | 14.48029 | 77° | 75km/h | 8454m | 3.5m/s | 0°C | 0% | 345.7hPa | 2.9V | 18:12:15 | 01:00:52 | 00:00:00 | |
| EDDB2-12 | 2026-08-30 11:12:05 | 52.28127 | 14.47999 | 76° | 71km/h | 8449m | 5.1m/s | -33.6°C | 60.9% | 345.9hPa | 2.9V | 00:00:00 | 00:00:00 | 00:00:00 | |
| DL2RXE-15 | 2026-08-30 11:12:04 | 52.28127 | 14.47999 | 78° | 73km/h | 8449m | 5.1m/s | 0°C | 0% | 345.9hPa | 2.9V | 00:00:00 | 00:00:00 | 00:00:00 | |
| MECKS9 | 2026-08-30 11:12:03 | 52.28123 | 14.47970 | 79° | 71km/h | 8444m | 6.5m/s | 0°C | 0% | 0hPa | 2.9V | 00:00:00 | 00:00:00 | 00:00:00 | |
| S3001 | 2026-08-30 11:12:01 | 52.28110 | 14.47879 | 75° | 78km/h | 8427m | 3.6m/s | -33.3°C | 61.1% | 347.0hPa | 2.9V | 00:00:00 | 00:00:00 | 00:00:00 | |
| DB0DAN | 2026-08-30 11:11:55 | 52.28084 | 14.47711 | 74° | 60km/h | 8396m | 5.9m/s | -33.1°C | 61.4% | 348.53hPa | 2.9V | 00:00:00 | 00:00:00 | 00:00:00 | |
| AA1-15 | 2026-08-30 11:11:55 | 52.28084 | 14.47711 | 74° | 64km/h | 8396m | 5.9m/s | 0°C | 0% | 348.5hPa | 2.9V | 18:12:15 | 01:00:41 | 00:00:00 | |
| AA1-15 | 2026-08-30 11:11:44 | 52.28042 | 14.47375 | 79° | 71km/h | 8334m | 6.9m/s | 0°C | 0% | 351.6hPa | 2.9V | 18:12:15 | 01:00:30 | 00:00:00 | |
| 13BRC | 2026-08-30 11:11:42 | 52.28039 | 14.47347 | 78° | 68km/h | 8327m | 5.8m/s | -32.5°C | 62.1% | 351.9hPa | 2.9V | 00:00:00 | 00:00:00 | 00:00:00 | |
| DB0DAN | 2026-08-30 11:11:40 | 52.28028 | 14.47264 | 79° | 71km/h | 8311m | 4.4m/s | -32.4°C | 60.8% | 352.8hPa | 2.9V | 00:00:00 | 00:00:00 | 00:00:00 | |
| AA1-15 | 2026-08-30 11:11:28 | 52.27995 | 14.46909 | 83° | 73km/h | 8255m | 4.2m/s | 0°C | 0% | 355.6hPa | 2.9V | 18:12:15 | 01:00:14 | 00:00:00 | |
| DB0DAN | 2026-08-30 11:11:25 | 52.27990 | 14.46813 | 88° | 78km/h | 8242m | 5.5m/s | -31.8°C | 58.2% | 356.26hPa | 2.9V | 00:00:00 | 00:00:00 | 00:00:00 | |
| SONDE2-12 | 2026-08-30 11:11:11 | 52.27958 | 14.46395 | 79° | 71km/h | 8167m | 4.0m/s | -31.1°C | 57.3% | 360.2hPa | 2.9V | 00:00:00 | 00:00:00 | 00:00:00 | |
| DB0DAN | 2026-08-30 11:11:10 | 52.27955 | 14.46366 | 80° | 69km/h | 8162m | 4.4m/s | -31.1°C | 54.7% | 360.32hPa | 2.9V | 00:00:00 | 00:00:00 | 00:00:00 | |
| SP3WXH-11 | 2026-08-30 11:11:08 | 52.27949 | 14.46244 | 88° | 71km/h | 8143m | 4.3m/s | 0°C | -1.0% | -1.0hPa | 2.8V | 00:00:00 | 00:00:00 | 00:00:00 | |
| EDDB2-12 | 2026-08-30 11:11:03 | 52.27943 | 14.46161 | 77° | 64km/h | 8129m | 4.7m/s | -30.7°C | 54.0% | 362.0hPa | 2.8V | 00:00:00 | 00:00:00 | 00:00:00 | |
| KRY50SP-1 | 2026-08-30 11:11:02 | 52.27943 | 14.46160 | 79° | 64km/h | 8129m | 4.7m/s | -30.7°C | 54.0% | 362.0hPa | 2.8V | 00:00:00 | 00:00:00 | 00:00:00 | |
| S3001 | 2026-08-30 11:10:59 | 52.27930 | 14.46052 | 81° | 69km/h | 8113m | 6.1m/s | -30.6°C | 53.8% | 362.9hPa | 2.8V | 00:00:00 | 00:00:00 | 00:00:00 | |
| EDDB2-11 | 2026-08-30 11:10:57 | 52.27925 | 14.45968 | 87° | 66km/h | 8092m | 6.4m/s | -30.4°C | 53.3% | 363.9hPa | 2.8V | 00:00:00 | 00:00:00 | 00:00:00 | |
| DB0DAN | 2026-08-30 11:10:55 | 52.27925 | 14.45940 | 90° | 66km/h | 8086m | 5.9m/s | -30.4°C | 53.7% | 364.21hPa | 2.8V | 00:00:00 | 00:00:00 | 00:00:00 | |
| KRY50SP-1 | 2026-08-30 11:10:52 | 52.27923 | 14.45885 | 86° | 68km/h | 8075m | 5.4m/s | -30.2°C | 54.1% | 364.9hPa | 2.9V | 00:00:00 | 00:00:00 | 00:00:00 | |
| KRY50SP-1 | 2026-08-30 11:10:47 | 52.27894 | 14.45710 | 76° | 78km/h | 8045m | 7.7m/s | -30.0°C | 52.5% | 366.4hPa | 2.9V | 00:00:00 | 00:00:00 | 00:00:00 | |
| DB0DAN | 2026-08-30 11:10:40 | 52.27881 | 14.45500 | 83° | 73km/h | 8003m | 5.7m/s | -29.6°C | 53% | 368.61hPa | 2.9V | 00:00:00 | 00:00:00 | 00:00:00 | |
| KRY50SP-1 | 2026-08-30 11:10:40 | 52.27881 | 14.45500 | 84° | 77km/h | 8003m | 5.7m/s | -29.6°C | 52.9% | 368.6hPa | 2.8V | 00:00:00 | 00:00:00 | 00:00:00 | |
| SP6BVK | 2026-08-30 11:10:39 | 52.27881 | 14.45500 | 84° | 77km/h | 8003m | 5.7m/s | -29.6°C | 52.9% | 368.6hPa | 2.8V | 00:00:00 | 00:00:00 | 00:00:00 | |
| KRY50SP-1 | 2026-08-30 11:10:34 | 52.27868 | 14.45348 | 86° | 73km/h | 7978m | 5.7m/s | -29.4°C | 52.3% | 369.9hPa | 2.8V | 00:00:00 | 00:00:00 | 00:00:00 | |
| EDDB2-12 | 2026-08-30 11:10:32 | 52.27866 | 14.45257 | 88° | 73km/h | 7965m | 5.5m/s | -29.3°C | 52.6% | 370.6hPa | 2.8V | 00:00:00 | 00:00:00 | 00:00:00 | |
| KRY50SP-1 | 2026-08-30 11:10:29 | 52.27860 | 14.45168 | 81° | 75km/h | 7952m | 4.7m/s | -29.2°C | 52.1% | 371.2hPa | 2.8V | 00:00:00 | 00:00:00 | 00:00:00 | |
| DB0DAN | 2026-08-30 11:10:25 | 52.27847 | 14.45040 | 82° | 78km/h | 7935m | 2.3m/s | -29°C | 52.2% | 372.1hPa | 2.8V | 00:00:00 | 00:00:00 | 00:00:00 | |
| KRY50SP-1 | 2026-08-30 11:10:22 | 52.27841 | 14.44973 | 81° | 78km/h | 7923m | 6.6m/s | -29.0°C | 52.0% | 372.7hPa | 2.9V | 00:00:00 | 00:00:00 | 00:00:00 | |
| DL2RXE-15 | 2026-08-30 11:10:19 | 52.27829 | 14.44882 | 78° | 73km/h | 7909m | 6.1m/s | 0°C | 0% | 373.5hPa | 2.9V | 00:00:00 | 00:00:00 | 00:00:00 | |
| DAC517 | 2026-08-30 11:10:17 | 52.27819 | 14.44792 | 85° | 77km/h | 7894m | 3.2m/s | -28.6°C | 51.3% | 374.4hPa | 2.9V | 00:00:00 | 00:00:00 | 00:00:00 | |
| KRY50SP-1 | 2026-08-30 11:10:16 | 52.27819 | 14.44792 | 85° | 77km/h | 7894m | 3.2m/s | -28.6°C | 51.3% | 374.4hPa | 2.9V | 00:00:00 | 00:00:00 | 00:00:00 | |
| DB0DAN | 2026-08-30 11:10:10 | 52.27814 | 14.44596 | 81° | 66km/h | 7865m | 5m/s | -28.4°C | 53.1% | 375.85hPa | 2.9V | 00:00:00 | 00:00:00 | 00:00:00 | |
| SONDE2-12 | 2026-08-30 11:10:09 | 52.27811 | 14.44568 | 81° | 71km/h | 7860m | 3.6m/s | -28.4°C | 56.1% | 376.2hPa | 2.9V | 00:00:00 | 00:00:00 | 00:00:00 | |
| AA1-15 | 2026-08-30 11:09:58 | 52.27792 | 14.44257 | 88° | 73km/h | 7793m | 5m/s | 0°C | 0% | 379.6hPa | 2.9V | 18:12:15 | 00:58:44 | 00:00:00 | |
| S3001 | 2026-08-30 11:09:57 | 52.27791 | 14.44200 | 88° | 66km/h | 7783m | 3.4m/s | -27.7°C | 50.8% | 380.1hPa | 2.8V | 00:00:00 | 00:00:00 | 00:00:00 | |
| DB0DAN | 2026-08-30 11:09:55 | 52.27790 | 14.44173 | 88° | 64km/h | 7779m | 5.9m/s | -27.7°C | 50.1% | 380.3hPa | 2.8V | 00:00:00 | 00:00:00 | 00:00:00 | |
| AA1-15 | 2026-08-30 11:09:45 | 52.27761 | 14.43870 | 80° | 69km/h | 7721m | 7.1m/s | 0°C | 0% | 383.4hPa | 2.9V | 18:12:15 | 00:58:31 | 00:00:00 | |
| DB0DAN | 2026-08-30 11:09:40 | 52.27750 | 14.43723 | 84° | 66km/h | 7691m | 6.8m/s | -26.9°C | 43.4% | 384.93hPa | 2.9V | 00:00:00 | 00:00:00 | 00:00:00 | |
| SONDE2-12 | 2026-08-30 11:09:38 | 52.27746 | 14.43668 | 78° | 68km/h | 7679m | 5.6m/s | -26.8°C | 44.3% | 385.7hPa | 2.9V | 00:00:00 | 00:00:00 | 00:00:00 | |
| AA1-15 | 2026-08-30 11:09:35 | 52.27734 | 14.43580 | 76° | 78km/h | 7664m | 3.1m/s | 0°C | 0% | 386.6hPa | 2.9V | 18:12:15 | 00:58:21 | 00:00:00 | |
| KRY50SP-1 | 2026-08-30 11:09:33 | 52.27729 | 14.43547 | 76° | 82km/h | 7660m | 4.5m/s | -26.6°C | 42.8% | 386.7hPa | 2.9V | 00:00:00 | 00:00:00 | 00:00:00 | |
| EDDB2-12 | 2026-08-30 11:09:30 | 52.27707 | 14.43414 | 76° | 82km/h | 7644m | 2.3m/s | -26.5°C | 44.8% | 387.7hPa | 2.9V | 00:00:00 | 00:00:00 | 00:00:00 | |
| KRY50SP-1 | 2026-08-30 11:09:28 | 52.27698 | 14.43349 | 81° | 80km/h | 7636m | 4.9m/s | -26.4°C | 44.9% | 388.2hPa | 2.9V | 00:00:00 | 00:00:00 | 00:00:00 | |
| DB0DAN | 2026-08-30 11:09:25 | 52.27689 | 14.43254 | 82° | 71km/h | 7615m | 7.2m/s | -26.3°C | 44.8% | 389.19hPa | 2.9V | 00:00:00 | 00:00:00 | 00:00:00 | |
| AA1-15 | 2026-08-30 11:09:24 | 52.27686 | 14.43223 | 84° | 77km/h | 7609m | 5.9m/s | 0°C | 0% | 389.5hPa | 2.9V | 18:12:15 | 00:58:10 | 00:00:00 | |
| AA1-15 | 2026-08-30 11:09:13 | 52.27655 | 14.42879 | 89° | 77km/h | 7548m | 4.6m/s | 0°C | 0% | 392.9hPa | 2.9V | 18:12:15 | 00:57:59 | 00:00:00 | |
| DB0DAN | 2026-08-30 11:09:10 | 52.27654 | 14.42783 | 86° | 73km/h | 7536m | 4.2m/s | -25.6°C | 38.8% | 393.56hPa | 2.9V | 00:00:00 | 00:00:00 | 00:00:00 | |
| KRY50SP-1 | 2026-08-30 11:09:10 | 52.27654 | 14.42783 | 87° | 77km/h | 7536m | 4.2m/s | -25.6°C | 38.8% | 393.6hPa | 2.9V | 00:00:00 | 00:00:00 | 00:00:00 | |
| DL2RXE-15 | 2026-08-30 11:09:09 | 52.27654 | 14.42783 | 87° | 77km/h | 7536m | 4.2m/s | -25.6°C | 0% | 0hPa | 2.9V | 00:00:00 | 00:00:00 | 00:00:00 | |
| SONDE2-11 | 2026-08-30 11:09:07 | 52.27647 | 14.42698 | 79° | 62km/h | 7522m | 5.2m/s | -25.4°C | 34.8% | 394.3hPa | 2.9V | 00:00:00 | 00:00:00 | 00:00:00 | |
| KRY50SP-1 | 2026-08-30 11:09:03 | 52.27637 | 14.42623 | 78° | 66km/h | 7503m | 5.0m/s | -25.3°C | 28.9% | 395.4hPa | 2.9V | 00:00:00 | 00:00:00 | 00:00:00 | |
| DAC517 | 2026-08-30 11:09:01 | 52.27625 | 14.42509 | 87° | 73km/h | 7479m | 4.1m/s | -25.1°C | 11.4% | 396.6hPa | 2.9V | 00:00:00 | 00:00:00 | 00:00:00 | |
| KRY50SP-1 | 2026-08-30 11:08:59 | 52.27625 | 14.42479 | 89° | 73km/h | 7474m | 5.4m/s | -25.1°C | 11.3% | 396.9hPa | 2.9V | 00:00:00 | 00:00:00 | 00:00:00 | |
| SP6BVK | 2026-08-30 11:08:57 | 52.27624 | 14.42449 | 90° | 75km/h | 7469m | 5.5m/s | -25.0°C | 11.3% | 397.1hPa | 2.9V | 00:00:00 | 00:00:00 | 00:00:00 | |
| DB0DAN | 2026-08-30 11:08:55 | 52.27620 | 14.42354 | 82° | 73km/h | 7452m | 4.1m/s | -24.9°C | 12% | 397.96hPa | 2.9V | 00:00:00 | 00:00:00 | 00:00:00 | |
| EDDB2-11 | 2026-08-30 11:08:52 | 52.27613 | 14.42263 | 87° | 71km/h | 7435m | 6.0m/s | -24.9°C | 10.3% | 398.9hPa | 2.9V | 00:00:00 | 00:00:00 | 00:00:00 | |
| SP3BTT-10 | 2026-08-30 11:08:48 | 52.27614 | 14.42141 | 88° | 69km/h | 7413m | 4.0m/s | -24.7°C | 11.6% | 400.2hPa | 2.9V | 00:00:00 | 00:00:00 | 00:00:00 | |
| KRY50SP-1 | 2026-08-30 11:08:42 | 52.27597 | 14.41997 | 77° | 69km/h | 7388m | 6.6m/s | -24.6°C | 10.1% | 401.6hPa | 2.9V | 00:00:00 | 00:00:00 | 00:00:00 | |
| DB0DAN | 2026-08-30 11:08:40 | 52.27589 | 14.41915 | 86° | 62km/h | 7373m | 6.2m/s | -24.5°C | 9.7% | 402.44hPa | 2.9V | 00:00:00 | 00:00:00 | 00:00:00 | |
| SONDE2-12 | 2026-08-30 11:08:36 | 52.27587 | 14.41810 | 84° | 68km/h | 7355m | 4.0m/s | -24.3°C | 9.5% | 403.4hPa | 2.8V | 00:00:00 | 00:00:00 | 00:00:00 | |
| AA1-15 | 2026-08-30 11:08:20 | 52.27517 | 14.41371 | 78° | 68km/h | 7260m | 5.7m/s | 0°C | 0% | 408.7hPa | 2.8V | 18:12:15 | 00:57:06 | 00:00:00 | |
| KRY50SP-1 | 2026-08-30 11:08:19 | 52.27517 | 14.41371 | 79° | 66km/h | 7260m | 5.7m/s | -23.6°C | 9.2% | 408.7hPa | 3.0V | 00:00:00 | 00:00:00 | 00:00:00 | |
| SP3BTT-10 | 2026-08-30 11:08:15 | 52.27506 | 14.41234 | 85° | 69km/h | 7237m | 3.9m/s | -23.4°C | 9.4% | 409.9hPa | 3.0V | 00:00:00 | 00:00:00 | 08:30:00 | |
| 13BRC | 2026-08-30 11:08:14 | 52.27505 | 14.41234 | 85° | 71km/h | 7237m | 4.0m/s | -23.4°C | 8.4% | 410.0hPa | 3V | 00:00:00 | 00:00:00 | 00:00:00 | |
| KRY50SP-1 | 2026-08-30 11:08:12 | 52.27502 | 14.41173 | 82° | 75km/h | 7229m | 2.8m/s | -23.3°C | 6.7% | 410.5hPa | 3V | 00:00:00 | 00:00:00 | 00:00:00 | |
| DB0DAN | 2026-08-30 11:08:10 | 52.27487 | 14.41082 | 70° | 75km/h | 7218m | 3.9m/s | -23.3°C | 6.2% | 411.03hPa | 3V | 00:00:00 | 00:00:00 | 00:00:00 | |
| AA1-15 | 2026-08-30 11:08:09 | 52.27481 | 14.41051 | 70° | 78km/h | 7214m | 3.2m/s | 0°C | 0% | 411.2hPa | 3V | 18:12:15 | 00:56:55 | 00:00:00 | |
| KRY50SP-1 | 2026-08-30 11:08:08 | 52.27474 | 14.41020 | 71° | 78km/h | 7211m | 4.9m/s | -23.3°C | 6.3% | 411.5hPa | 3V | 00:00:00 | 00:00:00 | 00:00:00 | |
| SONDE2-11 | 2026-08-30 11:08:05 | 52.27459 | 14.40934 | 77° | 68km/h | 7197m | 5.5m/s | -23.2°C | 5.6% | 412.2hPa | 3V | 00:00:00 | 00:00:00 | 00:00:00 | |
| EDDB2-12 | 2026-08-30 11:07:57 | 52.27437 | 14.40715 | 75° | 64km/h | 7153m | 4.5m/s | -22.9°C | 6.8% | 414.7hPa | 3V | 00:00:00 | 00:00:00 | 00:00:00 | |
| DB0DAN | 2026-08-30 11:07:55 | 52.27428 | 14.40662 | 72° | 66km/h | 7143m | 7m/s | -22.9°C | 6.5% | 415.24hPa | 3V | 00:00:00 | 00:00:00 | 00:00:00 | |
| S3001 | 2026-08-30 11:07:53 | 52.27411 | 14.40576 | 73° | 75km/h | 7129m | 4.3m/s | -22.8°C | 7.0% | 416.1hPa | 3V | 00:00:00 | 00:00:00 | 00:00:00 | |
| EDDB2-11 | 2026-08-30 11:07:51 | 52.27400 | 14.40517 | 72° | 69km/h | 7121m | 3.4m/s | -22.8°C | 7.8% | 416.4hPa | 3V | 00:00:00 | 00:00:00 | 00:00:00 | |
| KRY50SP-1 | 2026-08-30 11:07:50 | 52.27405 | 14.40546 | 75° | 75km/h | 7125m | 3.8m/s | -22.8°C | 7.5% | 416.3hPa | 3V | 00:00:00 | 00:00:00 | 00:00:00 | |
| KRY50SP-1 | 2026-08-30 11:07:45 | 52.27377 | 14.40397 | 78° | 58km/h | 7102m | 2.1m/s | -22.7°C | 8.4% | 417.6hPa | 3V | 00:00:00 | 00:00:00 | 00:00:00 | |
| DB0DAN | 2026-08-30 11:07:40 | 52.27362 | 14.40267 | 78° | 68km/h | 7078m | 4.9m/s | -22.7°C | 15.6% | 418.97hPa | 3V | 00:00:00 | 00:00:00 | 00:00:00 | |
| SONDE2-12 | 2026-08-30 11:07:34 | 52.27324 | 14.40092 | 65° | 73km/h | 7056m | 3.1m/s | -22.7°C | 29.1% | 420.3hPa | 3V | 00:00:00 | 00:00:00 | 00:00:00 | |
| AA1-15 | 2026-08-30 11:07:32 | 52.27312 | 14.40039 | 74° | 68km/h | 7050m | 3.8m/s | 0°C | 0% | 420.7hPa | 3V | 18:12:15 | 00:56:18 | 00:00:00 | |
| KRY50SP-1 | 2026-08-30 11:07:27 | 52.27301 | 14.39935 | 84° | 66km/h | 7026m | 5.0m/s | -22.5°C | 28.9% | 422.0hPa | 3V | 00:00:00 | 00:00:00 | 00:00:00 | |
| DB0DAN | 2026-08-30 11:07:25 | 52.27288 | 14.39852 | 69° | 69km/h | 7012m | 5.4m/s | -22.3°C | 28.6% | 422.81hPa | 3V | 00:00:00 | 00:00:00 | 00:00:00 | |
| AA1-15 | 2026-08-30 11:07:19 | 52.27242 | 14.39674 | 75° | 77km/h | 6980m | 4m/s | 0°C | 0% | 424.5hPa | 3V | 18:12:15 | 00:56:05 | 00:00:00 | |
| SP3BTT-10 | 2026-08-30 11:07:15 | 52.27226 | 14.39566 | 73° | 69km/h | 6960m | 6.0m/s | -21.8°C | 29.1% | 425.5hPa | 3V | 00:00:00 | 00:00:00 | 00:00:00 | |
| SP6BVK | 2026-08-30 11:07:12 | 52.27216 | 14.39518 | 72° | 64km/h | 6949m | 7.0m/s | -21.8°C | 0% | 426.1hPa | 3V | 00:00:00 | 00:00:00 | 00:00:00 | |
| DB0DAN | 2026-08-30 11:07:10 | 52.27199 | 14.39431 | 72° | 80km/h | 6932m | 3.9m/s | -21.6°C | 26.5% | 427.17hPa | 3V | 00:00:00 | 00:00:00 | 00:00:00 | |
| AA1-15 | 2026-08-30 11:07:08 | 52.27187 | 14.39365 | 74° | 82km/h | 6922m | 6m/s | 0°C | 0% | 427.6hPa | 3V | 18:12:15 | 00:55:54 | 00:00:00 | |
| SONDE2-12 | 2026-08-30 11:07:03 | 52.27166 | 14.39219 | 76° | 66km/h | 6896m | 4.7m/s | -21.3°C | 26.5% | 429.3hPa | 3V | 00:00:00 | 00:00:00 | 00:00:00 | |
| AA1-15 | 2026-08-30 11:06:58 | 52.27142 | 14.39100 | 70° | 64km/h | 6876m | 2m/s | 0°C | 0% | 430.4hPa | 3V | 18:12:15 | 00:55:44 | 00:00:00 | |
| DB0DAN | 2026-08-30 11:06:55 | 52.27126 | 14.39021 | 74° | 66km/h | 6862m | 5.7m/s | -21°C | 24.9% | 431.27hPa | 3V | 00:00:00 | 00:00:00 | 00:00:00 | |
| AA1-15 | 2026-08-30 11:06:47 | 52.27092 | 14.38793 | 73° | 68km/h | 6820m | 2.1m/s | 0°C | 0% | 433.8hPa | 3V | 18:12:15 | 00:55:33 | 00:00:00 | |
| SP3BTT-10 | 2026-08-30 11:06:45 | 52.27081 | 14.38739 | 73° | 69km/h | 6813m | 3.7m/s | -20.7°C | 24.7% | 434.1hPa | 3.0V | 00:00:00 | 00:00:00 | 00:00:00 | |
| DL2RXE-15 | 2026-08-30 11:06:43 | 52.27076 | 14.38710 | 74° | 75km/h | 6809m | 3.6m/s | -20.7°C | 0% | 0hPa | 3V | 00:00:00 | 00:00:00 | 00:00:00 | |
| DB0DAN | 2026-08-30 11:06:40 | 52.27056 | 14.38589 | 77° | 73km/h | 6793m | 4.4m/s | -20.6°C | 22.2% | 435.22hPa | 3V | 00:00:00 | 00:00:00 | 00:00:00 | |
| KRY50SP-1 | 2026-08-30 11:06:36 | 52.27046 | 14.38493 | 85° | 78km/h | 6782m | 3.4m/s | -20.5°C | 20.6% | 435.8hPa | 3V | 00:00:00 | 00:00:00 | 00:00:00 | |
| SONDE2-11 | 2026-08-30 11:06:32 | 52.27034 | 14.38329 | 75° | 86km/h | 6766m | 2.8m/s | -20.5°C | 16.9% | 436.8hPa | 3V | 00:00:00 | 00:00:00 | 00:00:00 | |
| 13BRC | 2026-08-30 11:06:30 | 52.27021 | 14.38262 | 70° | 82km/h | 6757m | 5.5m/s | -20.5°C | 16.7% | 437.3hPa | 3V | 00:00:00 | 00:00:00 | 00:00:00 | |
| DB0DAN | 2026-08-30 11:06:25 | 52.26983 | 14.38139 | 62° | 58km/h | 6730m | 6.3m/s | -20.3°C | 15.4% | 438.88hPa | 3V | 00:00:00 | 00:00:00 | 00:00:00 | |
| SP6BVK | 2026-08-30 11:06:24 | 52.26976 | 14.38115 | 68° | 64km/h | 6724m | 5.8m/s | -20.2°C | 0% | 439.3hPa | 3V | 00:00:00 | 00:00:00 | 00:00:00 | |
| S3001 | 2026-08-30 11:06:20 | 52.26946 | 14.37977 | 69° | 71km/h | 6700m | 5.2m/s | -20.0°C | 15.2% | 440.9hPa | 3V | 00:00:00 | 00:00:00 | 00:00:00 | |
| EDDB2-11 | 2026-08-30 11:06:17 | 52.26934 | 14.37924 | 71° | 66km/h | 6693m | 2.9m/s | -20.0°C | 16.0% | 441.3hPa | 3V | 00:00:00 | 00:00:00 | 00:00:00 | |
| SP3BTT-10 | 2026-08-30 11:06:15 | 52.26923 | 14.37871 | 73° | 68km/h | 6686m | 4.3m/s | -20.0°C | 18.3% | 441.8hPa | 3V | 00:00:00 | 00:00:00 | 00:00:00 | |
| KRY50SP-1 | 2026-08-30 11:06:13 | 52.26918 | 14.37845 | 72° | 68km/h | 6683m | 2.6m/s | 0°C | 0% | 441.9hPa | 3V | 00:00:00 | 00:00:00 | 00:00:00 | |
| DB0DAN | 2026-08-30 11:06:10 | 52.26896 | 14.37739 | 71° | 68km/h | 6668m | 4.7m/s | -20°C | 17.7% | 442.78hPa | 3V | 00:00:00 | 00:00:00 | 00:00:00 | |
| 13BRC | 2026-08-30 11:06:10 | 52.26895 | 14.37739 | 72° | 71km/h | 6668m | 4.7m/s | -20.0°C | 17.7% | 442.8hPa | 3V | 00:00:00 | 00:00:00 | 00:00:00 | |
| KRY50SP-1 | 2026-08-30 11:06:08 | 52.26889 | 14.37712 | 70° | 73km/h | 6665m | 2.5m/s | 0°C | 0% | 443.0hPa | 3V | 00:00:00 | 00:00:00 | 00:00:00 | |
| KRY50SP-1 | 2026-08-30 11:06:03 | 52.26853 | 14.37582 | 65° | 68km/h | 6648m | 3.5m/s | 0°C | 0% | 444.0hPa | 3V | 00:00:00 | 00:00:00 | 00:00:00 | |
| SP6BVK | 2026-08-30 11:06:02 | 52.26846 | 14.37556 | 65° | 69km/h | 6644m | 4.3m/s | -19.8°C | 0% | 444.2hPa | 3V | 00:00:00 | 00:00:00 | 00:00:00 | |
| SONDE2-11 | 2026-08-30 11:06:01 | 52.26831 | 14.37504 | 66° | 73km/h | 6636m | 3.4m/s | -19.7°C | 17.8% | 444.7hPa | 3V | 00:00:00 | 00:00:00 | 00:00:00 | |
| KRY50SP-1 | 2026-08-30 11:05:57 | 52.26807 | 14.37417 | 68° | 78km/h | 6625m | 2.5m/s | 0°C | 0% | 445.4hPa | 3V | 00:00:00 | 00:00:00 | 00:00:00 | |
| DB0DAN | 2026-08-30 11:05:55 | 52.26792 | 14.37330 | 80° | 62km/h | 6614m | 3.7m/s | -19.6°C | 17.6% | 446.06hPa | 3V | 00:00:00 | 00:00:00 | 00:00:00 | |
| AA1-15 | 2026-08-30 11:05:46 | 52.26738 | 14.37098 | 78° | 68km/h | 6568m | 5.2m/s | 0°C | 0% | 448.9hPa | 3V | 18:12:15 | 00:54:32 | 00:00:00 | |
| KRY50SP-1 | 2026-08-30 11:05:43 | 52.26733 | 14.37047 | 84° | 55km/h | 6558m | 5.0m/s | 0°C | 0% | 449.5hPa | 3V | 00:00:00 | 00:00:00 | 00:00:00 | |
| DB0DAN | 2026-08-30 11:05:40 | 52.26722 | 14.36956 | 79° | 58km/h | 6536m | 7.6m/s | -19°C | 15.4% | 450.79hPa | 3V | 00:00:00 | 00:00:00 | 00:00:00 | |
| AA1-15 | 2026-08-30 11:05:30 | 52.26675 | 14.36690 | 72° | 62km/h | 6481m | 5.2m/s | 0°C | 0% | 454.1hPa | 3V | 18:12:15 | 00:54:16 | 00:00:00 | |
| SONDE2-11 | 2026-08-30 11:05:30 | 52.26675 | 14.36690 | 72° | 62km/h | 6481m | 5.2m/s | -18.7°C | 14.2% | 454.1hPa | 3V | 00:00:00 | 00:00:00 | 00:00:00 | |
| KRY50SP-1 | 2026-08-30 11:05:29 | 52.26675 | 14.36690 | 73° | 62km/h | 6481m | 5.2m/s | 0°C | 0% | 454.1hPa | 3V | 00:00:00 | 00:00:00 | 00:00:00 | |
| 13BRC | 2026-08-30 11:05:27 | 52.26667 | 14.36636 | 79° | 69km/h | 6473m | 3.0m/s | -18.6°C | 14.2% | 454.7hPa | 3V | 00:00:00 | 00:00:00 | 00:00:00 | |
| DB0DAN | 2026-08-30 11:05:25 | 52.26660 | 14.36550 | 81° | 66km/h | 6461m | 3.5m/s | -18.5°C | 14.1% | 455.36hPa | 3V | 00:00:00 | 00:00:00 | 00:00:00 | |
| AA1-15 | 2026-08-30 11:05:19 | 52.26637 | 14.36376 | 75° | 71km/h | 6429m | 7m/s | 0°C | 0% | 457.2hPa | 3V | 18:12:15 | 00:54:05 | 00:00:00 | |
| DL2RXE-15 | 2026-08-30 11:05:19 | 52.26637 | 14.36376 | 76° | 71km/h | 6429m | 7.0m/s | 0°C | 0% | 457.2hPa | 3.0V | 00:00:00 | 00:00:00 | 00:00:00 | |
| SP6BVK | 2026-08-30 11:05:18 | 52.26637 | 14.36376 | 76° | 71km/h | 6429m | 7.0m/s | -18.2°C | 0% | 457.2hPa | 3.0V | 00:00:00 | 00:00:00 | 00:00:00 | |
| S3001 | 2026-08-30 11:05:17 | 52.26626 | 14.36323 | 68° | 62km/h | 6418m | 3.2m/s | -18.1°C | 13.7% | 457.9hPa | 3.0V | 00:00:00 | 00:00:00 | 00:00:00 | |
| KRY50SP-1 | 2026-08-30 11:05:16 | 52.26626 | 14.36323 | 69° | 64km/h | 6418m | 3.2m/s | 0°C | 0% | 457.9hPa | 3.0V | 00:00:00 | 00:00:00 | 00:00:00 | |
| SP3BTT-10 | 2026-08-30 11:05:15 | 52.26613 | 14.36275 | 65° | 66km/h | 6405m | 7.8m/s | -18.0°C | 14.1% | 458.7hPa | 3.0V | 00:00:00 | 00:00:00 | 00:00:00 | |
| DB0DAN | 2026-08-30 11:05:10 | 52.26577 | 14.36138 | 69° | 73km/h | 6374m | 3.9m/s | -17.8°C | 13.8% | 460.46hPa | 3V | 00:00:00 | 00:00:00 | 00:00:00 | |
| AA1-15 | 2026-08-30 11:05:08 | 52.26563 | 14.36082 | 66° | 69km/h | 6365m | 5.4m/s | 0°C | 0% | 461.1hPa | 3V | 18:12:15 | 00:53:54 | 00:00:00 | |
| SONDE2-12 | 2026-08-30 11:04:59 | 52.26504 | 14.35865 | 71° | 64km/h | 6320m | 5.1m/s | -17.3°C | 14.2% | 464.0hPa | 3V | 00:00:00 | 00:00:00 | 00:00:00 | |
| AA1-15 | 2026-08-30 11:04:58 | 52.26498 | 14.35841 | 70° | 60km/h | 6315m | 4.1m/s | 0°C | 0% | 464.4hPa | 3V | 18:12:15 | 00:53:44 | 00:00:00 | |
| SP6BVK | 2026-08-30 11:04:57 | 52.26498 | 14.35841 | 71° | 60km/h | 6315m | 4.1m/s | -17.2°C | 0% | 464.4hPa | 2.9V | 00:00:00 | 00:00:00 | 00:00:00 | |
| DB0DAN | 2026-08-30 11:04:55 | 52.26481 | 14.35771 | 65° | 62km/h | 6300m | 6.2m/s | -17.2°C | 13.7% | 465.19hPa | 2.9V | 00:00:00 | 00:00:00 | 00:00:00 | |
| AA1-15 | 2026-08-30 11:04:48 | 52.26426 | 14.35601 | 72° | 62km/h | 6272m | 4.4m/s | 0°C | 0% | 467hPa | 3V | 18:12:15 | 00:53:34 | 00:00:00 | |
| S3001 | 2026-08-30 11:04:47 | 52.26418 | 14.35551 | 80° | 62km/h | 6262m | 3.9m/s | -16.9°C | 13.5% | 467.7hPa | 3V | 00:00:00 | 00:00:00 | 00:00:00 | |
| SP3BTT-10 | 2026-08-30 11:04:45 | 52.26416 | 14.35525 | 82° | 66km/h | 6258m | 5.4m/s | -16.8°C | 14.4% | 467.9hPa | 3V | 00:00:00 | 00:00:00 | 00:00:00 | |
| EDDB2-11 | 2026-08-30 11:04:44 | 52.26413 | 14.35500 | 80° | 62km/h | 6253m | 4.3m/s | -16.8°C | 13.5% | 468.2hPa | 3V | 00:00:00 | 00:00:00 | 00:00:00 | |
| DB0DAN | 2026-08-30 11:04:40 | 52.26395 | 14.35399 | 67° | 62km/h | 6236m | 5.3m/s | -16.7°C | 12.9% | 469.32hPa | 3V | 00:00:00 | 00:00:00 | 00:00:00 | |
| AA1-15 | 2026-08-30 11:04:33 | 52.26355 | 14.35248 | 71° | 64km/h | 6201m | 4.1m/s | 0°C | 0% | 0hPa | 3V | 18:12:15 | 00:53:19 | 00:00:00 | |
| SONDE2-12 | 2026-08-30 11:04:28 | 52.26335 | 14.35111 | 78° | 66km/h | 6180m | 3.7m/s | -16.2°C | 11.9% | 472.7hPa | 3V | 00:00:00 | 00:00:00 | 00:00:00 | |
| DB0DAN | 2026-08-30 11:04:25 | 52.26320 | 14.35037 | 64° | 58km/h | 6168m | 5.6m/s | -16.2°C | 11.5% | 473.48hPa | 3V | 00:00:00 | 00:00:00 | 00:00:00 | |
| DL2RXE-15 | 2026-08-30 11:04:22 | 52.26306 | 14.34992 | 65° | 60km/h | 6155m | 7.5m/s | 0°C | 0% | 474.3hPa | 3V | 00:00:00 | 00:00:00 | 00:00:00 | |
| EDDB2-12 | 2026-08-30 11:04:20 | 52.26284 | 14.34890 | 73° | 73km/h | 6130m | 5.6m/s | -15.9°C | 11.9% | 475.8hPa | 3V | 00:00:00 | 00:00:00 | 00:00:00 | |
| S3001 | 2026-08-30 11:04:16 | 52.26263 | 14.34775 | 74° | 69km/h | 6111m | 5.5m/s | -15.7°C | 11.9% | 477.1hPa | 3V | 00:00:00 | 00:00:00 | 00:00:00 | |
| SP3BTT-10 | 2026-08-30 11:04:15 | 52.26263 | 14.34775 | 75° | 60km/h | 6111m | 5.4m/s | -15.7°C | 12.7% | 477.1hPa | 3V | 00:00:00 | 00:00:00 | 00:00:00 | |
| KRY50SP-1 | 2026-08-30 11:04:14 | 52.26263 | 14.34775 | 76° | 69km/h | 6111m | 5.5m/s | 0°C | 0% | 477.1hPa | 3V | 00:00:00 | 00:00:00 | 00:00:00 | |
| EDDB2-11 | 2026-08-30 11:04:13 | 52.26255 | 14.34721 | 77° | 64km/h | 6098m | 6.8m/s | -15.6°C | 12.0% | 477.9hPa | 3V | 00:00:00 | 00:00:00 | 00:00:00 | |
| DB0DAN | 2026-08-30 11:04:10 | 52.26244 | 14.34649 | 72° | 51km/h | 6081m | 4.2m/s | -15.5°C | 12.5% | 479.15hPa | 3V | 00:00:00 | 00:00:00 | 00:00:00 | |
| KRY50SP-1 | 2026-08-30 11:04:08 | 52.26240 | 14.34627 | 73° | 51km/h | 6076m | 6.1m/s | 0°C | 0% | 479.3hPa | 3V | 00:00:00 | 00:00:00 | 00:00:00 | |
| SP6BVK | 2026-08-30 11:04:07 | 52.26236 | 14.34607 | 73° | 51km/h | 6070m | 5.9m/s | -15.4°C | 0% | 479.7hPa | 3V | 00:00:00 | 00:00:00 | 00:00:00 | |
| 13BRC | 2026-08-30 11:04:06 | 52.26232 | 14.34587 | 71° | 55km/h | 6065m | 3.9m/s | -15.3°C | 12.5% | 480.0hPa | 3V | 00:00:00 | 00:00:00 | 00:00:00 | |
| SONDE2-11 | 2026-08-30 11:03:57 | 52.26173 | 14.34311 | 61° | 51km/h | 6010m | 6.3m/s | -14.9°C | 12.1% | 483.5hPa | 3V | 00:00:00 | 00:00:00 | 00:00:00 | |
| EDDB2-12 | 2026-08-30 11:03:49 | 52.26131 | 14.34139 | 75° | 68km/h | 5960m | 6.8m/s | -14.4°C | 11.7% | 486.6hPa | 3V | 00:00:00 | 00:00:00 | 00:00:00 | |
| KRY50SP-1 | 2026-08-30 11:03:48 | 52.26135 | 14.34166 | 77° | 68km/h | 5968m | 8.0m/s | 0°C | 0% | 486.1hPa | 3V | 00:00:00 | 00:00:00 | 00:00:00 | |
| SP6BVK | 2026-08-30 11:03:46 | 52.26126 | 14.34112 | 74° | 69km/h | 5954m | 5.2m/s | -14.3°C | 0% | 486.9hPa | 3V | 00:00:00 | 00:00:00 | 00:00:00 | |
| 13BRC | 2026-08-30 11:03:45 | 52.26121 | 14.34085 | 71° | 66km/h | 5949m | 5.6m/s | -14.3°C | 11.7% | 487.4hPa | 3V | 00:00:00 | 00:00:00 | 00:00:00 | |
| DB0DAN | 2026-08-30 11:03:40 | 52.26086 | 14.33957 | 62° | 51km/h | 5918m | 5.3m/s | -14°C | 11.6% | 489.36hPa | 3V | 00:00:00 | 00:00:00 | 00:00:00 | |
| SONDE2-12 | 2026-08-30 11:03:26 | 52.26004 | 14.33631 | 66° | 66km/h | 5838m | 5.7m/s | -13.3°C | 11.5% | 494.6hPa | 3V | 00:00:00 | 00:00:00 | 00:00:00 | |
| DB0DAN | 2026-08-30 11:03:25 | 52.25997 | 14.33606 | 64° | 62km/h | 5832m | 5.4m/s | -13.3°C | 11.3% | 494.91hPa | 3V | 00:00:00 | 00:00:00 | 00:00:00 | |
| KRY50SP-1 | 2026-08-30 11:03:23 | 52.25983 | 14.33560 | 66° | 58km/h | 5823m | 5.5m/s | 0°C | 0% | 0hPa | 3V | 00:00:00 | 00:00:00 | 00:00:00 | |
| EDDB2-12 | 2026-08-30 11:03:18 | 52.25953 | 14.33445 | 79° | 53km/h | 5798m | 3.8m/s | -13.1°C | 11.7% | 497.2hPa | 3V | 00:00:00 | 00:00:00 | 00:00:00 | |
| KRY50SP-1 | 2026-08-30 11:03:16 | 52.25953 | 14.33445 | 80° | 53km/h | 5798m | 3.8m/s | 0°C | 0% | 0hPa | 3V | 00:00:00 | 00:00:00 | 00:00:00 | |
| DB0DAN | 2026-08-30 11:03:10 | 52.25928 | 14.33261 | 68° | 68km/h | 5755m | 8.1m/s | -12.8°C | 14% | 500.07hPa | 3V | 00:00:00 | 00:00:00 | 00:00:00 | |
| AA1-15 | 2026-08-30 11:03:01 | 52.25859 | 14.33042 | 68° | 68km/h | 5699m | 7.3m/s | 0°C | 0% | 0hPa | 3V | 18:12:15 | 00:51:47 | 00:00:00 | |
| SP6BVK | 2026-08-30 11:02:59 | 52.25847 | 14.32988 | 71° | 69km/h | 5685m | 6.1m/s | 0°C | 0% | 504.7hPa | 2.9V | 00:00:00 | 00:00:00 | 00:00:00 | |
| DB0DAN | 2026-08-30 11:02:55 | 52.25820 | 14.32897 | 60° | 53km/h | 5662m | 6.8m/s | -12°C | 14.4% | 506.15hPa | 2.9V | 00:00:00 | 00:00:00 | 00:00:00 | |
| SONDE2-12 | 2026-08-30 11:02:55 | 52.25820 | 14.32897 | 60° | 55km/h | 5662m | 6.8m/s | -12.0°C | 14.7% | 506.2hPa | 3V | 00:00:00 | 00:00:00 | 00:00:00 | |
| AA1-15 | 2026-08-30 11:02:50 | 52.25788 | 14.32805 | 69° | 51km/h | 5636m | 7.4m/s | 0°C | 0% | 0hPa | 3V | 18:12:15 | 00:51:36 | 00:00:00 | |
| EDDB2-12 | 2026-08-30 11:02:46 | 52.25770 | 14.32715 | 70° | 64km/h | 5608m | 5.3m/s | -11.5°C | 13.0% | 509.7hPa | 3V | 00:00:00 | 00:00:00 | 00:00:00 | |
| KRY50SP-1 | 2026-08-30 11:02:44 | 52.25764 | 14.32690 | 71° | 64km/h | 5603m | 4.3m/s | 0°C | 0% | 0hPa | 3V | 00:00:00 | 00:00:00 | 00:00:00 | |
| 13BRC | 2026-08-30 11:02:43 | 52.25759 | 14.32665 | 74° | 68km/h | 5599m | 4.5m/s | -11.4°C | 12.8% | 510.4hPa | 3V | 00:00:00 | 00:00:00 | 00:00:00 | |
| DB0DAN | 2026-08-30 11:02:40 | 52.25743 | 14.32557 | 77° | 62km/h | 5579m | 4.4m/s | -11.3°C | 12.4% | 511.7hPa | 3V | 00:00:00 | 00:00:00 | 00:00:00 | |
| AA1-15 | 2026-08-30 11:02:40 | 52.25743 | 14.32557 | 77° | 64km/h | 5579m | 4.4m/s | 0°C | 0% | 0hPa | 3V | 18:12:15 | 00:51:26 | 00:00:00 | |
| SP6BVK | 2026-08-30 11:02:38 | 52.25739 | 14.32532 | 75° | 60km/h | 5574m | 5.3m/s | 0°C | 0% | 0hPa | 3V | 00:00:00 | 00:00:00 | 00:00:00 | |
| DB0DAN | 2026-08-30 11:02:25 | 52.25674 | 14.32217 | 58° | 62km/h | 5492m | 5.9m/s | -10.5°C | 12.1% | 517.47hPa | 3V | 00:00:00 | 00:00:00 | 00:00:00 | |
| SONDE2-12 | 2026-08-30 11:02:24 | 52.25665 | 14.32195 | 57° | 62km/h | 5487m | 4.5m/s | -10.5°C | 12.6% | 518.0hPa | 3V | 00:00:00 | 00:00:00 | 00:00:00 | |
| AA1-15 | 2026-08-30 11:02:23 | 52.25657 | 14.32173 | 59° | 60km/h | 5482m | 5m/s | 0°C | 0% | 0hPa | 3V | 18:12:15 | 00:51:09 | 00:00:00 | |
| KRY50SP-1 | 2026-08-30 11:02:22 | 52.25656 | 14.32173 | 60° | 60km/h | 5483m | 5.0m/s | 0°C | 0% | 0hPa | 3V | 00:00:00 | 00:00:00 | 00:00:00 | |
| DL2RXE-15 | 2026-08-30 11:02:20 | 52.25642 | 14.32133 | 61° | 53km/h | 5471m | 5.8m/s | 0°C | 0% | 0hPa | 3V | 00:00:00 | 00:00:00 | 00:00:00 | |
| EDDB2-12 | 2026-08-30 11:02:15 | 52.25607 | 14.32011 | 65° | 64km/h | 5431m | 7.0m/s | -10.0°C | 11.5% | 521.6hPa | 3V | 00:00:00 | 00:00:00 | 00:00:00 | |
| KRY50SP-1 | 2026-08-30 11:02:13 | 52.25599 | 14.31986 | 64° | 69km/h | 5424m | 7.1m/s | 0°C | 0% | 0hPa | 3V | 00:00:00 | 00:00:00 | 00:00:00 | |
| DB0DAN | 2026-08-30 11:02:10 | 52.25571 | 14.31882 | 71° | 64km/h | 5401m | 6.4m/s | -9.8°C | 11.9% | 523.66hPa | 3V | 00:00:00 | 00:00:00 | 00:00:00 | |
| AA1-15 | 2026-08-30 11:01:59 | 52.25512 | 14.31631 | 68° | 62km/h | 5334m | 4.7m/s | 0°C | 0% | 0hPa | 3V | 18:12:15 | 00:50:45 | 00:00:00 | |
| DB0DAN | 2026-08-30 11:01:55 | 52.25490 | 14.31545 | 65° | 53km/h | 5309m | 6.6m/s | -9°C | 10.4% | 529.91hPa | 3V | 00:00:00 | 00:00:00 | 00:00:00 | |
| SONDE2-12 | 2026-08-30 11:01:53 | 52.25478 | 14.31504 | 66° | 55km/h | 5299m | 5.7m/s | -8.9°C | 10.4% | 530.6hPa | 3V | 00:00:00 | 00:00:00 | 00:00:00 | |
| SONDE2-11 | 2026-08-30 11:01:52 | 52.25473 | 14.31483 | 71° | 53km/h | 5293m | 4.6m/s | -8.9°C | 9.9% | 531.1hPa | 3V | 00:00:00 | 00:00:00 | 00:00:00 | |
| EDDB2-12 | 2026-08-30 11:01:44 | 52.25436 | 14.31307 | 66° | 51km/h | 5256m | 3.6m/s | -8.6°C | 9.5% | 533.5hPa | 3V | 00:00:00 | 00:00:00 | 00:00:00 | |
| SP6BVK | 2026-08-30 11:01:43 | 52.25436 | 14.31307 | 68° | 53km/h | 5256m | 3.6m/s | 0°C | 0% | 0hPa | 3V | 00:00:00 | 00:00:00 | 00:00:00 | |
| DB0DAN | 2026-08-30 11:01:40 | 52.25408 | 14.31227 | 57° | 55km/h | 5239m | 4.4m/s | -8.4°C | 9.4% | 534.74hPa | 3V | 00:00:00 | 00:00:00 | 00:00:00 | |
| S3001 | 2026-08-30 11:01:40 | 52.25408 | 14.31227 | 56° | 57km/h | 5239m | 4.4m/s | -8.4°C | 9.4% | 534.7hPa | 3.0V | 00:00:00 | 00:00:00 | 00:00:00 | |
| DL2RXE-15 | 2026-08-30 11:01:32 | 52.25367 | 14.31070 | 77° | 58km/h | 5199m | 7.2m/s | 0°C | 0% | 0hPa | 3.0V | 00:00:00 | 00:00:00 | 00:00:00 | |
| SP3BTT-10 | 2026-08-30 11:01:28 | 52.25349 | 14.30962 | 73° | 53km/h | 5164m | 5.1m/s | -7.9°C | 10.2% | 539.9hPa | 3.0V | 00:00:00 | 00:00:00 | 00:00:00 | |
| DB0DAN | 2026-08-30 11:01:25 | 52.25333 | 14.30896 | 67° | 58km/h | 5148m | 3.8m/s | -7.8°C | 9.8% | 540.93hPa | 3V | 00:00:00 | 00:00:00 | 00:00:00 | |
| SONDE2-12 | 2026-08-30 11:01:22 | 52.25310 | 14.30795 | 74° | 60km/h | 5131m | 5.4m/s | -7.7°C | 9.9% | 542.1hPa | 3V | 00:00:00 | 00:00:00 | 00:00:00 | |
| SONDE2-11 | 2026-08-30 11:01:21 | 52.25310 | 14.30795 | 74° | 60km/h | 5131m | 5.4m/s | -7.7°C | 9.7% | 542.1hPa | 3V | 00:00:00 | 00:00:00 | 00:00:00 | |
| 13BRC | 2026-08-30 11:01:20 | 52.25306 | 14.30771 | 76° | 60km/h | 5126m | 5.4m/s | -7.7°C | 9.7% | 542.5hPa | 3V | 00:00:00 | 00:00:00 | 00:00:00 | |
| EDDB2-12 | 2026-08-30 11:01:13 | 52.25281 | 14.30618 | 75° | 42km/h | 5083m | 4.4m/s | -7.3°C | 9.7% | 545.4hPa | 3V | 00:00:00 | 00:00:00 | 00:00:00 | |
| DB0DAN | 2026-08-30 11:01:10 | 52.25271 | 14.30567 | 65° | 42km/h | 5070m | 3.7m/s | -7.2°C | 9.7% | 546.36hPa | 3V | 00:00:00 | 00:00:00 | 00:00:00 | |
| S3001 | 2026-08-30 11:01:09 | 52.25266 | 14.30549 | 66° | 49km/h | 5066m | 4.6m/s | -7.2°C | 9.6% | 546.5hPa | 3V | 00:00:00 | 00:00:00 | 00:00:00 | |
| EDDB2-11 | 2026-08-30 11:01:07 | 52.25254 | 14.30510 | 61° | 57km/h | 5057m | 4.7m/s | -7.1°C | 9.6% | 547.2hPa | 3V | 00:00:00 | 00:00:00 | 00:00:00 | |
| DL2RXE-15 | 2026-08-30 11:01:02 | 52.25230 | 14.30425 | 75° | 51km/h | 5037m | 4.8m/s | 0°C | 0% | 548.7hPa | 3V | 00:00:00 | 00:00:00 | 00:00:00 | |
| DAC517 | 2026-08-30 11:01:00 | 52.25221 | 14.30366 | 78° | 53km/h | 5021m | 6.6m/s | 0°C | 0% | 549.8hPa | 3V | 00:00:00 | 00:00:00 | 00:00:00 | |
| 13BRC | 2026-08-30 11:00:58 | 52.25218 | 14.30345 | 75° | 55km/h | 5014m | 7.8m/s | -6.8°C | 8.1% | 550.3hPa | 3V | 00:00:00 | 00:00:00 | 00:00:00 | |
| DB0DAN | 2026-08-30 11:00:55 | 52.25201 | 14.30246 | 81° | 58km/h | 4988m | 5.8m/s | -6.7°C | 7.8% | 552.17hPa | 3V | 00:00:00 | 00:00:00 | 00:00:00 | |
| SONDE2-12 | 2026-08-30 11:00:51 | 52.25194 | 14.30143 | 67° | 46km/h | 4960m | 6.3m/s | -6.5°C | 7.9% | 554.2hPa | 3V | 00:00:00 | 00:00:00 | 00:00:00 | |
| SONDE2-11 | 2026-08-30 11:00:50 | 52.25194 | 14.30143 | 67° | 46km/h | 4960m | 6.3m/s | -6.5°C | 7.8% | 554.2hPa | 3V | 00:00:00 | 00:00:00 | 00:00:00 | |
| DL2RXE-15 | 2026-08-30 11:00:42 | 52.25150 | 14.30004 | 70° | 46km/h | 4921m | 6.9m/s | 0°C | 0% | 0hPa | 3V | 00:00:00 | 00:00:00 | 00:00:00 | |
| DB0DAN | 2026-08-30 11:00:40 | 52.25143 | 14.29949 | 87° | 49km/h | 4904m | 5.9m/s | -6°C | 8% | 558.17hPa | 3V | 00:00:00 | 00:00:00 | 00:00:00 | |
| 13BRC | 2026-08-30 11:00:37 | 52.25141 | 14.29903 | 85° | 60km/h | 4895m | 5.2m/s | -5.9°C | 8.0% | 558.9hPa | 3V | 00:00:00 | 00:00:00 | 00:00:00 | |
| EDDB2-11 | 2026-08-30 11:00:36 | 52.25137 | 14.29855 | 76° | 58km/h | 4883m | 6.1m/s | -5.8°C | 8.3% | 559.6hPa | 3V | 00:00:00 | 00:00:00 | 00:00:00 | |
| DB0DAN | 2026-08-30 11:00:25 | 52.25085 | 14.29633 | 64° | 62km/h | 4818m | 5m/s | -5.3°C | 8.5% | 564.55hPa | 3V | 00:00:00 | 00:00:00 | 00:00:00 | |
| SONDE2-12 | 2026-08-30 11:00:20 | 52.25060 | 14.29486 | 69° | 57km/h | 4785m | 6.5m/s | -5.0°C | 8.7% | 566.9hPa | 3V | 00:00:00 | 00:00:00 | 00:00:00 | |
| SONDE2-11 | 2026-08-30 11:00:19 | 52.25060 | 14.29486 | 69° | 57km/h | 4785m | 6.5m/s | -5.0°C | 8.6% | 566.9hPa | 3V | 00:00:00 | 00:00:00 | 00:00:00 | |
| 13BRC | 2026-08-30 11:00:16 | 52.25048 | 14.29442 | 66° | 58km/h | 4774m | 5.8m/s | -4.9°C | 8.6% | 567.8hPa | 3V | 00:00:00 | 00:00:00 | 00:00:00 | |
| DAC517 | 2026-08-30 11:00:15 | 52.25036 | 14.29400 | 68° | 53km/h | 4763m | 5.4m/s | 0°C | 0% | 0hPa | 3V | 00:00:00 | 00:00:00 | 00:00:00 | |
| DL2RXE-15 | 2026-08-30 11:00:12 | 52.25027 | 14.29360 | 72° | 53km/h | 4755m | 5.0m/s | 0°C | 0% | 569.2hPa | 3V | 00:00:00 | 00:00:00 | 00:00:00 | |
| DB0DAN | 2026-08-30 11:00:10 | 52.25012 | 14.29289 | 70° | 64km/h | 4740m | 4.3m/s | -4.6°C | 8.5% | 570.24hPa | 3V | 00:00:00 | 00:00:00 | 00:00:00 | |
| S3001 | 2026-08-30 11:00:07 | 52.24997 | 14.29210 | 76° | 62km/h | 4727m | 4.5m/s | -4.5°C | 8.4% | 571.0hPa | 3V | 00:00:00 | 00:00:00 | 00:00:00 | |
| EDDB2-11 | 2026-08-30 11:00:05 | 52.24993 | 14.29162 | 86° | 53km/h | 4717m | 4.3m/s | -4.4°C | 8.4% | 571.8hPa | 3V | 00:00:00 | 00:00:00 | 00:00:00 | |
| DB0DAN | 2026-08-30 10:59:55 | 52.24955 | 14.28941 | 62° | 57km/h | 4654m | 5.2m/s | -3.9°C | 8.7% | 576.32hPa | 3V | 00:00:00 | 00:00:00 | 00:00:00 | |
| SONDE2-12 | 2026-08-30 10:59:49 | 52.24918 | 14.28763 | 83° | 57km/h | 4615m | 5.6m/s | -3.6°C | 9.6% | 579.3hPa | 3V | 00:00:00 | 00:00:00 | 00:00:00 | |
| SONDE2-11 | 2026-08-30 10:59:48 | 52.24918 | 14.28763 | 83° | 57km/h | 4615m | 5.6m/s | -3.6°C | 9.4% | 579.3hPa | 3V | 00:00:00 | 00:00:00 | 00:00:00 | |
| DB0DAN | 2026-08-30 10:59:40 | 52.24898 | 14.28566 | 69° | 53km/h | 4570m | 6m/s | -3.3°C | 10.4% | 582.61hPa | 3V | 00:00:00 | 00:00:00 | 00:00:00 | |
| 13BRC | 2026-08-30 10:59:36 | 52.24884 | 14.28483 | 83° | 55km/h | 4545m | 5.5m/s | -3.1°C | 10.4% | 584.5hPa | 3V | 00:00:00 | 00:00:00 | 00:00:00 | |
| EDDB2-11 | 2026-08-30 10:59:34 | 52.24879 | 14.28436 | 77° | 58km/h | 4532m | 6.9m/s | -3.0°C | 10.3% | 585.4hPa | 3V | 00:00:00 | 00:00:00 | 00:00:00 | |
| DB0DAN | 2026-08-30 10:59:25 | 52.24836 | 14.28191 | 80° | 68km/h | 4489m | 5.5m/s | -2.8°C | 10.9% | 588.56hPa | 3V | 00:00:00 | 00:00:00 | 00:00:00 | |
| SONDE2-12 | 2026-08-30 10:59:18 | 52.24827 | 14.28012 | 76° | 44km/h | 4439m | 5.4m/s | -2.5°C | 11.8% | 592.2hPa | 3V | 00:00:00 | 00:00:00 | 00:00:00 | |
| SONDE2-11 | 2026-08-30 10:59:17 | 52.24827 | 14.28012 | 76° | 44km/h | 4439m | 5.4m/s | -2.5°C | 11.6% | 592.2hPa | 3V | 00:00:00 | 00:00:00 | 00:00:00 | |
| 13BRC | 2026-08-30 10:59:15 | 52.24823 | 14.27974 | 83° | 47km/h | 4428m | 6.7m/s | -2.4°C | 11.5% | 593.0hPa | 3V | 00:00:00 | 00:00:00 | 00:00:00 | |
| DB0DAN | 2026-08-30 10:59:10 | 52.24820 | 14.27863 | 89° | 55km/h | 4400m | 5.4m/s | -2.1°C | 11.4% | 595.14hPa | 3V | 00:00:00 | 00:00:00 | 00:00:00 | |
| EDDB2-12 | 2026-08-30 10:59:09 | 52.24820 | 14.27839 | 89° | 55km/h | 4395m | 5.1m/s | -2.1°C | 11.5% | 595.5hPa | 3V | 00:00:00 | 00:00:00 | 00:00:00 | |
| S3001 | 2026-08-30 10:59:05 | 52.24812 | 14.27741 | 74° | 47km/h | 4367m | 5.4m/s | -1.9°C | 11.4% | 597.7hPa | 3V | 00:00:00 | 00:00:00 | 00:00:00 | |
| EDDB2-11 | 2026-08-30 10:59:03 | 52.24808 | 14.27721 | 74° | 53km/h | 4361m | 5.1m/s | -1.8°C | 11.4% | 598.1hPa | 3V | 00:00:00 | 00:00:00 | 00:00:00 | |
| DB0DAN | 2026-08-30 10:58:55 | 52.24791 | 14.27531 | 73° | 49km/h | 4313m | 5.2m/s | -1.5°C | 11.2% | 601.77hPa | 3V | 00:00:00 | 00:00:00 | 00:00:00 | |
| SONDE2-12 | 2026-08-30 10:58:47 | 52.24737 | 14.27317 | 77° | 71km/h | 4264m | 4.4m/s | -1.1°C | 9.0% | 605.4hPa | 3V | 00:00:00 | 00:00:00 | 00:00:00 | |
| SONDE2-11 | 2026-08-30 10:58:46 | 52.24737 | 14.27317 | 77° | 71km/h | 4264m | 4.4m/s | -1.1°C | 8.9% | 605.4hPa | 3V | 00:00:00 | 00:00:00 | 00:00:00 | |
| DB0DAN | 2026-08-30 10:58:40 | 52.24711 | 14.27166 | 69° | 60km/h | 4231m | 5.4m/s | -1.1°C | 10% | 607.99hPa | 3V | 00:00:00 | 00:00:00 | 00:00:00 | |
| EDDB2-12 | 2026-08-30 10:58:38 | 52.24701 | 14.27117 | 73° | 64km/h | 4221m | 5.0m/s | -1.0°C | 10.0% | 608.7hPa | 3V | 00:00:00 | 00:00:00 | 00:00:00 | |
| DL2RXE-15 | 2026-08-30 10:58:35 | 52.24692 | 14.27065 | 77° | 66km/h | 4211m | 3.7m/s | 0°C | 0% | 609.5hPa | 3V | 00:00:00 | 00:00:00 | 00:00:00 | |
| EDDB2-11 | 2026-08-30 10:58:32 | 52.24676 | 14.26952 | 75° | 77km/h | 4192m | 4.7m/s | -0.7°C | 9.6% | 610.9hPa | 3V | 00:00:00 | 00:00:00 | 00:00:00 | |
| DB0DAN | 2026-08-30 10:58:25 | 52.24636 | 14.26759 | 70° | 53km/h | 4163m | 5.2m/s | -0.5°C | 9.2% | 613.18hPa | 3V | 00:00:00 | 00:00:00 | 00:00:00 | |
| SONDE2-12 | 2026-08-30 10:58:16 | 52.24589 | 14.26547 | 72° | 75km/h | 4107m | 6.6m/s | -0.1°C | 5.8% | 617.4hPa | 3V | 00:00:00 | 00:00:00 | 00:00:00 | |
| SONDE2-11 | 2026-08-30 10:58:15 | 52.24589 | 14.26547 | 72° | 75km/h | 4107m | 6.6m/s | -0.1°C | 5.7% | 617.4hPa | 3V | 00:00:00 | 00:00:00 | 00:00:00 | |
| DL2RXE-15 | 2026-08-30 10:58:14 | 52.24590 | 14.26547 | 73° | 77km/h | 4107m | 6.6m/s | 0°C | 0% | 0hPa | 3V | 00:00:00 | 00:00:00 | 00:00:00 | |
| DB0DAN | 2026-08-30 10:58:10 | 52.24566 | 14.26388 | 78° | 73km/h | 4079m | 4.1m/s | 0.1°C | 4.5% | 619.62hPa | 3V | 00:00:00 | 00:00:00 | 00:00:00 | |
| EDDB2-12 | 2026-08-30 10:58:07 | 52.24559 | 14.26302 | 86° | 62km/h | 4063m | 4.9m/s | 0.2°C | 4.5% | 620.8hPa | 3V | 00:00:00 | 00:00:00 | 00:00:00 | |
| 13BRC | 2026-08-30 10:57:53 | 52.24471 | 14.25910 | 71° | 75km/h | 3983m | 7.4m/s | 0.8°C | 3.9% | 627.1hPa | 3V | 00:00:00 | 00:00:00 | 00:00:00 | |
| DL2RXE-15 | 2026-08-30 10:57:46 | 52.24452 | 14.25784 | 75° | 49km/h | 3951m | 5.1m/s | 0°C | 0% | 629.7hPa | 3V | 00:00:00 | 00:00:00 | 00:00:00 | |
| SP3BTT-10 | 2026-08-30 10:57:45 | 52.24445 | 14.25747 | 77° | 64km/h | 3941m | 5.8m/s | 0°C | 0% | 0hPa | 3V | 00:00:00 | 00:00:00 | 08:30:00 | |
| SONDE2-11 | 2026-08-30 10:57:44 | 52.24443 | 14.25727 | 77° | 51km/h | 3935m | 6.1m/s | 0.9°C | 3.8% | 630.9hPa | 3V | 00:00:00 | 00:00:00 | 00:00:00 | |
| DB0DAN | 2026-08-30 10:57:40 | 52.24437 | 14.25634 | 85° | 57km/h | 3915m | 4.6m/s | 1°C | 3.8% | 632.51hPa | 3V | 00:00:00 | 00:00:00 | 00:00:00 | |
| EDDB2-12 | 2026-08-30 10:57:36 | 52.24426 | 14.25541 | 71° | 58km/h | 3893m | 6.9m/s | 1.2°C | 3.8% | 634.2hPa | 3V | 00:00:00 | 00:00:00 | 00:00:00 | |
| 13BRC | 2026-08-30 10:57:31 | 52.24401 | 14.25438 | 73° | 68km/h | 3871m | 4.1m/s | 1.3°C | 3.8% | 635.9hPa | 3V | 00:00:00 | 00:00:00 | 00:00:00 | |
| EDDB2-11 | 2026-08-30 10:57:30 | 52.24387 | 14.25364 | 75° | 57km/h | 3859m | 3.9m/s | 1.3°C | 4.0% | 636.8hPa | 3V | 00:00:00 | 00:00:00 | 00:00:00 | |
| DB0DAN | 2026-08-30 10:57:25 | 52.24375 | 14.25278 | 74° | 53km/h | 3845m | 4m/s | 1.5°C | 4% | 637.84hPa | 3V | 00:00:00 | 00:00:00 | 00:00:00 | |
| SONDE2-12 | 2026-08-30 10:57:20 | 52.24303 | 14.24966 | 64° | 68km/h | 3787m | 5.1m/s | 1.6°C | 4.1% | 642.5hPa | 3V | 00:00:00 | 00:00:00 | 00:00:00 | |
| SONDE2-11 | 2026-08-30 10:57:18 | 52.24303 | 14.24966 | 64° | 68km/h | 3787m | 5.1m/s | 1.6°C | 4.0% | 642.5hPa | 3V | 00:00:00 | 00:00:00 | 00:00:00 | |
| 13BRC | 2026-08-30 10:57:15 | 52.24288 | 14.24910 | 70° | 77km/h | 3778m | 5.8m/s | 1.5°C | 3.8% | 643.3hPa | 3V | 00:00:00 | 00:00:00 | 00:00:00 | |
| EDDB2-12 | 2026-08-30 10:57:09 | 52.24254 | 14.24761 | 59° | 64km/h | 3748m | 4.2m/s | 1.4°C | 3.9% | 645.7hPa | 3V | 00:00:00 | 00:00:00 | 00:00:00 | |
| S3001 | 2026-08-30 10:57:01 | 52.24221 | 14.24619 | 79° | 71km/h | 3724m | 4.8m/s | 0°C | -1.0% | 647.7hPa | 3V | 00:00:00 | 00:00:00 | 00:00:00 | |
| EDDB2-11 | 2026-08-30 10:56:59 | 52.24214 | 14.24565 | 74° | 64km/h | 3714m | 4.8m/s | 0.7°C | 7.0% | 648.6hPa | 3V | 00:00:00 | 00:00:00 | 00:00:00 | |
| DL2RXE-15 | 2026-08-30 10:56:57 | 52.24214 | 14.24565 | 76° | 64km/h | 3714m | 4.8m/s | 0°C | 0% | 648.6hPa | 3V | 00:00:00 | 00:00:00 | 00:00:00 | |
| DB0DAN | 2026-08-30 10:56:55 | 52.24196 | 14.24493 | 61° | 60km/h | 3700m | 4.3m/s | 0.3°C | 8.9% | 649.66hPa | 3V | 00:00:00 | 00:00:00 | 00:00:00 | |
| SONDE2-12 | 2026-08-30 10:56:42 | 52.24127 | 14.24179 | 73° | 51km/h | 3636m | 5.1m/s | -0.3°C | 14.1% | 654.7hPa | 3V | 00:00:00 | 00:00:00 | 00:00:00 | |
| DB0DAN | 2026-08-30 10:56:40 | 52.24116 | 14.24138 | 63° | 57km/h | 3627m | 3.9m/s | -0.2°C | 14.6% | 655.61hPa | 3V | 00:00:00 | 00:00:00 | 00:00:00 | |
| DL2RXE-15 | 2026-08-30 10:56:36 | 52.24097 | 14.24060 | 73° | 71km/h | 3614m | 4.8m/s | 0°C | 0% | 0hPa | 3V | 00:00:00 | 00:00:00 | 00:00:00 | |
| EDDB2-12 | 2026-08-30 10:56:34 | 52.24086 | 14.23978 | 82° | 60km/h | 3601m | 4.1m/s | -0.6°C | 18.4% | 657.7hPa | 3V | 00:00:00 | 00:00:00 | 00:00:00 | |
| SP3BTT-10 | 2026-08-30 10:56:29 | 52.24061 | 14.23867 | 58° | 68km/h | 3578m | 4.2m/s | 0°C | 0% | 0hPa | 3V | 00:00:00 | 00:00:00 | 00:00:00 | |
| DB0DAN | 2026-08-30 10:56:25 | 52.24030 | 14.23765 | 73° | 64km/h | 3562m | 5.4m/s | -0.7°C | 20.4% | 660.9hPa | 3V | 00:00:00 | 00:00:00 | 00:00:00 | |
| SONDE2-12 | 2026-08-30 10:56:11 | 52.23991 | 14.23379 | 74° | 73km/h | 3498m | 5.2m/s | -0.5°C | 21.6% | 666.1hPa | 3V | 00:00:00 | 00:00:00 | 00:00:00 | |
| DB0DAN | 2026-08-30 10:56:10 | 52.23986 | 14.23351 | 72° | 64km/h | 3494m | 3.9m/s | -0.5°C | 22.1% | 666.43hPa | 3V | 00:00:00 | 00:00:00 | 00:00:00 | |
| 13BRC | 2026-08-30 10:56:08 | 52.23981 | 14.23326 | 74° | 62km/h | 3490m | 3.8m/s | -0.5°C | 24.4% | 666.8hPa | 3V | 00:00:00 | 00:00:00 | 00:00:00 | |
| EDDB2-12 | 2026-08-30 10:56:03 | 52.23948 | 14.23179 | 66° | 77km/h | 3459m | 3.7m/s | -0.4°C | 24.4% | 669.5hPa | 3V | 00:00:00 | 00:00:00 | 00:00:00 | |
| EDDB2-11 | 2026-08-30 10:55:57 | 52.23906 | 14.22996 | 57° | 57km/h | 3425m | 5.0m/s | -0.4°C | 23.0% | 672.2hPa | 3V | 00:00:00 | 00:00:00 | 00:00:00 | |
| DB0DAN | 2026-08-30 10:55:55 | 52.23897 | 14.22976 | 55° | 58km/h | 3421m | 4m/s | -0.4°C | 24.5% | 672.62hPa | 3V | 00:00:00 | 00:00:00 | 00:00:00 | |
| 13BRC | 2026-08-30 10:55:48 | 52.23845 | 14.22791 | 76° | 60km/h | 3391m | 4.1m/s | -0.2°C | 30.7% | 675.2hPa | 3V | 00:00:00 | 00:00:00 | 00:00:00 | |
| DB0DAN | 2026-08-30 10:55:40 | 52.23797 | 14.22618 | 72° | 62km/h | 3353m | 4.9m/s | -0.1°C | 42.5% | 678.49hPa | 3V | 00:00:00 | 00:00:00 | 00:00:00 | |
| SONDE2-11 | 2026-08-30 10:55:40 | 52.23797 | 14.22618 | 72° | 64km/h | 3353m | 4.9m/s | -0.1°C | 42.5% | 678.5hPa | 3V | 00:00:00 | 00:00:00 | 00:00:00 | |
| DL2RXE-15 | 2026-08-30 10:55:37 | 52.23788 | 14.22568 | 76° | 60km/h | 3343m | 5.7m/s | 0°C | 0% | 0hPa | 3V | 00:00:00 | 00:00:00 | 00:00:00 | |
| EDDB2-12 | 2026-08-30 10:55:32 | 52.23751 | 14.22425 | 70° | 68km/h | 3313m | 5.3m/s | 0.0°C | 51.3% | 681.9hPa | 3V | 00:00:00 | 00:00:00 | 00:00:00 | |
| SP3BTT-10 | 2026-08-30 10:55:29 | 52.23737 | 14.22353 | 72° | 57km/h | 3298m | 5.7m/s | 0°C | 0% | 0hPa | 3V | 00:00:00 | 00:00:00 | 00:00:00 | |
| 13BRC | 2026-08-30 10:55:27 | 52.23732 | 14.22332 | 65° | 53km/h | 3293m | 4.9m/s | 0.1°C | 50.0% | 683.5hPa | 3V | 00:00:00 | 00:00:00 | 00:00:00 | |
| DB0DAN | 2026-08-30 10:55:25 | 52.23710 | 14.22269 | 63° | 62km/h | 3278m | 4.9m/s | 0.2°C | 52.3% | 684.86hPa | 3V | 00:00:00 | 00:00:00 | 00:00:00 | |
| DAC517 | 2026-08-30 10:55:22 | 52.23697 | 14.22219 | 72° | 64km/h | 3268m | 5.2m/s | 0°C | 0% | 0hPa | 3V | 00:00:00 | 00:00:00 | 00:00:00 | |
| DB0DAN | 2026-08-30 10:55:10 | 52.23642 | 14.21936 | 70° | 47km/h | 3201m | 4.7m/s | 0.7°C | 57% | 691.51hPa | 3V | 00:00:00 | 00:00:00 | 00:00:00 | |
| SONDE2-11 | 2026-08-30 10:55:09 | 52.23637 | 14.21917 | 65° | 49km/h | 3196m | 6.0m/s | 0.9°C | 50.6% | 692.0hPa | 3V | 00:00:00 | 00:00:00 | 00:00:00 | |
| 13BRC | 2026-08-30 10:55:06 | 52.23624 | 14.21874 | 68° | 62km/h | 3185m | 5.6m/s | 0.8°C | 54.8% | 692.9hPa | 3V | 00:00:00 | 00:00:00 | 00:00:00 | |
| DL2RXE-15 | 2026-08-30 10:55:04 | 52.23614 | 14.21823 | 77° | 64km/h | 3174m | 6.4m/s | 0°C | 0% | 0hPa | 3V | 00:00:00 | 00:00:00 | 00:00:00 | |
| EDDB2-12 | 2026-08-30 10:55:01 | 52.23604 | 14.21734 | 75° | 47km/h | 3153m | 5.7m/s | 1.1°C | 0% | 695.7hPa | 3V | 00:00:00 | 00:00:00 | 00:00:00 | |
| DAC517 | 2026-08-30 10:55:00 | 52.23604 | 14.21734 | 76° | 47km/h | 3153m | 5.7m/s | 0°C | 0% | 0hPa | 3V | 00:00:00 | 00:00:00 | 00:00:00 | |
| DB0DAN | 2026-08-30 10:54:55 | 52.23577 | 14.21605 | 77° | 49km/h | 3116m | 6.4m/s | 1.3°C | 58.8% | 698.88hPa | 3V | 00:00:00 | 00:00:00 | 00:00:00 | |
| EDDB2-11 | 2026-08-30 10:54:55 | 52.23574 | 14.21585 | 74° | 49km/h | 3110m | 5.9m/s | 1.3°C | 59.0% | 699.6hPa | 3V | 00:00:00 | 00:00:00 | 00:00:00 | |
| 13BRC | 2026-08-30 10:54:45 | 52.23543 | 14.21401 | 82° | 57km/h | 3064m | 5.5m/s | 1.6°C | 62.8% | 703.4hPa | 3V | 00:00:00 | 00:00:00 | 00:00:00 | |
| SP3BTT-10 | 2026-08-30 10:54:44 | 52.23537 | 14.21359 | 74° | 57km/h | 3053m | 6.2m/s | 0°C | 0% | 0hPa | 3V | 00:00:00 | 00:00:00 | 00:00:00 | |
| DL2RXE-15 | 2026-08-30 10:54:43 | 52.23537 | 14.21359 | 74° | 51km/h | 3053m | 6.2m/s | 0°C | 0% | 0hPa | 3V | 00:00:00 | 00:00:00 | 00:00:00 | |
| SONDE2-11 | 2026-08-30 10:54:41 | 52.23514 | 14.21199 | 81° | 49km/h | 3012m | 5.2m/s | 1.7°C | 68.8% | 708.1hPa | 3V | 00:00:00 | 00:00:00 | 00:00:00 | |
| EDDB2-12 | 2026-08-30 10:54:30 | 52.23486 | 14.21043 | 80° | 55km/h | 2975m | 5.5m/s | 1.9°C | 70.8% | 711.2hPa | 3V | 00:00:00 | 00:00:00 | 00:00:00 | |
| DB0DAN | 2026-08-30 10:54:25 | 52.23468 | 14.20941 | 71° | 55km/h | 2943m | 6.2m/s | 2.1°C | 72.3% | 714.01hPa | 3V | 00:00:00 | 00:00:00 | 00:00:00 | |
| 13BRC | 2026-08-30 10:54:24 | 52.23468 | 14.20940 | 72° | 58km/h | 2943m | 6.2m/s | 2.1°C | 72.3% | 714.0hPa | 3V | 00:00:00 | 00:00:00 | 00:00:00 | |
| DL2RXE-15 | 2026-08-30 10:54:23 | 52.23464 | 14.20917 | 77° | 62km/h | 2938m | 5.3m/s | 0°C | 0% | 0hPa | 3V | 00:00:00 | 00:00:00 | 00:00:00 | |
| SP3BTT-10 | 2026-08-30 10:54:14 | 52.23444 | 14.20695 | 78° | 60km/h | 2880m | 8.1m/s | 0°C | 0% | 0hPa | 3V | 00:00:00 | 00:00:00 | 00:00:00 | |
| DB0DAN | 2026-08-30 10:54:10 | 52.23430 | 14.20614 | 64° | 47km/h | 2851m | 5.5m/s | 2.4°C | 83.6% | 722.19hPa | 3V | 00:00:00 | 00:00:00 | 00:00:00 | |
| SONDE2-11 | 2026-08-30 10:54:07 | 52.23410 | 14.20542 | 77° | 46km/h | 2827m | 5.7m/s | 2.5°C | 83.5% | 724.3hPa | 3V | 00:00:00 | 00:00:00 | 00:00:00 | |
| 13BRC | 2026-08-30 10:54:03 | 52.23406 | 14.20503 | 85° | 46km/h | 2815m | 7.3m/s | 2.5°C | 84.8% | 725.3hPa | 3V | 00:00:00 | 00:00:00 | 00:00:00 | |
| DL2RXE-15 | 2026-08-30 10:54:02 | 52.23405 | 14.20485 | 83° | 44km/h | 2808m | 6.7m/s | 0°C | 0% | 0hPa | 3V | 00:00:00 | 00:00:00 | 00:00:00 | |
| EDDB2-12 | 2026-08-30 10:53:59 | 52.23394 | 14.20412 | 67° | 47km/h | 2786m | 5.6m/s | 2.7°C | 84.2% | 728.0hPa | 3V | 00:00:00 | 00:00:00 | 00:00:00 | |
| DB0DAN | 2026-08-30 10:53:55 | 52.23373 | 14.20322 | 75° | 60km/h | 2765m | 6m/s | 2.9°C | 83.9% | 729.88hPa | 3V | 00:00:00 | 00:00:00 | 00:00:00 | |
| EDDB2-11 | 2026-08-30 10:53:53 | 52.23364 | 14.20249 | 75° | 55km/h | 2746m | 6.3m/s | 3.0°C | 83.7% | 731.6hPa | 3V | 00:00:00 | 00:00:00 | 00:00:00 | |
| SP3BTT-10 | 2026-08-30 10:53:44 | 52.23328 | 14.20050 | 87° | 55km/h | 2702m | 5.1m/s | 0°C | 0% | 0hPa | 3V | 00:00:00 | 00:00:00 | 00:00:00 | |
| 13BRC | 2026-08-30 10:53:42 | 52.23327 | 14.20027 | 85° | 53km/h | 2697m | 5.3m/s | 3.4°C | 0% | 736.2hPa | 3V | 00:00:00 | 00:00:00 | 00:00:00 | |
| DB0DAN | 2026-08-30 10:53:40 | 52.23317 | 14.19962 | 71° | 58km/h | 2679m | 6.8m/s | 3.6°C | 82.2% | 737.65hPa | 3V | 00:00:00 | 00:00:00 | 00:00:00 | |
| SONDE2-11 | 2026-08-30 10:53:36 | 52.23297 | 14.19830 | 84° | 62km/h | 2649m | 4.5m/s | 3.8°C | 81.8% | 740.3hPa | 3V | 00:00:00 | 00:00:00 | 00:00:00 | |
| DB0DAN | 2026-08-30 10:53:25 | 52.23247 | 14.19621 | 75° | 47km/h | 2591m | 5.7m/s | 4.3°C | 79.3% | 0hPa | 3V | 00:00:00 | 00:00:00 | 00:00:00 | |
| EDDB2-11 | 2026-08-30 10:53:22 | 52.23238 | 14.19527 | 78° | 66km/h | 2569m | 6.7m/s | 4.5°C | 78.7% | 747.7hPa | 3V | 00:00:00 | 00:00:00 | 00:00:00 | |
| DB0DAN | 2026-08-30 10:53:10 | 52.23180 | 14.19281 | 82° | 58km/h | 2506m | 7.6m/s | 4.9°C | 0% | 0hPa | 3V | 00:00:00 | 00:00:00 | 00:00:00 | |
| SONDE2-11 | 2026-08-30 10:53:05 | 52.23150 | 14.19152 | 57° | 47km/h | 2466m | 6.2m/s | 5.3°C | 80.5% | 757.2hPa | 3V | 00:00:00 | 00:00:00 | 00:00:00 | |
| EDDB2-12 | 2026-08-30 10:52:57 | 52.23113 | 14.18987 | 79° | 60km/h | 2418m | 7.5m/s | 5.7°C | 79.4% | 761.7hPa | 3V | 00:00:00 | 00:00:00 | 00:00:00 | |
| EDDB2-11 | 2026-08-30 10:52:51 | 52.23089 | 14.18857 | 81° | 49km/h | 2381m | 7.4m/s | 5.9°C | 82.3% | 765.0hPa | 3V | 00:00:00 | 00:00:00 | 00:00:00 | |
| DB0DAN | 2026-08-30 10:52:40 | 52.23059 | 14.18616 | 80° | 55km/h | 2322m | 7.2m/s | 0°C | 0% | 0hPa | 3V | 00:00:00 | 00:00:00 | 00:00:00 | |
| SONDE2-11 | 2026-08-30 10:52:34 | 52.23029 | 14.18464 | 77° | 47km/h | 2279m | 6.9m/s | 6.3°C | 89.0% | 774.9hPa | 0V | 00:00:00 | 00:00:00 | 00:00:00 | |
| SP3BTT-10 | 2026-08-30 10:52:28 | 52.23007 | 14.18357 | 64° | 51km/h | 2249m | 6.4m/s | 0°C | 0% | 0hPa | 0V | 00:00:00 | 00:00:00 | 00:00:00 | |
| EDDB2-12 | 2026-08-30 10:52:26 | 52.22994 | 14.18301 | 77° | 49km/h | 2230m | 5.0m/s | 6.8°C | 87.1% | 779.5hPa | 0V | 00:00:00 | 00:00:00 | 00:00:00 | |
| EDDB2-11 | 2026-08-30 10:52:19 | 52.22965 | 14.18167 | 64° | 51km/h | 2197m | 5.0m/s | 6.8°C | 90.0% | 782.5hPa | 0V | 00:00:00 | 00:00:00 | 00:00:00 | |
| DL2RXE-15 | 2026-08-30 10:52:18 | 52.22965 | 14.18167 | 65° | 53km/h | 2197m | 5.0m/s | 0°C | 0% | 0hPa | 0V | 00:00:00 | 00:00:00 | 00:00:00 | |
| SONDE2-11 | 2026-08-30 10:52:03 | 52.22906 | 14.17811 | 79° | 55km/h | 2093m | 6.7m/s | 7.4°C | 91.5% | 792.4hPa | 0V | 00:00:00 | 00:00:00 | 00:00:00 | |
| EDDB2-12 | 2026-08-30 10:51:55 | 52.22877 | 14.17665 | 85° | 44km/h | 2048m | 6.5m/s | 7.8°C | 90.7% | 796.6hPa | 0V | 00:00:00 | 00:00:00 | 00:00:00 | |
| EDDB2-11 | 2026-08-30 10:51:48 | 52.22856 | 14.17539 | 61° | 49km/h | 2016m | 6.0m/s | 8.0°C | 91.4% | 799.6hPa | 0V | 00:00:00 | 00:00:00 | 00:00:00 | |
| SONDE2-12 | 2026-08-30 10:51:32 | 52.22785 | 14.17252 | 69° | 58km/h | 1924m | 5.5m/s | 8.7°C | 90.0% | 808.8hPa | 0V | 00:00:00 | 00:00:00 | 00:00:00 | |
| SONDE2-11 | 2026-08-30 10:51:32 | 52.22779 | 14.17229 | 66° | 60km/h | 1918m | 6.5m/s | 8.8°C | 88.8% | 809.5hPa | 0V | 00:00:00 | 00:00:00 | 00:00:00 | |
| EDDB2-12 | 2026-08-30 10:51:24 | 52.22737 | 14.17087 | 70° | 49km/h | 1872m | 6.1m/s | 8.4°C | 98.3% | 814.0hPa | 0V | 00:00:00 | 00:00:00 | 00:00:00 | |
| SONDE2-12 | 2026-08-30 10:51:01 | 52.22642 | 14.16719 | 74° | 35km/h | 1740m | 7.2m/s | 9.5°C | 95.3% | 827.1hPa | 0V | 00:00:00 | 00:00:00 | 00:00:00 | |
| SONDE2-11 | 2026-08-30 10:51:00 | 52.22641 | 14.16703 | 82° | 42km/h | 1733m | 5.9m/s | 9.6°C | 93.4% | 827.8hPa | 0V | 00:00:00 | 00:00:00 | 00:00:00 | |
| EDDB2-12 | 2026-08-30 10:50:53 | 52.22615 | 14.16557 | 69° | 31km/h | 1688m | 6.2m/s | 10.1°C | 91.3% | 832.2hPa | 0V | 00:00:00 | 00:00:00 | 00:00:00 | |
| EDDB2-11 | 2026-08-30 10:50:46 | 52.22582 | 14.16470 | 67° | 51km/h | 1651m | 5.5m/s | 10.4°C | 89.9% | 835.9hPa | 0V | 00:00:00 | 00:00:00 | 00:00:00 | |
| SONDE2-12 | 2026-08-30 10:50:30 | 52.22529 | 14.16214 | 51° | 40km/h | 1570m | 5.6m/s | 11.0°C | 90.3% | 844.1hPa | 0V | 00:00:00 | 00:00:00 | 00:00:00 | |
| SONDE2-11 | 2026-08-30 10:50:29 | 52.22523 | 14.16202 | 51° | 33km/h | 1564m | 4.9m/s | 11.0°C | 90.3% | 844.7hPa | 0V | 00:00:00 | 00:00:00 | 00:00:00 | |
| DAC517 | 2026-08-30 10:50:26 | 52.22506 | 14.16168 | 55° | 40km/h | 1549m | 5.8m/s | 0°C | 0% | 0hPa | 0V | 00:00:00 | 00:00:00 | 00:00:00 | |
| EDDB2-12 | 2026-08-30 10:50:21 | 52.22484 | 14.16082 | 71° | 44km/h | 1519m | 7.7m/s | 11.5°C | 86.3% | 849.0hPa | 0V | 00:00:00 | 00:00:00 | 00:00:00 | |
| SONDE2-12 | 2026-08-30 10:49:59 | 52.22375 | 14.15723 | 59° | 49km/h | 1404m | 4.6m/s | 12.4°C | 86.8% | 860.8hPa | 0V | 00:00:00 | 00:00:00 | 00:00:00 | |
| SONDE2-11 | 2026-08-30 10:49:58 | 52.22369 | 14.15705 | 61° | 46km/h | 1399m | 4.6m/s | 12.4°C | 85.8% | 861.4hPa | 0V | 00:00:00 | 00:00:00 | 00:00:00 | |
| EDDB2-12 | 2026-08-30 10:49:50 | 52.22331 | 14.15578 | 48° | 35km/h | 1362m | 3.4m/s | 12.7°C | 84.8% | 865.2hPa | 0V | 00:00:00 | 00:00:00 | 00:00:00 | |
| SONDE2-12 | 2026-08-30 10:49:28 | 52.22207 | 14.15253 | 54° | 26km/h | 1269m | 4.6m/s | 13.5°C | 83.0% | 874.9hPa | 0V | 00:00:00 | 00:00:00 | 00:00:00 | |
| SONDE2-11 | 2026-08-30 10:49:27 | 52.22204 | 14.15243 | 69° | 26km/h | 1265m | 2.7m/s | 13.5°C | 82.2% | 875.4hPa | 0V | 00:00:00 | 00:00:00 | 00:00:00 | |
| EDDB2-12 | 2026-08-30 10:49:19 | 52.22180 | 14.15137 | 66° | 29km/h | 1233m | 4.0m/s | 13.7°C | 81.4% | 878.7hPa | 0V | 00:00:00 | 00:00:00 | 00:00:00 | |
| SONDE2-12 | 2026-08-30 10:48:57 | 52.22088 | 14.14848 | 54° | 35km/h | 1126m | 6.4m/s | 14.7°C | 78.2% | 889.9hPa | 0V | 00:00:00 | 00:00:00 | 00:00:00 | |
| SONDE2-11 | 2026-08-30 10:48:56 | 52.22083 | 14.14836 | 57° | 31km/h | 1119m | 6.3m/s | 14.8°C | 77.4% | 890.6hPa | 0V | 00:00:00 | 00:00:00 | 00:00:00 | |
| EDDB2-12 | 2026-08-30 10:48:48 | 52.22044 | 14.14733 | 49° | 38km/h | 1079m | 6.0m/s | 15.2°C | 75.6% | 894.6hPa | 0V | 00:00:00 | 00:00:00 | 00:00:00 | |
| SONDE2-12 | 2026-08-30 10:48:26 | 52.21942 | 14.14455 | 53° | 31km/h | 968m | 4.4m/s | 16.2°C | -1.0% | 906.5hPa | 0V | 00:00:00 | 00:00:00 | 00:00:00 | |
| SONDE2-11 | 2026-08-30 10:48:25 | 52.21937 | 14.14444 | 58° | 29km/h | 963m | 5.4m/s | 16.3°C | 71.9% | 907.0hPa | 0V | 00:00:00 | 00:00:00 | 00:00:00 | |
| EDDB2-12 | 2026-08-30 10:48:17 | 52.21892 | 14.14322 | 52° | 44km/h | 923m | 4.8m/s | 16.6°C | 70.7% | 911.4hPa | 0V | 00:00:00 | 00:00:00 | 00:00:00 | |
| EDDB2-11 | 2026-08-30 10:48:11 | 52.21861 | 14.14240 | 63° | 46km/h | 897m | 4.1m/s | 16.9°C | 69.8% | 914.2hPa | 0V | 00:00:00 | 00:00:00 | 00:00:00 | |
| SONDE2-12 | 2026-08-30 10:47:55 | 52.21770 | 14.14013 | 67° | 35km/h | 821m | 5.4m/s | 17.6°C | -1.0% | -1.0hPa | 0V | 00:00:00 | 00:00:00 | 00:00:00 | |
| SONDE2-11 | 2026-08-30 10:47:54 | 52.21766 | 14.13999 | 67° | 40km/h | 816m | 3.7m/s | 17.6°C | 67.7% | 922.6hPa | 0V | 00:00:00 | 00:00:00 | 00:00:00 | |
| EDDB2-12 | 2026-08-30 10:47:46 | 52.21722 | 14.13882 | 67° | 37km/h | 781m | 4.7m/s | 17.9°C | 67.2% | 926.4hPa | 0V | 00:00:00 | 00:00:00 | 00:00:00 | |
| EDDB2-11 | 2026-08-30 10:47:40 | 52.21695 | 14.13772 | 55° | 51km/h | 752m | 4.0m/s | 18.2°C | 66.2% | 929.7hPa | 0V | 00:00:00 | 00:00:00 | 00:00:00 | |
| SONDE2-12 | 2026-08-30 10:47:24 | 52.21517 | 14.13342 | 57° | 55km/h | 620m | 5.2m/s | 0°C | -1.0% | -1.0hPa | 0V | 00:00:00 | 00:00:00 | 00:00:00 | |
| SONDE2-11 | 2026-08-30 10:47:23 | 52.21590 | 14.13534 | 47° | 35km/h | 675m | 4.5m/s | 18.9°C | 63.8% | 938.0hPa | 0V | 00:00:00 | 00:00:00 | 00:00:00 | |
| EDDB2-12 | 2026-08-30 10:47:15 | 52.21546 | 14.13399 | 57° | 35km/h | 639m | 4.6m/s | 19.3°C | 62.8% | 941.9hPa | 0V | 00:00:00 | 00:00:00 | 00:00:00 | |
| EDDB2-11 | 2026-08-30 10:47:09 | 52.21505 | 14.13301 | 67° | 51km/h | 611m | 2.8m/s | 19.5°C | 62.0% | 945.0hPa | 0V | 00:00:00 | 00:00:00 | 00:00:00 | |
| SONDE2-11 | 2026-08-30 10:46:52 | 52.21394 | 14.13055 | 65° | 49km/h | 546m | 4.3m/s | 20.2°C | 60.2% | 952.6hPa | 0V | 00:00:00 | 00:00:00 | 00:00:00 | |
| EDDB2-12 | 2026-08-30 10:46:44 | 52.21350 | 14.12953 | 50° | 47km/h | 513m | 3.9m/s | 20.5°C | 59.1% | 956.6hPa | 0V | 00:00:00 | 00:00:00 | 00:00:00 | |
| EDDB2-11 | 2026-08-30 10:46:38 | 52.21313 | 14.12874 | 65° | 49km/h | 482m | 5.6m/s | 20.8°C | -1.0% | -1.0hPa | 0V | 00:00:00 | 00:00:00 | 00:00:00 | |
| SONDE2-11 | 2026-08-30 10:46:21 | 52.21214 | 14.12650 | 75° | 38km/h | 397m | 5.2m/s | 21.6°C | -1.0% | -1.0hPa | 0V | 00:00:00 | 00:00:00 | 00:00:00 | |
| EDDB2-12 | 2026-08-30 10:46:13 | 52.21155 | 14.12528 | 54° | 38km/h | 363m | 5.5m/s | 22.0°C | -1.0% | -1.0hPa | 0V | 00:00:00 | 00:00:00 | 00:00:00 | |
| EDDB2-11 | 2026-08-30 10:46:07 | 52.21125 | 14.12434 | 43° | 49km/h | 330m | 6.2m/s | 0°C | -1.0% | -1.0hPa | 0V | 00:00:00 | 00:00:00 | 00:00:00 | |
| SONDE2-11 | 2026-08-30 10:45:51 | 52.21000 | 14.12182 | 78° | 53km/h | 232m | 5.0m/s | 0°C | -1.0% | -1.0hPa | 0V | 00:00:00 | 00:00:00 | 00:00:00 |